<?xml version="1.0" encoding="UTF-8" standalone="no" ?>
<gpx xmlns="http://www.topografix.com/GPX/1/1" xmlns:xsi="http://www.w3.org/2001/XMLSchema-instance" xsi:schemaLocation="http://www.topografix.com/GPX/1/1 http://www.topografix.com/GPX/1/1/gpx.xsd" version="1.1" creator="VisuGPX - https://www.visugpx.com">
  <metadata>
    <name>Boucle départ Cressin Rochefort </name>
    <desc><![CDATA[Garé long du Rhône 
Un peu dénivelé au départ puis très galopant après Pollieu ]]></desc>
  </metadata>
  <trk>
    <name><![CDATA[Boucle départ Cressin Rochefort _1]]></name>
    <trkseg>
      <trkpt lat="45.78667" lon="5.77214">
        <ele>229</ele>
        <time>2018-10-14T11:54:25Z</time>
      </trkpt>
      <trkpt lat="45.78662" lon="5.77215">
        <ele>229</ele>
        <time>2018-10-14T11:54:25Z</time>
      </trkpt>
      <trkpt lat="45.78656" lon="5.77212">
        <ele>229</ele>
        <time>2018-10-14T11:54:25Z</time>
      </trkpt>
      <trkpt lat="45.7865" lon="5.77207">
        <ele>229</ele>
        <time>2018-10-14T11:54:25Z</time>
      </trkpt>
      <trkpt lat="45.78648" lon="5.77199">
        <ele>229</ele>
        <time>2018-10-14T11:54:25Z</time>
      </trkpt>
      <trkpt lat="45.78658" lon="5.77189">
        <ele>229</ele>
        <time>2018-10-14T11:54:57Z</time>
      </trkpt>
      <trkpt lat="45.7866" lon="5.77187">
        <ele>229</ele>
        <time>2018-10-14T11:54:57Z</time>
      </trkpt>
      <trkpt lat="45.78664" lon="5.77186">
        <ele>229</ele>
        <time>2018-10-14T11:54:57Z</time>
      </trkpt>
      <trkpt lat="45.7867" lon="5.77183">
        <ele>229</ele>
        <time>2018-10-14T11:54:57Z</time>
      </trkpt>
      <trkpt lat="45.78674" lon="5.77182">
        <ele>229</ele>
        <time>2018-10-14T11:54:57Z</time>
      </trkpt>
      <trkpt lat="45.78679" lon="5.77179">
        <ele>229</ele>
        <time>2018-10-14T11:55:13Z</time>
      </trkpt>
      <trkpt lat="45.78684" lon="5.77177">
        <ele>229</ele>
        <time>2018-10-14T11:55:13Z</time>
      </trkpt>
      <trkpt lat="45.78689" lon="5.77175">
        <ele>229</ele>
        <time>2018-10-14T11:55:13Z</time>
      </trkpt>
      <trkpt lat="45.78694" lon="5.77173">
        <ele>229</ele>
        <time>2018-10-14T11:55:13Z</time>
      </trkpt>
      <trkpt lat="45.78699" lon="5.77176">
        <ele>229</ele>
        <time>2018-10-14T11:55:57Z</time>
      </trkpt>
      <trkpt lat="45.78698" lon="5.77178">
        <ele>229</ele>
        <time>2018-10-14T11:55:57Z</time>
      </trkpt>
      <trkpt lat="45.78704" lon="5.77176">
        <ele>229</ele>
        <time>2018-10-14T11:55:57Z</time>
      </trkpt>
      <trkpt lat="45.78712" lon="5.77172">
        <ele>230</ele>
        <time>2018-10-14T11:55:57Z</time>
      </trkpt>
      <trkpt lat="45.78717" lon="5.77171">
        <ele>230</ele>
        <time>2018-10-14T11:55:57Z</time>
      </trkpt>
      <trkpt lat="45.78722" lon="5.77169">
        <ele>230</ele>
        <time>2018-10-14T11:56:13Z</time>
      </trkpt>
      <trkpt lat="45.78727" lon="5.77167">
        <ele>230</ele>
        <time>2018-10-14T11:56:13Z</time>
      </trkpt>
      <trkpt lat="45.78731" lon="5.77166">
        <ele>230</ele>
        <time>2018-10-14T11:56:13Z</time>
      </trkpt>
      <trkpt lat="45.78732" lon="5.77167">
        <ele>230</ele>
        <time>2018-10-14T11:56:13Z</time>
      </trkpt>
      <trkpt lat="45.78732" lon="5.77168">
        <ele>230</ele>
        <time>2018-10-14T11:56:41Z</time>
      </trkpt>
      <trkpt lat="45.78731" lon="5.77168">
        <ele>230</ele>
        <time>2018-10-14T11:56:41Z</time>
      </trkpt>
      <trkpt lat="45.78734" lon="5.77164">
        <ele>230</ele>
        <time>2018-10-14T11:56:41Z</time>
      </trkpt>
      <trkpt lat="45.78739" lon="5.7716">
        <ele>230</ele>
        <time>2018-10-14T11:56:41Z</time>
      </trkpt>
      <trkpt lat="45.78743" lon="5.77161">
        <ele>230</ele>
        <time>2018-10-14T11:56:41Z</time>
      </trkpt>
      <trkpt lat="45.78745" lon="5.77162">
        <ele>230</ele>
        <time>2018-10-14T11:56:57Z</time>
      </trkpt>
      <trkpt lat="45.7875" lon="5.7716">
        <ele>230</ele>
        <time>2018-10-14T11:56:57Z</time>
      </trkpt>
      <trkpt lat="45.78754" lon="5.7716">
        <ele>230</ele>
        <time>2018-10-14T11:56:57Z</time>
      </trkpt>
      <trkpt lat="45.78758" lon="5.77159">
        <ele>230</ele>
        <time>2018-10-14T11:56:57Z</time>
      </trkpt>
      <trkpt lat="45.78758" lon="5.77161">
        <ele>230</ele>
        <time>2018-10-14T11:57:13Z</time>
      </trkpt>
      <trkpt lat="45.78759" lon="5.77162">
        <ele>230</ele>
        <time>2018-10-14T11:57:13Z</time>
      </trkpt>
      <trkpt lat="45.78766" lon="5.7716">
        <ele>230</ele>
        <time>2018-10-14T11:57:13Z</time>
      </trkpt>
      <trkpt lat="45.7877" lon="5.77159">
        <ele>230</ele>
        <time>2018-10-14T11:57:13Z</time>
      </trkpt>
      <trkpt lat="45.78775" lon="5.77158">
        <ele>230</ele>
        <time>2018-10-14T11:57:29Z</time>
      </trkpt>
      <trkpt lat="45.78779" lon="5.77158">
        <ele>230</ele>
        <time>2018-10-14T11:57:29Z</time>
      </trkpt>
      <trkpt lat="45.78786" lon="5.77156">
        <ele>230</ele>
        <time>2018-10-14T11:57:29Z</time>
      </trkpt>
      <trkpt lat="45.7879" lon="5.77153">
        <ele>230</ele>
        <time>2018-10-14T11:57:29Z</time>
      </trkpt>
      <trkpt lat="45.78794" lon="5.77151">
        <ele>230</ele>
        <time>2018-10-14T11:57:45Z</time>
      </trkpt>
      <trkpt lat="45.78799" lon="5.77149">
        <ele>230</ele>
        <time>2018-10-14T11:57:45Z</time>
      </trkpt>
      <trkpt lat="45.78803" lon="5.77148">
        <ele>230</ele>
        <time>2018-10-14T11:57:45Z</time>
      </trkpt>
      <trkpt lat="45.78808" lon="5.77148">
        <ele>230</ele>
        <time>2018-10-14T11:57:45Z</time>
      </trkpt>
      <trkpt lat="45.78812" lon="5.77149">
        <ele>230</ele>
        <time>2018-10-14T11:58:01Z</time>
      </trkpt>
      <trkpt lat="45.78816" lon="5.77148">
        <ele>230</ele>
        <time>2018-10-14T11:58:01Z</time>
      </trkpt>
      <trkpt lat="45.78819" lon="5.77147">
        <ele>230</ele>
        <time>2018-10-14T11:58:01Z</time>
      </trkpt>
      <trkpt lat="45.78824" lon="5.77147">
        <ele>230</ele>
        <time>2018-10-14T11:58:01Z</time>
      </trkpt>
      <trkpt lat="45.78829" lon="5.77146">
        <ele>230</ele>
        <time>2018-10-14T11:58:17Z</time>
      </trkpt>
      <trkpt lat="45.78836" lon="5.77143">
        <ele>230</ele>
        <time>2018-10-14T11:58:17Z</time>
      </trkpt>
      <trkpt lat="45.7884" lon="5.77139">
        <ele>230</ele>
        <time>2018-10-14T11:58:17Z</time>
      </trkpt>
      <trkpt lat="45.78845" lon="5.77135">
        <ele>230</ele>
        <time>2018-10-14T11:58:17Z</time>
      </trkpt>
      <trkpt lat="45.78852" lon="5.77131">
        <ele>230</ele>
        <time>2018-10-14T11:58:33Z</time>
      </trkpt>
      <trkpt lat="45.78856" lon="5.77129">
        <ele>230</ele>
        <time>2018-10-14T11:58:33Z</time>
      </trkpt>
      <trkpt lat="45.7886" lon="5.77127">
        <ele>230</ele>
        <time>2018-10-14T11:58:33Z</time>
      </trkpt>
      <trkpt lat="45.78865" lon="5.77123">
        <ele>229</ele>
        <time>2018-10-14T11:58:33Z</time>
      </trkpt>
      <trkpt lat="45.78869" lon="5.77119">
        <ele>229</ele>
        <time>2018-10-14T11:58:49Z</time>
      </trkpt>
      <trkpt lat="45.78874" lon="5.77115">
        <ele>229</ele>
        <time>2018-10-14T11:58:49Z</time>
      </trkpt>
      <trkpt lat="45.78879" lon="5.77111">
        <ele>232</ele>
        <time>2018-10-14T11:58:49Z</time>
      </trkpt>
      <trkpt lat="45.78882" lon="5.77108">
        <ele>232</ele>
        <time>2018-10-14T11:58:49Z</time>
      </trkpt>
      <trkpt lat="45.78883" lon="5.77106">
        <ele>232</ele>
        <time>2018-10-14T11:59:05Z</time>
      </trkpt>
      <trkpt lat="45.78889" lon="5.77101">
        <ele>232</ele>
        <time>2018-10-14T11:59:05Z</time>
      </trkpt>
      <trkpt lat="45.78894" lon="5.77097">
        <ele>232</ele>
        <time>2018-10-14T11:59:05Z</time>
      </trkpt>
      <trkpt lat="45.78899" lon="5.77094">
        <ele>232</ele>
        <time>2018-10-14T11:59:05Z</time>
      </trkpt>
      <trkpt lat="45.78905" lon="5.77092">
        <ele>232</ele>
        <time>2018-10-14T11:59:21Z</time>
      </trkpt>
      <trkpt lat="45.78912" lon="5.77091">
        <ele>232</ele>
        <time>2018-10-14T11:59:21Z</time>
      </trkpt>
      <trkpt lat="45.78916" lon="5.7709">
        <ele>232</ele>
        <time>2018-10-14T11:59:21Z</time>
      </trkpt>
      <trkpt lat="45.78924" lon="5.77088">
        <ele>232</ele>
        <time>2018-10-14T11:59:21Z</time>
      </trkpt>
      <trkpt lat="45.7893" lon="5.77088">
        <ele>232</ele>
        <time>2018-10-14T11:59:37Z</time>
      </trkpt>
      <trkpt lat="45.78935" lon="5.77089">
        <ele>232</ele>
        <time>2018-10-14T11:59:37Z</time>
      </trkpt>
      <trkpt lat="45.78939" lon="5.77087">
        <ele>232</ele>
        <time>2018-10-14T11:59:37Z</time>
      </trkpt>
      <trkpt lat="45.78942" lon="5.77083">
        <ele>232</ele>
        <time>2018-10-14T11:59:37Z</time>
      </trkpt>
      <trkpt lat="45.78945" lon="5.77081">
        <ele>232</ele>
        <time>2018-10-14T11:59:53Z</time>
      </trkpt>
      <trkpt lat="45.78946" lon="5.77079">
        <ele>232</ele>
        <time>2018-10-14T11:59:53Z</time>
      </trkpt>
      <trkpt lat="45.78947" lon="5.77074">
        <ele>232</ele>
        <time>2018-10-14T11:59:53Z</time>
      </trkpt>
      <trkpt lat="45.78948" lon="5.77066">
        <ele>232</ele>
        <time>2018-10-14T11:59:53Z</time>
      </trkpt>
      <trkpt lat="45.78948" lon="5.77064">
        <ele>232</ele>
        <time>2018-10-14T12:00:33Z</time>
      </trkpt>
      <trkpt lat="45.78948" lon="5.77063">
        <ele>232</ele>
        <time>2018-10-14T12:00:33Z</time>
      </trkpt>
      <trkpt lat="45.78948" lon="5.77062">
        <ele>232</ele>
        <time>2018-10-14T12:00:33Z</time>
      </trkpt>
      <trkpt lat="45.78946" lon="5.77057">
        <ele>232</ele>
        <time>2018-10-14T12:00:33Z</time>
      </trkpt>
      <trkpt lat="45.78945" lon="5.77051">
        <ele>232</ele>
        <time>2018-10-14T12:00:33Z</time>
      </trkpt>
      <trkpt lat="45.78943" lon="5.77046">
        <ele>232</ele>
        <time>2018-10-14T12:00:49Z</time>
      </trkpt>
      <trkpt lat="45.78941" lon="5.7704">
        <ele>232</ele>
        <time>2018-10-14T12:00:49Z</time>
      </trkpt>
      <trkpt lat="45.7894" lon="5.77033">
        <ele>232</ele>
        <time>2018-10-14T12:00:49Z</time>
      </trkpt>
      <trkpt lat="45.78938" lon="5.77025">
        <ele>232</ele>
        <time>2018-10-14T12:00:49Z</time>
      </trkpt>
      <trkpt lat="45.78936" lon="5.77015">
        <ele>232</ele>
        <time>2018-10-14T12:01:05Z</time>
      </trkpt>
      <trkpt lat="45.78935" lon="5.77007">
        <ele>232</ele>
        <time>2018-10-14T12:01:05Z</time>
      </trkpt>
      <trkpt lat="45.78933" lon="5.76999">
        <ele>232</ele>
        <time>2018-10-14T12:01:05Z</time>
      </trkpt>
      <trkpt lat="45.78931" lon="5.76992">
        <ele>232</ele>
        <time>2018-10-14T12:01:05Z</time>
      </trkpt>
      <trkpt lat="45.78931" lon="5.76987">
        <ele>232</ele>
        <time>2018-10-14T12:01:21Z</time>
      </trkpt>
      <trkpt lat="45.78932" lon="5.76978">
        <ele>232</ele>
        <time>2018-10-14T12:01:21Z</time>
      </trkpt>
      <trkpt lat="45.78929" lon="5.76969">
        <ele>232</ele>
        <time>2018-10-14T12:01:21Z</time>
      </trkpt>
      <trkpt lat="45.78924" lon="5.76964">
        <ele>232</ele>
        <time>2018-10-14T12:01:21Z</time>
      </trkpt>
      <trkpt lat="45.7892" lon="5.76959">
        <ele>232</ele>
        <time>2018-10-14T12:01:37Z</time>
      </trkpt>
      <trkpt lat="45.78916" lon="5.76953">
        <ele>232</ele>
        <time>2018-10-14T12:01:37Z</time>
      </trkpt>
      <trkpt lat="45.78913" lon="5.76947">
        <ele>232</ele>
        <time>2018-10-14T12:01:37Z</time>
      </trkpt>
      <trkpt lat="45.7891" lon="5.7694">
        <ele>232</ele>
        <time>2018-10-14T12:01:37Z</time>
      </trkpt>
      <trkpt lat="45.78908" lon="5.76934">
        <ele>232</ele>
        <time>2018-10-14T12:01:53Z</time>
      </trkpt>
      <trkpt lat="45.78906" lon="5.76928">
        <ele>232</ele>
        <time>2018-10-14T12:01:53Z</time>
      </trkpt>
      <trkpt lat="45.78905" lon="5.76922">
        <ele>232</ele>
        <time>2018-10-14T12:01:53Z</time>
      </trkpt>
      <trkpt lat="45.78903" lon="5.76915">
        <ele>232</ele>
        <time>2018-10-14T12:01:53Z</time>
      </trkpt>
      <trkpt lat="45.78901" lon="5.76908">
        <ele>232</ele>
        <time>2018-10-14T12:02:09Z</time>
      </trkpt>
      <trkpt lat="45.78899" lon="5.769">
        <ele>232</ele>
        <time>2018-10-14T12:02:09Z</time>
      </trkpt>
      <trkpt lat="45.78896" lon="5.76894">
        <ele>232</ele>
        <time>2018-10-14T12:02:09Z</time>
      </trkpt>
      <trkpt lat="45.78894" lon="5.76887">
        <ele>232</ele>
        <time>2018-10-14T12:02:09Z</time>
      </trkpt>
      <trkpt lat="45.78892" lon="5.76881">
        <ele>232</ele>
        <time>2018-10-14T12:02:25Z</time>
      </trkpt>
      <trkpt lat="45.78888" lon="5.76874">
        <ele>232</ele>
        <time>2018-10-14T12:02:25Z</time>
      </trkpt>
      <trkpt lat="45.78885" lon="5.76868">
        <ele>232</ele>
        <time>2018-10-14T12:02:25Z</time>
      </trkpt>
      <trkpt lat="45.78887" lon="5.76862">
        <ele>232</ele>
        <time>2018-10-14T12:02:25Z</time>
      </trkpt>
      <trkpt lat="45.78892" lon="5.76859">
        <ele>232</ele>
        <time>2018-10-14T12:02:41Z</time>
      </trkpt>
      <trkpt lat="45.78894" lon="5.76855">
        <ele>232</ele>
        <time>2018-10-14T12:02:41Z</time>
      </trkpt>
      <trkpt lat="45.78896" lon="5.76853">
        <ele>232</ele>
        <time>2018-10-14T12:02:41Z</time>
      </trkpt>
      <trkpt lat="45.789" lon="5.76848">
        <ele>232</ele>
        <time>2018-10-14T12:02:41Z</time>
      </trkpt>
      <trkpt lat="45.78903" lon="5.7684">
        <ele>232</ele>
        <time>2018-10-14T12:02:57Z</time>
      </trkpt>
      <trkpt lat="45.78907" lon="5.76831">
        <ele>232</ele>
        <time>2018-10-14T12:02:57Z</time>
      </trkpt>
      <trkpt lat="45.7891" lon="5.76824">
        <ele>232</ele>
        <time>2018-10-14T12:02:57Z</time>
      </trkpt>
      <trkpt lat="45.78911" lon="5.76818">
        <ele>232</ele>
        <time>2018-10-14T12:02:57Z</time>
      </trkpt>
      <trkpt lat="45.7891" lon="5.76812">
        <ele>232</ele>
        <time>2018-10-14T12:03:13Z</time>
      </trkpt>
      <trkpt lat="45.78909" lon="5.76805">
        <ele>232</ele>
        <time>2018-10-14T12:03:13Z</time>
      </trkpt>
      <trkpt lat="45.78907" lon="5.76799">
        <ele>232</ele>
        <time>2018-10-14T12:03:13Z</time>
      </trkpt>
      <trkpt lat="45.78906" lon="5.76796">
        <ele>232</ele>
        <time>2018-10-14T12:03:13Z</time>
      </trkpt>
      <trkpt lat="45.78901" lon="5.76794">
        <ele>232</ele>
        <time>2018-10-14T12:07:05Z</time>
      </trkpt>
      <trkpt lat="45.78901" lon="5.76792">
        <ele>232</ele>
        <time>2018-10-14T12:07:05Z</time>
      </trkpt>
      <trkpt lat="45.78901" lon="5.76788">
        <ele>235</ele>
        <time>2018-10-14T12:07:05Z</time>
      </trkpt>
      <trkpt lat="45.78897" lon="5.7678">
        <ele>235</ele>
        <time>2018-10-14T12:07:05Z</time>
      </trkpt>
      <trkpt lat="45.78892" lon="5.76774">
        <ele>235</ele>
        <time>2018-10-14T12:07:05Z</time>
      </trkpt>
      <trkpt lat="45.78888" lon="5.76768">
        <ele>235</ele>
        <time>2018-10-14T12:07:21Z</time>
      </trkpt>
      <trkpt lat="45.78885" lon="5.76761">
        <ele>235</ele>
        <time>2018-10-14T12:07:21Z</time>
      </trkpt>
      <trkpt lat="45.78883" lon="5.76754">
        <ele>235</ele>
        <time>2018-10-14T12:07:21Z</time>
      </trkpt>
      <trkpt lat="45.78879" lon="5.76747">
        <ele>235</ele>
        <time>2018-10-14T12:07:21Z</time>
      </trkpt>
      <trkpt lat="45.78876" lon="5.7674">
        <ele>235</ele>
        <time>2018-10-14T12:07:37Z</time>
      </trkpt>
      <trkpt lat="45.78872" lon="5.76735">
        <ele>250</ele>
        <time>2018-10-14T12:07:37Z</time>
      </trkpt>
      <trkpt lat="45.78869" lon="5.7673">
        <ele>250</ele>
        <time>2018-10-14T12:07:37Z</time>
      </trkpt>
      <trkpt lat="45.78866" lon="5.76722">
        <ele>250</ele>
        <time>2018-10-14T12:07:37Z</time>
      </trkpt>
      <trkpt lat="45.78863" lon="5.76715">
        <ele>250</ele>
        <time>2018-10-14T12:07:53Z</time>
      </trkpt>
      <trkpt lat="45.78859" lon="5.76709">
        <ele>250</ele>
        <time>2018-10-14T12:07:53Z</time>
      </trkpt>
      <trkpt lat="45.78856" lon="5.76703">
        <ele>249</ele>
        <time>2018-10-14T12:07:53Z</time>
      </trkpt>
      <trkpt lat="45.78852" lon="5.76696">
        <ele>249</ele>
        <time>2018-10-14T12:07:53Z</time>
      </trkpt>
      <trkpt lat="45.78849" lon="5.76691">
        <ele>249</ele>
        <time>2018-10-14T12:08:09Z</time>
      </trkpt>
      <trkpt lat="45.78844" lon="5.76686">
        <ele>249</ele>
        <time>2018-10-14T12:08:09Z</time>
      </trkpt>
      <trkpt lat="45.78839" lon="5.76682">
        <ele>249</ele>
        <time>2018-10-14T12:08:09Z</time>
      </trkpt>
      <trkpt lat="45.78834" lon="5.7668">
        <ele>249</ele>
        <time>2018-10-14T12:08:09Z</time>
      </trkpt>
      <trkpt lat="45.78827" lon="5.76678">
        <ele>249</ele>
        <time>2018-10-14T12:08:25Z</time>
      </trkpt>
      <trkpt lat="45.7882" lon="5.7668">
        <ele>249</ele>
        <time>2018-10-14T12:08:25Z</time>
      </trkpt>
      <trkpt lat="45.78811" lon="5.76678">
        <ele>249</ele>
        <time>2018-10-14T12:08:25Z</time>
      </trkpt>
      <trkpt lat="45.78804" lon="5.76674">
        <ele>249</ele>
        <time>2018-10-14T12:08:25Z</time>
      </trkpt>
      <trkpt lat="45.78802" lon="5.76668">
        <ele>249</ele>
        <time>2018-10-14T12:08:41Z</time>
      </trkpt>
      <trkpt lat="45.78799" lon="5.76663">
        <ele>249</ele>
        <time>2018-10-14T12:08:41Z</time>
      </trkpt>
      <trkpt lat="45.78795" lon="5.76656">
        <ele>249</ele>
        <time>2018-10-14T12:08:41Z</time>
      </trkpt>
      <trkpt lat="45.78792" lon="5.76651">
        <ele>249</ele>
        <time>2018-10-14T12:08:41Z</time>
      </trkpt>
      <trkpt lat="45.78789" lon="5.76645">
        <ele>257</ele>
        <time>2018-10-14T12:08:57Z</time>
      </trkpt>
      <trkpt lat="45.78785" lon="5.76636">
        <ele>257</ele>
        <time>2018-10-14T12:08:57Z</time>
      </trkpt>
      <trkpt lat="45.78783" lon="5.76631">
        <ele>257</ele>
        <time>2018-10-14T12:08:57Z</time>
      </trkpt>
      <trkpt lat="45.7878" lon="5.76625">
        <ele>255</ele>
        <time>2018-10-14T12:08:57Z</time>
      </trkpt>
      <trkpt lat="45.78777" lon="5.76617">
        <ele>255</ele>
        <time>2018-10-14T12:09:13Z</time>
      </trkpt>
      <trkpt lat="45.78774" lon="5.76609">
        <ele>255</ele>
        <time>2018-10-14T12:09:13Z</time>
      </trkpt>
      <trkpt lat="45.78771" lon="5.766">
        <ele>255</ele>
        <time>2018-10-14T12:09:13Z</time>
      </trkpt>
      <trkpt lat="45.78769" lon="5.76594">
        <ele>255</ele>
        <time>2018-10-14T12:09:13Z</time>
      </trkpt>
      <trkpt lat="45.78766" lon="5.76589">
        <ele>255</ele>
        <time>2018-10-14T12:09:29Z</time>
      </trkpt>
      <trkpt lat="45.78762" lon="5.76584">
        <ele>255</ele>
        <time>2018-10-14T12:09:29Z</time>
      </trkpt>
      <trkpt lat="45.78759" lon="5.76578">
        <ele>255</ele>
        <time>2018-10-14T12:09:29Z</time>
      </trkpt>
      <trkpt lat="45.78755" lon="5.76572">
        <ele>255</ele>
        <time>2018-10-14T12:09:29Z</time>
      </trkpt>
      <trkpt lat="45.78751" lon="5.76565">
        <ele>255</ele>
        <time>2018-10-14T12:09:45Z</time>
      </trkpt>
      <trkpt lat="45.78747" lon="5.76561">
        <ele>255</ele>
        <time>2018-10-14T12:09:45Z</time>
      </trkpt>
      <trkpt lat="45.78743" lon="5.76556">
        <ele>255</ele>
        <time>2018-10-14T12:09:45Z</time>
      </trkpt>
      <trkpt lat="45.78739" lon="5.7655">
        <ele>255</ele>
        <time>2018-10-14T12:09:45Z</time>
      </trkpt>
      <trkpt lat="45.78735" lon="5.76546">
        <ele>255</ele>
        <time>2018-10-14T12:10:01Z</time>
      </trkpt>
      <trkpt lat="45.78731" lon="5.76541">
        <ele>254</ele>
        <time>2018-10-14T12:10:01Z</time>
      </trkpt>
      <trkpt lat="45.78727" lon="5.76535">
        <ele>254</ele>
        <time>2018-10-14T12:10:01Z</time>
      </trkpt>
      <trkpt lat="45.78724" lon="5.76529">
        <ele>254</ele>
        <time>2018-10-14T12:10:01Z</time>
      </trkpt>
      <trkpt lat="45.78721" lon="5.76525">
        <ele>254</ele>
        <time>2018-10-14T12:10:17Z</time>
      </trkpt>
      <trkpt lat="45.78719" lon="5.76519">
        <ele>254</ele>
        <time>2018-10-14T12:10:17Z</time>
      </trkpt>
      <trkpt lat="45.78716" lon="5.76512">
        <ele>254</ele>
        <time>2018-10-14T12:10:17Z</time>
      </trkpt>
      <trkpt lat="45.78714" lon="5.76505">
        <ele>254</ele>
        <time>2018-10-14T12:10:17Z</time>
      </trkpt>
      <trkpt lat="45.78712" lon="5.76497">
        <ele>254</ele>
        <time>2018-10-14T12:10:33Z</time>
      </trkpt>
      <trkpt lat="45.7871" lon="5.7649">
        <ele>254</ele>
        <time>2018-10-14T12:10:33Z</time>
      </trkpt>
      <trkpt lat="45.78708" lon="5.76483">
        <ele>253</ele>
        <time>2018-10-14T12:10:33Z</time>
      </trkpt>
      <trkpt lat="45.78706" lon="5.76477">
        <ele>253</ele>
        <time>2018-10-14T12:10:33Z</time>
      </trkpt>
      <trkpt lat="45.78704" lon="5.76473">
        <ele>253</ele>
        <time>2018-10-14T12:10:49Z</time>
      </trkpt>
      <trkpt lat="45.78701" lon="5.76466">
        <ele>253</ele>
        <time>2018-10-14T12:10:49Z</time>
      </trkpt>
      <trkpt lat="45.787" lon="5.76457">
        <ele>257</ele>
        <time>2018-10-14T12:10:49Z</time>
      </trkpt>
      <trkpt lat="45.78698" lon="5.76448">
        <ele>257</ele>
        <time>2018-10-14T12:10:49Z</time>
      </trkpt>
      <trkpt lat="45.78697" lon="5.76441">
        <ele>257</ele>
        <time>2018-10-14T12:11:05Z</time>
      </trkpt>
      <trkpt lat="45.78695" lon="5.76433">
        <ele>257</ele>
        <time>2018-10-14T12:11:05Z</time>
      </trkpt>
      <trkpt lat="45.78693" lon="5.76426">
        <ele>257</ele>
        <time>2018-10-14T12:11:05Z</time>
      </trkpt>
      <trkpt lat="45.78691" lon="5.76418">
        <ele>257</ele>
        <time>2018-10-14T12:11:05Z</time>
      </trkpt>
      <trkpt lat="45.78689" lon="5.76412">
        <ele>257</ele>
        <time>2018-10-14T12:11:21Z</time>
      </trkpt>
      <trkpt lat="45.78689" lon="5.76406">
        <ele>257</ele>
        <time>2018-10-14T12:11:21Z</time>
      </trkpt>
      <trkpt lat="45.78687" lon="5.76399">
        <ele>257</ele>
        <time>2018-10-14T12:11:21Z</time>
      </trkpt>
      <trkpt lat="45.78686" lon="5.76396">
        <ele>257</ele>
        <time>2018-10-14T12:11:21Z</time>
      </trkpt>
      <trkpt lat="45.78683" lon="5.76391">
        <ele>257</ele>
        <time>2018-10-14T12:11:37Z</time>
      </trkpt>
      <trkpt lat="45.7868" lon="5.76384">
        <ele>257</ele>
        <time>2018-10-14T12:11:37Z</time>
      </trkpt>
      <trkpt lat="45.78678" lon="5.76377">
        <ele>257</ele>
        <time>2018-10-14T12:11:37Z</time>
      </trkpt>
      <trkpt lat="45.78677" lon="5.76368">
        <ele>262</ele>
        <time>2018-10-14T12:11:37Z</time>
      </trkpt>
      <trkpt lat="45.78674" lon="5.7636">
        <ele>262</ele>
        <time>2018-10-14T12:11:53Z</time>
      </trkpt>
      <trkpt lat="45.78672" lon="5.76352">
        <ele>262</ele>
        <time>2018-10-14T12:11:53Z</time>
      </trkpt>
      <trkpt lat="45.7867" lon="5.76345">
        <ele>262</ele>
        <time>2018-10-14T12:11:53Z</time>
      </trkpt>
      <trkpt lat="45.78667" lon="5.76339">
        <ele>262</ele>
        <time>2018-10-14T12:11:53Z</time>
      </trkpt>
      <trkpt lat="45.78664" lon="5.76331">
        <ele>262</ele>
        <time>2018-10-14T12:12:09Z</time>
      </trkpt>
      <trkpt lat="45.78662" lon="5.76322">
        <ele>262</ele>
        <time>2018-10-14T12:12:09Z</time>
      </trkpt>
      <trkpt lat="45.78659" lon="5.76309">
        <ele>262</ele>
        <time>2018-10-14T12:12:09Z</time>
      </trkpt>
      <trkpt lat="45.78657" lon="5.76304">
        <ele>262</ele>
        <time>2018-10-14T12:12:09Z</time>
      </trkpt>
      <trkpt lat="45.78655" lon="5.76299">
        <ele>262</ele>
        <time>2018-10-14T12:12:25Z</time>
      </trkpt>
      <trkpt lat="45.78653" lon="5.76289">
        <ele>266</ele>
        <time>2018-10-14T12:12:25Z</time>
      </trkpt>
      <trkpt lat="45.78651" lon="5.7628">
        <ele>266</ele>
        <time>2018-10-14T12:12:25Z</time>
      </trkpt>
      <trkpt lat="45.78648" lon="5.76273">
        <ele>266</ele>
        <time>2018-10-14T12:12:25Z</time>
      </trkpt>
      <trkpt lat="45.78645" lon="5.76265">
        <ele>266</ele>
        <time>2018-10-14T12:12:41Z</time>
      </trkpt>
      <trkpt lat="45.78641" lon="5.76258">
        <ele>266</ele>
        <time>2018-10-14T12:12:41Z</time>
      </trkpt>
      <trkpt lat="45.78637" lon="5.76252">
        <ele>266</ele>
        <time>2018-10-14T12:12:41Z</time>
      </trkpt>
      <trkpt lat="45.78633" lon="5.76248">
        <ele>266</ele>
        <time>2018-10-14T12:12:41Z</time>
      </trkpt>
      <trkpt lat="45.78629" lon="5.76244">
        <ele>266</ele>
        <time>2018-10-14T12:12:57Z</time>
      </trkpt>
      <trkpt lat="45.78624" lon="5.76236">
        <ele>271</ele>
        <time>2018-10-14T12:12:57Z</time>
      </trkpt>
      <trkpt lat="45.7862" lon="5.7623">
        <ele>271</ele>
        <time>2018-10-14T12:12:57Z</time>
      </trkpt>
      <trkpt lat="45.78616" lon="5.76224">
        <ele>271</ele>
        <time>2018-10-14T12:12:57Z</time>
      </trkpt>
      <trkpt lat="45.78615" lon="5.76218">
        <ele>271</ele>
        <time>2018-10-14T12:13:13Z</time>
      </trkpt>
      <trkpt lat="45.78613" lon="5.76212">
        <ele>271</ele>
        <time>2018-10-14T12:13:13Z</time>
      </trkpt>
      <trkpt lat="45.78611" lon="5.76204">
        <ele>273</ele>
        <time>2018-10-14T12:13:13Z</time>
      </trkpt>
      <trkpt lat="45.78611" lon="5.76194">
        <ele>273</ele>
        <time>2018-10-14T12:13:13Z</time>
      </trkpt>
      <trkpt lat="45.78612" lon="5.76188">
        <ele>273</ele>
        <time>2018-10-14T12:13:29Z</time>
      </trkpt>
      <trkpt lat="45.78613" lon="5.76181">
        <ele>273</ele>
        <time>2018-10-14T12:13:29Z</time>
      </trkpt>
      <trkpt lat="45.78612" lon="5.76176">
        <ele>273</ele>
        <time>2018-10-14T12:13:29Z</time>
      </trkpt>
      <trkpt lat="45.78612" lon="5.76171">
        <ele>273</ele>
        <time>2018-10-14T12:13:29Z</time>
      </trkpt>
      <trkpt lat="45.7861" lon="5.76161">
        <ele>273</ele>
        <time>2018-10-14T12:13:45Z</time>
      </trkpt>
      <trkpt lat="45.78608" lon="5.7615">
        <ele>273</ele>
        <time>2018-10-14T12:13:45Z</time>
      </trkpt>
      <trkpt lat="45.78607" lon="5.76144">
        <ele>273</ele>
        <time>2018-10-14T12:13:45Z</time>
      </trkpt>
      <trkpt lat="45.78607" lon="5.7614">
        <ele>273</ele>
        <time>2018-10-14T12:13:45Z</time>
      </trkpt>
      <trkpt lat="45.78608" lon="5.76134">
        <ele>273</ele>
        <time>2018-10-14T12:14:01Z</time>
      </trkpt>
      <trkpt lat="45.78608" lon="5.76128">
        <ele>273</ele>
        <time>2018-10-14T12:14:01Z</time>
      </trkpt>
      <trkpt lat="45.78609" lon="5.76123">
        <ele>278</ele>
        <time>2018-10-14T12:14:01Z</time>
      </trkpt>
      <trkpt lat="45.78612" lon="5.76116">
        <ele>278</ele>
        <time>2018-10-14T12:14:01Z</time>
      </trkpt>
      <trkpt lat="45.78614" lon="5.7611">
        <ele>278</ele>
        <time>2018-10-14T12:14:17Z</time>
      </trkpt>
      <trkpt lat="45.78615" lon="5.76101">
        <ele>278</ele>
        <time>2018-10-14T12:14:17Z</time>
      </trkpt>
      <trkpt lat="45.78618" lon="5.76094">
        <ele>278</ele>
        <time>2018-10-14T12:14:17Z</time>
      </trkpt>
      <trkpt lat="45.78621" lon="5.76089">
        <ele>278</ele>
        <time>2018-10-14T12:14:17Z</time>
      </trkpt>
      <trkpt lat="45.7862" lon="5.76079">
        <ele>278</ele>
        <time>2018-10-14T12:14:33Z</time>
      </trkpt>
      <trkpt lat="45.78619" lon="5.76071">
        <ele>278</ele>
        <time>2018-10-14T12:14:33Z</time>
      </trkpt>
      <trkpt lat="45.78618" lon="5.76063">
        <ele>278</ele>
        <time>2018-10-14T12:14:33Z</time>
      </trkpt>
      <trkpt lat="45.78619" lon="5.76056">
        <ele>278</ele>
        <time>2018-10-14T12:14:33Z</time>
      </trkpt>
      <trkpt lat="45.78617" lon="5.7605">
        <ele>278</ele>
        <time>2018-10-14T12:14:49Z</time>
      </trkpt>
      <trkpt lat="45.78613" lon="5.76043">
        <ele>278</ele>
        <time>2018-10-14T12:14:49Z</time>
      </trkpt>
      <trkpt lat="45.78611" lon="5.76034">
        <ele>286</ele>
        <time>2018-10-14T12:14:49Z</time>
      </trkpt>
      <trkpt lat="45.78608" lon="5.76031">
        <ele>286</ele>
        <time>2018-10-14T12:14:49Z</time>
      </trkpt>
      <trkpt lat="45.78603" lon="5.76033">
        <ele>286</ele>
        <time>2018-10-14T12:15:05Z</time>
      </trkpt>
      <trkpt lat="45.78597" lon="5.76037">
        <ele>286</ele>
        <time>2018-10-14T12:15:05Z</time>
      </trkpt>
      <trkpt lat="45.78594" lon="5.76038">
        <ele>286</ele>
        <time>2018-10-14T12:15:05Z</time>
      </trkpt>
      <trkpt lat="45.78588" lon="5.76039">
        <ele>286</ele>
        <time>2018-10-14T12:15:05Z</time>
      </trkpt>
      <trkpt lat="45.78582" lon="5.76041">
        <ele>286</ele>
        <time>2018-10-14T12:15:21Z</time>
      </trkpt>
      <trkpt lat="45.78575" lon="5.76042">
        <ele>278</ele>
        <time>2018-10-14T12:15:21Z</time>
      </trkpt>
      <trkpt lat="45.7857" lon="5.76043">
        <ele>278</ele>
        <time>2018-10-14T12:15:21Z</time>
      </trkpt>
      <trkpt lat="45.78561" lon="5.76043">
        <ele>278</ele>
        <time>2018-10-14T12:15:21Z</time>
      </trkpt>
      <trkpt lat="45.78555" lon="5.76045">
        <ele>278</ele>
        <time>2018-10-14T12:15:37Z</time>
      </trkpt>
      <trkpt lat="45.78548" lon="5.76045">
        <ele>278</ele>
        <time>2018-10-14T12:15:37Z</time>
      </trkpt>
      <trkpt lat="45.78542" lon="5.76046">
        <ele>278</ele>
        <time>2018-10-14T12:15:37Z</time>
      </trkpt>
      <trkpt lat="45.78537" lon="5.76046">
        <ele>283</ele>
        <time>2018-10-14T12:15:37Z</time>
      </trkpt>
      <trkpt lat="45.78531" lon="5.76049">
        <ele>283</ele>
        <time>2018-10-14T12:15:53Z</time>
      </trkpt>
      <trkpt lat="45.78527" lon="5.76051">
        <ele>283</ele>
        <time>2018-10-14T12:15:53Z</time>
      </trkpt>
      <trkpt lat="45.78522" lon="5.76053">
        <ele>283</ele>
        <time>2018-10-14T12:15:53Z</time>
      </trkpt>
      <trkpt lat="45.78517" lon="5.76055">
        <ele>283</ele>
        <time>2018-10-14T12:15:53Z</time>
      </trkpt>
      <trkpt lat="45.78513" lon="5.76057">
        <ele>283</ele>
        <time>2018-10-14T12:16:09Z</time>
      </trkpt>
      <trkpt lat="45.78511" lon="5.7606">
        <ele>283</ele>
        <time>2018-10-14T12:16:09Z</time>
      </trkpt>
      <trkpt lat="45.78506" lon="5.76061">
        <ele>283</ele>
        <time>2018-10-14T12:16:09Z</time>
      </trkpt>
      <trkpt lat="45.78502" lon="5.76064">
        <ele>283</ele>
        <time>2018-10-14T12:16:09Z</time>
      </trkpt>
      <trkpt lat="45.78496" lon="5.76065">
        <ele>283</ele>
        <time>2018-10-14T12:16:25Z</time>
      </trkpt>
      <trkpt lat="45.7849" lon="5.76067">
        <ele>283</ele>
        <time>2018-10-14T12:16:25Z</time>
      </trkpt>
      <trkpt lat="45.78487" lon="5.76067">
        <ele>283</ele>
        <time>2018-10-14T12:16:25Z</time>
      </trkpt>
      <trkpt lat="45.78482" lon="5.76063">
        <ele>283</ele>
        <time>2018-10-14T12:16:25Z</time>
      </trkpt>
      <trkpt lat="45.78475" lon="5.76059">
        <ele>283</ele>
        <time>2018-10-14T12:16:41Z</time>
      </trkpt>
      <trkpt lat="45.7847" lon="5.76056">
        <ele>283</ele>
        <time>2018-10-14T12:16:41Z</time>
      </trkpt>
      <trkpt lat="45.78457" lon="5.76047">
        <ele>286</ele>
        <time>2018-10-14T12:16:41Z</time>
      </trkpt>
      <trkpt lat="45.78439" lon="5.76045">
        <ele>286</ele>
        <time>2018-10-14T12:16:41Z</time>
      </trkpt>
      <trkpt lat="45.78419" lon="5.76044">
        <ele>286</ele>
        <time>2018-10-14T12:16:57Z</time>
      </trkpt>
      <trkpt lat="45.78402" lon="5.76036">
        <ele>306</ele>
        <time>2018-10-14T12:16:57Z</time>
      </trkpt>
      <trkpt lat="45.78384" lon="5.76037">
        <ele>306</ele>
        <time>2018-10-14T12:16:57Z</time>
      </trkpt>
      <trkpt lat="45.78374" lon="5.76033">
        <ele>309</ele>
        <time>2018-10-14T12:16:57Z</time>
      </trkpt>
      <trkpt lat="45.78368" lon="5.76028">
        <ele>309</ele>
        <time>2018-10-14T12:17:13Z</time>
      </trkpt>
      <trkpt lat="45.78362" lon="5.76026">
        <ele>309</ele>
        <time>2018-10-14T12:17:13Z</time>
      </trkpt>
      <trkpt lat="45.78358" lon="5.76025">
        <ele>309</ele>
        <time>2018-10-14T12:17:13Z</time>
      </trkpt>
      <trkpt lat="45.78354" lon="5.76024">
        <ele>309</ele>
        <time>2018-10-14T12:17:13Z</time>
      </trkpt>
      <trkpt lat="45.78349" lon="5.76025">
        <ele>309</ele>
        <time>2018-10-14T12:17:29Z</time>
      </trkpt>
      <trkpt lat="45.78341" lon="5.76031">
        <ele>309</ele>
        <time>2018-10-14T12:17:29Z</time>
      </trkpt>
      <trkpt lat="45.78337" lon="5.76032">
        <ele>309</ele>
        <time>2018-10-14T12:17:29Z</time>
      </trkpt>
      <trkpt lat="45.78333" lon="5.76033">
        <ele>309</ele>
        <time>2018-10-14T12:17:29Z</time>
      </trkpt>
      <trkpt lat="45.78326" lon="5.76035">
        <ele>309</ele>
        <time>2018-10-14T12:17:45Z</time>
      </trkpt>
      <trkpt lat="45.78319" lon="5.76037">
        <ele>309</ele>
        <time>2018-10-14T12:17:45Z</time>
      </trkpt>
      <trkpt lat="45.78315" lon="5.76037">
        <ele>309</ele>
        <time>2018-10-14T12:17:45Z</time>
      </trkpt>
      <trkpt lat="45.78308" lon="5.76037">
        <ele>309</ele>
        <time>2018-10-14T12:17:45Z</time>
      </trkpt>
      <trkpt lat="45.78304" lon="5.76036">
        <ele>309</ele>
        <time>2018-10-14T12:18:01Z</time>
      </trkpt>
      <trkpt lat="45.78299" lon="5.76037">
        <ele>309</ele>
        <time>2018-10-14T12:18:01Z</time>
      </trkpt>
      <trkpt lat="45.78293" lon="5.76039">
        <ele>309</ele>
        <time>2018-10-14T12:18:01Z</time>
      </trkpt>
      <trkpt lat="45.78288" lon="5.7604">
        <ele>316</ele>
        <time>2018-10-14T12:18:01Z</time>
      </trkpt>
      <trkpt lat="45.78283" lon="5.7604">
        <ele>316</ele>
        <time>2018-10-14T12:18:17Z</time>
      </trkpt>
      <trkpt lat="45.78274" lon="5.76038">
        <ele>316</ele>
        <time>2018-10-14T12:18:17Z</time>
      </trkpt>
      <trkpt lat="45.78269" lon="5.76037">
        <ele>316</ele>
        <time>2018-10-14T12:18:17Z</time>
      </trkpt>
      <trkpt lat="45.78265" lon="5.76033">
        <ele>316</ele>
        <time>2018-10-14T12:18:17Z</time>
      </trkpt>
      <trkpt lat="45.78257" lon="5.76032">
        <ele>316</ele>
        <time>2018-10-14T12:18:33Z</time>
      </trkpt>
      <trkpt lat="45.78253" lon="5.76028">
        <ele>316</ele>
        <time>2018-10-14T12:18:33Z</time>
      </trkpt>
      <trkpt lat="45.78249" lon="5.76021">
        <ele>316</ele>
        <time>2018-10-14T12:18:33Z</time>
      </trkpt>
      <trkpt lat="45.78245" lon="5.76016">
        <ele>316</ele>
        <time>2018-10-14T12:18:33Z</time>
      </trkpt>
      <trkpt lat="45.7824" lon="5.76014">
        <ele>316</ele>
        <time>2018-10-14T12:18:49Z</time>
      </trkpt>
      <trkpt lat="45.78235" lon="5.76011">
        <ele>316</ele>
        <time>2018-10-14T12:18:49Z</time>
      </trkpt>
      <trkpt lat="45.78229" lon="5.7601">
        <ele>316</ele>
        <time>2018-10-14T12:18:49Z</time>
      </trkpt>
      <trkpt lat="45.78224" lon="5.76007">
        <ele>316</ele>
        <time>2018-10-14T12:18:49Z</time>
      </trkpt>
      <trkpt lat="45.78219" lon="5.76005">
        <ele>316</ele>
        <time>2018-10-14T12:19:05Z</time>
      </trkpt>
      <trkpt lat="45.78214" lon="5.76001">
        <ele>316</ele>
        <time>2018-10-14T12:19:05Z</time>
      </trkpt>
      <trkpt lat="45.78209" lon="5.76">
        <ele>316</ele>
        <time>2018-10-14T12:19:05Z</time>
      </trkpt>
      <trkpt lat="45.78204" lon="5.75998">
        <ele>320</ele>
        <time>2018-10-14T12:19:05Z</time>
      </trkpt>
      <trkpt lat="45.782" lon="5.75994">
        <ele>320</ele>
        <time>2018-10-14T12:19:21Z</time>
      </trkpt>
      <trkpt lat="45.78195" lon="5.75989">
        <ele>320</ele>
        <time>2018-10-14T12:19:21Z</time>
      </trkpt>
      <trkpt lat="45.78191" lon="5.75983">
        <ele>320</ele>
        <time>2018-10-14T12:19:21Z</time>
      </trkpt>
      <trkpt lat="45.78187" lon="5.75981">
        <ele>320</ele>
        <time>2018-10-14T12:19:21Z</time>
      </trkpt>
      <trkpt lat="45.78184" lon="5.7598">
        <ele>320</ele>
        <time>2018-10-14T12:19:37Z</time>
      </trkpt>
      <trkpt lat="45.78181" lon="5.75978">
        <ele>320</ele>
        <time>2018-10-14T12:19:37Z</time>
      </trkpt>
      <trkpt lat="45.78174" lon="5.75973">
        <ele>320</ele>
        <time>2018-10-14T12:19:37Z</time>
      </trkpt>
      <trkpt lat="45.78171" lon="5.75972">
        <ele>320</ele>
        <time>2018-10-14T12:19:37Z</time>
      </trkpt>
      <trkpt lat="45.78168" lon="5.75967">
        <ele>320</ele>
        <time>2018-10-14T12:19:53Z</time>
      </trkpt>
      <trkpt lat="45.78164" lon="5.75964">
        <ele>320</ele>
        <time>2018-10-14T12:19:53Z</time>
      </trkpt>
      <trkpt lat="45.78157" lon="5.7596">
        <ele>320</ele>
        <time>2018-10-14T12:19:53Z</time>
      </trkpt>
      <trkpt lat="45.78153" lon="5.75954">
        <ele>343</ele>
        <time>2018-10-14T12:19:53Z</time>
      </trkpt>
      <trkpt lat="45.7815" lon="5.75949">
        <ele>343</ele>
        <time>2018-10-14T12:20:09Z</time>
      </trkpt>
      <trkpt lat="45.78146" lon="5.75945">
        <ele>343</ele>
        <time>2018-10-14T12:20:09Z</time>
      </trkpt>
      <trkpt lat="45.78141" lon="5.75941">
        <ele>343</ele>
        <time>2018-10-14T12:20:09Z</time>
      </trkpt>
      <trkpt lat="45.78137" lon="5.75939">
        <ele>343</ele>
        <time>2018-10-14T12:20:09Z</time>
      </trkpt>
      <trkpt lat="45.78132" lon="5.75935">
        <ele>343</ele>
        <time>2018-10-14T12:20:25Z</time>
      </trkpt>
      <trkpt lat="45.78126" lon="5.75934">
        <ele>343</ele>
        <time>2018-10-14T12:20:25Z</time>
      </trkpt>
      <trkpt lat="45.7812" lon="5.75933">
        <ele>354</ele>
        <time>2018-10-14T12:20:25Z</time>
      </trkpt>
      <trkpt lat="45.78115" lon="5.75933">
        <ele>354</ele>
        <time>2018-10-14T12:20:25Z</time>
      </trkpt>
      <trkpt lat="45.78112" lon="5.75931">
        <ele>354</ele>
        <time>2018-10-14T12:20:41Z</time>
      </trkpt>
      <trkpt lat="45.78109" lon="5.75927">
        <ele>354</ele>
        <time>2018-10-14T12:20:41Z</time>
      </trkpt>
      <trkpt lat="45.78105" lon="5.75923">
        <ele>354</ele>
        <time>2018-10-14T12:20:41Z</time>
      </trkpt>
      <trkpt lat="45.78102" lon="5.75919">
        <ele>354</ele>
        <time>2018-10-14T12:20:41Z</time>
      </trkpt>
      <trkpt lat="45.78099" lon="5.75916">
        <ele>354</ele>
        <time>2018-10-14T12:20:57Z</time>
      </trkpt>
      <trkpt lat="45.78098" lon="5.75916">
        <ele>354</ele>
        <time>2018-10-14T12:20:57Z</time>
      </trkpt>
      <trkpt lat="45.78094" lon="5.75912">
        <ele>354</ele>
        <time>2018-10-14T12:20:57Z</time>
      </trkpt>
      <trkpt lat="45.78089" lon="5.7591">
        <ele>354</ele>
        <time>2018-10-14T12:20:57Z</time>
      </trkpt>
      <trkpt lat="45.78085" lon="5.75906">
        <ele>354</ele>
        <time>2018-10-14T12:21:13Z</time>
      </trkpt>
      <trkpt lat="45.78083" lon="5.75904">
        <ele>354</ele>
        <time>2018-10-14T12:21:13Z</time>
      </trkpt>
      <trkpt lat="45.78082" lon="5.75901">
        <ele>354</ele>
        <time>2018-10-14T12:21:13Z</time>
      </trkpt>
      <trkpt lat="45.78079" lon="5.75896">
        <ele>354</ele>
        <time>2018-10-14T12:21:13Z</time>
      </trkpt>
      <trkpt lat="45.78075" lon="5.75892">
        <ele>354</ele>
        <time>2018-10-14T12:21:29Z</time>
      </trkpt>
      <trkpt lat="45.78071" lon="5.75889">
        <ele>354</ele>
        <time>2018-10-14T12:21:29Z</time>
      </trkpt>
      <trkpt lat="45.78063" lon="5.75888">
        <ele>354</ele>
        <time>2018-10-14T12:21:29Z</time>
      </trkpt>
      <trkpt lat="45.78056" lon="5.75886">
        <ele>354</ele>
        <time>2018-10-14T12:21:29Z</time>
      </trkpt>
      <trkpt lat="45.78051" lon="5.75885">
        <ele>354</ele>
        <time>2018-10-14T12:21:45Z</time>
      </trkpt>
      <trkpt lat="45.78046" lon="5.75883">
        <ele>354</ele>
        <time>2018-10-14T12:21:45Z</time>
      </trkpt>
      <trkpt lat="45.7804" lon="5.75879">
        <ele>354</ele>
        <time>2018-10-14T12:21:45Z</time>
      </trkpt>
      <trkpt lat="45.78035" lon="5.75875">
        <ele>354</ele>
        <time>2018-10-14T12:21:45Z</time>
      </trkpt>
      <trkpt lat="45.78029" lon="5.7587">
        <ele>367</ele>
        <time>2018-10-14T12:22:05Z</time>
      </trkpt>
      <trkpt lat="45.78028" lon="5.75871">
        <ele>367</ele>
        <time>2018-10-14T12:22:05Z</time>
      </trkpt>
      <trkpt lat="45.78025" lon="5.75871">
        <ele>367</ele>
        <time>2018-10-14T12:22:05Z</time>
      </trkpt>
      <trkpt lat="45.78024" lon="5.75868">
        <ele>367</ele>
        <time>2018-10-14T12:22:05Z</time>
      </trkpt>
      <trkpt lat="45.78021" lon="5.75862">
        <ele>367</ele>
        <time>2018-10-14T12:22:05Z</time>
      </trkpt>
      <trkpt lat="45.7802" lon="5.75858">
        <ele>367</ele>
        <time>2018-10-14T12:22:21Z</time>
      </trkpt>
      <trkpt lat="45.78018" lon="5.75855">
        <ele>367</ele>
        <time>2018-10-14T12:22:21Z</time>
      </trkpt>
      <trkpt lat="45.78015" lon="5.75853">
        <ele>367</ele>
        <time>2018-10-14T12:22:21Z</time>
      </trkpt>
      <trkpt lat="45.78012" lon="5.75848">
        <ele>367</ele>
        <time>2018-10-14T12:22:21Z</time>
      </trkpt>
      <trkpt lat="45.78008" lon="5.75843">
        <ele>367</ele>
        <time>2018-10-14T12:22:37Z</time>
      </trkpt>
      <trkpt lat="45.78005" lon="5.75837">
        <ele>367</ele>
        <time>2018-10-14T12:22:37Z</time>
      </trkpt>
      <trkpt lat="45.78003" lon="5.75832">
        <ele>367</ele>
        <time>2018-10-14T12:22:37Z</time>
      </trkpt>
      <trkpt lat="45.77999" lon="5.75827">
        <ele>367</ele>
        <time>2018-10-14T12:22:37Z</time>
      </trkpt>
      <trkpt lat="45.77996" lon="5.75818">
        <ele>367</ele>
        <time>2018-10-14T12:22:53Z</time>
      </trkpt>
      <trkpt lat="45.77992" lon="5.75809">
        <ele>367</ele>
        <time>2018-10-14T12:22:53Z</time>
      </trkpt>
      <trkpt lat="45.7799" lon="5.75809">
        <ele>367</ele>
        <time>2018-10-14T12:22:53Z</time>
      </trkpt>
      <trkpt lat="45.77988" lon="5.75808">
        <ele>367</ele>
        <time>2018-10-14T12:22:53Z</time>
      </trkpt>
      <trkpt lat="45.77992" lon="5.75807">
        <ele>367</ele>
        <time>2018-10-14T12:23:09Z</time>
      </trkpt>
      <trkpt lat="45.77997" lon="5.75801">
        <ele>367</ele>
        <time>2018-10-14T12:23:09Z</time>
      </trkpt>
      <trkpt lat="45.78004" lon="5.75787">
        <ele>382</ele>
        <time>2018-10-14T12:23:09Z</time>
      </trkpt>
      <trkpt lat="45.78009" lon="5.75778">
        <ele>382</ele>
        <time>2018-10-14T12:23:09Z</time>
      </trkpt>
      <trkpt lat="45.7801" lon="5.75777">
        <ele>382</ele>
        <time>2018-10-14T12:23:25Z</time>
      </trkpt>
      <trkpt lat="45.78013" lon="5.75775">
        <ele>382</ele>
        <time>2018-10-14T12:23:25Z</time>
      </trkpt>
      <trkpt lat="45.7802" lon="5.75769">
        <ele>382</ele>
        <time>2018-10-14T12:23:25Z</time>
      </trkpt>
      <trkpt lat="45.78026" lon="5.75765">
        <ele>382</ele>
        <time>2018-10-14T12:23:25Z</time>
      </trkpt>
      <trkpt lat="45.7803" lon="5.75762">
        <ele>382</ele>
        <time>2018-10-14T12:23:45Z</time>
      </trkpt>
      <trkpt lat="45.78033" lon="5.7576">
        <ele>382</ele>
        <time>2018-10-14T12:23:45Z</time>
      </trkpt>
      <trkpt lat="45.78035" lon="5.75756">
        <ele>382</ele>
        <time>2018-10-14T12:23:45Z</time>
      </trkpt>
      <trkpt lat="45.78036" lon="5.75754">
        <ele>382</ele>
        <time>2018-10-14T12:23:45Z</time>
      </trkpt>
      <trkpt lat="45.78038" lon="5.75752">
        <ele>382</ele>
        <time>2018-10-14T12:23:45Z</time>
      </trkpt>
      <trkpt lat="45.78043" lon="5.75741">
        <ele>387</ele>
        <time>2018-10-14T12:24:05Z</time>
      </trkpt>
      <trkpt lat="45.78046" lon="5.75734">
        <ele>387</ele>
        <time>2018-10-14T12:24:05Z</time>
      </trkpt>
      <trkpt lat="45.78048" lon="5.75731">
        <ele>387</ele>
        <time>2018-10-14T12:24:05Z</time>
      </trkpt>
      <trkpt lat="45.78048" lon="5.75731">
        <ele>387</ele>
        <time>2018-10-14T12:24:05Z</time>
      </trkpt>
      <trkpt lat="45.78049" lon="5.7573">
        <ele>387</ele>
        <time>2018-10-14T12:24:05Z</time>
      </trkpt>
      <trkpt lat="45.78048" lon="5.75723">
        <ele>387</ele>
        <time>2018-10-14T12:24:53Z</time>
      </trkpt>
      <trkpt lat="45.78048" lon="5.75722">
        <ele>387</ele>
        <time>2018-10-14T12:24:53Z</time>
      </trkpt>
      <trkpt lat="45.78049" lon="5.7572">
        <ele>387</ele>
        <time>2018-10-14T12:24:53Z</time>
      </trkpt>
      <trkpt lat="45.7805" lon="5.75718">
        <ele>387</ele>
        <time>2018-10-14T12:24:53Z</time>
      </trkpt>
      <trkpt lat="45.78053" lon="5.75717">
        <ele>387</ele>
        <time>2018-10-14T12:24:53Z</time>
      </trkpt>
      <trkpt lat="45.78056" lon="5.75715">
        <ele>387</ele>
        <time>2018-10-14T12:25:09Z</time>
      </trkpt>
      <trkpt lat="45.7806" lon="5.75712">
        <ele>387</ele>
        <time>2018-10-14T12:25:09Z</time>
      </trkpt>
      <trkpt lat="45.78065" lon="5.75709">
        <ele>387</ele>
        <time>2018-10-14T12:25:09Z</time>
      </trkpt>
      <trkpt lat="45.78068" lon="5.75702">
        <ele>402</ele>
        <time>2018-10-14T12:25:09Z</time>
      </trkpt>
      <trkpt lat="45.7807" lon="5.75701">
        <ele>402</ele>
        <time>2018-10-14T12:25:25Z</time>
      </trkpt>
      <trkpt lat="45.7807" lon="5.75699">
        <ele>402</ele>
        <time>2018-10-14T12:25:25Z</time>
      </trkpt>
      <trkpt lat="45.78072" lon="5.75696">
        <ele>402</ele>
        <time>2018-10-14T12:25:25Z</time>
      </trkpt>
      <trkpt lat="45.78076" lon="5.7569">
        <ele>402</ele>
        <time>2018-10-14T12:25:25Z</time>
      </trkpt>
      <trkpt lat="45.78081" lon="5.75687">
        <ele>402</ele>
        <time>2018-10-14T12:25:41Z</time>
      </trkpt>
      <trkpt lat="45.78087" lon="5.75685">
        <ele>402</ele>
        <time>2018-10-14T12:25:41Z</time>
      </trkpt>
      <trkpt lat="45.78087" lon="5.75682">
        <ele>402</ele>
        <time>2018-10-14T12:25:41Z</time>
      </trkpt>
      <trkpt lat="45.7809" lon="5.75679">
        <ele>402</ele>
        <time>2018-10-14T12:25:41Z</time>
      </trkpt>
      <trkpt lat="45.78094" lon="5.75674">
        <ele>402</ele>
        <time>2018-10-14T12:25:57Z</time>
      </trkpt>
      <trkpt lat="45.78101" lon="5.75664">
        <ele>402</ele>
        <time>2018-10-14T12:25:57Z</time>
      </trkpt>
      <trkpt lat="45.78104" lon="5.7566">
        <ele>402</ele>
        <time>2018-10-14T12:25:57Z</time>
      </trkpt>
      <trkpt lat="45.78109" lon="5.75656">
        <ele>402</ele>
        <time>2018-10-14T12:25:57Z</time>
      </trkpt>
      <trkpt lat="45.78112" lon="5.75653">
        <ele>402</ele>
        <time>2018-10-14T12:26:13Z</time>
      </trkpt>
      <trkpt lat="45.78117" lon="5.75649">
        <ele>402</ele>
        <time>2018-10-14T12:26:13Z</time>
      </trkpt>
      <trkpt lat="45.78121" lon="5.75646">
        <ele>402</ele>
        <time>2018-10-14T12:26:13Z</time>
      </trkpt>
      <trkpt lat="45.78127" lon="5.75641">
        <ele>402</ele>
        <time>2018-10-14T12:26:13Z</time>
      </trkpt>
      <trkpt lat="45.78131" lon="5.75635">
        <ele>402</ele>
        <time>2018-10-14T12:26:29Z</time>
      </trkpt>
      <trkpt lat="45.78133" lon="5.75632">
        <ele>402</ele>
        <time>2018-10-14T12:26:29Z</time>
      </trkpt>
      <trkpt lat="45.78136" lon="5.75627">
        <ele>402</ele>
        <time>2018-10-14T12:26:29Z</time>
      </trkpt>
      <trkpt lat="45.78139" lon="5.75621">
        <ele>411</ele>
        <time>2018-10-14T12:26:29Z</time>
      </trkpt>
      <trkpt lat="45.78141" lon="5.7562">
        <ele>411</ele>
        <time>2018-10-14T12:26:49Z</time>
      </trkpt>
      <trkpt lat="45.78141" lon="5.7562">
        <ele>411</ele>
        <time>2018-10-14T12:26:49Z</time>
      </trkpt>
      <trkpt lat="45.78141" lon="5.75619">
        <ele>411</ele>
        <time>2018-10-14T12:26:49Z</time>
      </trkpt>
      <trkpt lat="45.78146" lon="5.75614">
        <ele>411</ele>
        <time>2018-10-14T12:26:49Z</time>
      </trkpt>
      <trkpt lat="45.78152" lon="5.75608">
        <ele>411</ele>
        <time>2018-10-14T12:26:49Z</time>
      </trkpt>
      <trkpt lat="45.78158" lon="5.75602">
        <ele>411</ele>
        <time>2018-10-14T12:27:05Z</time>
      </trkpt>
      <trkpt lat="45.78164" lon="5.75596">
        <ele>411</ele>
        <time>2018-10-14T12:27:05Z</time>
      </trkpt>
      <trkpt lat="45.78171" lon="5.75589">
        <ele>411</ele>
        <time>2018-10-14T12:27:05Z</time>
      </trkpt>
      <trkpt lat="45.78175" lon="5.75582">
        <ele>411</ele>
        <time>2018-10-14T12:27:05Z</time>
      </trkpt>
      <trkpt lat="45.78177" lon="5.75573">
        <ele>411</ele>
        <time>2018-10-14T12:27:21Z</time>
      </trkpt>
      <trkpt lat="45.78179" lon="5.75568">
        <ele>411</ele>
        <time>2018-10-14T12:27:21Z</time>
      </trkpt>
      <trkpt lat="45.78187" lon="5.7556">
        <ele>411</ele>
        <time>2018-10-14T12:27:21Z</time>
      </trkpt>
      <trkpt lat="45.7819" lon="5.75559">
        <ele>411</ele>
        <time>2018-10-14T12:27:21Z</time>
      </trkpt>
      <trkpt lat="45.78193" lon="5.75557">
        <ele>411</ele>
        <time>2018-10-14T12:27:37Z</time>
      </trkpt>
      <trkpt lat="45.78196" lon="5.75555">
        <ele>411</ele>
        <time>2018-10-14T12:27:37Z</time>
      </trkpt>
      <trkpt lat="45.78203" lon="5.75551">
        <ele>411</ele>
        <time>2018-10-14T12:27:37Z</time>
      </trkpt>
      <trkpt lat="45.78206" lon="5.75546">
        <ele>411</ele>
        <time>2018-10-14T12:27:37Z</time>
      </trkpt>
      <trkpt lat="45.78209" lon="5.75542">
        <ele>410</ele>
        <time>2018-10-14T12:27:53Z</time>
      </trkpt>
      <trkpt lat="45.78214" lon="5.75536">
        <ele>414</ele>
        <time>2018-10-14T12:27:53Z</time>
      </trkpt>
      <trkpt lat="45.7822" lon="5.75528">
        <ele>414</ele>
        <time>2018-10-14T12:27:53Z</time>
      </trkpt>
      <trkpt lat="45.78223" lon="5.75522">
        <ele>414</ele>
        <time>2018-10-14T12:27:53Z</time>
      </trkpt>
      <trkpt lat="45.78225" lon="5.75511">
        <ele>414</ele>
        <time>2018-10-14T12:28:09Z</time>
      </trkpt>
      <trkpt lat="45.78228" lon="5.75506">
        <ele>414</ele>
        <time>2018-10-14T12:28:09Z</time>
      </trkpt>
      <trkpt lat="45.7823" lon="5.75499">
        <ele>414</ele>
        <time>2018-10-14T12:28:09Z</time>
      </trkpt>
      <trkpt lat="45.78234" lon="5.75491">
        <ele>414</ele>
        <time>2018-10-14T12:28:09Z</time>
      </trkpt>
      <trkpt lat="45.78242" lon="5.75474">
        <ele>414</ele>
        <time>2018-10-14T12:28:25Z</time>
      </trkpt>
      <trkpt lat="45.78256" lon="5.75458">
        <ele>414</ele>
        <time>2018-10-14T12:28:25Z</time>
      </trkpt>
      <trkpt lat="45.7827" lon="5.75437">
        <ele>418</ele>
        <time>2018-10-14T12:28:25Z</time>
      </trkpt>
      <trkpt lat="45.78291" lon="5.75412">
        <ele>418</ele>
        <time>2018-10-14T12:28:25Z</time>
      </trkpt>
      <trkpt lat="45.78298" lon="5.75394">
        <ele>419</ele>
        <time>2018-10-14T12:28:41Z</time>
      </trkpt>
      <trkpt lat="45.78301" lon="5.75389">
        <ele>419</ele>
        <time>2018-10-14T12:28:41Z</time>
      </trkpt>
      <trkpt lat="45.78304" lon="5.75382">
        <ele>419</ele>
        <time>2018-10-14T12:28:41Z</time>
      </trkpt>
      <trkpt lat="45.78306" lon="5.75375">
        <ele>419</ele>
        <time>2018-10-14T12:28:41Z</time>
      </trkpt>
      <trkpt lat="45.78305" lon="5.75355">
        <ele>419</ele>
        <time>2018-10-14T12:29:13Z</time>
      </trkpt>
      <trkpt lat="45.78303" lon="5.7535">
        <ele>419</ele>
        <time>2018-10-14T12:29:13Z</time>
      </trkpt>
      <trkpt lat="45.78301" lon="5.75345">
        <ele>419</ele>
        <time>2018-10-14T12:29:13Z</time>
      </trkpt>
      <trkpt lat="45.78298" lon="5.75335">
        <ele>419</ele>
        <time>2018-10-14T12:29:13Z</time>
      </trkpt>
      <trkpt lat="45.78295" lon="5.7532">
        <ele>419</ele>
        <time>2018-10-14T12:29:13Z</time>
      </trkpt>
      <trkpt lat="45.78294" lon="5.75311">
        <ele>419</ele>
        <time>2018-10-14T12:29:29Z</time>
      </trkpt>
      <trkpt lat="45.78293" lon="5.75307">
        <ele>419</ele>
        <time>2018-10-14T12:29:29Z</time>
      </trkpt>
      <trkpt lat="45.78291" lon="5.75298">
        <ele>418</ele>
        <time>2018-10-14T12:29:29Z</time>
      </trkpt>
      <trkpt lat="45.78288" lon="5.7529">
        <ele>416</ele>
        <time>2018-10-14T12:29:29Z</time>
      </trkpt>
      <trkpt lat="45.78285" lon="5.75282">
        <ele>416</ele>
        <time>2018-10-14T12:29:45Z</time>
      </trkpt>
      <trkpt lat="45.78282" lon="5.75276">
        <ele>416</ele>
        <time>2018-10-14T12:29:45Z</time>
      </trkpt>
      <trkpt lat="45.78279" lon="5.75269">
        <ele>416</ele>
        <time>2018-10-14T12:29:45Z</time>
      </trkpt>
      <trkpt lat="45.78277" lon="5.75264">
        <ele>416</ele>
        <time>2018-10-14T12:29:45Z</time>
      </trkpt>
      <trkpt lat="45.78274" lon="5.75256">
        <ele>416</ele>
        <time>2018-10-14T12:30:01Z</time>
      </trkpt>
      <trkpt lat="45.78272" lon="5.75252">
        <ele>416</ele>
        <time>2018-10-14T12:30:01Z</time>
      </trkpt>
      <trkpt lat="45.78268" lon="5.75244">
        <ele>416</ele>
        <time>2018-10-14T12:30:01Z</time>
      </trkpt>
      <trkpt lat="45.78264" lon="5.75238">
        <ele>416</ele>
        <time>2018-10-14T12:30:01Z</time>
      </trkpt>
      <trkpt lat="45.7826" lon="5.75234">
        <ele>416</ele>
        <time>2018-10-14T12:30:17Z</time>
      </trkpt>
      <trkpt lat="45.78255" lon="5.75231">
        <ele>416</ele>
        <time>2018-10-14T12:30:17Z</time>
      </trkpt>
      <trkpt lat="45.78246" lon="5.7522">
        <ele>416</ele>
        <time>2018-10-14T12:30:17Z</time>
      </trkpt>
      <trkpt lat="45.78241" lon="5.75213">
        <ele>416</ele>
        <time>2018-10-14T12:30:17Z</time>
      </trkpt>
      <trkpt lat="45.78237" lon="5.75209">
        <ele>416</ele>
        <time>2018-10-14T12:30:33Z</time>
      </trkpt>
      <trkpt lat="45.78233" lon="5.75203">
        <ele>418</ele>
        <time>2018-10-14T12:30:33Z</time>
      </trkpt>
      <trkpt lat="45.78231" lon="5.752">
        <ele>418</ele>
        <time>2018-10-14T12:30:33Z</time>
      </trkpt>
      <trkpt lat="45.78226" lon="5.75195">
        <ele>418</ele>
        <time>2018-10-14T12:30:33Z</time>
      </trkpt>
      <trkpt lat="45.78219" lon="5.75192">
        <ele>418</ele>
        <time>2018-10-14T12:30:49Z</time>
      </trkpt>
      <trkpt lat="45.78211" lon="5.75191">
        <ele>418</ele>
        <time>2018-10-14T12:30:49Z</time>
      </trkpt>
      <trkpt lat="45.78206" lon="5.75192">
        <ele>415</ele>
        <time>2018-10-14T12:30:49Z</time>
      </trkpt>
      <trkpt lat="45.782" lon="5.75192">
        <ele>415</ele>
        <time>2018-10-14T12:30:49Z</time>
      </trkpt>
      <trkpt lat="45.78193" lon="5.75192">
        <ele>415</ele>
        <time>2018-10-14T12:31:05Z</time>
      </trkpt>
      <trkpt lat="45.78189" lon="5.75193">
        <ele>415</ele>
        <time>2018-10-14T12:31:05Z</time>
      </trkpt>
      <trkpt lat="45.78184" lon="5.75194">
        <ele>415</ele>
        <time>2018-10-14T12:31:05Z</time>
      </trkpt>
      <trkpt lat="45.78178" lon="5.75199">
        <ele>415</ele>
        <time>2018-10-14T12:31:05Z</time>
      </trkpt>
      <trkpt lat="45.78173" lon="5.75201">
        <ele>415</ele>
        <time>2018-10-14T12:31:21Z</time>
      </trkpt>
      <trkpt lat="45.7817" lon="5.75201">
        <ele>415</ele>
        <time>2018-10-14T12:31:21Z</time>
      </trkpt>
      <trkpt lat="45.78164" lon="5.75203">
        <ele>415</ele>
        <time>2018-10-14T12:31:21Z</time>
      </trkpt>
      <trkpt lat="45.78157" lon="5.75205">
        <ele>415</ele>
        <time>2018-10-14T12:31:21Z</time>
      </trkpt>
      <trkpt lat="45.7815" lon="5.75206">
        <ele>415</ele>
        <time>2018-10-14T12:31:37Z</time>
      </trkpt>
      <trkpt lat="45.78143" lon="5.75207">
        <ele>415</ele>
        <time>2018-10-14T12:31:37Z</time>
      </trkpt>
      <trkpt lat="45.78139" lon="5.75208">
        <ele>420</ele>
        <time>2018-10-14T12:31:37Z</time>
      </trkpt>
      <trkpt lat="45.78134" lon="5.75211">
        <ele>420</ele>
        <time>2018-10-14T12:31:37Z</time>
      </trkpt>
      <trkpt lat="45.78129" lon="5.75211">
        <ele>420</ele>
        <time>2018-10-14T12:31:53Z</time>
      </trkpt>
      <trkpt lat="45.78123" lon="5.75212">
        <ele>409</ele>
        <time>2018-10-14T12:31:53Z</time>
      </trkpt>
      <trkpt lat="45.78119" lon="5.75211">
        <ele>409</ele>
        <time>2018-10-14T12:31:53Z</time>
      </trkpt>
      <trkpt lat="45.78113" lon="5.7521">
        <ele>409</ele>
        <time>2018-10-14T12:31:53Z</time>
      </trkpt>
      <trkpt lat="45.78108" lon="5.75213">
        <ele>409</ele>
        <time>2018-10-14T12:32:09Z</time>
      </trkpt>
      <trkpt lat="45.78103" lon="5.75217">
        <ele>409</ele>
        <time>2018-10-14T12:32:09Z</time>
      </trkpt>
      <trkpt lat="45.78099" lon="5.75219">
        <ele>409</ele>
        <time>2018-10-14T12:32:09Z</time>
      </trkpt>
      <trkpt lat="45.78094" lon="5.7522">
        <ele>409</ele>
        <time>2018-10-14T12:32:09Z</time>
      </trkpt>
      <trkpt lat="45.78087" lon="5.75224">
        <ele>409</ele>
        <time>2018-10-14T12:32:25Z</time>
      </trkpt>
      <trkpt lat="45.78081" lon="5.75227">
        <ele>409</ele>
        <time>2018-10-14T12:32:25Z</time>
      </trkpt>
      <trkpt lat="45.78075" lon="5.7523">
        <ele>409</ele>
        <time>2018-10-14T12:32:25Z</time>
      </trkpt>
      <trkpt lat="45.78069" lon="5.75231">
        <ele>409</ele>
        <time>2018-10-14T12:32:25Z</time>
      </trkpt>
      <trkpt lat="45.78063" lon="5.75229">
        <ele>409</ele>
        <time>2018-10-14T12:32:41Z</time>
      </trkpt>
      <trkpt lat="45.78058" lon="5.75223">
        <ele>409</ele>
        <time>2018-10-14T12:32:41Z</time>
      </trkpt>
      <trkpt lat="45.78054" lon="5.7522">
        <ele>409</ele>
        <time>2018-10-14T12:32:41Z</time>
      </trkpt>
      <trkpt lat="45.78049" lon="5.75215">
        <ele>409</ele>
        <time>2018-10-14T12:32:41Z</time>
      </trkpt>
      <trkpt lat="45.78044" lon="5.75213">
        <ele>409</ele>
        <time>2018-10-14T12:32:57Z</time>
      </trkpt>
      <trkpt lat="45.78038" lon="5.75212">
        <ele>399</ele>
        <time>2018-10-14T12:32:57Z</time>
      </trkpt>
      <trkpt lat="45.78033" lon="5.75214">
        <ele>399</ele>
        <time>2018-10-14T12:32:57Z</time>
      </trkpt>
      <trkpt lat="45.78027" lon="5.75221">
        <ele>399</ele>
        <time>2018-10-14T12:32:57Z</time>
      </trkpt>
      <trkpt lat="45.78019" lon="5.75229">
        <ele>399</ele>
        <time>2018-10-14T12:33:13Z</time>
      </trkpt>
      <trkpt lat="45.78013" lon="5.7523">
        <ele>399</ele>
        <time>2018-10-14T12:33:13Z</time>
      </trkpt>
      <trkpt lat="45.7801" lon="5.75232">
        <ele>399</ele>
        <time>2018-10-14T12:33:13Z</time>
      </trkpt>
      <trkpt lat="45.78006" lon="5.75237">
        <ele>399</ele>
        <time>2018-10-14T12:33:13Z</time>
      </trkpt>
      <trkpt lat="45.78006" lon="5.75244">
        <ele>399</ele>
        <time>2018-10-14T12:34:37Z</time>
      </trkpt>
      <trkpt lat="45.78005" lon="5.75243">
        <ele>399</ele>
        <time>2018-10-14T12:34:37Z</time>
      </trkpt>
      <trkpt lat="45.78004" lon="5.75243">
        <ele>399</ele>
        <time>2018-10-14T12:34:37Z</time>
      </trkpt>
      <trkpt lat="45.78003" lon="5.75245">
        <ele>399</ele>
        <time>2018-10-14T12:34:37Z</time>
      </trkpt>
      <trkpt lat="45.78" lon="5.75254">
        <ele>399</ele>
        <time>2018-10-14T12:34:37Z</time>
      </trkpt>
      <trkpt lat="45.77998" lon="5.75261">
        <ele>399</ele>
        <time>2018-10-14T12:34:53Z</time>
      </trkpt>
      <trkpt lat="45.77994" lon="5.7527">
        <ele>399</ele>
        <time>2018-10-14T12:34:53Z</time>
      </trkpt>
      <trkpt lat="45.77992" lon="5.75274">
        <ele>399</ele>
        <time>2018-10-14T12:34:53Z</time>
      </trkpt>
      <trkpt lat="45.77988" lon="5.75281">
        <ele>399</ele>
        <time>2018-10-14T12:34:53Z</time>
      </trkpt>
      <trkpt lat="45.77984" lon="5.75291">
        <ele>399</ele>
        <time>2018-10-14T12:35:09Z</time>
      </trkpt>
      <trkpt lat="45.77981" lon="5.75297">
        <ele>397</ele>
        <time>2018-10-14T12:35:09Z</time>
      </trkpt>
      <trkpt lat="45.77978" lon="5.75301">
        <ele>397</ele>
        <time>2018-10-14T12:35:09Z</time>
      </trkpt>
      <trkpt lat="45.77973" lon="5.75307">
        <ele>397</ele>
        <time>2018-10-14T12:35:09Z</time>
      </trkpt>
      <trkpt lat="45.77969" lon="5.75312">
        <ele>397</ele>
        <time>2018-10-14T12:35:25Z</time>
      </trkpt>
      <trkpt lat="45.77966" lon="5.7532">
        <ele>397</ele>
        <time>2018-10-14T12:35:25Z</time>
      </trkpt>
      <trkpt lat="45.77963" lon="5.75325">
        <ele>397</ele>
        <time>2018-10-14T12:35:25Z</time>
      </trkpt>
      <trkpt lat="45.77962" lon="5.75331">
        <ele>397</ele>
        <time>2018-10-14T12:35:25Z</time>
      </trkpt>
      <trkpt lat="45.7796" lon="5.75338">
        <ele>397</ele>
        <time>2018-10-14T12:35:41Z</time>
      </trkpt>
      <trkpt lat="45.77957" lon="5.75346">
        <ele>387</ele>
        <time>2018-10-14T12:35:41Z</time>
      </trkpt>
      <trkpt lat="45.77953" lon="5.75353">
        <ele>387</ele>
        <time>2018-10-14T12:35:41Z</time>
      </trkpt>
      <trkpt lat="45.77948" lon="5.75359">
        <ele>387</ele>
        <time>2018-10-14T12:35:41Z</time>
      </trkpt>
      <trkpt lat="45.77944" lon="5.75364">
        <ele>387</ele>
        <time>2018-10-14T12:35:57Z</time>
      </trkpt>
      <trkpt lat="45.7794" lon="5.75369">
        <ele>387</ele>
        <time>2018-10-14T12:35:57Z</time>
      </trkpt>
      <trkpt lat="45.77935" lon="5.75372">
        <ele>387</ele>
        <time>2018-10-14T12:35:57Z</time>
      </trkpt>
      <trkpt lat="45.7793" lon="5.75374">
        <ele>387</ele>
        <time>2018-10-14T12:35:57Z</time>
      </trkpt>
      <trkpt lat="45.77923" lon="5.75377">
        <ele>386</ele>
        <time>2018-10-14T12:36:13Z</time>
      </trkpt>
      <trkpt lat="45.77916" lon="5.75378">
        <ele>386</ele>
        <time>2018-10-14T12:36:13Z</time>
      </trkpt>
      <trkpt lat="45.7791" lon="5.75377">
        <ele>386</ele>
        <time>2018-10-14T12:36:13Z</time>
      </trkpt>
      <trkpt lat="45.77904" lon="5.75376">
        <ele>386</ele>
        <time>2018-10-14T12:36:13Z</time>
      </trkpt>
      <trkpt lat="45.77899" lon="5.75375">
        <ele>387</ele>
        <time>2018-10-14T12:36:29Z</time>
      </trkpt>
      <trkpt lat="45.77892" lon="5.75375">
        <ele>386</ele>
        <time>2018-10-14T12:36:29Z</time>
      </trkpt>
      <trkpt lat="45.77886" lon="5.75376">
        <ele>386</ele>
        <time>2018-10-14T12:36:29Z</time>
      </trkpt>
      <trkpt lat="45.77882" lon="5.75379">
        <ele>386</ele>
        <time>2018-10-14T12:36:29Z</time>
      </trkpt>
      <trkpt lat="45.77877" lon="5.75378">
        <ele>386</ele>
        <time>2018-10-14T12:36:45Z</time>
      </trkpt>
      <trkpt lat="45.77872" lon="5.75377">
        <ele>375</ele>
        <time>2018-10-14T12:36:45Z</time>
      </trkpt>
      <trkpt lat="45.77865" lon="5.75375">
        <ele>375</ele>
        <time>2018-10-14T12:36:45Z</time>
      </trkpt>
      <trkpt lat="45.77858" lon="5.75376">
        <ele>375</ele>
        <time>2018-10-14T12:36:45Z</time>
      </trkpt>
      <trkpt lat="45.77851" lon="5.75375">
        <ele>375</ele>
        <time>2018-10-14T12:37:01Z</time>
      </trkpt>
      <trkpt lat="45.77842" lon="5.75373">
        <ele>381</ele>
        <time>2018-10-14T12:37:01Z</time>
      </trkpt>
      <trkpt lat="45.77838" lon="5.75373">
        <ele>381</ele>
        <time>2018-10-14T12:37:01Z</time>
      </trkpt>
      <trkpt lat="45.77833" lon="5.75374">
        <ele>381</ele>
        <time>2018-10-14T12:37:01Z</time>
      </trkpt>
      <trkpt lat="45.77828" lon="5.75372">
        <ele>381</ele>
        <time>2018-10-14T12:37:17Z</time>
      </trkpt>
      <trkpt lat="45.77827" lon="5.75369">
        <ele>381</ele>
        <time>2018-10-14T12:37:17Z</time>
      </trkpt>
      <trkpt lat="45.77828" lon="5.75358">
        <ele>381</ele>
        <time>2018-10-14T12:37:17Z</time>
      </trkpt>
      <trkpt lat="45.77832" lon="5.75352">
        <ele>381</ele>
        <time>2018-10-14T12:37:17Z</time>
      </trkpt>
      <trkpt lat="45.77836" lon="5.75347">
        <ele>381</ele>
        <time>2018-10-14T12:37:33Z</time>
      </trkpt>
      <trkpt lat="45.77841" lon="5.75341">
        <ele>381</ele>
        <time>2018-10-14T12:37:33Z</time>
      </trkpt>
      <trkpt lat="45.77844" lon="5.75337">
        <ele>381</ele>
        <time>2018-10-14T12:37:33Z</time>
      </trkpt>
      <trkpt lat="45.77846" lon="5.75333">
        <ele>381</ele>
        <time>2018-10-14T12:37:33Z</time>
      </trkpt>
      <trkpt lat="45.77849" lon="5.75326">
        <ele>381</ele>
        <time>2018-10-14T12:37:49Z</time>
      </trkpt>
      <trkpt lat="45.77851" lon="5.75319">
        <ele>381</ele>
        <time>2018-10-14T12:37:49Z</time>
      </trkpt>
      <trkpt lat="45.77853" lon="5.75312">
        <ele>381</ele>
        <time>2018-10-14T12:37:49Z</time>
      </trkpt>
      <trkpt lat="45.77855" lon="5.75305">
        <ele>381</ele>
        <time>2018-10-14T12:37:49Z</time>
      </trkpt>
      <trkpt lat="45.77855" lon="5.75301">
        <ele>381</ele>
        <time>2018-10-14T12:38:05Z</time>
      </trkpt>
      <trkpt lat="45.77857" lon="5.75296">
        <ele>381</ele>
        <time>2018-10-14T12:38:05Z</time>
      </trkpt>
      <trkpt lat="45.77859" lon="5.75291">
        <ele>387</ele>
        <time>2018-10-14T12:38:05Z</time>
      </trkpt>
      <trkpt lat="45.77861" lon="5.75286">
        <ele>387</ele>
        <time>2018-10-14T12:38:05Z</time>
      </trkpt>
      <trkpt lat="45.77863" lon="5.7528">
        <ele>387</ele>
        <time>2018-10-14T12:38:21Z</time>
      </trkpt>
      <trkpt lat="45.77865" lon="5.75271">
        <ele>387</ele>
        <time>2018-10-14T12:38:21Z</time>
      </trkpt>
      <trkpt lat="45.77867" lon="5.75265">
        <ele>387</ele>
        <time>2018-10-14T12:38:21Z</time>
      </trkpt>
      <trkpt lat="45.77869" lon="5.75258">
        <ele>387</ele>
        <time>2018-10-14T12:38:21Z</time>
      </trkpt>
      <trkpt lat="45.7787" lon="5.75252">
        <ele>387</ele>
        <time>2018-10-14T12:38:37Z</time>
      </trkpt>
      <trkpt lat="45.77872" lon="5.75246">
        <ele>387</ele>
        <time>2018-10-14T12:38:37Z</time>
      </trkpt>
      <trkpt lat="45.77874" lon="5.75239">
        <ele>387</ele>
        <time>2018-10-14T12:38:37Z</time>
      </trkpt>
      <trkpt lat="45.77875" lon="5.75233">
        <ele>400</ele>
        <time>2018-10-14T12:38:37Z</time>
      </trkpt>
      <trkpt lat="45.77877" lon="5.75226">
        <ele>400</ele>
        <time>2018-10-14T12:38:53Z</time>
      </trkpt>
      <trkpt lat="45.77879" lon="5.7522">
        <ele>400</ele>
        <time>2018-10-14T12:38:53Z</time>
      </trkpt>
      <trkpt lat="45.7788" lon="5.75213">
        <ele>400</ele>
        <time>2018-10-14T12:38:53Z</time>
      </trkpt>
      <trkpt lat="45.7788" lon="5.75206">
        <ele>410</ele>
        <time>2018-10-14T12:38:53Z</time>
      </trkpt>
      <trkpt lat="45.77881" lon="5.75199">
        <ele>410</ele>
        <time>2018-10-14T12:39:09Z</time>
      </trkpt>
      <trkpt lat="45.77883" lon="5.75191">
        <ele>410</ele>
        <time>2018-10-14T12:39:09Z</time>
      </trkpt>
      <trkpt lat="45.77884" lon="5.75186">
        <ele>410</ele>
        <time>2018-10-14T12:39:09Z</time>
      </trkpt>
      <trkpt lat="45.77885" lon="5.75179">
        <ele>410</ele>
        <time>2018-10-14T12:39:09Z</time>
      </trkpt>
      <trkpt lat="45.7789" lon="5.75166">
        <ele>410</ele>
        <time>2018-10-14T12:39:33Z</time>
      </trkpt>
      <trkpt lat="45.77891" lon="5.75163">
        <ele>410</ele>
        <time>2018-10-14T12:39:33Z</time>
      </trkpt>
      <trkpt lat="45.77891" lon="5.75161">
        <ele>410</ele>
        <time>2018-10-14T12:39:33Z</time>
      </trkpt>
      <trkpt lat="45.77892" lon="5.75161">
        <ele>410</ele>
        <time>2018-10-14T12:39:33Z</time>
      </trkpt>
      <trkpt lat="45.77897" lon="5.75153">
        <ele>410</ele>
        <time>2018-10-14T12:39:33Z</time>
      </trkpt>
      <trkpt lat="45.77898" lon="5.75148">
        <ele>410</ele>
        <time>2018-10-14T12:40:09Z</time>
      </trkpt>
      <trkpt lat="45.77898" lon="5.75148">
        <ele>410</ele>
        <time>2018-10-14T12:40:09Z</time>
      </trkpt>
      <trkpt lat="45.77899" lon="5.75146">
        <ele>410</ele>
        <time>2018-10-14T12:40:09Z</time>
      </trkpt>
      <trkpt lat="45.77901" lon="5.75142">
        <ele>410</ele>
        <time>2018-10-14T12:40:09Z</time>
      </trkpt>
      <trkpt lat="45.77905" lon="5.75137">
        <ele>410</ele>
        <time>2018-10-14T12:40:09Z</time>
      </trkpt>
      <trkpt lat="45.77908" lon="5.75131">
        <ele>410</ele>
        <time>2018-10-14T12:40:25Z</time>
      </trkpt>
      <trkpt lat="45.77912" lon="5.75125">
        <ele>423</ele>
        <time>2018-10-14T12:40:25Z</time>
      </trkpt>
      <trkpt lat="45.77914" lon="5.75118">
        <ele>423</ele>
        <time>2018-10-14T12:40:25Z</time>
      </trkpt>
      <trkpt lat="45.77917" lon="5.75112">
        <ele>423</ele>
        <time>2018-10-14T12:40:25Z</time>
      </trkpt>
      <trkpt lat="45.7792" lon="5.75108">
        <ele>423</ele>
        <time>2018-10-14T12:40:41Z</time>
      </trkpt>
      <trkpt lat="45.77925" lon="5.75099">
        <ele>423</ele>
        <time>2018-10-14T12:40:41Z</time>
      </trkpt>
      <trkpt lat="45.77931" lon="5.75092">
        <ele>423</ele>
        <time>2018-10-14T12:40:41Z</time>
      </trkpt>
      <trkpt lat="45.77934" lon="5.75086">
        <ele>423</ele>
        <time>2018-10-14T12:40:41Z</time>
      </trkpt>
      <trkpt lat="45.77936" lon="5.75081">
        <ele>423</ele>
        <time>2018-10-14T12:40:57Z</time>
      </trkpt>
      <trkpt lat="45.77939" lon="5.75077">
        <ele>423</ele>
        <time>2018-10-14T12:40:57Z</time>
      </trkpt>
      <trkpt lat="45.77942" lon="5.75073">
        <ele>423</ele>
        <time>2018-10-14T12:40:57Z</time>
      </trkpt>
      <trkpt lat="45.77949" lon="5.75069">
        <ele>423</ele>
        <time>2018-10-14T12:40:57Z</time>
      </trkpt>
      <trkpt lat="45.77955" lon="5.75063">
        <ele>423</ele>
        <time>2018-10-14T12:41:13Z</time>
      </trkpt>
      <trkpt lat="45.77959" lon="5.75061">
        <ele>426</ele>
        <time>2018-10-14T12:41:13Z</time>
      </trkpt>
      <trkpt lat="45.77965" lon="5.75057">
        <ele>426</ele>
        <time>2018-10-14T12:41:13Z</time>
      </trkpt>
      <trkpt lat="45.7797" lon="5.75053">
        <ele>426</ele>
        <time>2018-10-14T12:41:13Z</time>
      </trkpt>
      <trkpt lat="45.77974" lon="5.75051">
        <ele>426</ele>
        <time>2018-10-14T12:41:29Z</time>
      </trkpt>
      <trkpt lat="45.77977" lon="5.75047">
        <ele>426</ele>
        <time>2018-10-14T12:41:29Z</time>
      </trkpt>
      <trkpt lat="45.77979" lon="5.75042">
        <ele>426</ele>
        <time>2018-10-14T12:41:29Z</time>
      </trkpt>
      <trkpt lat="45.77981" lon="5.75042">
        <ele>441</ele>
        <time>2018-10-14T12:41:29Z</time>
      </trkpt>
      <trkpt lat="45.77983" lon="5.75043">
        <ele>426</ele>
        <time>2018-10-14T12:42:17Z</time>
      </trkpt>
      <trkpt lat="45.77984" lon="5.75043">
        <ele>426</ele>
        <time>2018-10-14T12:42:17Z</time>
      </trkpt>
      <trkpt lat="45.77985" lon="5.75041">
        <ele>441</ele>
        <time>2018-10-14T12:42:17Z</time>
      </trkpt>
      <trkpt lat="45.77988" lon="5.75038">
        <ele>441</ele>
        <time>2018-10-14T12:42:17Z</time>
      </trkpt>
      <trkpt lat="45.77992" lon="5.75031">
        <ele>441</ele>
        <time>2018-10-14T12:42:17Z</time>
      </trkpt>
      <trkpt lat="45.77995" lon="5.75028">
        <ele>441</ele>
        <time>2018-10-14T12:42:33Z</time>
      </trkpt>
      <trkpt lat="45.77998" lon="5.75024">
        <ele>441</ele>
        <time>2018-10-14T12:42:33Z</time>
      </trkpt>
      <trkpt lat="45.78001" lon="5.75022">
        <ele>441</ele>
        <time>2018-10-14T12:42:33Z</time>
      </trkpt>
      <trkpt lat="45.78005" lon="5.75019">
        <ele>441</ele>
        <time>2018-10-14T12:42:33Z</time>
      </trkpt>
      <trkpt lat="45.78008" lon="5.75016">
        <ele>441</ele>
        <time>2018-10-14T12:42:49Z</time>
      </trkpt>
      <trkpt lat="45.78011" lon="5.75012">
        <ele>441</ele>
        <time>2018-10-14T12:42:49Z</time>
      </trkpt>
      <trkpt lat="45.78014" lon="5.75008">
        <ele>441</ele>
        <time>2018-10-14T12:42:49Z</time>
      </trkpt>
      <trkpt lat="45.78017" lon="5.75006">
        <ele>441</ele>
        <time>2018-10-14T12:42:49Z</time>
      </trkpt>
      <trkpt lat="45.7802" lon="5.75003">
        <ele>441</ele>
        <time>2018-10-14T12:43:05Z</time>
      </trkpt>
      <trkpt lat="45.78024" lon="5.75">
        <ele>441</ele>
        <time>2018-10-14T12:43:05Z</time>
      </trkpt>
      <trkpt lat="45.78028" lon="5.74996">
        <ele>441</ele>
        <time>2018-10-14T12:43:05Z</time>
      </trkpt>
      <trkpt lat="45.78032" lon="5.74991">
        <ele>441</ele>
        <time>2018-10-14T12:43:05Z</time>
      </trkpt>
      <trkpt lat="45.78038" lon="5.74985">
        <ele>441</ele>
        <time>2018-10-14T12:43:21Z</time>
      </trkpt>
      <trkpt lat="45.78042" lon="5.74978">
        <ele>448</ele>
        <time>2018-10-14T12:43:21Z</time>
      </trkpt>
      <trkpt lat="45.78046" lon="5.74973">
        <ele>448</ele>
        <time>2018-10-14T12:43:21Z</time>
      </trkpt>
      <trkpt lat="45.78048" lon="5.74972">
        <ele>448</ele>
        <time>2018-10-14T12:43:21Z</time>
      </trkpt>
      <trkpt lat="45.78052" lon="5.74966">
        <ele>448</ele>
        <time>2018-10-14T12:43:41Z</time>
      </trkpt>
      <trkpt lat="45.78054" lon="5.74965">
        <ele>448</ele>
        <time>2018-10-14T12:43:41Z</time>
      </trkpt>
      <trkpt lat="45.78054" lon="5.74965">
        <ele>448</ele>
        <time>2018-10-14T12:43:41Z</time>
      </trkpt>
      <trkpt lat="45.78057" lon="5.74962">
        <ele>448</ele>
        <time>2018-10-14T12:43:41Z</time>
      </trkpt>
      <trkpt lat="45.78061" lon="5.74958">
        <ele>461</ele>
        <time>2018-10-14T12:43:41Z</time>
      </trkpt>
      <trkpt lat="45.78065" lon="5.74952">
        <ele>461</ele>
        <time>2018-10-14T12:43:57Z</time>
      </trkpt>
      <trkpt lat="45.7807" lon="5.74947">
        <ele>461</ele>
        <time>2018-10-14T12:43:57Z</time>
      </trkpt>
      <trkpt lat="45.78075" lon="5.7494">
        <ele>461</ele>
        <time>2018-10-14T12:43:57Z</time>
      </trkpt>
      <trkpt lat="45.78077" lon="5.74934">
        <ele>461</ele>
        <time>2018-10-14T12:43:57Z</time>
      </trkpt>
      <trkpt lat="45.78079" lon="5.7493">
        <ele>461</ele>
        <time>2018-10-14T12:44:17Z</time>
      </trkpt>
      <trkpt lat="45.78082" lon="5.74928">
        <ele>461</ele>
        <time>2018-10-14T12:44:17Z</time>
      </trkpt>
      <trkpt lat="45.78086" lon="5.74926">
        <ele>461</ele>
        <time>2018-10-14T12:44:17Z</time>
      </trkpt>
      <trkpt lat="45.78086" lon="5.74926">
        <ele>461</ele>
        <time>2018-10-14T12:44:17Z</time>
      </trkpt>
      <trkpt lat="45.7809" lon="5.74918">
        <ele>461</ele>
        <time>2018-10-14T12:44:17Z</time>
      </trkpt>
      <trkpt lat="45.78097" lon="5.7491">
        <ele>461</ele>
        <time>2018-10-14T12:44:33Z</time>
      </trkpt>
      <trkpt lat="45.78102" lon="5.74905">
        <ele>461</ele>
        <time>2018-10-14T12:44:33Z</time>
      </trkpt>
      <trkpt lat="45.78104" lon="5.74902">
        <ele>461</ele>
        <time>2018-10-14T12:44:33Z</time>
      </trkpt>
      <trkpt lat="45.78107" lon="5.74894">
        <ele>461</ele>
        <time>2018-10-14T12:44:33Z</time>
      </trkpt>
      <trkpt lat="45.7811" lon="5.74887">
        <ele>461</ele>
        <time>2018-10-14T12:44:49Z</time>
      </trkpt>
      <trkpt lat="45.78113" lon="5.74884">
        <ele>461</ele>
        <time>2018-10-14T12:44:49Z</time>
      </trkpt>
      <trkpt lat="45.78116" lon="5.74881">
        <ele>461</ele>
        <time>2018-10-14T12:44:49Z</time>
      </trkpt>
      <trkpt lat="45.78119" lon="5.74878">
        <ele>461</ele>
        <time>2018-10-14T12:44:49Z</time>
      </trkpt>
      <trkpt lat="45.78123" lon="5.74875">
        <ele>460</ele>
        <time>2018-10-14T12:45:05Z</time>
      </trkpt>
      <trkpt lat="45.78126" lon="5.74871">
        <ele>475</ele>
        <time>2018-10-14T12:45:05Z</time>
      </trkpt>
      <trkpt lat="45.7813" lon="5.74866">
        <ele>475</ele>
        <time>2018-10-14T12:45:05Z</time>
      </trkpt>
      <trkpt lat="45.78133" lon="5.74862">
        <ele>475</ele>
        <time>2018-10-14T12:45:05Z</time>
      </trkpt>
      <trkpt lat="45.78136" lon="5.74862">
        <ele>475</ele>
        <time>2018-10-14T12:45:21Z</time>
      </trkpt>
      <trkpt lat="45.78145" lon="5.74859">
        <ele>475</ele>
        <time>2018-10-14T12:45:21Z</time>
      </trkpt>
      <trkpt lat="45.78151" lon="5.74856">
        <ele>475</ele>
        <time>2018-10-14T12:45:21Z</time>
      </trkpt>
      <trkpt lat="45.78153" lon="5.74855">
        <ele>475</ele>
        <time>2018-10-14T12:45:21Z</time>
      </trkpt>
      <trkpt lat="45.78155" lon="5.74854">
        <ele>475</ele>
        <time>2018-10-14T12:45:37Z</time>
      </trkpt>
      <trkpt lat="45.78159" lon="5.7485">
        <ele>475</ele>
        <time>2018-10-14T12:45:37Z</time>
      </trkpt>
      <trkpt lat="45.78161" lon="5.74849">
        <ele>475</ele>
        <time>2018-10-14T12:45:37Z</time>
      </trkpt>
      <trkpt lat="45.78165" lon="5.74849">
        <ele>475</ele>
        <time>2018-10-14T12:45:37Z</time>
      </trkpt>
      <trkpt lat="45.78169" lon="5.74847">
        <ele>475</ele>
        <time>2018-10-14T12:45:53Z</time>
      </trkpt>
      <trkpt lat="45.78183" lon="5.74839">
        <ele>475</ele>
        <time>2018-10-14T12:45:53Z</time>
      </trkpt>
      <trkpt lat="45.7819" lon="5.74837">
        <ele>475</ele>
        <time>2018-10-14T12:45:53Z</time>
      </trkpt>
      <trkpt lat="45.78194" lon="5.74835">
        <ele>475</ele>
        <time>2018-10-14T12:45:53Z</time>
      </trkpt>
      <trkpt lat="45.78195" lon="5.74834">
        <ele>475</ele>
        <time>2018-10-14T12:46:09Z</time>
      </trkpt>
      <trkpt lat="45.78198" lon="5.74833">
        <ele>475</ele>
        <time>2018-10-14T12:46:09Z</time>
      </trkpt>
      <trkpt lat="45.78201" lon="5.74832">
        <ele>475</ele>
        <time>2018-10-14T12:46:09Z</time>
      </trkpt>
      <trkpt lat="45.78204" lon="5.74832">
        <ele>475</ele>
        <time>2018-10-14T12:46:09Z</time>
      </trkpt>
      <trkpt lat="45.78209" lon="5.74832">
        <ele>461</ele>
        <time>2018-10-14T12:46:25Z</time>
      </trkpt>
      <trkpt lat="45.78212" lon="5.74833">
        <ele>461</ele>
        <time>2018-10-14T12:46:25Z</time>
      </trkpt>
      <trkpt lat="45.78216" lon="5.74834">
        <ele>461</ele>
        <time>2018-10-14T12:46:25Z</time>
      </trkpt>
      <trkpt lat="45.78219" lon="5.74833">
        <ele>461</ele>
        <time>2018-10-14T12:46:25Z</time>
      </trkpt>
      <trkpt lat="45.78216" lon="5.74831">
        <ele>461</ele>
        <time>2018-10-14T12:49:13Z</time>
      </trkpt>
      <trkpt lat="45.78219" lon="5.7483">
        <ele>461</ele>
        <time>2018-10-14T12:49:13Z</time>
      </trkpt>
      <trkpt lat="45.78225" lon="5.74825">
        <ele>461</ele>
        <time>2018-10-14T12:49:13Z</time>
      </trkpt>
      <trkpt lat="45.7823" lon="5.74827">
        <ele>461</ele>
        <time>2018-10-14T12:49:13Z</time>
      </trkpt>
      <trkpt lat="45.78233" lon="5.74828">
        <ele>461</ele>
        <time>2018-10-14T12:49:13Z</time>
      </trkpt>
      <trkpt lat="45.78236" lon="5.74826">
        <ele>461</ele>
        <time>2018-10-14T12:49:29Z</time>
      </trkpt>
      <trkpt lat="45.7824" lon="5.74825">
        <ele>461</ele>
        <time>2018-10-14T12:49:29Z</time>
      </trkpt>
      <trkpt lat="45.78245" lon="5.74825">
        <ele>461</ele>
        <time>2018-10-14T12:49:29Z</time>
      </trkpt>
      <trkpt lat="45.78247" lon="5.74825">
        <ele>461</ele>
        <time>2018-10-14T12:49:29Z</time>
      </trkpt>
      <trkpt lat="45.78248" lon="5.74828">
        <ele>461</ele>
        <time>2018-10-14T12:50:01Z</time>
      </trkpt>
      <trkpt lat="45.78251" lon="5.74829">
        <ele>461</ele>
        <time>2018-10-14T12:50:01Z</time>
      </trkpt>
      <trkpt lat="45.78252" lon="5.74829">
        <ele>461</ele>
        <time>2018-10-14T12:50:01Z</time>
      </trkpt>
      <trkpt lat="45.78254" lon="5.74828">
        <ele>461</ele>
        <time>2018-10-14T12:50:01Z</time>
      </trkpt>
      <trkpt lat="45.78257" lon="5.74827">
        <ele>461</ele>
        <time>2018-10-14T12:50:01Z</time>
      </trkpt>
      <trkpt lat="45.78261" lon="5.74827">
        <ele>461</ele>
        <time>2018-10-14T12:50:21Z</time>
      </trkpt>
      <trkpt lat="45.78262" lon="5.74827">
        <ele>461</ele>
        <time>2018-10-14T12:50:21Z</time>
      </trkpt>
      <trkpt lat="45.78265" lon="5.74822">
        <ele>461</ele>
        <time>2018-10-14T12:50:21Z</time>
      </trkpt>
      <trkpt lat="45.78266" lon="5.74819">
        <ele>461</ele>
        <time>2018-10-14T12:50:21Z</time>
      </trkpt>
      <trkpt lat="45.78271" lon="5.74814">
        <ele>461</ele>
        <time>2018-10-14T12:50:21Z</time>
      </trkpt>
      <trkpt lat="45.78273" lon="5.74812">
        <ele>461</ele>
        <time>2018-10-14T12:50:37Z</time>
      </trkpt>
      <trkpt lat="45.78275" lon="5.7481">
        <ele>461</ele>
        <time>2018-10-14T12:50:37Z</time>
      </trkpt>
      <trkpt lat="45.78283" lon="5.74813">
        <ele>461</ele>
        <time>2018-10-14T12:50:37Z</time>
      </trkpt>
      <trkpt lat="45.78284" lon="5.74813">
        <ele>461</ele>
        <time>2018-10-14T12:50:37Z</time>
      </trkpt>
      <trkpt lat="45.78286" lon="5.74814">
        <ele>461</ele>
        <time>2018-10-14T12:51:17Z</time>
      </trkpt>
      <trkpt lat="45.78287" lon="5.74815">
        <ele>461</ele>
        <time>2018-10-14T12:51:17Z</time>
      </trkpt>
      <trkpt lat="45.78289" lon="5.74813">
        <ele>461</ele>
        <time>2018-10-14T12:51:17Z</time>
      </trkpt>
      <trkpt lat="45.78292" lon="5.74812">
        <ele>439</ele>
        <time>2018-10-14T12:51:17Z</time>
      </trkpt>
      <trkpt lat="45.78296" lon="5.7481">
        <ele>439</ele>
        <time>2018-10-14T12:51:17Z</time>
      </trkpt>
      <trkpt lat="45.78301" lon="5.74807">
        <ele>439</ele>
        <time>2018-10-14T12:51:33Z</time>
      </trkpt>
      <trkpt lat="45.78306" lon="5.74805">
        <ele>439</ele>
        <time>2018-10-14T12:51:33Z</time>
      </trkpt>
      <trkpt lat="45.78311" lon="5.74803">
        <ele>439</ele>
        <time>2018-10-14T12:51:33Z</time>
      </trkpt>
      <trkpt lat="45.78314" lon="5.74801">
        <ele>439</ele>
        <time>2018-10-14T12:51:33Z</time>
      </trkpt>
      <trkpt lat="45.78322" lon="5.74802">
        <ele>439</ele>
        <time>2018-10-14T12:52:17Z</time>
      </trkpt>
      <trkpt lat="45.78324" lon="5.74801">
        <ele>439</ele>
        <time>2018-10-14T12:52:17Z</time>
      </trkpt>
      <trkpt lat="45.78327" lon="5.74801">
        <ele>439</ele>
        <time>2018-10-14T12:52:17Z</time>
      </trkpt>
      <trkpt lat="45.7833" lon="5.74797">
        <ele>439</ele>
        <time>2018-10-14T12:52:17Z</time>
      </trkpt>
      <trkpt lat="45.78331" lon="5.74796">
        <ele>439</ele>
        <time>2018-10-14T12:52:17Z</time>
      </trkpt>
      <trkpt lat="45.78339" lon="5.74796">
        <ele>439</ele>
        <time>2018-10-14T12:53:01Z</time>
      </trkpt>
      <trkpt lat="45.7834" lon="5.74796">
        <ele>439</ele>
        <time>2018-10-14T12:53:01Z</time>
      </trkpt>
      <trkpt lat="45.78341" lon="5.74796">
        <ele>439</ele>
        <time>2018-10-14T12:53:01Z</time>
      </trkpt>
      <trkpt lat="45.78344" lon="5.74794">
        <ele>439</ele>
        <time>2018-10-14T12:53:01Z</time>
      </trkpt>
      <trkpt lat="45.78349" lon="5.74793">
        <ele>439</ele>
        <time>2018-10-14T12:53:01Z</time>
      </trkpt>
      <trkpt lat="45.78353" lon="5.74791">
        <ele>422</ele>
        <time>2018-10-14T12:53:21Z</time>
      </trkpt>
      <trkpt lat="45.78357" lon="5.74789">
        <ele>422</ele>
        <time>2018-10-14T12:53:21Z</time>
      </trkpt>
      <trkpt lat="45.78358" lon="5.74788">
        <ele>422</ele>
        <time>2018-10-14T12:53:21Z</time>
      </trkpt>
      <trkpt lat="45.78359" lon="5.74788">
        <ele>422</ele>
        <time>2018-10-14T12:53:21Z</time>
      </trkpt>
      <trkpt lat="45.78363" lon="5.74789">
        <ele>422</ele>
        <time>2018-10-14T12:53:21Z</time>
      </trkpt>
      <trkpt lat="45.78367" lon="5.7479">
        <ele>422</ele>
        <time>2018-10-14T12:53:37Z</time>
      </trkpt>
      <trkpt lat="45.78371" lon="5.74791">
        <ele>422</ele>
        <time>2018-10-14T12:53:37Z</time>
      </trkpt>
      <trkpt lat="45.78373" lon="5.74794">
        <ele>439</ele>
        <time>2018-10-14T12:53:37Z</time>
      </trkpt>
      <trkpt lat="45.78375" lon="5.74799">
        <ele>415</ele>
        <time>2018-10-14T12:53:37Z</time>
      </trkpt>
      <trkpt lat="45.78376" lon="5.74802">
        <ele>415</ele>
        <time>2018-10-14T12:53:57Z</time>
      </trkpt>
      <trkpt lat="45.78377" lon="5.74805">
        <ele>415</ele>
        <time>2018-10-14T12:53:57Z</time>
      </trkpt>
      <trkpt lat="45.78378" lon="5.74807">
        <ele>415</ele>
        <time>2018-10-14T12:53:57Z</time>
      </trkpt>
      <trkpt lat="45.78381" lon="5.74811">
        <ele>415</ele>
        <time>2018-10-14T12:53:57Z</time>
      </trkpt>
      <trkpt lat="45.78383" lon="5.74814">
        <ele>415</ele>
        <time>2018-10-14T12:53:57Z</time>
      </trkpt>
      <trkpt lat="45.78388" lon="5.74808">
        <ele>415</ele>
        <time>2018-10-14T12:54:53Z</time>
      </trkpt>
      <trkpt lat="45.78389" lon="5.74808">
        <ele>415</ele>
        <time>2018-10-14T12:54:53Z</time>
      </trkpt>
      <trkpt lat="45.7839" lon="5.74808">
        <ele>415</ele>
        <time>2018-10-14T12:54:53Z</time>
      </trkpt>
      <trkpt lat="45.78391" lon="5.74807">
        <ele>415</ele>
        <time>2018-10-14T12:54:53Z</time>
      </trkpt>
      <trkpt lat="45.78392" lon="5.74806">
        <ele>415</ele>
        <time>2018-10-14T12:54:53Z</time>
      </trkpt>
      <trkpt lat="45.78398" lon="5.74799">
        <ele>415</ele>
        <time>2018-10-14T12:55:41Z</time>
      </trkpt>
      <trkpt lat="45.78398" lon="5.74798">
        <ele>415</ele>
        <time>2018-10-14T12:55:41Z</time>
      </trkpt>
      <trkpt lat="45.78399" lon="5.74797">
        <ele>415</ele>
        <time>2018-10-14T12:55:41Z</time>
      </trkpt>
      <trkpt lat="45.78401" lon="5.74795">
        <ele>415</ele>
        <time>2018-10-14T12:55:41Z</time>
      </trkpt>
      <trkpt lat="45.78403" lon="5.74795">
        <ele>415</ele>
        <time>2018-10-14T12:55:41Z</time>
      </trkpt>
      <trkpt lat="45.78408" lon="5.74794">
        <ele>415</ele>
        <time>2018-10-14T12:55:57Z</time>
      </trkpt>
      <trkpt lat="45.78413" lon="5.74794">
        <ele>415</ele>
        <time>2018-10-14T12:55:57Z</time>
      </trkpt>
      <trkpt lat="45.78417" lon="5.74793">
        <ele>415</ele>
        <time>2018-10-14T12:55:57Z</time>
      </trkpt>
      <trkpt lat="45.78422" lon="5.7479">
        <ele>391</ele>
        <time>2018-10-14T12:55:57Z</time>
      </trkpt>
      <trkpt lat="45.78424" lon="5.74787">
        <ele>391</ele>
        <time>2018-10-14T12:56:13Z</time>
      </trkpt>
      <trkpt lat="45.78427" lon="5.74781">
        <ele>391</ele>
        <time>2018-10-14T12:56:13Z</time>
      </trkpt>
      <trkpt lat="45.7843" lon="5.74774">
        <ele>391</ele>
        <time>2018-10-14T12:56:13Z</time>
      </trkpt>
      <trkpt lat="45.78434" lon="5.7477">
        <ele>391</ele>
        <time>2018-10-14T12:56:13Z</time>
      </trkpt>
      <trkpt lat="45.78438" lon="5.74765">
        <ele>391</ele>
        <time>2018-10-14T12:56:29Z</time>
      </trkpt>
      <trkpt lat="45.78441" lon="5.74761">
        <ele>391</ele>
        <time>2018-10-14T12:56:29Z</time>
      </trkpt>
      <trkpt lat="45.78444" lon="5.74758">
        <ele>391</ele>
        <time>2018-10-14T12:56:29Z</time>
      </trkpt>
      <trkpt lat="45.78448" lon="5.74757">
        <ele>391</ele>
        <time>2018-10-14T12:56:29Z</time>
      </trkpt>
      <trkpt lat="45.78449" lon="5.74758">
        <ele>391</ele>
        <time>2018-10-14T12:56:49Z</time>
      </trkpt>
      <trkpt lat="45.7845" lon="5.74759">
        <ele>391</ele>
        <time>2018-10-14T12:56:49Z</time>
      </trkpt>
      <trkpt lat="45.7845" lon="5.74759">
        <ele>391</ele>
        <time>2018-10-14T12:56:49Z</time>
      </trkpt>
      <trkpt lat="45.78455" lon="5.74762">
        <ele>391</ele>
        <time>2018-10-14T12:56:49Z</time>
      </trkpt>
      <trkpt lat="45.78458" lon="5.74767">
        <ele>391</ele>
        <time>2018-10-14T12:56:49Z</time>
      </trkpt>
      <trkpt lat="45.7846" lon="5.74769">
        <ele>357</ele>
        <time>2018-10-14T12:57:05Z</time>
      </trkpt>
      <trkpt lat="45.78462" lon="5.74772">
        <ele>357</ele>
        <time>2018-10-14T12:57:05Z</time>
      </trkpt>
      <trkpt lat="45.78463" lon="5.74776">
        <ele>357</ele>
        <time>2018-10-14T12:57:05Z</time>
      </trkpt>
      <trkpt lat="45.78464" lon="5.7478">
        <ele>357</ele>
        <time>2018-10-14T12:57:05Z</time>
      </trkpt>
      <trkpt lat="45.78466" lon="5.74785">
        <ele>357</ele>
        <time>2018-10-14T12:57:29Z</time>
      </trkpt>
      <trkpt lat="45.78467" lon="5.74787">
        <ele>357</ele>
        <time>2018-10-14T12:57:29Z</time>
      </trkpt>
      <trkpt lat="45.78467" lon="5.74789">
        <ele>357</ele>
        <time>2018-10-14T12:57:29Z</time>
      </trkpt>
      <trkpt lat="45.78468" lon="5.7479">
        <ele>357</ele>
        <time>2018-10-14T12:57:29Z</time>
      </trkpt>
      <trkpt lat="45.7847" lon="5.74794">
        <ele>382</ele>
        <time>2018-10-14T12:57:29Z</time>
      </trkpt>
      <trkpt lat="45.78471" lon="5.748">
        <ele>382</ele>
        <time>2018-10-14T12:58:49Z</time>
      </trkpt>
      <trkpt lat="45.78473" lon="5.74799">
        <ele>382</ele>
        <time>2018-10-14T12:58:49Z</time>
      </trkpt>
      <trkpt lat="45.78476" lon="5.748">
        <ele>382</ele>
        <time>2018-10-14T12:58:49Z</time>
      </trkpt>
      <trkpt lat="45.78481" lon="5.74801">
        <ele>382</ele>
        <time>2018-10-14T12:58:49Z</time>
      </trkpt>
      <trkpt lat="45.78485" lon="5.74799">
        <ele>382</ele>
        <time>2018-10-14T12:58:49Z</time>
      </trkpt>
      <trkpt lat="45.78485" lon="5.74799">
        <ele>382</ele>
        <time>2018-10-14T12:59:09Z</time>
      </trkpt>
      <trkpt lat="45.78488" lon="5.748">
        <ele>382</ele>
        <time>2018-10-14T12:59:09Z</time>
      </trkpt>
      <trkpt lat="45.78491" lon="5.74799">
        <ele>382</ele>
        <time>2018-10-14T12:59:09Z</time>
      </trkpt>
      <trkpt lat="45.78493" lon="5.74797">
        <ele>382</ele>
        <time>2018-10-14T12:59:09Z</time>
      </trkpt>
      <trkpt lat="45.78494" lon="5.74797">
        <ele>382</ele>
        <time>2018-10-14T12:59:09Z</time>
      </trkpt>
      <trkpt lat="45.78502" lon="5.74794">
        <ele>382</ele>
        <time>2018-10-14T13:00:13Z</time>
      </trkpt>
      <trkpt lat="45.78503" lon="5.74794">
        <ele>382</ele>
        <time>2018-10-14T13:00:13Z</time>
      </trkpt>
      <trkpt lat="45.78503" lon="5.74792">
        <ele>382</ele>
        <time>2018-10-14T13:00:13Z</time>
      </trkpt>
      <trkpt lat="45.78503" lon="5.74791">
        <ele>357</ele>
        <time>2018-10-14T13:00:13Z</time>
      </trkpt>
      <trkpt lat="45.78505" lon="5.74789">
        <ele>357</ele>
        <time>2018-10-14T13:00:13Z</time>
      </trkpt>
      <trkpt lat="45.78509" lon="5.7478">
        <ele>357</ele>
        <time>2018-10-14T13:00:29Z</time>
      </trkpt>
      <trkpt lat="45.78511" lon="5.74774">
        <ele>357</ele>
        <time>2018-10-14T13:00:29Z</time>
      </trkpt>
      <trkpt lat="45.78514" lon="5.74771">
        <ele>357</ele>
        <time>2018-10-14T13:00:29Z</time>
      </trkpt>
      <trkpt lat="45.78516" lon="5.74773">
        <ele>357</ele>
        <time>2018-10-14T13:00:29Z</time>
      </trkpt>
      <trkpt lat="45.78522" lon="5.74774">
        <ele>357</ele>
        <time>2018-10-14T13:00:57Z</time>
      </trkpt>
      <trkpt lat="45.78522" lon="5.74774">
        <ele>357</ele>
        <time>2018-10-14T13:00:57Z</time>
      </trkpt>
      <trkpt lat="45.78523" lon="5.74775">
        <ele>357</ele>
        <time>2018-10-14T13:00:57Z</time>
      </trkpt>
      <trkpt lat="45.78525" lon="5.74773">
        <ele>357</ele>
        <time>2018-10-14T13:00:57Z</time>
      </trkpt>
      <trkpt lat="45.78527" lon="5.74768">
        <ele>357</ele>
        <time>2018-10-14T13:00:57Z</time>
      </trkpt>
      <trkpt lat="45.78528" lon="5.7476">
        <ele>357</ele>
        <time>2018-10-14T13:01:13Z</time>
      </trkpt>
      <trkpt lat="45.78531" lon="5.74753">
        <ele>357</ele>
        <time>2018-10-14T13:01:13Z</time>
      </trkpt>
      <trkpt lat="45.78535" lon="5.74748">
        <ele>357</ele>
        <time>2018-10-14T13:01:13Z</time>
      </trkpt>
      <trkpt lat="45.78536" lon="5.74744">
        <ele>357</ele>
        <time>2018-10-14T13:01:13Z</time>
      </trkpt>
      <trkpt lat="45.78539" lon="5.74739">
        <ele>357</ele>
        <time>2018-10-14T13:01:29Z</time>
      </trkpt>
      <trkpt lat="45.78543" lon="5.74734">
        <ele>330</ele>
        <time>2018-10-14T13:01:29Z</time>
      </trkpt>
      <trkpt lat="45.78545" lon="5.74727">
        <ele>330</ele>
        <time>2018-10-14T13:01:29Z</time>
      </trkpt>
      <trkpt lat="45.78546" lon="5.74724">
        <ele>330</ele>
        <time>2018-10-14T13:01:29Z</time>
      </trkpt>
      <trkpt lat="45.78549" lon="5.74722">
        <ele>330</ele>
        <time>2018-10-14T13:01:49Z</time>
      </trkpt>
      <trkpt lat="45.78554" lon="5.7472">
        <ele>330</ele>
        <time>2018-10-14T13:01:49Z</time>
      </trkpt>
      <trkpt lat="45.78556" lon="5.74721">
        <ele>330</ele>
        <time>2018-10-14T13:01:49Z</time>
      </trkpt>
      <trkpt lat="45.78557" lon="5.74721">
        <ele>330</ele>
        <time>2018-10-14T13:01:49Z</time>
      </trkpt>
      <trkpt lat="45.7856" lon="5.74722">
        <ele>330</ele>
        <time>2018-10-14T13:01:49Z</time>
      </trkpt>
      <trkpt lat="45.78564" lon="5.74724">
        <ele>330</ele>
        <time>2018-10-14T13:02:05Z</time>
      </trkpt>
      <trkpt lat="45.78569" lon="5.74726">
        <ele>330</ele>
        <time>2018-10-14T13:02:05Z</time>
      </trkpt>
      <trkpt lat="45.78573" lon="5.74731">
        <ele>330</ele>
        <time>2018-10-14T13:02:05Z</time>
      </trkpt>
      <trkpt lat="45.78576" lon="5.74731">
        <ele>330</ele>
        <time>2018-10-14T13:02:05Z</time>
      </trkpt>
      <trkpt lat="45.78579" lon="5.74732">
        <ele>330</ele>
        <time>2018-10-14T13:02:25Z</time>
      </trkpt>
      <trkpt lat="45.78581" lon="5.74734">
        <ele>330</ele>
        <time>2018-10-14T13:02:25Z</time>
      </trkpt>
      <trkpt lat="45.78582" lon="5.74739">
        <ele>330</ele>
        <time>2018-10-14T13:02:25Z</time>
      </trkpt>
      <trkpt lat="45.78585" lon="5.74741">
        <ele>330</ele>
        <time>2018-10-14T13:02:25Z</time>
      </trkpt>
      <trkpt lat="45.78588" lon="5.74745">
        <ele>330</ele>
        <time>2018-10-14T13:02:25Z</time>
      </trkpt>
      <trkpt lat="45.78589" lon="5.74747">
        <ele>330</ele>
        <time>2018-10-14T13:02:41Z</time>
      </trkpt>
      <trkpt lat="45.78592" lon="5.74751">
        <ele>330</ele>
        <time>2018-10-14T13:02:41Z</time>
      </trkpt>
      <trkpt lat="45.78596" lon="5.74753">
        <ele>330</ele>
        <time>2018-10-14T13:02:41Z</time>
      </trkpt>
      <trkpt lat="45.786" lon="5.74754">
        <ele>330</ele>
        <time>2018-10-14T13:02:41Z</time>
      </trkpt>
      <trkpt lat="45.78605" lon="5.74753">
        <ele>330</ele>
        <time>2018-10-14T13:03:05Z</time>
      </trkpt>
      <trkpt lat="45.78606" lon="5.74752">
        <ele>330</ele>
        <time>2018-10-14T13:03:05Z</time>
      </trkpt>
      <trkpt lat="45.78607" lon="5.74751">
        <ele>330</ele>
        <time>2018-10-14T13:03:05Z</time>
      </trkpt>
      <trkpt lat="45.78611" lon="5.74749">
        <ele>330</ele>
        <time>2018-10-14T13:03:05Z</time>
      </trkpt>
      <trkpt lat="45.78615" lon="5.74749">
        <ele>330</ele>
        <time>2018-10-14T13:03:05Z</time>
      </trkpt>
      <trkpt lat="45.78618" lon="5.74747">
        <ele>330</ele>
        <time>2018-10-14T13:03:21Z</time>
      </trkpt>
      <trkpt lat="45.7862" lon="5.74746">
        <ele>330</ele>
        <time>2018-10-14T13:03:21Z</time>
      </trkpt>
      <trkpt lat="45.78624" lon="5.74745">
        <ele>330</ele>
        <time>2018-10-14T13:03:21Z</time>
      </trkpt>
      <trkpt lat="45.78631" lon="5.74746">
        <ele>311</ele>
        <time>2018-10-14T13:03:21Z</time>
      </trkpt>
      <trkpt lat="45.78634" lon="5.74744">
        <ele>311</ele>
        <time>2018-10-14T13:03:41Z</time>
      </trkpt>
      <trkpt lat="45.78636" lon="5.74744">
        <ele>311</ele>
        <time>2018-10-14T13:03:41Z</time>
      </trkpt>
      <trkpt lat="45.78638" lon="5.74744">
        <ele>311</ele>
        <time>2018-10-14T13:03:41Z</time>
      </trkpt>
      <trkpt lat="45.78642" lon="5.74745">
        <ele>311</ele>
        <time>2018-10-14T13:03:41Z</time>
      </trkpt>
      <trkpt lat="45.78643" lon="5.74745">
        <ele>311</ele>
        <time>2018-10-14T13:03:41Z</time>
      </trkpt>
      <trkpt lat="45.78643" lon="5.74745">
        <ele>311</ele>
        <time>2018-10-14T13:04:01Z</time>
      </trkpt>
      <trkpt lat="45.78644" lon="5.74742">
        <ele>311</ele>
        <time>2018-10-14T13:04:01Z</time>
      </trkpt>
      <trkpt lat="45.78647" lon="5.74739">
        <ele>311</ele>
        <time>2018-10-14T13:04:01Z</time>
      </trkpt>
      <trkpt lat="45.78651" lon="5.74741">
        <ele>311</ele>
        <time>2018-10-14T13:04:01Z</time>
      </trkpt>
      <trkpt lat="45.78655" lon="5.74742">
        <ele>311</ele>
        <time>2018-10-14T13:04:01Z</time>
      </trkpt>
      <trkpt lat="45.7866" lon="5.74741">
        <ele>311</ele>
        <time>2018-10-14T13:04:25Z</time>
      </trkpt>
      <trkpt lat="45.78663" lon="5.74739">
        <ele>311</ele>
        <time>2018-10-14T13:04:25Z</time>
      </trkpt>
      <trkpt lat="45.78663" lon="5.74739">
        <ele>311</ele>
        <time>2018-10-14T13:04:25Z</time>
      </trkpt>
      <trkpt lat="45.78665" lon="5.74739">
        <ele>311</ele>
        <time>2018-10-14T13:04:25Z</time>
      </trkpt>
      <trkpt lat="45.78668" lon="5.74741">
        <ele>311</ele>
        <time>2018-10-14T13:04:25Z</time>
      </trkpt>
      <trkpt lat="45.78671" lon="5.74739">
        <ele>311</ele>
        <time>2018-10-14T13:04:41Z</time>
      </trkpt>
      <trkpt lat="45.78668" lon="5.74736">
        <ele>311</ele>
        <time>2018-10-14T13:04:41Z</time>
      </trkpt>
      <trkpt lat="45.78661" lon="5.7473">
        <ele>311</ele>
        <time>2018-10-14T13:04:41Z</time>
      </trkpt>
      <trkpt lat="45.78655" lon="5.74726">
        <ele>311</ele>
        <time>2018-10-14T13:04:41Z</time>
      </trkpt>
      <trkpt lat="45.78649" lon="5.74724">
        <ele>311</ele>
        <time>2018-10-14T13:04:57Z</time>
      </trkpt>
      <trkpt lat="45.78645" lon="5.74721">
        <ele>311</ele>
        <time>2018-10-14T13:04:57Z</time>
      </trkpt>
      <trkpt lat="45.78642" lon="5.74713">
        <ele>311</ele>
        <time>2018-10-14T13:04:57Z</time>
      </trkpt>
      <trkpt lat="45.78641" lon="5.7471">
        <ele>311</ele>
        <time>2018-10-14T13:04:57Z</time>
      </trkpt>
      <trkpt lat="45.78642" lon="5.74714">
        <ele>311</ele>
        <time>2018-10-14T13:29:41Z</time>
      </trkpt>
      <trkpt lat="45.78642" lon="5.74715">
        <ele>311</ele>
        <time>2018-10-14T13:29:41Z</time>
      </trkpt>
      <trkpt lat="45.78642" lon="5.74715">
        <ele>311</ele>
        <time>2018-10-14T13:29:41Z</time>
      </trkpt>
      <trkpt lat="45.78642" lon="5.74715">
        <ele>311</ele>
        <time>2018-10-14T13:29:41Z</time>
      </trkpt>
      <trkpt lat="45.78642" lon="5.74721">
        <ele>311</ele>
        <time>2018-10-14T13:29:41Z</time>
      </trkpt>
      <trkpt lat="45.78647" lon="5.74711">
        <ele>311</ele>
        <time>2018-10-14T13:33:57Z</time>
      </trkpt>
      <trkpt lat="45.78646" lon="5.74711">
        <ele>311</ele>
        <time>2018-10-14T13:33:57Z</time>
      </trkpt>
      <trkpt lat="45.78646" lon="5.74711">
        <ele>311</ele>
        <time>2018-10-14T13:33:57Z</time>
      </trkpt>
      <trkpt lat="45.78646" lon="5.7471">
        <ele>311</ele>
        <time>2018-10-14T13:33:57Z</time>
      </trkpt>
      <trkpt lat="45.78647" lon="5.74708">
        <ele>298</ele>
        <time>2018-10-14T13:33:57Z</time>
      </trkpt>
      <trkpt lat="45.78641" lon="5.74715">
        <ele>311</ele>
        <time>2018-10-14T13:38:21Z</time>
      </trkpt>
      <trkpt lat="45.7864" lon="5.74714">
        <ele>311</ele>
        <time>2018-10-14T13:38:21Z</time>
      </trkpt>
      <trkpt lat="45.78639" lon="5.74713">
        <ele>311</ele>
        <time>2018-10-14T13:38:21Z</time>
      </trkpt>
      <trkpt lat="45.78639" lon="5.74713">
        <ele>311</ele>
        <time>2018-10-14T13:38:21Z</time>
      </trkpt>
      <trkpt lat="45.78639" lon="5.74714">
        <ele>311</ele>
        <time>2018-10-14T13:38:21Z</time>
      </trkpt>
      <trkpt lat="45.78646" lon="5.74714">
        <ele>311</ele>
        <time>2018-10-14T13:39:17Z</time>
      </trkpt>
      <trkpt lat="45.78646" lon="5.74715">
        <ele>311</ele>
        <time>2018-10-14T13:39:17Z</time>
      </trkpt>
      <trkpt lat="45.78646" lon="5.74715">
        <ele>311</ele>
        <time>2018-10-14T13:39:17Z</time>
      </trkpt>
      <trkpt lat="45.78647" lon="5.74715">
        <ele>311</ele>
        <time>2018-10-14T13:39:17Z</time>
      </trkpt>
      <trkpt lat="45.78649" lon="5.74716">
        <ele>311</ele>
        <time>2018-10-14T13:39:17Z</time>
      </trkpt>
      <trkpt lat="45.78645" lon="5.74723">
        <ele>311</ele>
        <time>2018-10-14T13:41:13Z</time>
      </trkpt>
      <trkpt lat="45.78645" lon="5.74723">
        <ele>311</ele>
        <time>2018-10-14T13:41:13Z</time>
      </trkpt>
      <trkpt lat="45.78645" lon="5.74724">
        <ele>311</ele>
        <time>2018-10-14T13:41:13Z</time>
      </trkpt>
      <trkpt lat="45.78645" lon="5.74725">
        <ele>311</ele>
        <time>2018-10-14T13:41:13Z</time>
      </trkpt>
      <trkpt lat="45.78642" lon="5.74724">
        <ele>311</ele>
        <time>2018-10-14T13:41:13Z</time>
      </trkpt>
      <trkpt lat="45.78643" lon="5.74718">
        <ele>311</ele>
        <time>2018-10-14T13:43:53Z</time>
      </trkpt>
      <trkpt lat="45.7864" lon="5.74717">
        <ele>311</ele>
        <time>2018-10-14T13:43:53Z</time>
      </trkpt>
      <trkpt lat="45.78642" lon="5.74708">
        <ele>298</ele>
        <time>2018-10-14T13:43:53Z</time>
      </trkpt>
      <trkpt lat="45.78644" lon="5.74707">
        <ele>298</ele>
        <time>2018-10-14T13:43:53Z</time>
      </trkpt>
      <trkpt lat="45.78644" lon="5.74707">
        <ele>298</ele>
        <time>2018-10-14T13:43:53Z</time>
      </trkpt>
      <trkpt lat="45.78643" lon="5.74709">
        <ele>311</ele>
        <time>2018-10-14T13:45:45Z</time>
      </trkpt>
      <trkpt lat="45.78643" lon="5.7471">
        <ele>311</ele>
        <time>2018-10-14T13:45:45Z</time>
      </trkpt>
      <trkpt lat="45.78643" lon="5.74711">
        <ele>311</ele>
        <time>2018-10-14T13:45:45Z</time>
      </trkpt>
      <trkpt lat="45.78643" lon="5.74715">
        <ele>311</ele>
        <time>2018-10-14T13:45:45Z</time>
      </trkpt>
      <trkpt lat="45.78646" lon="5.74722">
        <ele>311</ele>
        <time>2018-10-14T13:45:45Z</time>
      </trkpt>
      <trkpt lat="45.78647" lon="5.74729">
        <ele>311</ele>
        <time>2018-10-14T13:46:01Z</time>
      </trkpt>
      <trkpt lat="45.78649" lon="5.74736">
        <ele>311</ele>
        <time>2018-10-14T13:46:01Z</time>
      </trkpt>
      <trkpt lat="45.78651" lon="5.7474">
        <ele>311</ele>
        <time>2018-10-14T13:46:01Z</time>
      </trkpt>
      <trkpt lat="45.78654" lon="5.74744">
        <ele>311</ele>
        <time>2018-10-14T13:46:01Z</time>
      </trkpt>
      <trkpt lat="45.78656" lon="5.74746">
        <ele>311</ele>
        <time>2018-10-14T13:46:17Z</time>
      </trkpt>
      <trkpt lat="45.78661" lon="5.74749">
        <ele>311</ele>
        <time>2018-10-14T13:46:17Z</time>
      </trkpt>
      <trkpt lat="45.78666" lon="5.74752">
        <ele>311</ele>
        <time>2018-10-14T13:46:17Z</time>
      </trkpt>
      <trkpt lat="45.7867" lon="5.74754">
        <ele>311</ele>
        <time>2018-10-14T13:46:17Z</time>
      </trkpt>
      <trkpt lat="45.78673" lon="5.74755">
        <ele>311</ele>
        <time>2018-10-14T13:46:33Z</time>
      </trkpt>
      <trkpt lat="45.78679" lon="5.74755">
        <ele>311</ele>
        <time>2018-10-14T13:46:33Z</time>
      </trkpt>
      <trkpt lat="45.78684" lon="5.74755">
        <ele>311</ele>
        <time>2018-10-14T13:46:33Z</time>
      </trkpt>
      <trkpt lat="45.78689" lon="5.74752">
        <ele>311</ele>
        <time>2018-10-14T13:46:33Z</time>
      </trkpt>
      <trkpt lat="45.78695" lon="5.74751">
        <ele>311</ele>
        <time>2018-10-14T13:46:53Z</time>
      </trkpt>
      <trkpt lat="45.78698" lon="5.74748">
        <ele>311</ele>
        <time>2018-10-14T13:46:53Z</time>
      </trkpt>
      <trkpt lat="45.787" lon="5.74747">
        <ele>311</ele>
        <time>2018-10-14T13:46:53Z</time>
      </trkpt>
      <trkpt lat="45.78702" lon="5.74743">
        <ele>311</ele>
        <time>2018-10-14T13:46:53Z</time>
      </trkpt>
      <trkpt lat="45.78703" lon="5.74742">
        <ele>311</ele>
        <time>2018-10-14T13:46:53Z</time>
      </trkpt>
      <trkpt lat="45.78705" lon="5.74742">
        <ele>311</ele>
        <time>2018-10-14T13:47:09Z</time>
      </trkpt>
      <trkpt lat="45.78705" lon="5.74739">
        <ele>311</ele>
        <time>2018-10-14T13:47:09Z</time>
      </trkpt>
      <trkpt lat="45.78701" lon="5.74737">
        <ele>311</ele>
        <time>2018-10-14T13:47:09Z</time>
      </trkpt>
      <trkpt lat="45.78696" lon="5.74734">
        <ele>311</ele>
        <time>2018-10-14T13:47:09Z</time>
      </trkpt>
      <trkpt lat="45.78693" lon="5.7473">
        <ele>311</ele>
        <time>2018-10-14T13:47:25Z</time>
      </trkpt>
      <trkpt lat="45.78689" lon="5.74723">
        <ele>311</ele>
        <time>2018-10-14T13:47:25Z</time>
      </trkpt>
      <trkpt lat="45.78685" lon="5.74717">
        <ele>311</ele>
        <time>2018-10-14T13:47:25Z</time>
      </trkpt>
      <trkpt lat="45.78682" lon="5.74711">
        <ele>311</ele>
        <time>2018-10-14T13:47:25Z</time>
      </trkpt>
      <trkpt lat="45.78678" lon="5.74705">
        <ele>298</ele>
        <time>2018-10-14T13:47:41Z</time>
      </trkpt>
      <trkpt lat="45.78675" lon="5.74699">
        <ele>298</ele>
        <time>2018-10-14T13:47:41Z</time>
      </trkpt>
      <trkpt lat="45.78671" lon="5.74693">
        <ele>298</ele>
        <time>2018-10-14T13:47:41Z</time>
      </trkpt>
      <trkpt lat="45.78668" lon="5.74688">
        <ele>298</ele>
        <time>2018-10-14T13:47:41Z</time>
      </trkpt>
      <trkpt lat="45.78664" lon="5.74683">
        <ele>298</ele>
        <time>2018-10-14T13:47:57Z</time>
      </trkpt>
      <trkpt lat="45.7866" lon="5.74677">
        <ele>298</ele>
        <time>2018-10-14T13:47:57Z</time>
      </trkpt>
      <trkpt lat="45.78657" lon="5.74673">
        <ele>298</ele>
        <time>2018-10-14T13:47:57Z</time>
      </trkpt>
      <trkpt lat="45.78654" lon="5.74667">
        <ele>298</ele>
        <time>2018-10-14T13:47:57Z</time>
      </trkpt>
      <trkpt lat="45.7865" lon="5.74663">
        <ele>298</ele>
        <time>2018-10-14T13:48:13Z</time>
      </trkpt>
      <trkpt lat="45.78648" lon="5.74657">
        <ele>298</ele>
        <time>2018-10-14T13:48:13Z</time>
      </trkpt>
      <trkpt lat="45.78644" lon="5.74652">
        <ele>298</ele>
        <time>2018-10-14T13:48:13Z</time>
      </trkpt>
      <trkpt lat="45.78642" lon="5.74646">
        <ele>298</ele>
        <time>2018-10-14T13:48:13Z</time>
      </trkpt>
      <trkpt lat="45.78638" lon="5.74639">
        <ele>298</ele>
        <time>2018-10-14T13:48:29Z</time>
      </trkpt>
      <trkpt lat="45.78634" lon="5.74633">
        <ele>298</ele>
        <time>2018-10-14T13:48:29Z</time>
      </trkpt>
      <trkpt lat="45.78629" lon="5.74626">
        <ele>298</ele>
        <time>2018-10-14T13:48:29Z</time>
      </trkpt>
      <trkpt lat="45.78626" lon="5.74619">
        <ele>299</ele>
        <time>2018-10-14T13:48:29Z</time>
      </trkpt>
      <trkpt lat="45.78618" lon="5.74606">
        <ele>309</ele>
        <time>2018-10-14T13:49:37Z</time>
      </trkpt>
      <trkpt lat="45.78617" lon="5.74605">
        <ele>309</ele>
        <time>2018-10-14T13:49:37Z</time>
      </trkpt>
      <trkpt lat="45.78618" lon="5.74605">
        <ele>309</ele>
        <time>2018-10-14T13:49:37Z</time>
      </trkpt>
      <trkpt lat="45.78617" lon="5.74604">
        <ele>309</ele>
        <time>2018-10-14T13:49:37Z</time>
      </trkpt>
      <trkpt lat="45.78615" lon="5.74603">
        <ele>309</ele>
        <time>2018-10-14T13:49:37Z</time>
      </trkpt>
      <trkpt lat="45.78611" lon="5.746">
        <ele>309</ele>
        <time>2018-10-14T13:49:53Z</time>
      </trkpt>
      <trkpt lat="45.78606" lon="5.74597">
        <ele>309</ele>
        <time>2018-10-14T13:49:53Z</time>
      </trkpt>
      <trkpt lat="45.78602" lon="5.74593">
        <ele>309</ele>
        <time>2018-10-14T13:49:53Z</time>
      </trkpt>
      <trkpt lat="45.78598" lon="5.74588">
        <ele>309</ele>
        <time>2018-10-14T13:49:53Z</time>
      </trkpt>
      <trkpt lat="45.78594" lon="5.74581">
        <ele>309</ele>
        <time>2018-10-14T13:50:09Z</time>
      </trkpt>
      <trkpt lat="45.78589" lon="5.74572">
        <ele>309</ele>
        <time>2018-10-14T13:50:09Z</time>
      </trkpt>
      <trkpt lat="45.78585" lon="5.74566">
        <ele>309</ele>
        <time>2018-10-14T13:50:09Z</time>
      </trkpt>
      <trkpt lat="45.78582" lon="5.74562">
        <ele>309</ele>
        <time>2018-10-14T13:50:09Z</time>
      </trkpt>
      <trkpt lat="45.78579" lon="5.74557">
        <ele>309</ele>
        <time>2018-10-14T13:50:25Z</time>
      </trkpt>
      <trkpt lat="45.78574" lon="5.74553">
        <ele>309</ele>
        <time>2018-10-14T13:50:25Z</time>
      </trkpt>
      <trkpt lat="45.7857" lon="5.7455">
        <ele>309</ele>
        <time>2018-10-14T13:50:25Z</time>
      </trkpt>
      <trkpt lat="45.78566" lon="5.74547">
        <ele>309</ele>
        <time>2018-10-14T13:50:25Z</time>
      </trkpt>
      <trkpt lat="45.7856" lon="5.74544">
        <ele>309</ele>
        <time>2018-10-14T13:50:41Z</time>
      </trkpt>
      <trkpt lat="45.78555" lon="5.74541">
        <ele>299</ele>
        <time>2018-10-14T13:50:41Z</time>
      </trkpt>
      <trkpt lat="45.7855" lon="5.74538">
        <ele>299</ele>
        <time>2018-10-14T13:50:41Z</time>
      </trkpt>
      <trkpt lat="45.78543" lon="5.74537">
        <ele>299</ele>
        <time>2018-10-14T13:50:41Z</time>
      </trkpt>
      <trkpt lat="45.78538" lon="5.74534">
        <ele>304</ele>
        <time>2018-10-14T13:50:57Z</time>
      </trkpt>
      <trkpt lat="45.78534" lon="5.74533">
        <ele>304</ele>
        <time>2018-10-14T13:50:57Z</time>
      </trkpt>
      <trkpt lat="45.7853" lon="5.74532">
        <ele>304</ele>
        <time>2018-10-14T13:50:57Z</time>
      </trkpt>
      <trkpt lat="45.78524" lon="5.7453">
        <ele>304</ele>
        <time>2018-10-14T13:50:57Z</time>
      </trkpt>
      <trkpt lat="45.78519" lon="5.74528">
        <ele>304</ele>
        <time>2018-10-14T13:51:13Z</time>
      </trkpt>
      <trkpt lat="45.78513" lon="5.74528">
        <ele>304</ele>
        <time>2018-10-14T13:51:13Z</time>
      </trkpt>
      <trkpt lat="45.78508" lon="5.74529">
        <ele>304</ele>
        <time>2018-10-14T13:51:13Z</time>
      </trkpt>
      <trkpt lat="45.785" lon="5.74527">
        <ele>304</ele>
        <time>2018-10-14T13:51:13Z</time>
      </trkpt>
      <trkpt lat="45.78495" lon="5.74524">
        <ele>304</ele>
        <time>2018-10-14T13:51:29Z</time>
      </trkpt>
      <trkpt lat="45.7849" lon="5.74524">
        <ele>304</ele>
        <time>2018-10-14T13:51:29Z</time>
      </trkpt>
      <trkpt lat="45.78485" lon="5.74524">
        <ele>304</ele>
        <time>2018-10-14T13:51:29Z</time>
      </trkpt>
      <trkpt lat="45.7848" lon="5.74522">
        <ele>304</ele>
        <time>2018-10-14T13:51:29Z</time>
      </trkpt>
      <trkpt lat="45.78474" lon="5.74522">
        <ele>304</ele>
        <time>2018-10-14T13:51:45Z</time>
      </trkpt>
      <trkpt lat="45.78468" lon="5.74518">
        <ele>304</ele>
        <time>2018-10-14T13:51:45Z</time>
      </trkpt>
      <trkpt lat="45.78462" lon="5.74517">
        <ele>304</ele>
        <time>2018-10-14T13:51:45Z</time>
      </trkpt>
      <trkpt lat="45.78457" lon="5.74516">
        <ele>311</ele>
        <time>2018-10-14T13:51:45Z</time>
      </trkpt>
      <trkpt lat="45.78451" lon="5.74514">
        <ele>311</ele>
        <time>2018-10-14T13:52:01Z</time>
      </trkpt>
      <trkpt lat="45.78444" lon="5.74514">
        <ele>311</ele>
        <time>2018-10-14T13:52:01Z</time>
      </trkpt>
      <trkpt lat="45.78438" lon="5.74515">
        <ele>311</ele>
        <time>2018-10-14T13:52:01Z</time>
      </trkpt>
      <trkpt lat="45.78434" lon="5.74512">
        <ele>311</ele>
        <time>2018-10-14T13:52:01Z</time>
      </trkpt>
      <trkpt lat="45.78429" lon="5.74512">
        <ele>311</ele>
        <time>2018-10-14T13:52:17Z</time>
      </trkpt>
      <trkpt lat="45.78424" lon="5.74513">
        <ele>311</ele>
        <time>2018-10-14T13:52:17Z</time>
      </trkpt>
      <trkpt lat="45.78418" lon="5.7451">
        <ele>311</ele>
        <time>2018-10-14T13:52:17Z</time>
      </trkpt>
      <trkpt lat="45.7841" lon="5.74504">
        <ele>311</ele>
        <time>2018-10-14T13:52:17Z</time>
      </trkpt>
      <trkpt lat="45.78404" lon="5.74499">
        <ele>311</ele>
        <time>2018-10-14T13:52:33Z</time>
      </trkpt>
      <trkpt lat="45.784" lon="5.74495">
        <ele>311</ele>
        <time>2018-10-14T13:52:33Z</time>
      </trkpt>
      <trkpt lat="45.78396" lon="5.74489">
        <ele>311</ele>
        <time>2018-10-14T13:52:33Z</time>
      </trkpt>
      <trkpt lat="45.78392" lon="5.74485">
        <ele>311</ele>
        <time>2018-10-14T13:52:33Z</time>
      </trkpt>
      <trkpt lat="45.78388" lon="5.74481">
        <ele>311</ele>
        <time>2018-10-14T13:52:49Z</time>
      </trkpt>
      <trkpt lat="45.78385" lon="5.74474">
        <ele>311</ele>
        <time>2018-10-14T13:52:49Z</time>
      </trkpt>
      <trkpt lat="45.7838" lon="5.74469">
        <ele>311</ele>
        <time>2018-10-14T13:52:49Z</time>
      </trkpt>
      <trkpt lat="45.78376" lon="5.74465">
        <ele>311</ele>
        <time>2018-10-14T13:52:49Z</time>
      </trkpt>
      <trkpt lat="45.78372" lon="5.74461">
        <ele>329</ele>
        <time>2018-10-14T13:53:05Z</time>
      </trkpt>
      <trkpt lat="45.7837" lon="5.74456">
        <ele>313</ele>
        <time>2018-10-14T13:53:05Z</time>
      </trkpt>
      <trkpt lat="45.78368" lon="5.74453">
        <ele>313</ele>
        <time>2018-10-14T13:53:05Z</time>
      </trkpt>
      <trkpt lat="45.78365" lon="5.74444">
        <ele>313</ele>
        <time>2018-10-14T13:53:05Z</time>
      </trkpt>
      <trkpt lat="45.78363" lon="5.74436">
        <ele>313</ele>
        <time>2018-10-14T13:53:21Z</time>
      </trkpt>
      <trkpt lat="45.7836" lon="5.74429">
        <ele>313</ele>
        <time>2018-10-14T13:53:21Z</time>
      </trkpt>
      <trkpt lat="45.78357" lon="5.74423">
        <ele>313</ele>
        <time>2018-10-14T13:53:21Z</time>
      </trkpt>
      <trkpt lat="45.78348" lon="5.74419">
        <ele>313</ele>
        <time>2018-10-14T13:53:21Z</time>
      </trkpt>
      <trkpt lat="45.78344" lon="5.74412">
        <ele>313</ele>
        <time>2018-10-14T13:53:37Z</time>
      </trkpt>
      <trkpt lat="45.7834" lon="5.74404">
        <ele>313</ele>
        <time>2018-10-14T13:53:37Z</time>
      </trkpt>
      <trkpt lat="45.78336" lon="5.74395">
        <ele>313</ele>
        <time>2018-10-14T13:53:37Z</time>
      </trkpt>
      <trkpt lat="45.78329" lon="5.74395">
        <ele>313</ele>
        <time>2018-10-14T13:53:37Z</time>
      </trkpt>
      <trkpt lat="45.7832" lon="5.7439">
        <ele>313</ele>
        <time>2018-10-14T13:53:53Z</time>
      </trkpt>
      <trkpt lat="45.78316" lon="5.74385">
        <ele>313</ele>
        <time>2018-10-14T13:53:53Z</time>
      </trkpt>
      <trkpt lat="45.7831" lon="5.74381">
        <ele>313</ele>
        <time>2018-10-14T13:53:53Z</time>
      </trkpt>
      <trkpt lat="45.78305" lon="5.74377">
        <ele>313</ele>
        <time>2018-10-14T13:53:53Z</time>
      </trkpt>
      <trkpt lat="45.78301" lon="5.74373">
        <ele>307</ele>
        <time>2018-10-14T13:54:09Z</time>
      </trkpt>
      <trkpt lat="45.78297" lon="5.74369">
        <ele>307</ele>
        <time>2018-10-14T13:54:09Z</time>
      </trkpt>
      <trkpt lat="45.78292" lon="5.74363">
        <ele>307</ele>
        <time>2018-10-14T13:54:09Z</time>
      </trkpt>
      <trkpt lat="45.78287" lon="5.74358">
        <ele>316</ele>
        <time>2018-10-14T13:54:09Z</time>
      </trkpt>
      <trkpt lat="45.78281" lon="5.74351">
        <ele>316</ele>
        <time>2018-10-14T13:54:25Z</time>
      </trkpt>
      <trkpt lat="45.78278" lon="5.74348">
        <ele>316</ele>
        <time>2018-10-14T13:54:25Z</time>
      </trkpt>
      <trkpt lat="45.78274" lon="5.74346">
        <ele>316</ele>
        <time>2018-10-14T13:54:25Z</time>
      </trkpt>
      <trkpt lat="45.78266" lon="5.74342">
        <ele>316</ele>
        <time>2018-10-14T13:54:25Z</time>
      </trkpt>
      <trkpt lat="45.78262" lon="5.74338">
        <ele>316</ele>
        <time>2018-10-14T13:54:41Z</time>
      </trkpt>
      <trkpt lat="45.78258" lon="5.74332">
        <ele>316</ele>
        <time>2018-10-14T13:54:41Z</time>
      </trkpt>
      <trkpt lat="45.78252" lon="5.7433">
        <ele>316</ele>
        <time>2018-10-14T13:54:41Z</time>
      </trkpt>
      <trkpt lat="45.78246" lon="5.74328">
        <ele>316</ele>
        <time>2018-10-14T13:54:41Z</time>
      </trkpt>
      <trkpt lat="45.78237" lon="5.74317">
        <ele>316</ele>
        <time>2018-10-14T13:54:57Z</time>
      </trkpt>
      <trkpt lat="45.78231" lon="5.74309">
        <ele>316</ele>
        <time>2018-10-14T13:54:57Z</time>
      </trkpt>
      <trkpt lat="45.78228" lon="5.74305">
        <ele>316</ele>
        <time>2018-10-14T13:54:57Z</time>
      </trkpt>
      <trkpt lat="45.78223" lon="5.74299">
        <ele>316</ele>
        <time>2018-10-14T13:54:57Z</time>
      </trkpt>
      <trkpt lat="45.78219" lon="5.74293">
        <ele>316</ele>
        <time>2018-10-14T13:55:13Z</time>
      </trkpt>
      <trkpt lat="45.78215" lon="5.74287">
        <ele>308</ele>
        <time>2018-10-14T13:55:13Z</time>
      </trkpt>
      <trkpt lat="45.78214" lon="5.7428">
        <ele>308</ele>
        <time>2018-10-14T13:55:13Z</time>
      </trkpt>
      <trkpt lat="45.78216" lon="5.74272">
        <ele>308</ele>
        <time>2018-10-14T13:55:13Z</time>
      </trkpt>
      <trkpt lat="45.78221" lon="5.74264">
        <ele>308</ele>
        <time>2018-10-14T13:55:29Z</time>
      </trkpt>
      <trkpt lat="45.78228" lon="5.74255">
        <ele>308</ele>
        <time>2018-10-14T13:55:29Z</time>
      </trkpt>
      <trkpt lat="45.78233" lon="5.7425">
        <ele>308</ele>
        <time>2018-10-14T13:55:29Z</time>
      </trkpt>
      <trkpt lat="45.78238" lon="5.74243">
        <ele>308</ele>
        <time>2018-10-14T13:55:29Z</time>
      </trkpt>
      <trkpt lat="45.78243" lon="5.74234">
        <ele>308</ele>
        <time>2018-10-14T13:55:45Z</time>
      </trkpt>
      <trkpt lat="45.78247" lon="5.74229">
        <ele>308</ele>
        <time>2018-10-14T13:55:45Z</time>
      </trkpt>
      <trkpt lat="45.78251" lon="5.74225">
        <ele>308</ele>
        <time>2018-10-14T13:55:45Z</time>
      </trkpt>
      <trkpt lat="45.78254" lon="5.74218">
        <ele>308</ele>
        <time>2018-10-14T13:55:45Z</time>
      </trkpt>
      <trkpt lat="45.78258" lon="5.74213">
        <ele>308</ele>
        <time>2018-10-14T13:56:01Z</time>
      </trkpt>
      <trkpt lat="45.78261" lon="5.74208">
        <ele>306</ele>
        <time>2018-10-14T13:56:01Z</time>
      </trkpt>
      <trkpt lat="45.78263" lon="5.74204">
        <ele>306</ele>
        <time>2018-10-14T13:56:01Z</time>
      </trkpt>
      <trkpt lat="45.78264" lon="5.74202">
        <ele>306</ele>
        <time>2018-10-14T13:56:01Z</time>
      </trkpt>
      <trkpt lat="45.78266" lon="5.74198">
        <ele>306</ele>
        <time>2018-10-14T13:56:17Z</time>
      </trkpt>
      <trkpt lat="45.78269" lon="5.74194">
        <ele>306</ele>
        <time>2018-10-14T13:56:17Z</time>
      </trkpt>
      <trkpt lat="45.78271" lon="5.74188">
        <ele>306</ele>
        <time>2018-10-14T13:56:17Z</time>
      </trkpt>
      <trkpt lat="45.78277" lon="5.74176">
        <ele>306</ele>
        <time>2018-10-14T13:56:17Z</time>
      </trkpt>
      <trkpt lat="45.78284" lon="5.74166">
        <ele>306</ele>
        <time>2018-10-14T13:56:33Z</time>
      </trkpt>
      <trkpt lat="45.7829" lon="5.74158">
        <ele>306</ele>
        <time>2018-10-14T13:56:33Z</time>
      </trkpt>
      <trkpt lat="45.78294" lon="5.74153">
        <ele>308</ele>
        <time>2018-10-14T13:56:33Z</time>
      </trkpt>
      <trkpt lat="45.783" lon="5.74145">
        <ele>308</ele>
        <time>2018-10-14T13:56:33Z</time>
      </trkpt>
      <trkpt lat="45.78302" lon="5.74138">
        <ele>308</ele>
        <time>2018-10-14T13:56:49Z</time>
      </trkpt>
      <trkpt lat="45.78304" lon="5.74131">
        <ele>308</ele>
        <time>2018-10-14T13:56:49Z</time>
      </trkpt>
      <trkpt lat="45.78306" lon="5.74124">
        <ele>306</ele>
        <time>2018-10-14T13:56:49Z</time>
      </trkpt>
      <trkpt lat="45.78309" lon="5.74118">
        <ele>306</ele>
        <time>2018-10-14T13:56:49Z</time>
      </trkpt>
      <trkpt lat="45.78312" lon="5.74111">
        <ele>306</ele>
        <time>2018-10-14T13:57:05Z</time>
      </trkpt>
      <trkpt lat="45.78315" lon="5.74106">
        <ele>306</ele>
        <time>2018-10-14T13:57:05Z</time>
      </trkpt>
      <trkpt lat="45.78317" lon="5.741">
        <ele>306</ele>
        <time>2018-10-14T13:57:05Z</time>
      </trkpt>
      <trkpt lat="45.78321" lon="5.74094">
        <ele>306</ele>
        <time>2018-10-14T13:57:05Z</time>
      </trkpt>
      <trkpt lat="45.78324" lon="5.74086">
        <ele>306</ele>
        <time>2018-10-14T13:57:21Z</time>
      </trkpt>
      <trkpt lat="45.78326" lon="5.74077">
        <ele>306</ele>
        <time>2018-10-14T13:57:21Z</time>
      </trkpt>
      <trkpt lat="45.78326" lon="5.74067">
        <ele>306</ele>
        <time>2018-10-14T13:57:21Z</time>
      </trkpt>
      <trkpt lat="45.78329" lon="5.74061">
        <ele>306</ele>
        <time>2018-10-14T13:57:21Z</time>
      </trkpt>
      <trkpt lat="45.78333" lon="5.74053">
        <ele>306</ele>
        <time>2018-10-14T13:57:37Z</time>
      </trkpt>
      <trkpt lat="45.78337" lon="5.74048">
        <ele>306</ele>
        <time>2018-10-14T13:57:37Z</time>
      </trkpt>
      <trkpt lat="45.78341" lon="5.74042">
        <ele>306</ele>
        <time>2018-10-14T13:57:37Z</time>
      </trkpt>
      <trkpt lat="45.78345" lon="5.74037">
        <ele>305</ele>
        <time>2018-10-14T13:57:37Z</time>
      </trkpt>
      <trkpt lat="45.78348" lon="5.74033">
        <ele>305</ele>
        <time>2018-10-14T13:57:53Z</time>
      </trkpt>
      <trkpt lat="45.78351" lon="5.74031">
        <ele>305</ele>
        <time>2018-10-14T13:57:53Z</time>
      </trkpt>
      <trkpt lat="45.78355" lon="5.74028">
        <ele>305</ele>
        <time>2018-10-14T13:57:53Z</time>
      </trkpt>
      <trkpt lat="45.78362" lon="5.74026">
        <ele>305</ele>
        <time>2018-10-14T13:57:53Z</time>
      </trkpt>
      <trkpt lat="45.78368" lon="5.74023">
        <ele>305</ele>
        <time>2018-10-14T13:58:09Z</time>
      </trkpt>
      <trkpt lat="45.78373" lon="5.74019">
        <ele>305</ele>
        <time>2018-10-14T13:58:09Z</time>
      </trkpt>
      <trkpt lat="45.78377" lon="5.74014">
        <ele>309</ele>
        <time>2018-10-14T13:58:09Z</time>
      </trkpt>
      <trkpt lat="45.78383" lon="5.74011">
        <ele>309</ele>
        <time>2018-10-14T13:58:09Z</time>
      </trkpt>
      <trkpt lat="45.78388" lon="5.74005">
        <ele>309</ele>
        <time>2018-10-14T13:58:25Z</time>
      </trkpt>
      <trkpt lat="45.78393" lon="5.74002">
        <ele>309</ele>
        <time>2018-10-14T13:58:25Z</time>
      </trkpt>
      <trkpt lat="45.78398" lon="5.73999">
        <ele>309</ele>
        <time>2018-10-14T13:58:25Z</time>
      </trkpt>
      <trkpt lat="45.78403" lon="5.73995">
        <ele>309</ele>
        <time>2018-10-14T13:58:25Z</time>
      </trkpt>
      <trkpt lat="45.78408" lon="5.73993">
        <ele>309</ele>
        <time>2018-10-14T13:58:41Z</time>
      </trkpt>
      <trkpt lat="45.78413" lon="5.73991">
        <ele>309</ele>
        <time>2018-10-14T13:58:41Z</time>
      </trkpt>
      <trkpt lat="45.78417" lon="5.73989">
        <ele>309</ele>
        <time>2018-10-14T13:58:41Z</time>
      </trkpt>
      <trkpt lat="45.78421" lon="5.73986">
        <ele>309</ele>
        <time>2018-10-14T13:58:41Z</time>
      </trkpt>
      <trkpt lat="45.78427" lon="5.73984">
        <ele>309</ele>
        <time>2018-10-14T13:58:57Z</time>
      </trkpt>
      <trkpt lat="45.78432" lon="5.7398">
        <ele>309</ele>
        <time>2018-10-14T13:58:57Z</time>
      </trkpt>
      <trkpt lat="45.78436" lon="5.73978">
        <ele>309</ele>
        <time>2018-10-14T13:58:57Z</time>
      </trkpt>
      <trkpt lat="45.7844" lon="5.73975">
        <ele>309</ele>
        <time>2018-10-14T13:58:57Z</time>
      </trkpt>
      <trkpt lat="45.78443" lon="5.73973">
        <ele>309</ele>
        <time>2018-10-14T13:59:13Z</time>
      </trkpt>
      <trkpt lat="45.78447" lon="5.73973">
        <ele>309</ele>
        <time>2018-10-14T13:59:13Z</time>
      </trkpt>
      <trkpt lat="45.7845" lon="5.73973">
        <ele>309</ele>
        <time>2018-10-14T13:59:13Z</time>
      </trkpt>
      <trkpt lat="45.78456" lon="5.73974">
        <ele>309</ele>
        <time>2018-10-14T13:59:13Z</time>
      </trkpt>
      <trkpt lat="45.7846" lon="5.73973">
        <ele>314</ele>
        <time>2018-10-14T13:59:29Z</time>
      </trkpt>
      <trkpt lat="45.78466" lon="5.73972">
        <ele>314</ele>
        <time>2018-10-14T13:59:29Z</time>
      </trkpt>
      <trkpt lat="45.78471" lon="5.73973">
        <ele>314</ele>
        <time>2018-10-14T13:59:29Z</time>
      </trkpt>
      <trkpt lat="45.78478" lon="5.73976">
        <ele>314</ele>
        <time>2018-10-14T13:59:29Z</time>
      </trkpt>
      <trkpt lat="45.78486" lon="5.7398">
        <ele>314</ele>
        <time>2018-10-14T13:59:45Z</time>
      </trkpt>
      <trkpt lat="45.78488" lon="5.73979">
        <ele>314</ele>
        <time>2018-10-14T13:59:45Z</time>
      </trkpt>
      <trkpt lat="45.78493" lon="5.73978">
        <ele>314</ele>
        <time>2018-10-14T13:59:45Z</time>
      </trkpt>
      <trkpt lat="45.785" lon="5.73984">
        <ele>314</ele>
        <time>2018-10-14T13:59:45Z</time>
      </trkpt>
      <trkpt lat="45.78505" lon="5.73991">
        <ele>314</ele>
        <time>2018-10-14T14:00:01Z</time>
      </trkpt>
      <trkpt lat="45.7851" lon="5.73998">
        <ele>314</ele>
        <time>2018-10-14T14:00:01Z</time>
      </trkpt>
      <trkpt lat="45.78514" lon="5.74003">
        <ele>314</ele>
        <time>2018-10-14T14:00:01Z</time>
      </trkpt>
      <trkpt lat="45.78516" lon="5.74007">
        <ele>314</ele>
        <time>2018-10-14T14:00:01Z</time>
      </trkpt>
      <trkpt lat="45.78518" lon="5.74012">
        <ele>314</ele>
        <time>2018-10-14T14:00:17Z</time>
      </trkpt>
      <trkpt lat="45.78522" lon="5.74018">
        <ele>314</ele>
        <time>2018-10-14T14:00:17Z</time>
      </trkpt>
      <trkpt lat="45.78526" lon="5.74023">
        <ele>314</ele>
        <time>2018-10-14T14:00:17Z</time>
      </trkpt>
      <trkpt lat="45.78531" lon="5.74027">
        <ele>314</ele>
        <time>2018-10-14T14:00:17Z</time>
      </trkpt>
      <trkpt lat="45.78535" lon="5.74033">
        <ele>314</ele>
        <time>2018-10-14T14:00:33Z</time>
      </trkpt>
      <trkpt lat="45.78538" lon="5.74037">
        <ele>314</ele>
        <time>2018-10-14T14:00:33Z</time>
      </trkpt>
      <trkpt lat="45.78542" lon="5.74041">
        <ele>337</ele>
        <time>2018-10-14T14:00:33Z</time>
      </trkpt>
      <trkpt lat="45.78545" lon="5.74047">
        <ele>317</ele>
        <time>2018-10-14T14:00:33Z</time>
      </trkpt>
      <trkpt lat="45.78548" lon="5.74052">
        <ele>317</ele>
        <time>2018-10-14T14:00:49Z</time>
      </trkpt>
      <trkpt lat="45.78553" lon="5.74055">
        <ele>317</ele>
        <time>2018-10-14T14:00:49Z</time>
      </trkpt>
      <trkpt lat="45.78558" lon="5.7406">
        <ele>317</ele>
        <time>2018-10-14T14:00:49Z</time>
      </trkpt>
      <trkpt lat="45.78562" lon="5.74063">
        <ele>317</ele>
        <time>2018-10-14T14:00:49Z</time>
      </trkpt>
      <trkpt lat="45.78566" lon="5.74067">
        <ele>317</ele>
        <time>2018-10-14T14:01:05Z</time>
      </trkpt>
      <trkpt lat="45.78569" lon="5.74073">
        <ele>317</ele>
        <time>2018-10-14T14:01:05Z</time>
      </trkpt>
      <trkpt lat="45.78573" lon="5.74078">
        <ele>317</ele>
        <time>2018-10-14T14:01:05Z</time>
      </trkpt>
      <trkpt lat="45.78577" lon="5.74082">
        <ele>317</ele>
        <time>2018-10-14T14:01:05Z</time>
      </trkpt>
      <trkpt lat="45.78581" lon="5.74086">
        <ele>317</ele>
        <time>2018-10-14T14:01:21Z</time>
      </trkpt>
      <trkpt lat="45.78585" lon="5.7409">
        <ele>317</ele>
        <time>2018-10-14T14:01:21Z</time>
      </trkpt>
      <trkpt lat="45.78589" lon="5.74094">
        <ele>317</ele>
        <time>2018-10-14T14:01:21Z</time>
      </trkpt>
      <trkpt lat="45.78594" lon="5.74097">
        <ele>317</ele>
        <time>2018-10-14T14:01:21Z</time>
      </trkpt>
      <trkpt lat="45.786" lon="5.74102">
        <ele>317</ele>
        <time>2018-10-14T14:01:37Z</time>
      </trkpt>
      <trkpt lat="45.78604" lon="5.74108">
        <ele>317</ele>
        <time>2018-10-14T14:01:37Z</time>
      </trkpt>
      <trkpt lat="45.78607" lon="5.74114">
        <ele>317</ele>
        <time>2018-10-14T14:01:37Z</time>
      </trkpt>
      <trkpt lat="45.7861" lon="5.74119">
        <ele>317</ele>
        <time>2018-10-14T14:01:37Z</time>
      </trkpt>
      <trkpt lat="45.78614" lon="5.74123">
        <ele>317</ele>
        <time>2018-10-14T14:01:53Z</time>
      </trkpt>
      <trkpt lat="45.78616" lon="5.74128">
        <ele>305</ele>
        <time>2018-10-14T14:01:53Z</time>
      </trkpt>
      <trkpt lat="45.78618" lon="5.74133">
        <ele>305</ele>
        <time>2018-10-14T14:01:53Z</time>
      </trkpt>
      <trkpt lat="45.78622" lon="5.74138">
        <ele>305</ele>
        <time>2018-10-14T14:01:53Z</time>
      </trkpt>
      <trkpt lat="45.78629" lon="5.74145">
        <ele>314</ele>
        <time>2018-10-14T14:02:09Z</time>
      </trkpt>
      <trkpt lat="45.78634" lon="5.74148">
        <ele>314</ele>
        <time>2018-10-14T14:02:09Z</time>
      </trkpt>
      <trkpt lat="45.78637" lon="5.74152">
        <ele>314</ele>
        <time>2018-10-14T14:02:09Z</time>
      </trkpt>
      <trkpt lat="45.7864" lon="5.74156">
        <ele>314</ele>
        <time>2018-10-14T14:02:09Z</time>
      </trkpt>
      <trkpt lat="45.78644" lon="5.7416">
        <ele>314</ele>
        <time>2018-10-14T14:02:25Z</time>
      </trkpt>
      <trkpt lat="45.78648" lon="5.74163">
        <ele>314</ele>
        <time>2018-10-14T14:02:25Z</time>
      </trkpt>
      <trkpt lat="45.78653" lon="5.74166">
        <ele>314</ele>
        <time>2018-10-14T14:02:25Z</time>
      </trkpt>
      <trkpt lat="45.7866" lon="5.74174">
        <ele>314</ele>
        <time>2018-10-14T14:02:25Z</time>
      </trkpt>
      <trkpt lat="45.78663" lon="5.74178">
        <ele>314</ele>
        <time>2018-10-14T14:02:41Z</time>
      </trkpt>
      <trkpt lat="45.78666" lon="5.74183">
        <ele>314</ele>
        <time>2018-10-14T14:02:41Z</time>
      </trkpt>
      <trkpt lat="45.78671" lon="5.74191">
        <ele>314</ele>
        <time>2018-10-14T14:02:41Z</time>
      </trkpt>
      <trkpt lat="45.78672" lon="5.74193">
        <ele>314</ele>
        <time>2018-10-14T14:02:41Z</time>
      </trkpt>
      <trkpt lat="45.78676" lon="5.742">
        <ele>314</ele>
        <time>2018-10-14T14:02:57Z</time>
      </trkpt>
      <trkpt lat="45.78681" lon="5.74205">
        <ele>314</ele>
        <time>2018-10-14T14:02:57Z</time>
      </trkpt>
      <trkpt lat="45.78687" lon="5.7421">
        <ele>305</ele>
        <time>2018-10-14T14:02:57Z</time>
      </trkpt>
      <trkpt lat="45.78691" lon="5.74215">
        <ele>305</ele>
        <time>2018-10-14T14:02:57Z</time>
      </trkpt>
      <trkpt lat="45.78696" lon="5.74221">
        <ele>305</ele>
        <time>2018-10-14T14:03:13Z</time>
      </trkpt>
      <trkpt lat="45.78699" lon="5.74224">
        <ele>305</ele>
        <time>2018-10-14T14:03:13Z</time>
      </trkpt>
      <trkpt lat="45.78704" lon="5.74228">
        <ele>305</ele>
        <time>2018-10-14T14:03:13Z</time>
      </trkpt>
      <trkpt lat="45.78707" lon="5.74234">
        <ele>305</ele>
        <time>2018-10-14T14:03:13Z</time>
      </trkpt>
      <trkpt lat="45.78708" lon="5.74237">
        <ele>307</ele>
        <time>2018-10-14T14:03:29Z</time>
      </trkpt>
      <trkpt lat="45.78713" lon="5.74239">
        <ele>307</ele>
        <time>2018-10-14T14:03:29Z</time>
      </trkpt>
      <trkpt lat="45.78715" lon="5.74244">
        <ele>307</ele>
        <time>2018-10-14T14:03:29Z</time>
      </trkpt>
      <trkpt lat="45.78717" lon="5.74248">
        <ele>307</ele>
        <time>2018-10-14T14:03:29Z</time>
      </trkpt>
      <trkpt lat="45.78722" lon="5.74251">
        <ele>307</ele>
        <time>2018-10-14T14:03:45Z</time>
      </trkpt>
      <trkpt lat="45.78725" lon="5.74252">
        <ele>307</ele>
        <time>2018-10-14T14:03:45Z</time>
      </trkpt>
      <trkpt lat="45.7873" lon="5.74257">
        <ele>307</ele>
        <time>2018-10-14T14:03:45Z</time>
      </trkpt>
      <trkpt lat="45.78737" lon="5.74263">
        <ele>307</ele>
        <time>2018-10-14T14:03:45Z</time>
      </trkpt>
      <trkpt lat="45.78742" lon="5.74269">
        <ele>307</ele>
        <time>2018-10-14T14:04:01Z</time>
      </trkpt>
      <trkpt lat="45.78748" lon="5.74274">
        <ele>307</ele>
        <time>2018-10-14T14:04:01Z</time>
      </trkpt>
      <trkpt lat="45.78754" lon="5.74279">
        <ele>307</ele>
        <time>2018-10-14T14:04:01Z</time>
      </trkpt>
      <trkpt lat="45.7876" lon="5.74282">
        <ele>307</ele>
        <time>2018-10-14T14:04:01Z</time>
      </trkpt>
      <trkpt lat="45.78765" lon="5.74283">
        <ele>307</ele>
        <time>2018-10-14T14:04:17Z</time>
      </trkpt>
      <trkpt lat="45.78771" lon="5.74284">
        <ele>307</ele>
        <time>2018-10-14T14:04:17Z</time>
      </trkpt>
      <trkpt lat="45.78774" lon="5.74285">
        <ele>307</ele>
        <time>2018-10-14T14:04:17Z</time>
      </trkpt>
      <trkpt lat="45.78781" lon="5.74289">
        <ele>307</ele>
        <time>2018-10-14T14:04:17Z</time>
      </trkpt>
      <trkpt lat="45.78788" lon="5.7429">
        <ele>307</ele>
        <time>2018-10-14T14:04:33Z</time>
      </trkpt>
      <trkpt lat="45.78795" lon="5.74287">
        <ele>308</ele>
        <time>2018-10-14T14:04:33Z</time>
      </trkpt>
      <trkpt lat="45.78801" lon="5.74289">
        <ele>308</ele>
        <time>2018-10-14T14:04:33Z</time>
      </trkpt>
      <trkpt lat="45.78807" lon="5.7429">
        <ele>308</ele>
        <time>2018-10-14T14:04:33Z</time>
      </trkpt>
      <trkpt lat="45.78813" lon="5.7429">
        <ele>308</ele>
        <time>2018-10-14T14:04:49Z</time>
      </trkpt>
      <trkpt lat="45.78818" lon="5.7429">
        <ele>308</ele>
        <time>2018-10-14T14:04:49Z</time>
      </trkpt>
      <trkpt lat="45.78822" lon="5.7429">
        <ele>308</ele>
        <time>2018-10-14T14:04:49Z</time>
      </trkpt>
      <trkpt lat="45.78826" lon="5.7429">
        <ele>308</ele>
        <time>2018-10-14T14:04:49Z</time>
      </trkpt>
      <trkpt lat="45.7883" lon="5.74289">
        <ele>308</ele>
        <time>2018-10-14T14:05:05Z</time>
      </trkpt>
      <trkpt lat="45.78835" lon="5.74289">
        <ele>308</ele>
        <time>2018-10-14T14:05:05Z</time>
      </trkpt>
      <trkpt lat="45.78841" lon="5.7429">
        <ele>308</ele>
        <time>2018-10-14T14:05:05Z</time>
      </trkpt>
      <trkpt lat="45.78848" lon="5.74287">
        <ele>308</ele>
        <time>2018-10-14T14:05:05Z</time>
      </trkpt>
      <trkpt lat="45.78852" lon="5.74284">
        <ele>308</ele>
        <time>2018-10-14T14:05:21Z</time>
      </trkpt>
      <trkpt lat="45.78857" lon="5.74282">
        <ele>308</ele>
        <time>2018-10-14T14:05:21Z</time>
      </trkpt>
      <trkpt lat="45.78864" lon="5.74282">
        <ele>308</ele>
        <time>2018-10-14T14:05:21Z</time>
      </trkpt>
      <trkpt lat="45.78867" lon="5.74281">
        <ele>308</ele>
        <time>2018-10-14T14:05:21Z</time>
      </trkpt>
      <trkpt lat="45.78869" lon="5.74281">
        <ele>308</ele>
        <time>2018-10-14T14:05:41Z</time>
      </trkpt>
      <trkpt lat="45.78872" lon="5.74282">
        <ele>308</ele>
        <time>2018-10-14T14:05:41Z</time>
      </trkpt>
      <trkpt lat="45.78874" lon="5.74282">
        <ele>308</ele>
        <time>2018-10-14T14:05:41Z</time>
      </trkpt>
      <trkpt lat="45.78876" lon="5.74289">
        <ele>303</ele>
        <time>2018-10-14T14:05:41Z</time>
      </trkpt>
      <trkpt lat="45.78877" lon="5.74294">
        <ele>299</ele>
        <time>2018-10-14T14:05:41Z</time>
      </trkpt>
      <trkpt lat="45.78876" lon="5.74295">
        <ele>299</ele>
        <time>2018-10-14T14:06:05Z</time>
      </trkpt>
      <trkpt lat="45.78873" lon="5.74294">
        <ele>299</ele>
        <time>2018-10-14T14:06:05Z</time>
      </trkpt>
      <trkpt lat="45.78872" lon="5.74293">
        <ele>299</ele>
        <time>2018-10-14T14:06:05Z</time>
      </trkpt>
      <trkpt lat="45.78872" lon="5.74288">
        <ele>308</ele>
        <time>2018-10-14T14:06:05Z</time>
      </trkpt>
      <trkpt lat="45.7887" lon="5.74282">
        <ele>308</ele>
        <time>2018-10-14T14:06:05Z</time>
      </trkpt>
      <trkpt lat="45.7887" lon="5.74281">
        <ele>308</ele>
        <time>2018-10-14T14:06:21Z</time>
      </trkpt>
      <trkpt lat="45.7887" lon="5.74281">
        <ele>308</ele>
        <time>2018-10-14T14:06:21Z</time>
      </trkpt>
      <trkpt lat="45.78874" lon="5.74278">
        <ele>308</ele>
        <time>2018-10-14T14:06:21Z</time>
      </trkpt>
      <trkpt lat="45.78879" lon="5.74276">
        <ele>303</ele>
        <time>2018-10-14T14:06:21Z</time>
      </trkpt>
      <trkpt lat="45.78884" lon="5.74272">
        <ele>303</ele>
        <time>2018-10-14T14:06:37Z</time>
      </trkpt>
      <trkpt lat="45.7889" lon="5.74269">
        <ele>303</ele>
        <time>2018-10-14T14:06:37Z</time>
      </trkpt>
      <trkpt lat="45.78894" lon="5.74264">
        <ele>303</ele>
        <time>2018-10-14T14:06:37Z</time>
      </trkpt>
      <trkpt lat="45.78898" lon="5.74259">
        <ele>303</ele>
        <time>2018-10-14T14:06:37Z</time>
      </trkpt>
      <trkpt lat="45.78902" lon="5.74256">
        <ele>303</ele>
        <time>2018-10-14T14:06:53Z</time>
      </trkpt>
      <trkpt lat="45.78905" lon="5.74253">
        <ele>303</ele>
        <time>2018-10-14T14:06:53Z</time>
      </trkpt>
      <trkpt lat="45.78909" lon="5.74249">
        <ele>303</ele>
        <time>2018-10-14T14:06:53Z</time>
      </trkpt>
      <trkpt lat="45.78912" lon="5.74246">
        <ele>303</ele>
        <time>2018-10-14T14:06:53Z</time>
      </trkpt>
      <trkpt lat="45.78918" lon="5.74239">
        <ele>303</ele>
        <time>2018-10-14T14:07:09Z</time>
      </trkpt>
      <trkpt lat="45.78924" lon="5.74235">
        <ele>303</ele>
        <time>2018-10-14T14:07:09Z</time>
      </trkpt>
      <trkpt lat="45.78927" lon="5.74235">
        <ele>303</ele>
        <time>2018-10-14T14:07:09Z</time>
      </trkpt>
      <trkpt lat="45.78931" lon="5.74231">
        <ele>303</ele>
        <time>2018-10-14T14:07:09Z</time>
      </trkpt>
      <trkpt lat="45.78935" lon="5.74228">
        <ele>303</ele>
        <time>2018-10-14T14:07:25Z</time>
      </trkpt>
      <trkpt lat="45.78939" lon="5.74222">
        <ele>303</ele>
        <time>2018-10-14T14:07:25Z</time>
      </trkpt>
      <trkpt lat="45.78942" lon="5.74216">
        <ele>303</ele>
        <time>2018-10-14T14:07:25Z</time>
      </trkpt>
      <trkpt lat="45.78946" lon="5.74211">
        <ele>303</ele>
        <time>2018-10-14T14:07:25Z</time>
      </trkpt>
      <trkpt lat="45.78951" lon="5.7421">
        <ele>303</ele>
        <time>2018-10-14T14:07:41Z</time>
      </trkpt>
      <trkpt lat="45.78957" lon="5.7421">
        <ele>303</ele>
        <time>2018-10-14T14:07:41Z</time>
      </trkpt>
      <trkpt lat="45.78964" lon="5.7421">
        <ele>299</ele>
        <time>2018-10-14T14:07:41Z</time>
      </trkpt>
      <trkpt lat="45.78969" lon="5.74207">
        <ele>311</ele>
        <time>2018-10-14T14:07:41Z</time>
      </trkpt>
      <trkpt lat="45.78975" lon="5.74202">
        <ele>311</ele>
        <time>2018-10-14T14:07:57Z</time>
      </trkpt>
      <trkpt lat="45.78979" lon="5.74198">
        <ele>311</ele>
        <time>2018-10-14T14:07:57Z</time>
      </trkpt>
      <trkpt lat="45.78984" lon="5.74194">
        <ele>311</ele>
        <time>2018-10-14T14:07:57Z</time>
      </trkpt>
      <trkpt lat="45.78989" lon="5.7419">
        <ele>311</ele>
        <time>2018-10-14T14:07:57Z</time>
      </trkpt>
      <trkpt lat="45.78994" lon="5.74184">
        <ele>311</ele>
        <time>2018-10-14T14:08:13Z</time>
      </trkpt>
      <trkpt lat="45.78999" lon="5.74178">
        <ele>311</ele>
        <time>2018-10-14T14:08:13Z</time>
      </trkpt>
      <trkpt lat="45.79002" lon="5.74174">
        <ele>311</ele>
        <time>2018-10-14T14:08:13Z</time>
      </trkpt>
      <trkpt lat="45.79006" lon="5.7417">
        <ele>311</ele>
        <time>2018-10-14T14:08:13Z</time>
      </trkpt>
      <trkpt lat="45.79009" lon="5.74167">
        <ele>311</ele>
        <time>2018-10-14T14:08:29Z</time>
      </trkpt>
      <trkpt lat="45.79014" lon="5.74166">
        <ele>311</ele>
        <time>2018-10-14T14:08:29Z</time>
      </trkpt>
      <trkpt lat="45.7902" lon="5.74167">
        <ele>311</ele>
        <time>2018-10-14T14:08:29Z</time>
      </trkpt>
      <trkpt lat="45.79025" lon="5.74168">
        <ele>311</ele>
        <time>2018-10-14T14:08:29Z</time>
      </trkpt>
      <trkpt lat="45.79032" lon="5.74166">
        <ele>311</ele>
        <time>2018-10-14T14:08:45Z</time>
      </trkpt>
      <trkpt lat="45.79036" lon="5.74165">
        <ele>311</ele>
        <time>2018-10-14T14:08:45Z</time>
      </trkpt>
      <trkpt lat="45.79042" lon="5.74163">
        <ele>299</ele>
        <time>2018-10-14T14:08:45Z</time>
      </trkpt>
      <trkpt lat="45.79049" lon="5.74161">
        <ele>299</ele>
        <time>2018-10-14T14:08:45Z</time>
      </trkpt>
      <trkpt lat="45.79054" lon="5.74162">
        <ele>299</ele>
        <time>2018-10-14T14:09:01Z</time>
      </trkpt>
      <trkpt lat="45.79059" lon="5.7416">
        <ele>299</ele>
        <time>2018-10-14T14:09:01Z</time>
      </trkpt>
      <trkpt lat="45.79063" lon="5.7416">
        <ele>299</ele>
        <time>2018-10-14T14:09:01Z</time>
      </trkpt>
      <trkpt lat="45.7907" lon="5.74158">
        <ele>299</ele>
        <time>2018-10-14T14:09:01Z</time>
      </trkpt>
      <trkpt lat="45.79076" lon="5.74156">
        <ele>299</ele>
        <time>2018-10-14T14:09:17Z</time>
      </trkpt>
      <trkpt lat="45.7908" lon="5.74154">
        <ele>299</ele>
        <time>2018-10-14T14:09:17Z</time>
      </trkpt>
      <trkpt lat="45.79085" lon="5.7415">
        <ele>299</ele>
        <time>2018-10-14T14:09:17Z</time>
      </trkpt>
      <trkpt lat="45.79088" lon="5.74145">
        <ele>299</ele>
        <time>2018-10-14T14:09:17Z</time>
      </trkpt>
      <trkpt lat="45.79094" lon="5.74141">
        <ele>299</ele>
        <time>2018-10-14T14:09:33Z</time>
      </trkpt>
      <trkpt lat="45.79097" lon="5.7414">
        <ele>299</ele>
        <time>2018-10-14T14:09:33Z</time>
      </trkpt>
      <trkpt lat="45.79102" lon="5.74138">
        <ele>299</ele>
        <time>2018-10-14T14:09:33Z</time>
      </trkpt>
      <trkpt lat="45.79106" lon="5.74136">
        <ele>299</ele>
        <time>2018-10-14T14:09:33Z</time>
      </trkpt>
      <trkpt lat="45.79108" lon="5.74134">
        <ele>299</ele>
        <time>2018-10-14T14:09:49Z</time>
      </trkpt>
      <trkpt lat="45.79112" lon="5.74132">
        <ele>299</ele>
        <time>2018-10-14T14:09:49Z</time>
      </trkpt>
      <trkpt lat="45.79123" lon="5.74128">
        <ele>299</ele>
        <time>2018-10-14T14:09:49Z</time>
      </trkpt>
      <trkpt lat="45.79131" lon="5.74123">
        <ele>316</ele>
        <time>2018-10-14T14:09:49Z</time>
      </trkpt>
      <trkpt lat="45.79135" lon="5.74121">
        <ele>316</ele>
        <time>2018-10-14T14:10:09Z</time>
      </trkpt>
      <trkpt lat="45.79138" lon="5.74119">
        <ele>316</ele>
        <time>2018-10-14T14:10:09Z</time>
      </trkpt>
      <trkpt lat="45.7914" lon="5.74118">
        <ele>316</ele>
        <time>2018-10-14T14:10:09Z</time>
      </trkpt>
      <trkpt lat="45.79143" lon="5.74117">
        <ele>316</ele>
        <time>2018-10-14T14:10:09Z</time>
      </trkpt>
      <trkpt lat="45.79151" lon="5.74114">
        <ele>316</ele>
        <time>2018-10-14T14:10:09Z</time>
      </trkpt>
      <trkpt lat="45.79153" lon="5.74113">
        <ele>316</ele>
        <time>2018-10-14T14:10:25Z</time>
      </trkpt>
      <trkpt lat="45.79156" lon="5.74111">
        <ele>316</ele>
        <time>2018-10-14T14:10:25Z</time>
      </trkpt>
      <trkpt lat="45.79161" lon="5.74108">
        <ele>316</ele>
        <time>2018-10-14T14:10:25Z</time>
      </trkpt>
      <trkpt lat="45.79168" lon="5.74106">
        <ele>316</ele>
        <time>2018-10-14T14:10:25Z</time>
      </trkpt>
      <trkpt lat="45.79173" lon="5.74102">
        <ele>316</ele>
        <time>2018-10-14T14:10:41Z</time>
      </trkpt>
      <trkpt lat="45.79185" lon="5.74098">
        <ele>316</ele>
        <time>2018-10-14T14:10:41Z</time>
      </trkpt>
      <trkpt lat="45.79194" lon="5.74091">
        <ele>316</ele>
        <time>2018-10-14T14:10:41Z</time>
      </trkpt>
      <trkpt lat="45.79198" lon="5.74087">
        <ele>316</ele>
        <time>2018-10-14T14:10:41Z</time>
      </trkpt>
      <trkpt lat="45.79203" lon="5.74083">
        <ele>316</ele>
        <time>2018-10-14T14:10:57Z</time>
      </trkpt>
      <trkpt lat="45.79209" lon="5.74078">
        <ele>309</ele>
        <time>2018-10-14T14:10:57Z</time>
      </trkpt>
      <trkpt lat="45.79213" lon="5.74075">
        <ele>309</ele>
        <time>2018-10-14T14:10:57Z</time>
      </trkpt>
      <trkpt lat="45.79216" lon="5.74071">
        <ele>309</ele>
        <time>2018-10-14T14:10:57Z</time>
      </trkpt>
      <trkpt lat="45.79218" lon="5.74066">
        <ele>309</ele>
        <time>2018-10-14T14:11:13Z</time>
      </trkpt>
      <trkpt lat="45.79222" lon="5.74061">
        <ele>309</ele>
        <time>2018-10-14T14:11:13Z</time>
      </trkpt>
      <trkpt lat="45.79225" lon="5.74056">
        <ele>309</ele>
        <time>2018-10-14T14:11:13Z</time>
      </trkpt>
      <trkpt lat="45.79228" lon="5.74051">
        <ele>309</ele>
        <time>2018-10-14T14:11:13Z</time>
      </trkpt>
      <trkpt lat="45.79234" lon="5.74043">
        <ele>309</ele>
        <time>2018-10-14T14:11:29Z</time>
      </trkpt>
      <trkpt lat="45.79239" lon="5.74035">
        <ele>320</ele>
        <time>2018-10-14T14:11:29Z</time>
      </trkpt>
      <trkpt lat="45.79246" lon="5.74027">
        <ele>320</ele>
        <time>2018-10-14T14:11:29Z</time>
      </trkpt>
      <trkpt lat="45.79252" lon="5.74024">
        <ele>320</ele>
        <time>2018-10-14T14:11:29Z</time>
      </trkpt>
      <trkpt lat="45.79255" lon="5.7402">
        <ele>320</ele>
        <time>2018-10-14T14:11:45Z</time>
      </trkpt>
      <trkpt lat="45.79258" lon="5.74016">
        <ele>320</ele>
        <time>2018-10-14T14:11:45Z</time>
      </trkpt>
      <trkpt lat="45.79261" lon="5.74012">
        <ele>320</ele>
        <time>2018-10-14T14:11:45Z</time>
      </trkpt>
      <trkpt lat="45.79265" lon="5.74007">
        <ele>320</ele>
        <time>2018-10-14T14:11:45Z</time>
      </trkpt>
      <trkpt lat="45.79269" lon="5.74003">
        <ele>320</ele>
        <time>2018-10-14T14:12:01Z</time>
      </trkpt>
      <trkpt lat="45.79273" lon="5.73998">
        <ele>320</ele>
        <time>2018-10-14T14:12:01Z</time>
      </trkpt>
      <trkpt lat="45.79279" lon="5.73994">
        <ele>320</ele>
        <time>2018-10-14T14:12:01Z</time>
      </trkpt>
      <trkpt lat="45.79283" lon="5.7399">
        <ele>320</ele>
        <time>2018-10-14T14:12:01Z</time>
      </trkpt>
      <trkpt lat="45.79287" lon="5.73985">
        <ele>320</ele>
        <time>2018-10-14T14:12:17Z</time>
      </trkpt>
      <trkpt lat="45.79291" lon="5.73981">
        <ele>320</ele>
        <time>2018-10-14T14:12:17Z</time>
      </trkpt>
      <trkpt lat="45.79295" lon="5.73975">
        <ele>321</ele>
        <time>2018-10-14T14:12:17Z</time>
      </trkpt>
      <trkpt lat="45.793" lon="5.7397">
        <ele>321</ele>
        <time>2018-10-14T14:12:17Z</time>
      </trkpt>
      <trkpt lat="45.79303" lon="5.73965">
        <ele>321</ele>
        <time>2018-10-14T14:12:33Z</time>
      </trkpt>
      <trkpt lat="45.79307" lon="5.73961">
        <ele>321</ele>
        <time>2018-10-14T14:12:33Z</time>
      </trkpt>
      <trkpt lat="45.79311" lon="5.73954">
        <ele>321</ele>
        <time>2018-10-14T14:12:33Z</time>
      </trkpt>
      <trkpt lat="45.79314" lon="5.73948">
        <ele>321</ele>
        <time>2018-10-14T14:12:33Z</time>
      </trkpt>
      <trkpt lat="45.79317" lon="5.73941">
        <ele>321</ele>
        <time>2018-10-14T14:12:49Z</time>
      </trkpt>
      <trkpt lat="45.79322" lon="5.73937">
        <ele>321</ele>
        <time>2018-10-14T14:12:49Z</time>
      </trkpt>
      <trkpt lat="45.79326" lon="5.73931">
        <ele>321</ele>
        <time>2018-10-14T14:12:49Z</time>
      </trkpt>
      <trkpt lat="45.7933" lon="5.73924">
        <ele>321</ele>
        <time>2018-10-14T14:12:49Z</time>
      </trkpt>
      <trkpt lat="45.79332" lon="5.73918">
        <ele>321</ele>
        <time>2018-10-14T14:13:05Z</time>
      </trkpt>
      <trkpt lat="45.79334" lon="5.73912">
        <ele>321</ele>
        <time>2018-10-14T14:13:05Z</time>
      </trkpt>
      <trkpt lat="45.79336" lon="5.73905">
        <ele>321</ele>
        <time>2018-10-14T14:13:05Z</time>
      </trkpt>
      <trkpt lat="45.79341" lon="5.73899">
        <ele>321</ele>
        <time>2018-10-14T14:13:05Z</time>
      </trkpt>
      <trkpt lat="45.79345" lon="5.73894">
        <ele>321</ele>
        <time>2018-10-14T14:13:21Z</time>
      </trkpt>
      <trkpt lat="45.79348" lon="5.73888">
        <ele>321</ele>
        <time>2018-10-14T14:13:21Z</time>
      </trkpt>
      <trkpt lat="45.7935" lon="5.73879">
        <ele>321</ele>
        <time>2018-10-14T14:13:21Z</time>
      </trkpt>
      <trkpt lat="45.79354" lon="5.73874">
        <ele>332</ele>
        <time>2018-10-14T14:13:21Z</time>
      </trkpt>
      <trkpt lat="45.79357" lon="5.73871">
        <ele>332</ele>
        <time>2018-10-14T14:13:37Z</time>
      </trkpt>
      <trkpt lat="45.7936" lon="5.7387">
        <ele>332</ele>
        <time>2018-10-14T14:13:37Z</time>
      </trkpt>
      <trkpt lat="45.79364" lon="5.73864">
        <ele>332</ele>
        <time>2018-10-14T14:13:37Z</time>
      </trkpt>
      <trkpt lat="45.79368" lon="5.73856">
        <ele>332</ele>
        <time>2018-10-14T14:13:37Z</time>
      </trkpt>
      <trkpt lat="45.79372" lon="5.73849">
        <ele>332</ele>
        <time>2018-10-14T14:13:53Z</time>
      </trkpt>
      <trkpt lat="45.79375" lon="5.73843">
        <ele>328</ele>
        <time>2018-10-14T14:13:53Z</time>
      </trkpt>
      <trkpt lat="45.79378" lon="5.73836">
        <ele>328</ele>
        <time>2018-10-14T14:13:53Z</time>
      </trkpt>
      <trkpt lat="45.79381" lon="5.7383">
        <ele>328</ele>
        <time>2018-10-14T14:13:53Z</time>
      </trkpt>
      <trkpt lat="45.79385" lon="5.73826">
        <ele>328</ele>
        <time>2018-10-14T14:14:09Z</time>
      </trkpt>
      <trkpt lat="45.7939" lon="5.73822">
        <ele>328</ele>
        <time>2018-10-14T14:14:09Z</time>
      </trkpt>
      <trkpt lat="45.79392" lon="5.73816">
        <ele>328</ele>
        <time>2018-10-14T14:14:09Z</time>
      </trkpt>
      <trkpt lat="45.79394" lon="5.73809">
        <ele>328</ele>
        <time>2018-10-14T14:14:09Z</time>
      </trkpt>
      <trkpt lat="45.79396" lon="5.738">
        <ele>328</ele>
        <time>2018-10-14T14:14:25Z</time>
      </trkpt>
      <trkpt lat="45.79398" lon="5.73793">
        <ele>328</ele>
        <time>2018-10-14T14:14:25Z</time>
      </trkpt>
      <trkpt lat="45.79401" lon="5.73787">
        <ele>333</ele>
        <time>2018-10-14T14:14:25Z</time>
      </trkpt>
      <trkpt lat="45.79401" lon="5.7378">
        <ele>333</ele>
        <time>2018-10-14T14:14:25Z</time>
      </trkpt>
      <trkpt lat="45.79403" lon="5.73774">
        <ele>333</ele>
        <time>2018-10-14T14:14:41Z</time>
      </trkpt>
      <trkpt lat="45.79404" lon="5.73768">
        <ele>333</ele>
        <time>2018-10-14T14:14:41Z</time>
      </trkpt>
      <trkpt lat="45.79406" lon="5.7376">
        <ele>333</ele>
        <time>2018-10-14T14:14:41Z</time>
      </trkpt>
      <trkpt lat="45.79407" lon="5.73752">
        <ele>333</ele>
        <time>2018-10-14T14:14:41Z</time>
      </trkpt>
      <trkpt lat="45.79409" lon="5.73747">
        <ele>333</ele>
        <time>2018-10-14T14:14:57Z</time>
      </trkpt>
      <trkpt lat="45.79413" lon="5.73742">
        <ele>333</ele>
        <time>2018-10-14T14:14:57Z</time>
      </trkpt>
      <trkpt lat="45.79417" lon="5.73737">
        <ele>333</ele>
        <time>2018-10-14T14:14:57Z</time>
      </trkpt>
      <trkpt lat="45.79419" lon="5.73731">
        <ele>333</ele>
        <time>2018-10-14T14:14:57Z</time>
      </trkpt>
      <trkpt lat="45.79423" lon="5.73724">
        <ele>333</ele>
        <time>2018-10-14T14:15:13Z</time>
      </trkpt>
      <trkpt lat="45.79426" lon="5.73717">
        <ele>333</ele>
        <time>2018-10-14T14:15:13Z</time>
      </trkpt>
      <trkpt lat="45.79429" lon="5.73707">
        <ele>336</ele>
        <time>2018-10-14T14:15:13Z</time>
      </trkpt>
      <trkpt lat="45.79431" lon="5.73701">
        <ele>336</ele>
        <time>2018-10-14T14:15:13Z</time>
      </trkpt>
      <trkpt lat="45.79433" lon="5.73697">
        <ele>336</ele>
        <time>2018-10-14T14:15:29Z</time>
      </trkpt>
      <trkpt lat="45.79433" lon="5.73688">
        <ele>336</ele>
        <time>2018-10-14T14:15:29Z</time>
      </trkpt>
      <trkpt lat="45.79438" lon="5.73684">
        <ele>336</ele>
        <time>2018-10-14T14:15:29Z</time>
      </trkpt>
      <trkpt lat="45.79442" lon="5.73678">
        <ele>336</ele>
        <time>2018-10-14T14:15:29Z</time>
      </trkpt>
      <trkpt lat="45.79447" lon="5.7367">
        <ele>336</ele>
        <time>2018-10-14T14:15:45Z</time>
      </trkpt>
      <trkpt lat="45.7945" lon="5.73663">
        <ele>336</ele>
        <time>2018-10-14T14:15:45Z</time>
      </trkpt>
      <trkpt lat="45.79452" lon="5.73657">
        <ele>336</ele>
        <time>2018-10-14T14:15:45Z</time>
      </trkpt>
      <trkpt lat="45.79454" lon="5.73651">
        <ele>336</ele>
        <time>2018-10-14T14:15:45Z</time>
      </trkpt>
      <trkpt lat="45.79457" lon="5.73646">
        <ele>336</ele>
        <time>2018-10-14T14:16:01Z</time>
      </trkpt>
      <trkpt lat="45.79459" lon="5.73639">
        <ele>333</ele>
        <time>2018-10-14T14:16:01Z</time>
      </trkpt>
      <trkpt lat="45.7946" lon="5.73633">
        <ele>333</ele>
        <time>2018-10-14T14:16:01Z</time>
      </trkpt>
      <trkpt lat="45.79462" lon="5.73629">
        <ele>333</ele>
        <time>2018-10-14T14:16:01Z</time>
      </trkpt>
      <trkpt lat="45.79464" lon="5.73624">
        <ele>332</ele>
        <time>2018-10-14T14:16:18Z</time>
      </trkpt>
      <trkpt lat="45.79466" lon="5.7362">
        <ele>332</ele>
        <time>2018-10-14T14:16:18Z</time>
      </trkpt>
      <trkpt lat="45.7947" lon="5.73614">
        <ele>332</ele>
        <time>2018-10-14T14:16:18Z</time>
      </trkpt>
      <trkpt lat="45.79473" lon="5.73607">
        <ele>332</ele>
        <time>2018-10-14T14:16:18Z</time>
      </trkpt>
      <trkpt lat="45.79474" lon="5.73597">
        <ele>332</ele>
        <time>2018-10-14T14:16:33Z</time>
      </trkpt>
      <trkpt lat="45.79476" lon="5.73588">
        <ele>332</ele>
        <time>2018-10-14T14:16:33Z</time>
      </trkpt>
      <trkpt lat="45.79478" lon="5.73584">
        <ele>332</ele>
        <time>2018-10-14T14:16:33Z</time>
      </trkpt>
      <trkpt lat="45.79482" lon="5.73576">
        <ele>332</ele>
        <time>2018-10-14T14:16:33Z</time>
      </trkpt>
      <trkpt lat="45.79486" lon="5.73569">
        <ele>332</ele>
        <time>2018-10-14T14:16:49Z</time>
      </trkpt>
      <trkpt lat="45.7949" lon="5.73562">
        <ele>332</ele>
        <time>2018-10-14T14:16:49Z</time>
      </trkpt>
      <trkpt lat="45.79494" lon="5.73553">
        <ele>332</ele>
        <time>2018-10-14T14:16:49Z</time>
      </trkpt>
      <trkpt lat="45.79497" lon="5.73548">
        <ele>332</ele>
        <time>2018-10-14T14:16:49Z</time>
      </trkpt>
      <trkpt lat="45.79499" lon="5.7354">
        <ele>337</ele>
        <time>2018-10-14T14:17:05Z</time>
      </trkpt>
      <trkpt lat="45.79503" lon="5.73533">
        <ele>337</ele>
        <time>2018-10-14T14:17:05Z</time>
      </trkpt>
      <trkpt lat="45.79505" lon="5.73527">
        <ele>337</ele>
        <time>2018-10-14T14:17:05Z</time>
      </trkpt>
      <trkpt lat="45.79509" lon="5.7352">
        <ele>337</ele>
        <time>2018-10-14T14:17:05Z</time>
      </trkpt>
      <trkpt lat="45.79512" lon="5.73515">
        <ele>337</ele>
        <time>2018-10-14T14:17:21Z</time>
      </trkpt>
      <trkpt lat="45.79516" lon="5.7351">
        <ele>337</ele>
        <time>2018-10-14T14:17:21Z</time>
      </trkpt>
      <trkpt lat="45.79518" lon="5.73504">
        <ele>337</ele>
        <time>2018-10-14T14:17:21Z</time>
      </trkpt>
      <trkpt lat="45.7952" lon="5.73496">
        <ele>337</ele>
        <time>2018-10-14T14:17:21Z</time>
      </trkpt>
      <trkpt lat="45.79523" lon="5.73488">
        <ele>337</ele>
        <time>2018-10-14T14:17:37Z</time>
      </trkpt>
      <trkpt lat="45.79525" lon="5.73478">
        <ele>337</ele>
        <time>2018-10-14T14:17:37Z</time>
      </trkpt>
      <trkpt lat="45.79526" lon="5.73472">
        <ele>337</ele>
        <time>2018-10-14T14:17:37Z</time>
      </trkpt>
      <trkpt lat="45.79528" lon="5.73465">
        <ele>337</ele>
        <time>2018-10-14T14:17:37Z</time>
      </trkpt>
      <trkpt lat="45.79531" lon="5.7346">
        <ele>337</ele>
        <time>2018-10-14T14:17:53Z</time>
      </trkpt>
      <trkpt lat="45.79534" lon="5.73454">
        <ele>346</ele>
        <time>2018-10-14T14:17:53Z</time>
      </trkpt>
      <trkpt lat="45.79537" lon="5.73448">
        <ele>346</ele>
        <time>2018-10-14T14:17:53Z</time>
      </trkpt>
      <trkpt lat="45.7954" lon="5.7344">
        <ele>346</ele>
        <time>2018-10-14T14:17:53Z</time>
      </trkpt>
      <trkpt lat="45.79543" lon="5.73432">
        <ele>332</ele>
        <time>2018-10-14T14:18:09Z</time>
      </trkpt>
      <trkpt lat="45.79544" lon="5.73426">
        <ele>332</ele>
        <time>2018-10-14T14:18:09Z</time>
      </trkpt>
      <trkpt lat="45.79549" lon="5.73418">
        <ele>332</ele>
        <time>2018-10-14T14:18:09Z</time>
      </trkpt>
      <trkpt lat="45.79553" lon="5.73415">
        <ele>332</ele>
        <time>2018-10-14T14:18:09Z</time>
      </trkpt>
      <trkpt lat="45.79558" lon="5.7341">
        <ele>332</ele>
        <time>2018-10-14T14:18:25Z</time>
      </trkpt>
      <trkpt lat="45.79562" lon="5.73406">
        <ele>332</ele>
        <time>2018-10-14T14:18:25Z</time>
      </trkpt>
      <trkpt lat="45.79565" lon="5.73402">
        <ele>332</ele>
        <time>2018-10-14T14:18:25Z</time>
      </trkpt>
      <trkpt lat="45.79568" lon="5.73395">
        <ele>332</ele>
        <time>2018-10-14T14:18:25Z</time>
      </trkpt>
      <trkpt lat="45.7957" lon="5.73387">
        <ele>332</ele>
        <time>2018-10-14T14:18:41Z</time>
      </trkpt>
      <trkpt lat="45.79572" lon="5.73379">
        <ele>332</ele>
        <time>2018-10-14T14:18:41Z</time>
      </trkpt>
      <trkpt lat="45.79574" lon="5.7337">
        <ele>333</ele>
        <time>2018-10-14T14:18:41Z</time>
      </trkpt>
      <trkpt lat="45.79577" lon="5.73364">
        <ele>333</ele>
        <time>2018-10-14T14:18:41Z</time>
      </trkpt>
      <trkpt lat="45.79579" lon="5.73358">
        <ele>333</ele>
        <time>2018-10-14T14:18:57Z</time>
      </trkpt>
      <trkpt lat="45.79583" lon="5.73352">
        <ele>333</ele>
        <time>2018-10-14T14:18:57Z</time>
      </trkpt>
      <trkpt lat="45.79586" lon="5.73347">
        <ele>333</ele>
        <time>2018-10-14T14:18:57Z</time>
      </trkpt>
      <trkpt lat="45.79591" lon="5.73342">
        <ele>333</ele>
        <time>2018-10-14T14:18:57Z</time>
      </trkpt>
      <trkpt lat="45.79595" lon="5.73336">
        <ele>333</ele>
        <time>2018-10-14T14:19:13Z</time>
      </trkpt>
      <trkpt lat="45.79599" lon="5.7333">
        <ele>333</ele>
        <time>2018-10-14T14:19:13Z</time>
      </trkpt>
      <trkpt lat="45.79601" lon="5.73326">
        <ele>333</ele>
        <time>2018-10-14T14:19:13Z</time>
      </trkpt>
      <trkpt lat="45.79603" lon="5.73325">
        <ele>333</ele>
        <time>2018-10-14T14:19:13Z</time>
      </trkpt>
      <trkpt lat="45.79606" lon="5.73324">
        <ele>333</ele>
        <time>2018-10-14T14:19:29Z</time>
      </trkpt>
      <trkpt lat="45.79612" lon="5.73327">
        <ele>333</ele>
        <time>2018-10-14T14:19:29Z</time>
      </trkpt>
      <trkpt lat="45.79617" lon="5.73331">
        <ele>333</ele>
        <time>2018-10-14T14:19:29Z</time>
      </trkpt>
      <trkpt lat="45.79619" lon="5.73335">
        <ele>333</ele>
        <time>2018-10-14T14:19:29Z</time>
      </trkpt>
      <trkpt lat="45.79623" lon="5.73341">
        <ele>333</ele>
        <time>2018-10-14T14:19:45Z</time>
      </trkpt>
      <trkpt lat="45.79629" lon="5.73345">
        <ele>327</ele>
        <time>2018-10-14T14:19:45Z</time>
      </trkpt>
      <trkpt lat="45.7963" lon="5.73351">
        <ele>327</ele>
        <time>2018-10-14T14:19:45Z</time>
      </trkpt>
      <trkpt lat="45.79632" lon="5.73354">
        <ele>327</ele>
        <time>2018-10-14T14:19:45Z</time>
      </trkpt>
      <trkpt lat="45.79639" lon="5.73358">
        <ele>327</ele>
        <time>2018-10-14T14:20:01Z</time>
      </trkpt>
      <trkpt lat="45.79646" lon="5.73363">
        <ele>327</ele>
        <time>2018-10-14T14:20:01Z</time>
      </trkpt>
      <trkpt lat="45.79651" lon="5.73365">
        <ele>327</ele>
        <time>2018-10-14T14:20:01Z</time>
      </trkpt>
      <trkpt lat="45.79665" lon="5.73357">
        <ele>327</ele>
        <time>2018-10-14T14:20:01Z</time>
      </trkpt>
      <trkpt lat="45.79682" lon="5.73342">
        <ele>327</ele>
        <time>2018-10-14T14:20:17Z</time>
      </trkpt>
      <trkpt lat="45.797" lon="5.7332">
        <ele>327</ele>
        <time>2018-10-14T14:20:17Z</time>
      </trkpt>
      <trkpt lat="45.7972" lon="5.733">
        <ele>337</ele>
        <time>2018-10-14T14:20:17Z</time>
      </trkpt>
      <trkpt lat="45.79739" lon="5.73283">
        <ele>329</ele>
        <time>2018-10-14T14:20:17Z</time>
      </trkpt>
      <trkpt lat="45.79753" lon="5.73264">
        <ele>329</ele>
        <time>2018-10-14T14:20:33Z</time>
      </trkpt>
      <trkpt lat="45.79759" lon="5.73225">
        <ele>329</ele>
        <time>2018-10-14T14:20:33Z</time>
      </trkpt>
      <trkpt lat="45.79775" lon="5.73197">
        <ele>326</ele>
        <time>2018-10-14T14:20:33Z</time>
      </trkpt>
      <trkpt lat="45.79807" lon="5.73178">
        <ele>327</ele>
        <time>2018-10-14T14:20:33Z</time>
      </trkpt>
      <trkpt lat="45.7984" lon="5.73174">
        <ele>327</ele>
        <time>2018-10-14T14:20:49Z</time>
      </trkpt>
      <trkpt lat="45.79868" lon="5.73177">
        <ele>327</ele>
        <time>2018-10-14T14:20:49Z</time>
      </trkpt>
      <trkpt lat="45.79897" lon="5.73179">
        <ele>330</ele>
        <time>2018-10-14T14:20:49Z</time>
      </trkpt>
      <trkpt lat="45.79924" lon="5.73176">
        <ele>330</ele>
        <time>2018-10-14T14:20:49Z</time>
      </trkpt>
      <trkpt lat="45.7994" lon="5.73174">
        <ele>330</ele>
        <time>2018-10-14T14:21:05Z</time>
      </trkpt>
      <trkpt lat="45.79946" lon="5.73171">
        <ele>330</ele>
        <time>2018-10-14T14:21:05Z</time>
      </trkpt>
      <trkpt lat="45.79951" lon="5.73165">
        <ele>330</ele>
        <time>2018-10-14T14:21:05Z</time>
      </trkpt>
      <trkpt lat="45.79954" lon="5.7316">
        <ele>330</ele>
        <time>2018-10-14T14:21:05Z</time>
      </trkpt>
      <trkpt lat="45.79958" lon="5.73158">
        <ele>323</ele>
        <time>2018-10-14T14:21:21Z</time>
      </trkpt>
      <trkpt lat="45.79964" lon="5.73157">
        <ele>323</ele>
        <time>2018-10-14T14:21:21Z</time>
      </trkpt>
      <trkpt lat="45.7997" lon="5.73156">
        <ele>323</ele>
        <time>2018-10-14T14:21:21Z</time>
      </trkpt>
      <trkpt lat="45.79977" lon="5.73159">
        <ele>323</ele>
        <time>2018-10-14T14:21:21Z</time>
      </trkpt>
      <trkpt lat="45.79986" lon="5.73163">
        <ele>323</ele>
        <time>2018-10-14T14:21:37Z</time>
      </trkpt>
      <trkpt lat="45.79991" lon="5.73163">
        <ele>323</ele>
        <time>2018-10-14T14:21:37Z</time>
      </trkpt>
      <trkpt lat="45.79995" lon="5.73165">
        <ele>323</ele>
        <time>2018-10-14T14:21:37Z</time>
      </trkpt>
      <trkpt lat="45.8" lon="5.73169">
        <ele>323</ele>
        <time>2018-10-14T14:21:37Z</time>
      </trkpt>
      <trkpt lat="45.80004" lon="5.73173">
        <ele>323</ele>
        <time>2018-10-14T14:21:53Z</time>
      </trkpt>
      <trkpt lat="45.80006" lon="5.73179">
        <ele>323</ele>
        <time>2018-10-14T14:21:53Z</time>
      </trkpt>
      <trkpt lat="45.80009" lon="5.73183">
        <ele>323</ele>
        <time>2018-10-14T14:21:53Z</time>
      </trkpt>
      <trkpt lat="45.8001" lon="5.73186">
        <ele>323</ele>
        <time>2018-10-14T14:21:53Z</time>
      </trkpt>
      <trkpt lat="45.80013" lon="5.7319">
        <ele>323</ele>
        <time>2018-10-14T14:22:09Z</time>
      </trkpt>
      <trkpt lat="45.80015" lon="5.73194">
        <ele>323</ele>
        <time>2018-10-14T14:22:09Z</time>
      </trkpt>
      <trkpt lat="45.80027" lon="5.73206">
        <ele>323</ele>
        <time>2018-10-14T14:22:09Z</time>
      </trkpt>
      <trkpt lat="45.8003" lon="5.73211">
        <ele>331</ele>
        <time>2018-10-14T14:22:09Z</time>
      </trkpt>
      <trkpt lat="45.80034" lon="5.73216">
        <ele>331</ele>
        <time>2018-10-14T14:22:25Z</time>
      </trkpt>
      <trkpt lat="45.80037" lon="5.73217">
        <ele>331</ele>
        <time>2018-10-14T14:22:25Z</time>
      </trkpt>
      <trkpt lat="45.80044" lon="5.73218">
        <ele>331</ele>
        <time>2018-10-14T14:22:25Z</time>
      </trkpt>
      <trkpt lat="45.80052" lon="5.73218">
        <ele>331</ele>
        <time>2018-10-14T14:22:25Z</time>
      </trkpt>
      <trkpt lat="45.8006" lon="5.73218">
        <ele>331</ele>
        <time>2018-10-14T14:22:41Z</time>
      </trkpt>
      <trkpt lat="45.80065" lon="5.73217">
        <ele>331</ele>
        <time>2018-10-14T14:22:41Z</time>
      </trkpt>
      <trkpt lat="45.8007" lon="5.73214">
        <ele>331</ele>
        <time>2018-10-14T14:22:41Z</time>
      </trkpt>
      <trkpt lat="45.80076" lon="5.73211">
        <ele>331</ele>
        <time>2018-10-14T14:22:41Z</time>
      </trkpt>
      <trkpt lat="45.80082" lon="5.73209">
        <ele>331</ele>
        <time>2018-10-14T14:22:57Z</time>
      </trkpt>
      <trkpt lat="45.80087" lon="5.73207">
        <ele>322</ele>
        <time>2018-10-14T14:22:57Z</time>
      </trkpt>
      <trkpt lat="45.80093" lon="5.73204">
        <ele>322</ele>
        <time>2018-10-14T14:22:57Z</time>
      </trkpt>
      <trkpt lat="45.80099" lon="5.73203">
        <ele>322</ele>
        <time>2018-10-14T14:22:57Z</time>
      </trkpt>
      <trkpt lat="45.80103" lon="5.73202">
        <ele>322</ele>
        <time>2018-10-14T14:23:13Z</time>
      </trkpt>
      <trkpt lat="45.80108" lon="5.73201">
        <ele>322</ele>
        <time>2018-10-14T14:23:13Z</time>
      </trkpt>
      <trkpt lat="45.80112" lon="5.732">
        <ele>322</ele>
        <time>2018-10-14T14:23:13Z</time>
      </trkpt>
      <trkpt lat="45.80116" lon="5.73199">
        <ele>322</ele>
        <time>2018-10-14T14:23:13Z</time>
      </trkpt>
      <trkpt lat="45.8012" lon="5.73196">
        <ele>322</ele>
        <time>2018-10-14T14:23:29Z</time>
      </trkpt>
      <trkpt lat="45.80125" lon="5.73193">
        <ele>312</ele>
        <time>2018-10-14T14:23:29Z</time>
      </trkpt>
      <trkpt lat="45.80128" lon="5.73191">
        <ele>312</ele>
        <time>2018-10-14T14:23:29Z</time>
      </trkpt>
      <trkpt lat="45.80132" lon="5.73189">
        <ele>312</ele>
        <time>2018-10-14T14:23:29Z</time>
      </trkpt>
      <trkpt lat="45.80138" lon="5.73188">
        <ele>312</ele>
        <time>2018-10-14T14:23:45Z</time>
      </trkpt>
      <trkpt lat="45.80147" lon="5.73192">
        <ele>312</ele>
        <time>2018-10-14T14:23:45Z</time>
      </trkpt>
      <trkpt lat="45.80155" lon="5.73194">
        <ele>312</ele>
        <time>2018-10-14T14:23:45Z</time>
      </trkpt>
      <trkpt lat="45.80162" lon="5.73195">
        <ele>312</ele>
        <time>2018-10-14T14:23:45Z</time>
      </trkpt>
      <trkpt lat="45.80168" lon="5.73196">
        <ele>312</ele>
        <time>2018-10-14T14:24:01Z</time>
      </trkpt>
      <trkpt lat="45.80173" lon="5.73197">
        <ele>312</ele>
        <time>2018-10-14T14:24:01Z</time>
      </trkpt>
      <trkpt lat="45.8018" lon="5.732">
        <ele>312</ele>
        <time>2018-10-14T14:24:01Z</time>
      </trkpt>
      <trkpt lat="45.80186" lon="5.73203">
        <ele>312</ele>
        <time>2018-10-14T14:24:01Z</time>
      </trkpt>
      <trkpt lat="45.80192" lon="5.73207">
        <ele>312</ele>
        <time>2018-10-14T14:24:17Z</time>
      </trkpt>
      <trkpt lat="45.80197" lon="5.7321">
        <ele>323</ele>
        <time>2018-10-14T14:24:17Z</time>
      </trkpt>
      <trkpt lat="45.80199" lon="5.73211">
        <ele>323</ele>
        <time>2018-10-14T14:24:17Z</time>
      </trkpt>
      <trkpt lat="45.80204" lon="5.73217">
        <ele>323</ele>
        <time>2018-10-14T14:24:17Z</time>
      </trkpt>
      <trkpt lat="45.80209" lon="5.73221">
        <ele>310</ele>
        <time>2018-10-14T14:24:33Z</time>
      </trkpt>
      <trkpt lat="45.80216" lon="5.73225">
        <ele>310</ele>
        <time>2018-10-14T14:24:33Z</time>
      </trkpt>
      <trkpt lat="45.8022" lon="5.73227">
        <ele>310</ele>
        <time>2018-10-14T14:24:33Z</time>
      </trkpt>
      <trkpt lat="45.80226" lon="5.73228">
        <ele>310</ele>
        <time>2018-10-14T14:24:33Z</time>
      </trkpt>
      <trkpt lat="45.8023" lon="5.7323">
        <ele>310</ele>
        <time>2018-10-14T14:24:49Z</time>
      </trkpt>
      <trkpt lat="45.80234" lon="5.73231">
        <ele>310</ele>
        <time>2018-10-14T14:24:49Z</time>
      </trkpt>
      <trkpt lat="45.80239" lon="5.7323">
        <ele>310</ele>
        <time>2018-10-14T14:24:49Z</time>
      </trkpt>
      <trkpt lat="45.80243" lon="5.73232">
        <ele>310</ele>
        <time>2018-10-14T14:24:49Z</time>
      </trkpt>
      <trkpt lat="45.80251" lon="5.73239">
        <ele>310</ele>
        <time>2018-10-14T14:25:05Z</time>
      </trkpt>
      <trkpt lat="45.80255" lon="5.73244">
        <ele>310</ele>
        <time>2018-10-14T14:25:05Z</time>
      </trkpt>
      <trkpt lat="45.80257" lon="5.73249">
        <ele>310</ele>
        <time>2018-10-14T14:25:05Z</time>
      </trkpt>
      <trkpt lat="45.80257" lon="5.73256">
        <ele>310</ele>
        <time>2018-10-14T14:25:05Z</time>
      </trkpt>
      <trkpt lat="45.80258" lon="5.73262">
        <ele>310</ele>
        <time>2018-10-14T14:25:21Z</time>
      </trkpt>
      <trkpt lat="45.80259" lon="5.7327">
        <ele>310</ele>
        <time>2018-10-14T14:25:21Z</time>
      </trkpt>
      <trkpt lat="45.80265" lon="5.73279">
        <ele>310</ele>
        <time>2018-10-14T14:25:21Z</time>
      </trkpt>
      <trkpt lat="45.80271" lon="5.73289">
        <ele>310</ele>
        <time>2018-10-14T14:25:21Z</time>
      </trkpt>
      <trkpt lat="45.80275" lon="5.73303">
        <ele>318</ele>
        <time>2018-10-14T14:25:37Z</time>
      </trkpt>
      <trkpt lat="45.80276" lon="5.73317">
        <ele>318</ele>
        <time>2018-10-14T14:25:37Z</time>
      </trkpt>
      <trkpt lat="45.8028" lon="5.73324">
        <ele>318</ele>
        <time>2018-10-14T14:25:37Z</time>
      </trkpt>
      <trkpt lat="45.80282" lon="5.73332">
        <ele>318</ele>
        <time>2018-10-14T14:25:37Z</time>
      </trkpt>
      <trkpt lat="45.80285" lon="5.73337">
        <ele>318</ele>
        <time>2018-10-14T14:25:53Z</time>
      </trkpt>
      <trkpt lat="45.80289" lon="5.73343">
        <ele>318</ele>
        <time>2018-10-14T14:25:53Z</time>
      </trkpt>
      <trkpt lat="45.80293" lon="5.73349">
        <ele>304</ele>
        <time>2018-10-14T14:25:53Z</time>
      </trkpt>
      <trkpt lat="45.80296" lon="5.73354">
        <ele>304</ele>
        <time>2018-10-14T14:25:53Z</time>
      </trkpt>
      <trkpt lat="45.80299" lon="5.73358">
        <ele>304</ele>
        <time>2018-10-14T14:26:09Z</time>
      </trkpt>
      <trkpt lat="45.80301" lon="5.73362">
        <ele>304</ele>
        <time>2018-10-14T14:26:09Z</time>
      </trkpt>
      <trkpt lat="45.80304" lon="5.7337">
        <ele>304</ele>
        <time>2018-10-14T14:26:09Z</time>
      </trkpt>
      <trkpt lat="45.80308" lon="5.73377">
        <ele>305</ele>
        <time>2018-10-14T14:26:09Z</time>
      </trkpt>
      <trkpt lat="45.80313" lon="5.73384">
        <ele>305</ele>
        <time>2018-10-14T14:26:25Z</time>
      </trkpt>
      <trkpt lat="45.80321" lon="5.73392">
        <ele>305</ele>
        <time>2018-10-14T14:26:25Z</time>
      </trkpt>
      <trkpt lat="45.80326" lon="5.73399">
        <ele>305</ele>
        <time>2018-10-14T14:26:25Z</time>
      </trkpt>
      <trkpt lat="45.8033" lon="5.73407">
        <ele>305</ele>
        <time>2018-10-14T14:26:25Z</time>
      </trkpt>
      <trkpt lat="45.80331" lon="5.73422">
        <ele>305</ele>
        <time>2018-10-14T14:27:29Z</time>
      </trkpt>
      <trkpt lat="45.8033" lon="5.73423">
        <ele>305</ele>
        <time>2018-10-14T14:27:29Z</time>
      </trkpt>
      <trkpt lat="45.8033" lon="5.73424">
        <ele>305</ele>
        <time>2018-10-14T14:27:29Z</time>
      </trkpt>
      <trkpt lat="45.80329" lon="5.73425">
        <ele>305</ele>
        <time>2018-10-14T14:27:29Z</time>
      </trkpt>
      <trkpt lat="45.80329" lon="5.73426">
        <ele>305</ele>
        <time>2018-10-14T14:27:29Z</time>
      </trkpt>
      <trkpt lat="45.80331" lon="5.73431">
        <ele>305</ele>
        <time>2018-10-14T14:27:45Z</time>
      </trkpt>
      <trkpt lat="45.80333" lon="5.73439">
        <ele>305</ele>
        <time>2018-10-14T14:27:45Z</time>
      </trkpt>
      <trkpt lat="45.80336" lon="5.73447">
        <ele>305</ele>
        <time>2018-10-14T14:27:45Z</time>
      </trkpt>
      <trkpt lat="45.80337" lon="5.73456">
        <ele>305</ele>
        <time>2018-10-14T14:27:45Z</time>
      </trkpt>
      <trkpt lat="45.80338" lon="5.73465">
        <ele>307</ele>
        <time>2018-10-14T14:28:01Z</time>
      </trkpt>
      <trkpt lat="45.80335" lon="5.73472">
        <ele>307</ele>
        <time>2018-10-14T14:28:01Z</time>
      </trkpt>
      <trkpt lat="45.80332" lon="5.73478">
        <ele>307</ele>
        <time>2018-10-14T14:28:01Z</time>
      </trkpt>
      <trkpt lat="45.80328" lon="5.73484">
        <ele>307</ele>
        <time>2018-10-14T14:28:01Z</time>
      </trkpt>
      <trkpt lat="45.80323" lon="5.7349">
        <ele>307</ele>
        <time>2018-10-14T14:28:17Z</time>
      </trkpt>
      <trkpt lat="45.80319" lon="5.73496">
        <ele>307</ele>
        <time>2018-10-14T14:28:17Z</time>
      </trkpt>
      <trkpt lat="45.80315" lon="5.73501">
        <ele>307</ele>
        <time>2018-10-14T14:28:17Z</time>
      </trkpt>
      <trkpt lat="45.8031" lon="5.73505">
        <ele>307</ele>
        <time>2018-10-14T14:28:17Z</time>
      </trkpt>
      <trkpt lat="45.80306" lon="5.7351">
        <ele>307</ele>
        <time>2018-10-14T14:28:33Z</time>
      </trkpt>
      <trkpt lat="45.80302" lon="5.73514">
        <ele>307</ele>
        <time>2018-10-14T14:28:33Z</time>
      </trkpt>
      <trkpt lat="45.80298" lon="5.73518">
        <ele>307</ele>
        <time>2018-10-14T14:28:33Z</time>
      </trkpt>
      <trkpt lat="45.80294" lon="5.73522">
        <ele>307</ele>
        <time>2018-10-14T14:28:33Z</time>
      </trkpt>
      <trkpt lat="45.80289" lon="5.73528">
        <ele>319</ele>
        <time>2018-10-14T14:28:49Z</time>
      </trkpt>
      <trkpt lat="45.80285" lon="5.73533">
        <ele>319</ele>
        <time>2018-10-14T14:28:49Z</time>
      </trkpt>
      <trkpt lat="45.80281" lon="5.73538">
        <ele>319</ele>
        <time>2018-10-14T14:28:49Z</time>
      </trkpt>
      <trkpt lat="45.80276" lon="5.73542">
        <ele>309</ele>
        <time>2018-10-14T14:28:49Z</time>
      </trkpt>
      <trkpt lat="45.80271" lon="5.73545">
        <ele>309</ele>
        <time>2018-10-14T14:29:05Z</time>
      </trkpt>
      <trkpt lat="45.80266" lon="5.73547">
        <ele>309</ele>
        <time>2018-10-14T14:29:05Z</time>
      </trkpt>
      <trkpt lat="45.80261" lon="5.73549">
        <ele>309</ele>
        <time>2018-10-14T14:29:05Z</time>
      </trkpt>
      <trkpt lat="45.80255" lon="5.7355">
        <ele>309</ele>
        <time>2018-10-14T14:29:05Z</time>
      </trkpt>
      <trkpt lat="45.8025" lon="5.73554">
        <ele>309</ele>
        <time>2018-10-14T14:29:21Z</time>
      </trkpt>
      <trkpt lat="45.80246" lon="5.73557">
        <ele>309</ele>
        <time>2018-10-14T14:29:21Z</time>
      </trkpt>
      <trkpt lat="45.80242" lon="5.7356">
        <ele>309</ele>
        <time>2018-10-14T14:29:21Z</time>
      </trkpt>
      <trkpt lat="45.80238" lon="5.73566">
        <ele>309</ele>
        <time>2018-10-14T14:29:21Z</time>
      </trkpt>
      <trkpt lat="45.80232" lon="5.73567">
        <ele>309</ele>
        <time>2018-10-14T14:29:37Z</time>
      </trkpt>
      <trkpt lat="45.80227" lon="5.73571">
        <ele>309</ele>
        <time>2018-10-14T14:29:37Z</time>
      </trkpt>
      <trkpt lat="45.80221" lon="5.73577">
        <ele>309</ele>
        <time>2018-10-14T14:29:37Z</time>
      </trkpt>
      <trkpt lat="45.80217" lon="5.73581">
        <ele>309</ele>
        <time>2018-10-14T14:29:37Z</time>
      </trkpt>
      <trkpt lat="45.80212" lon="5.73584">
        <ele>309</ele>
        <time>2018-10-14T14:29:53Z</time>
      </trkpt>
      <trkpt lat="45.80209" lon="5.73589">
        <ele>309</ele>
        <time>2018-10-14T14:29:53Z</time>
      </trkpt>
      <trkpt lat="45.80204" lon="5.73592">
        <ele>324</ele>
        <time>2018-10-14T14:29:53Z</time>
      </trkpt>
      <trkpt lat="45.80199" lon="5.73594">
        <ele>324</ele>
        <time>2018-10-14T14:29:53Z</time>
      </trkpt>
      <trkpt lat="45.80194" lon="5.73601">
        <ele>324</ele>
        <time>2018-10-14T14:30:09Z</time>
      </trkpt>
      <trkpt lat="45.8019" lon="5.73605">
        <ele>324</ele>
        <time>2018-10-14T14:30:09Z</time>
      </trkpt>
      <trkpt lat="45.80186" lon="5.7361">
        <ele>324</ele>
        <time>2018-10-14T14:30:09Z</time>
      </trkpt>
      <trkpt lat="45.8018" lon="5.73617">
        <ele>324</ele>
        <time>2018-10-14T14:30:09Z</time>
      </trkpt>
      <trkpt lat="45.80176" lon="5.73621">
        <ele>324</ele>
        <time>2018-10-14T14:30:25Z</time>
      </trkpt>
      <trkpt lat="45.80169" lon="5.73626">
        <ele>313</ele>
        <time>2018-10-14T14:30:25Z</time>
      </trkpt>
      <trkpt lat="45.80166" lon="5.7363">
        <ele>313</ele>
        <time>2018-10-14T14:30:25Z</time>
      </trkpt>
      <trkpt lat="45.80162" lon="5.73631">
        <ele>313</ele>
        <time>2018-10-14T14:30:25Z</time>
      </trkpt>
      <trkpt lat="45.80157" lon="5.73632">
        <ele>313</ele>
        <time>2018-10-14T14:30:41Z</time>
      </trkpt>
      <trkpt lat="45.80151" lon="5.73634">
        <ele>313</ele>
        <time>2018-10-14T14:30:41Z</time>
      </trkpt>
      <trkpt lat="45.80144" lon="5.73636">
        <ele>313</ele>
        <time>2018-10-14T14:30:41Z</time>
      </trkpt>
      <trkpt lat="45.80138" lon="5.73636">
        <ele>313</ele>
        <time>2018-10-14T14:30:41Z</time>
      </trkpt>
      <trkpt lat="45.80133" lon="5.73639">
        <ele>313</ele>
        <time>2018-10-14T14:30:57Z</time>
      </trkpt>
      <trkpt lat="45.80127" lon="5.73644">
        <ele>313</ele>
        <time>2018-10-14T14:30:57Z</time>
      </trkpt>
      <trkpt lat="45.80121" lon="5.73651">
        <ele>326</ele>
        <time>2018-10-14T14:30:57Z</time>
      </trkpt>
      <trkpt lat="45.80115" lon="5.73655">
        <ele>326</ele>
        <time>2018-10-14T14:30:57Z</time>
      </trkpt>
      <trkpt lat="45.80109" lon="5.73658">
        <ele>326</ele>
        <time>2018-10-14T14:31:13Z</time>
      </trkpt>
      <trkpt lat="45.80106" lon="5.73661">
        <ele>326</ele>
        <time>2018-10-14T14:31:13Z</time>
      </trkpt>
      <trkpt lat="45.80102" lon="5.73664">
        <ele>326</ele>
        <time>2018-10-14T14:31:13Z</time>
      </trkpt>
      <trkpt lat="45.80097" lon="5.73668">
        <ele>326</ele>
        <time>2018-10-14T14:31:13Z</time>
      </trkpt>
      <trkpt lat="45.80091" lon="5.73673">
        <ele>326</ele>
        <time>2018-10-14T14:31:29Z</time>
      </trkpt>
      <trkpt lat="45.80087" lon="5.73675">
        <ele>326</ele>
        <time>2018-10-14T14:31:29Z</time>
      </trkpt>
      <trkpt lat="45.80081" lon="5.73679">
        <ele>326</ele>
        <time>2018-10-14T14:31:29Z</time>
      </trkpt>
      <trkpt lat="45.80077" lon="5.73685">
        <ele>326</ele>
        <time>2018-10-14T14:31:29Z</time>
      </trkpt>
      <trkpt lat="45.80073" lon="5.73689">
        <ele>326</ele>
        <time>2018-10-14T14:31:45Z</time>
      </trkpt>
      <trkpt lat="45.80068" lon="5.73695">
        <ele>326</ele>
        <time>2018-10-14T14:31:45Z</time>
      </trkpt>
      <trkpt lat="45.80064" lon="5.73698">
        <ele>326</ele>
        <time>2018-10-14T14:31:45Z</time>
      </trkpt>
      <trkpt lat="45.80058" lon="5.737">
        <ele>326</ele>
        <time>2018-10-14T14:31:45Z</time>
      </trkpt>
      <trkpt lat="45.80052" lon="5.73704">
        <ele>326</ele>
        <time>2018-10-14T14:32:01Z</time>
      </trkpt>
      <trkpt lat="45.80046" lon="5.73705">
        <ele>326</ele>
        <time>2018-10-14T14:32:01Z</time>
      </trkpt>
      <trkpt lat="45.80042" lon="5.73707">
        <ele>326</ele>
        <time>2018-10-14T14:32:01Z</time>
      </trkpt>
      <trkpt lat="45.80034" lon="5.7371">
        <ele>327</ele>
        <time>2018-10-14T14:32:01Z</time>
      </trkpt>
      <trkpt lat="45.8003" lon="5.73713">
        <ele>327</ele>
        <time>2018-10-14T14:32:17Z</time>
      </trkpt>
      <trkpt lat="45.80025" lon="5.73718">
        <ele>327</ele>
        <time>2018-10-14T14:32:17Z</time>
      </trkpt>
      <trkpt lat="45.80021" lon="5.73725">
        <ele>327</ele>
        <time>2018-10-14T14:32:17Z</time>
      </trkpt>
      <trkpt lat="45.80019" lon="5.73732">
        <ele>327</ele>
        <time>2018-10-14T14:32:17Z</time>
      </trkpt>
      <trkpt lat="45.80014" lon="5.7374">
        <ele>327</ele>
        <time>2018-10-14T14:32:33Z</time>
      </trkpt>
      <trkpt lat="45.80011" lon="5.73746">
        <ele>327</ele>
        <time>2018-10-14T14:32:33Z</time>
      </trkpt>
      <trkpt lat="45.80007" lon="5.73752">
        <ele>327</ele>
        <time>2018-10-14T14:32:33Z</time>
      </trkpt>
      <trkpt lat="45.80006" lon="5.73755">
        <ele>327</ele>
        <time>2018-10-14T14:32:33Z</time>
      </trkpt>
      <trkpt lat="45.80003" lon="5.7376">
        <ele>327</ele>
        <time>2018-10-14T14:32:49Z</time>
      </trkpt>
      <trkpt lat="45.79998" lon="5.73766">
        <ele>327</ele>
        <time>2018-10-14T14:32:49Z</time>
      </trkpt>
      <trkpt lat="45.79993" lon="5.73773">
        <ele>327</ele>
        <time>2018-10-14T14:32:49Z</time>
      </trkpt>
      <trkpt lat="45.79988" lon="5.73781">
        <ele>327</ele>
        <time>2018-10-14T14:32:49Z</time>
      </trkpt>
      <trkpt lat="45.79984" lon="5.73787">
        <ele>327</ele>
        <time>2018-10-14T14:33:05Z</time>
      </trkpt>
      <trkpt lat="45.79979" lon="5.73793">
        <ele>314</ele>
        <time>2018-10-14T14:33:05Z</time>
      </trkpt>
      <trkpt lat="45.79976" lon="5.73798">
        <ele>314</ele>
        <time>2018-10-14T14:33:05Z</time>
      </trkpt>
      <trkpt lat="45.79972" lon="5.73801">
        <ele>314</ele>
        <time>2018-10-14T14:33:05Z</time>
      </trkpt>
      <trkpt lat="45.79968" lon="5.73805">
        <ele>314</ele>
        <time>2018-10-14T14:33:21Z</time>
      </trkpt>
      <trkpt lat="45.79962" lon="5.73809">
        <ele>314</ele>
        <time>2018-10-14T14:33:21Z</time>
      </trkpt>
      <trkpt lat="45.79956" lon="5.73814">
        <ele>318</ele>
        <time>2018-10-14T14:33:21Z</time>
      </trkpt>
      <trkpt lat="45.79952" lon="5.73818">
        <ele>318</ele>
        <time>2018-10-14T14:33:21Z</time>
      </trkpt>
      <trkpt lat="45.79948" lon="5.73824">
        <ele>318</ele>
        <time>2018-10-14T14:33:37Z</time>
      </trkpt>
      <trkpt lat="45.79944" lon="5.7383">
        <ele>318</ele>
        <time>2018-10-14T14:33:37Z</time>
      </trkpt>
      <trkpt lat="45.79941" lon="5.73839">
        <ele>318</ele>
        <time>2018-10-14T14:33:37Z</time>
      </trkpt>
      <trkpt lat="45.79935" lon="5.73847">
        <ele>318</ele>
        <time>2018-10-14T14:33:37Z</time>
      </trkpt>
      <trkpt lat="45.7993" lon="5.7385">
        <ele>318</ele>
        <time>2018-10-14T14:33:53Z</time>
      </trkpt>
      <trkpt lat="45.79924" lon="5.73853">
        <ele>318</ele>
        <time>2018-10-14T14:33:53Z</time>
      </trkpt>
      <trkpt lat="45.7992" lon="5.73858">
        <ele>318</ele>
        <time>2018-10-14T14:33:53Z</time>
      </trkpt>
      <trkpt lat="45.79914" lon="5.73864">
        <ele>318</ele>
        <time>2018-10-14T14:33:53Z</time>
      </trkpt>
      <trkpt lat="45.79909" lon="5.73869">
        <ele>318</ele>
        <time>2018-10-14T14:34:09Z</time>
      </trkpt>
      <trkpt lat="45.79904" lon="5.73872">
        <ele>318</ele>
        <time>2018-10-14T14:34:09Z</time>
      </trkpt>
      <trkpt lat="45.799" lon="5.73876">
        <ele>304</ele>
        <time>2018-10-14T14:34:09Z</time>
      </trkpt>
      <trkpt lat="45.79894" lon="5.73882">
        <ele>304</ele>
        <time>2018-10-14T14:34:09Z</time>
      </trkpt>
      <trkpt lat="45.7989" lon="5.73888">
        <ele>304</ele>
        <time>2018-10-14T14:34:25Z</time>
      </trkpt>
      <trkpt lat="45.79885" lon="5.73894">
        <ele>304</ele>
        <time>2018-10-14T14:34:25Z</time>
      </trkpt>
      <trkpt lat="45.79881" lon="5.73899">
        <ele>304</ele>
        <time>2018-10-14T14:34:25Z</time>
      </trkpt>
      <trkpt lat="45.79877" lon="5.73904">
        <ele>304</ele>
        <time>2018-10-14T14:34:25Z</time>
      </trkpt>
      <trkpt lat="45.79877" lon="5.73911">
        <ele>304</ele>
        <time>2018-10-14T14:34:41Z</time>
      </trkpt>
      <trkpt lat="45.79881" lon="5.73917">
        <ele>304</ele>
        <time>2018-10-14T14:34:41Z</time>
      </trkpt>
      <trkpt lat="45.79885" lon="5.73926">
        <ele>304</ele>
        <time>2018-10-14T14:34:41Z</time>
      </trkpt>
      <trkpt lat="45.79888" lon="5.73933">
        <ele>304</ele>
        <time>2018-10-14T14:34:41Z</time>
      </trkpt>
      <trkpt lat="45.7989" lon="5.73938">
        <ele>304</ele>
        <time>2018-10-14T14:35:13Z</time>
      </trkpt>
      <trkpt lat="45.79892" lon="5.73937">
        <ele>304</ele>
        <time>2018-10-14T14:35:13Z</time>
      </trkpt>
      <trkpt lat="45.79892" lon="5.73941">
        <ele>304</ele>
        <time>2018-10-14T14:35:13Z</time>
      </trkpt>
      <trkpt lat="45.79888" lon="5.73946">
        <ele>304</ele>
        <time>2018-10-14T14:35:13Z</time>
      </trkpt>
      <trkpt lat="45.7989" lon="5.73953">
        <ele>304</ele>
        <time>2018-10-14T14:35:13Z</time>
      </trkpt>
      <trkpt lat="45.79893" lon="5.73958">
        <ele>304</ele>
        <time>2018-10-14T14:35:29Z</time>
      </trkpt>
      <trkpt lat="45.79895" lon="5.73963">
        <ele>297</ele>
        <time>2018-10-14T14:35:29Z</time>
      </trkpt>
      <trkpt lat="45.79896" lon="5.73969">
        <ele>297</ele>
        <time>2018-10-14T14:35:29Z</time>
      </trkpt>
      <trkpt lat="45.79899" lon="5.73975">
        <ele>297</ele>
        <time>2018-10-14T14:35:29Z</time>
      </trkpt>
      <trkpt lat="45.79901" lon="5.73981">
        <ele>297</ele>
        <time>2018-10-14T14:35:45Z</time>
      </trkpt>
      <trkpt lat="45.79903" lon="5.73987">
        <ele>297</ele>
        <time>2018-10-14T14:35:45Z</time>
      </trkpt>
      <trkpt lat="45.79904" lon="5.73993">
        <ele>297</ele>
        <time>2018-10-14T14:35:45Z</time>
      </trkpt>
      <trkpt lat="45.79907" lon="5.73999">
        <ele>297</ele>
        <time>2018-10-14T14:35:45Z</time>
      </trkpt>
      <trkpt lat="45.79908" lon="5.74007">
        <ele>297</ele>
        <time>2018-10-14T14:36:01Z</time>
      </trkpt>
      <trkpt lat="45.7991" lon="5.74016">
        <ele>297</ele>
        <time>2018-10-14T14:36:01Z</time>
      </trkpt>
      <trkpt lat="45.79913" lon="5.74024">
        <ele>297</ele>
        <time>2018-10-14T14:36:01Z</time>
      </trkpt>
      <trkpt lat="45.79915" lon="5.74032">
        <ele>297</ele>
        <time>2018-10-14T14:36:01Z</time>
      </trkpt>
      <trkpt lat="45.79917" lon="5.74038">
        <ele>297</ele>
        <time>2018-10-14T14:36:17Z</time>
      </trkpt>
      <trkpt lat="45.79919" lon="5.74046">
        <ele>290</ele>
        <time>2018-10-14T14:36:17Z</time>
      </trkpt>
      <trkpt lat="45.79921" lon="5.74052">
        <ele>290</ele>
        <time>2018-10-14T14:36:17Z</time>
      </trkpt>
      <trkpt lat="45.79923" lon="5.74058">
        <ele>290</ele>
        <time>2018-10-14T14:36:17Z</time>
      </trkpt>
      <trkpt lat="45.79925" lon="5.74064">
        <ele>290</ele>
        <time>2018-10-14T14:36:33Z</time>
      </trkpt>
      <trkpt lat="45.79927" lon="5.74069">
        <ele>290</ele>
        <time>2018-10-14T14:36:33Z</time>
      </trkpt>
      <trkpt lat="45.79929" lon="5.74075">
        <ele>290</ele>
        <time>2018-10-14T14:36:33Z</time>
      </trkpt>
      <trkpt lat="45.79931" lon="5.74082">
        <ele>290</ele>
        <time>2018-10-14T14:36:33Z</time>
      </trkpt>
      <trkpt lat="45.79936" lon="5.74089">
        <ele>290</ele>
        <time>2018-10-14T14:36:49Z</time>
      </trkpt>
      <trkpt lat="45.7994" lon="5.74096">
        <ele>290</ele>
        <time>2018-10-14T14:36:49Z</time>
      </trkpt>
      <trkpt lat="45.79944" lon="5.74104">
        <ele>290</ele>
        <time>2018-10-14T14:36:49Z</time>
      </trkpt>
      <trkpt lat="45.79948" lon="5.74111">
        <ele>290</ele>
        <time>2018-10-14T14:36:49Z</time>
      </trkpt>
      <trkpt lat="45.79949" lon="5.74114">
        <ele>290</ele>
        <time>2018-10-14T14:37:05Z</time>
      </trkpt>
      <trkpt lat="45.79952" lon="5.74119">
        <ele>290</ele>
        <time>2018-10-14T14:37:05Z</time>
      </trkpt>
      <trkpt lat="45.79954" lon="5.74124">
        <ele>290</ele>
        <time>2018-10-14T14:37:05Z</time>
      </trkpt>
      <trkpt lat="45.79957" lon="5.74127">
        <ele>285</ele>
        <time>2018-10-14T14:37:05Z</time>
      </trkpt>
      <trkpt lat="45.79962" lon="5.74133">
        <ele>279</ele>
        <time>2018-10-14T14:37:21Z</time>
      </trkpt>
      <trkpt lat="45.79964" lon="5.74138">
        <ele>279</ele>
        <time>2018-10-14T14:37:21Z</time>
      </trkpt>
      <trkpt lat="45.79967" lon="5.74146">
        <ele>279</ele>
        <time>2018-10-14T14:37:21Z</time>
      </trkpt>
      <trkpt lat="45.7997" lon="5.74153">
        <ele>279</ele>
        <time>2018-10-14T14:37:21Z</time>
      </trkpt>
      <trkpt lat="45.79973" lon="5.74158">
        <ele>279</ele>
        <time>2018-10-14T14:37:37Z</time>
      </trkpt>
      <trkpt lat="45.79976" lon="5.74162">
        <ele>279</ele>
        <time>2018-10-14T14:37:37Z</time>
      </trkpt>
      <trkpt lat="45.79981" lon="5.74166">
        <ele>279</ele>
        <time>2018-10-14T14:37:37Z</time>
      </trkpt>
      <trkpt lat="45.79982" lon="5.74168">
        <ele>279</ele>
        <time>2018-10-14T14:37:37Z</time>
      </trkpt>
      <trkpt lat="45.79982" lon="5.74169">
        <ele>279</ele>
        <time>2018-10-14T14:38:13Z</time>
      </trkpt>
      <trkpt lat="45.79982" lon="5.74169">
        <ele>279</ele>
        <time>2018-10-14T14:38:13Z</time>
      </trkpt>
      <trkpt lat="45.79982" lon="5.74169">
        <ele>279</ele>
        <time>2018-10-14T14:38:13Z</time>
      </trkpt>
      <trkpt lat="45.79983" lon="5.7417">
        <ele>279</ele>
        <time>2018-10-14T14:38:13Z</time>
      </trkpt>
      <trkpt lat="45.7999" lon="5.74179">
        <ele>279</ele>
        <time>2018-10-14T14:38:13Z</time>
      </trkpt>
      <trkpt lat="45.79999" lon="5.74185">
        <ele>279</ele>
        <time>2018-10-14T14:38:37Z</time>
      </trkpt>
      <trkpt lat="45.79999" lon="5.74186">
        <ele>279</ele>
        <time>2018-10-14T14:38:37Z</time>
      </trkpt>
      <trkpt lat="45.80001" lon="5.74189">
        <ele>279</ele>
        <time>2018-10-14T14:38:37Z</time>
      </trkpt>
      <trkpt lat="45.80004" lon="5.74189">
        <ele>279</ele>
        <time>2018-10-14T14:38:37Z</time>
      </trkpt>
      <trkpt lat="45.80006" lon="5.74187">
        <ele>279</ele>
        <time>2018-10-14T14:38:37Z</time>
      </trkpt>
      <trkpt lat="45.80007" lon="5.74181">
        <ele>279</ele>
        <time>2018-10-14T14:38:53Z</time>
      </trkpt>
      <trkpt lat="45.80008" lon="5.74173">
        <ele>279</ele>
        <time>2018-10-14T14:38:53Z</time>
      </trkpt>
      <trkpt lat="45.8001" lon="5.74167">
        <ele>279</ele>
        <time>2018-10-14T14:38:53Z</time>
      </trkpt>
      <trkpt lat="45.80013" lon="5.74163">
        <ele>279</ele>
        <time>2018-10-14T14:38:53Z</time>
      </trkpt>
      <trkpt lat="45.80017" lon="5.74161">
        <ele>279</ele>
        <time>2018-10-14T14:39:09Z</time>
      </trkpt>
      <trkpt lat="45.80021" lon="5.7416">
        <ele>279</ele>
        <time>2018-10-14T14:39:09Z</time>
      </trkpt>
      <trkpt lat="45.80025" lon="5.7416">
        <ele>279</ele>
        <time>2018-10-14T14:39:09Z</time>
      </trkpt>
      <trkpt lat="45.80032" lon="5.74158">
        <ele>279</ele>
        <time>2018-10-14T14:39:09Z</time>
      </trkpt>
      <trkpt lat="45.80037" lon="5.74156">
        <ele>279</ele>
        <time>2018-10-14T14:39:25Z</time>
      </trkpt>
      <trkpt lat="45.80045" lon="5.74155">
        <ele>268</ele>
        <time>2018-10-14T14:39:25Z</time>
      </trkpt>
      <trkpt lat="45.80051" lon="5.74153">
        <ele>268</ele>
        <time>2018-10-14T14:39:25Z</time>
      </trkpt>
      <trkpt lat="45.80057" lon="5.74153">
        <ele>268</ele>
        <time>2018-10-14T14:39:25Z</time>
      </trkpt>
      <trkpt lat="45.80063" lon="5.74154">
        <ele>268</ele>
        <time>2018-10-14T14:39:41Z</time>
      </trkpt>
      <trkpt lat="45.80068" lon="5.74153">
        <ele>268</ele>
        <time>2018-10-14T14:39:41Z</time>
      </trkpt>
      <trkpt lat="45.80073" lon="5.74154">
        <ele>268</ele>
        <time>2018-10-14T14:39:41Z</time>
      </trkpt>
      <trkpt lat="45.80076" lon="5.74154">
        <ele>268</ele>
        <time>2018-10-14T14:39:41Z</time>
      </trkpt>
      <trkpt lat="45.8008" lon="5.74153">
        <ele>268</ele>
        <time>2018-10-14T14:39:57Z</time>
      </trkpt>
      <trkpt lat="45.80084" lon="5.7415">
        <ele>268</ele>
        <time>2018-10-14T14:39:57Z</time>
      </trkpt>
      <trkpt lat="45.80088" lon="5.74146">
        <ele>268</ele>
        <time>2018-10-14T14:39:57Z</time>
      </trkpt>
      <trkpt lat="45.80093" lon="5.74142">
        <ele>268</ele>
        <time>2018-10-14T14:39:57Z</time>
      </trkpt>
      <trkpt lat="45.80099" lon="5.74129">
        <ele>268</ele>
        <time>2018-10-14T14:40:49Z</time>
      </trkpt>
      <trkpt lat="45.80099" lon="5.74129">
        <ele>268</ele>
        <time>2018-10-14T14:40:49Z</time>
      </trkpt>
      <trkpt lat="45.801" lon="5.74129">
        <ele>268</ele>
        <time>2018-10-14T14:40:49Z</time>
      </trkpt>
      <trkpt lat="45.80103" lon="5.74131">
        <ele>268</ele>
        <time>2018-10-14T14:40:49Z</time>
      </trkpt>
      <trkpt lat="45.80107" lon="5.74132">
        <ele>268</ele>
        <time>2018-10-14T14:40:49Z</time>
      </trkpt>
      <trkpt lat="45.80108" lon="5.74134">
        <ele>268</ele>
        <time>2018-10-14T14:41:05Z</time>
      </trkpt>
      <trkpt lat="45.80111" lon="5.7414">
        <ele>268</ele>
        <time>2018-10-14T14:41:05Z</time>
      </trkpt>
      <trkpt lat="45.80113" lon="5.74142">
        <ele>268</ele>
        <time>2018-10-14T14:41:05Z</time>
      </trkpt>
      <trkpt lat="45.80114" lon="5.74145">
        <ele>268</ele>
        <time>2018-10-14T14:41:05Z</time>
      </trkpt>
      <trkpt lat="45.80117" lon="5.74148">
        <ele>268</ele>
        <time>2018-10-14T14:41:21Z</time>
      </trkpt>
      <trkpt lat="45.80123" lon="5.74154">
        <ele>268</ele>
        <time>2018-10-14T14:41:21Z</time>
      </trkpt>
      <trkpt lat="45.80128" lon="5.74158">
        <ele>259</ele>
        <time>2018-10-14T14:41:21Z</time>
      </trkpt>
      <trkpt lat="45.80133" lon="5.74163">
        <ele>259</ele>
        <time>2018-10-14T14:41:21Z</time>
      </trkpt>
      <trkpt lat="45.80138" lon="5.74167">
        <ele>259</ele>
        <time>2018-10-14T14:41:37Z</time>
      </trkpt>
      <trkpt lat="45.80143" lon="5.74168">
        <ele>259</ele>
        <time>2018-10-14T14:41:37Z</time>
      </trkpt>
      <trkpt lat="45.80144" lon="5.74167">
        <ele>259</ele>
        <time>2018-10-14T14:41:37Z</time>
      </trkpt>
      <trkpt lat="45.8015" lon="5.74168">
        <ele>259</ele>
        <time>2018-10-14T14:41:37Z</time>
      </trkpt>
      <trkpt lat="45.80157" lon="5.74168">
        <ele>259</ele>
        <time>2018-10-14T14:41:53Z</time>
      </trkpt>
      <trkpt lat="45.80162" lon="5.74168">
        <ele>259</ele>
        <time>2018-10-14T14:41:53Z</time>
      </trkpt>
      <trkpt lat="45.80168" lon="5.74166">
        <ele>259</ele>
        <time>2018-10-14T14:41:53Z</time>
      </trkpt>
      <trkpt lat="45.80172" lon="5.74166">
        <ele>259</ele>
        <time>2018-10-14T14:41:53Z</time>
      </trkpt>
      <trkpt lat="45.80176" lon="5.74164">
        <ele>259</ele>
        <time>2018-10-14T14:42:09Z</time>
      </trkpt>
      <trkpt lat="45.80178" lon="5.74157">
        <ele>259</ele>
        <time>2018-10-14T14:42:09Z</time>
      </trkpt>
      <trkpt lat="45.80179" lon="5.74153">
        <ele>259</ele>
        <time>2018-10-14T14:42:09Z</time>
      </trkpt>
      <trkpt lat="45.80181" lon="5.74148">
        <ele>259</ele>
        <time>2018-10-14T14:42:09Z</time>
      </trkpt>
      <trkpt lat="45.80183" lon="5.74145">
        <ele>259</ele>
        <time>2018-10-14T14:42:25Z</time>
      </trkpt>
      <trkpt lat="45.80187" lon="5.74141">
        <ele>259</ele>
        <time>2018-10-14T14:42:25Z</time>
      </trkpt>
      <trkpt lat="45.80192" lon="5.74135">
        <ele>259</ele>
        <time>2018-10-14T14:42:25Z</time>
      </trkpt>
      <trkpt lat="45.80196" lon="5.74128">
        <ele>259</ele>
        <time>2018-10-14T14:42:25Z</time>
      </trkpt>
      <trkpt lat="45.80201" lon="5.74123">
        <ele>264</ele>
        <time>2018-10-14T14:42:41Z</time>
      </trkpt>
      <trkpt lat="45.80207" lon="5.74123">
        <ele>264</ele>
        <time>2018-10-14T14:42:41Z</time>
      </trkpt>
      <trkpt lat="45.80212" lon="5.74126">
        <ele>253</ele>
        <time>2018-10-14T14:42:41Z</time>
      </trkpt>
      <trkpt lat="45.80216" lon="5.74132">
        <ele>253</ele>
        <time>2018-10-14T14:42:41Z</time>
      </trkpt>
      <trkpt lat="45.80222" lon="5.74137">
        <ele>253</ele>
        <time>2018-10-14T14:42:57Z</time>
      </trkpt>
      <trkpt lat="45.80225" lon="5.7414">
        <ele>253</ele>
        <time>2018-10-14T14:42:57Z</time>
      </trkpt>
      <trkpt lat="45.8023" lon="5.74139">
        <ele>253</ele>
        <time>2018-10-14T14:42:57Z</time>
      </trkpt>
      <trkpt lat="45.80234" lon="5.74133">
        <ele>253</ele>
        <time>2018-10-14T14:42:57Z</time>
      </trkpt>
      <trkpt lat="45.80239" lon="5.74128">
        <ele>253</ele>
        <time>2018-10-14T14:43:13Z</time>
      </trkpt>
      <trkpt lat="45.80242" lon="5.74123">
        <ele>257</ele>
        <time>2018-10-14T14:43:13Z</time>
      </trkpt>
      <trkpt lat="45.80246" lon="5.74119">
        <ele>257</ele>
        <time>2018-10-14T14:43:13Z</time>
      </trkpt>
      <trkpt lat="45.8025" lon="5.74116">
        <ele>257</ele>
        <time>2018-10-14T14:43:13Z</time>
      </trkpt>
      <trkpt lat="45.80255" lon="5.74113">
        <ele>257</ele>
        <time>2018-10-14T14:43:29Z</time>
      </trkpt>
      <trkpt lat="45.8026" lon="5.74112">
        <ele>257</ele>
        <time>2018-10-14T14:43:29Z</time>
      </trkpt>
      <trkpt lat="45.80265" lon="5.74108">
        <ele>257</ele>
        <time>2018-10-14T14:43:29Z</time>
      </trkpt>
      <trkpt lat="45.80269" lon="5.74106">
        <ele>257</ele>
        <time>2018-10-14T14:43:29Z</time>
      </trkpt>
      <trkpt lat="45.80273" lon="5.74102">
        <ele>257</ele>
        <time>2018-10-14T14:43:45Z</time>
      </trkpt>
      <trkpt lat="45.80277" lon="5.74098">
        <ele>257</ele>
        <time>2018-10-14T14:43:45Z</time>
      </trkpt>
      <trkpt lat="45.80281" lon="5.74094">
        <ele>257</ele>
        <time>2018-10-14T14:43:45Z</time>
      </trkpt>
      <trkpt lat="45.80286" lon="5.7409">
        <ele>257</ele>
        <time>2018-10-14T14:43:45Z</time>
      </trkpt>
      <trkpt lat="45.8029" lon="5.74087">
        <ele>257</ele>
        <time>2018-10-14T14:44:01Z</time>
      </trkpt>
      <trkpt lat="45.80296" lon="5.74088">
        <ele>251</ele>
        <time>2018-10-14T14:44:01Z</time>
      </trkpt>
      <trkpt lat="45.80301" lon="5.74095">
        <ele>251</ele>
        <time>2018-10-14T14:44:01Z</time>
      </trkpt>
      <trkpt lat="45.80305" lon="5.74103">
        <ele>251</ele>
        <time>2018-10-14T14:44:01Z</time>
      </trkpt>
      <trkpt lat="45.80308" lon="5.74113">
        <ele>251</ele>
        <time>2018-10-14T14:44:17Z</time>
      </trkpt>
      <trkpt lat="45.80311" lon="5.74123">
        <ele>251</ele>
        <time>2018-10-14T14:44:17Z</time>
      </trkpt>
      <trkpt lat="45.80315" lon="5.74133">
        <ele>247</ele>
        <time>2018-10-14T14:44:17Z</time>
      </trkpt>
      <trkpt lat="45.80317" lon="5.7414">
        <ele>247</ele>
        <time>2018-10-14T14:44:17Z</time>
      </trkpt>
      <trkpt lat="45.8032" lon="5.74149">
        <ele>247</ele>
        <time>2018-10-14T14:44:33Z</time>
      </trkpt>
      <trkpt lat="45.80324" lon="5.74157">
        <ele>247</ele>
        <time>2018-10-14T14:44:33Z</time>
      </trkpt>
      <trkpt lat="45.80327" lon="5.74164">
        <ele>247</ele>
        <time>2018-10-14T14:44:33Z</time>
      </trkpt>
      <trkpt lat="45.8033" lon="5.74171">
        <ele>247</ele>
        <time>2018-10-14T14:44:33Z</time>
      </trkpt>
      <trkpt lat="45.80333" lon="5.74178">
        <ele>247</ele>
        <time>2018-10-14T14:44:49Z</time>
      </trkpt>
      <trkpt lat="45.80335" lon="5.74186">
        <ele>247</ele>
        <time>2018-10-14T14:44:49Z</time>
      </trkpt>
      <trkpt lat="45.80337" lon="5.74192">
        <ele>247</ele>
        <time>2018-10-14T14:44:49Z</time>
      </trkpt>
      <trkpt lat="45.8034" lon="5.742">
        <ele>247</ele>
        <time>2018-10-14T14:44:49Z</time>
      </trkpt>
      <trkpt lat="45.80344" lon="5.74205">
        <ele>247</ele>
        <time>2018-10-14T14:45:05Z</time>
      </trkpt>
      <trkpt lat="45.80347" lon="5.74214">
        <ele>242</ele>
        <time>2018-10-14T14:45:05Z</time>
      </trkpt>
      <trkpt lat="45.80349" lon="5.74225">
        <ele>242</ele>
        <time>2018-10-14T14:45:05Z</time>
      </trkpt>
      <trkpt lat="45.80352" lon="5.74232">
        <ele>242</ele>
        <time>2018-10-14T14:45:05Z</time>
      </trkpt>
      <trkpt lat="45.80355" lon="5.74239">
        <ele>242</ele>
        <time>2018-10-14T14:45:33Z</time>
      </trkpt>
      <trkpt lat="45.80357" lon="5.74249">
        <ele>242</ele>
        <time>2018-10-14T14:45:33Z</time>
      </trkpt>
      <trkpt lat="45.80358" lon="5.74251">
        <ele>242</ele>
        <time>2018-10-14T14:45:33Z</time>
      </trkpt>
      <trkpt lat="45.80362" lon="5.74256">
        <ele>242</ele>
        <time>2018-10-14T14:45:33Z</time>
      </trkpt>
      <trkpt lat="45.80366" lon="5.74266">
        <ele>242</ele>
        <time>2018-10-14T14:45:33Z</time>
      </trkpt>
      <trkpt lat="45.8037" lon="5.74274">
        <ele>242</ele>
        <time>2018-10-14T14:45:49Z</time>
      </trkpt>
      <trkpt lat="45.80371" lon="5.74288">
        <ele>242</ele>
        <time>2018-10-14T14:45:49Z</time>
      </trkpt>
      <trkpt lat="45.8037" lon="5.74299">
        <ele>237</ele>
        <time>2018-10-14T14:45:49Z</time>
      </trkpt>
      <trkpt lat="45.80369" lon="5.74308">
        <ele>237</ele>
        <time>2018-10-14T14:45:49Z</time>
      </trkpt>
      <trkpt lat="45.80368" lon="5.74317">
        <ele>237</ele>
        <time>2018-10-14T14:46:05Z</time>
      </trkpt>
      <trkpt lat="45.80366" lon="5.74326">
        <ele>237</ele>
        <time>2018-10-14T14:46:05Z</time>
      </trkpt>
      <trkpt lat="45.80364" lon="5.74332">
        <ele>237</ele>
        <time>2018-10-14T14:46:05Z</time>
      </trkpt>
      <trkpt lat="45.80363" lon="5.74341">
        <ele>237</ele>
        <time>2018-10-14T14:46:05Z</time>
      </trkpt>
      <trkpt lat="45.80362" lon="5.74349">
        <ele>237</ele>
        <time>2018-10-14T14:46:21Z</time>
      </trkpt>
      <trkpt lat="45.8036" lon="5.74358">
        <ele>237</ele>
        <time>2018-10-14T14:46:21Z</time>
      </trkpt>
      <trkpt lat="45.80358" lon="5.74367">
        <ele>237</ele>
        <time>2018-10-14T14:46:21Z</time>
      </trkpt>
      <trkpt lat="45.80356" lon="5.74375">
        <ele>237</ele>
        <time>2018-10-14T14:46:21Z</time>
      </trkpt>
      <trkpt lat="45.80354" lon="5.74382">
        <ele>237</ele>
        <time>2018-10-14T14:46:37Z</time>
      </trkpt>
      <trkpt lat="45.80353" lon="5.74389">
        <ele>237</ele>
        <time>2018-10-14T14:46:37Z</time>
      </trkpt>
      <trkpt lat="45.8035" lon="5.74397">
        <ele>237</ele>
        <time>2018-10-14T14:46:37Z</time>
      </trkpt>
      <trkpt lat="45.80347" lon="5.74404">
        <ele>237</ele>
        <time>2018-10-14T14:46:37Z</time>
      </trkpt>
      <trkpt lat="45.80342" lon="5.74414">
        <ele>237</ele>
        <time>2018-10-14T14:46:53Z</time>
      </trkpt>
      <trkpt lat="45.80339" lon="5.74421">
        <ele>237</ele>
        <time>2018-10-14T14:46:53Z</time>
      </trkpt>
      <trkpt lat="45.80336" lon="5.74427">
        <ele>237</ele>
        <time>2018-10-14T14:46:53Z</time>
      </trkpt>
      <trkpt lat="45.80334" lon="5.74433">
        <ele>237</ele>
        <time>2018-10-14T14:46:53Z</time>
      </trkpt>
      <trkpt lat="45.80331" lon="5.74438">
        <ele>237</ele>
        <time>2018-10-14T14:47:09Z</time>
      </trkpt>
      <trkpt lat="45.80329" lon="5.74447">
        <ele>237</ele>
        <time>2018-10-14T14:47:09Z</time>
      </trkpt>
      <trkpt lat="45.80325" lon="5.74455">
        <ele>237</ele>
        <time>2018-10-14T14:47:09Z</time>
      </trkpt>
      <trkpt lat="45.80323" lon="5.74462">
        <ele>235</ele>
        <time>2018-10-14T14:47:09Z</time>
      </trkpt>
      <trkpt lat="45.80322" lon="5.74469">
        <ele>235</ele>
        <time>2018-10-14T14:47:25Z</time>
      </trkpt>
      <trkpt lat="45.80316" lon="5.7448">
        <ele>235</ele>
        <time>2018-10-14T14:47:25Z</time>
      </trkpt>
      <trkpt lat="45.80313" lon="5.7449">
        <ele>235</ele>
        <time>2018-10-14T14:47:25Z</time>
      </trkpt>
      <trkpt lat="45.80312" lon="5.74499">
        <ele>235</ele>
        <time>2018-10-14T14:47:25Z</time>
      </trkpt>
      <trkpt lat="45.80312" lon="5.74508">
        <ele>235</ele>
        <time>2018-10-14T14:47:41Z</time>
      </trkpt>
      <trkpt lat="45.80311" lon="5.74516">
        <ele>235</ele>
        <time>2018-10-14T14:47:41Z</time>
      </trkpt>
      <trkpt lat="45.8031" lon="5.74522">
        <ele>235</ele>
        <time>2018-10-14T14:47:41Z</time>
      </trkpt>
      <trkpt lat="45.80308" lon="5.74526">
        <ele>235</ele>
        <time>2018-10-14T14:47:41Z</time>
      </trkpt>
      <trkpt lat="45.80306" lon="5.74535">
        <ele>235</ele>
        <time>2018-10-14T14:47:57Z</time>
      </trkpt>
      <trkpt lat="45.80306" lon="5.74546">
        <ele>233</ele>
        <time>2018-10-14T14:47:57Z</time>
      </trkpt>
      <trkpt lat="45.80307" lon="5.74555">
        <ele>233</ele>
        <time>2018-10-14T14:47:57Z</time>
      </trkpt>
      <trkpt lat="45.80308" lon="5.74563">
        <ele>233</ele>
        <time>2018-10-14T14:47:57Z</time>
      </trkpt>
      <trkpt lat="45.80307" lon="5.74571">
        <ele>233</ele>
        <time>2018-10-14T14:48:13Z</time>
      </trkpt>
      <trkpt lat="45.80305" lon="5.7458">
        <ele>233</ele>
        <time>2018-10-14T14:48:13Z</time>
      </trkpt>
      <trkpt lat="45.80303" lon="5.74588">
        <ele>233</ele>
        <time>2018-10-14T14:48:13Z</time>
      </trkpt>
      <trkpt lat="45.80301" lon="5.74593">
        <ele>233</ele>
        <time>2018-10-14T14:48:13Z</time>
      </trkpt>
      <trkpt lat="45.80299" lon="5.74598">
        <ele>233</ele>
        <time>2018-10-14T14:48:29Z</time>
      </trkpt>
      <trkpt lat="45.80296" lon="5.74605">
        <ele>233</ele>
        <time>2018-10-14T14:48:29Z</time>
      </trkpt>
      <trkpt lat="45.80292" lon="5.74612">
        <ele>233</ele>
        <time>2018-10-14T14:48:29Z</time>
      </trkpt>
      <trkpt lat="45.8029" lon="5.7462">
        <ele>241</ele>
        <time>2018-10-14T14:48:29Z</time>
      </trkpt>
      <trkpt lat="45.80289" lon="5.74629">
        <ele>240</ele>
        <time>2018-10-14T14:48:45Z</time>
      </trkpt>
      <trkpt lat="45.80287" lon="5.74637">
        <ele>240</ele>
        <time>2018-10-14T14:48:45Z</time>
      </trkpt>
      <trkpt lat="45.80285" lon="5.74645">
        <ele>240</ele>
        <time>2018-10-14T14:48:45Z</time>
      </trkpt>
      <trkpt lat="45.80283" lon="5.74653">
        <ele>240</ele>
        <time>2018-10-14T14:48:45Z</time>
      </trkpt>
      <trkpt lat="45.80282" lon="5.7466">
        <ele>240</ele>
        <time>2018-10-14T14:49:01Z</time>
      </trkpt>
      <trkpt lat="45.80279" lon="5.74667">
        <ele>240</ele>
        <time>2018-10-14T14:49:01Z</time>
      </trkpt>
      <trkpt lat="45.80278" lon="5.74675">
        <ele>240</ele>
        <time>2018-10-14T14:49:01Z</time>
      </trkpt>
      <trkpt lat="45.80277" lon="5.74681">
        <ele>240</ele>
        <time>2018-10-14T14:49:01Z</time>
      </trkpt>
      <trkpt lat="45.80274" lon="5.74689">
        <ele>240</ele>
        <time>2018-10-14T14:49:17Z</time>
      </trkpt>
      <trkpt lat="45.80271" lon="5.74696">
        <ele>240</ele>
        <time>2018-10-14T14:49:17Z</time>
      </trkpt>
      <trkpt lat="45.80269" lon="5.74705">
        <ele>240</ele>
        <time>2018-10-14T14:49:17Z</time>
      </trkpt>
      <trkpt lat="45.80267" lon="5.74713">
        <ele>238</ele>
        <time>2018-10-14T14:49:17Z</time>
      </trkpt>
      <trkpt lat="45.80264" lon="5.74721">
        <ele>238</ele>
        <time>2018-10-14T14:49:33Z</time>
      </trkpt>
      <trkpt lat="45.80263" lon="5.74728">
        <ele>238</ele>
        <time>2018-10-14T14:49:33Z</time>
      </trkpt>
      <trkpt lat="45.80261" lon="5.74736">
        <ele>238</ele>
        <time>2018-10-14T14:49:33Z</time>
      </trkpt>
      <trkpt lat="45.80259" lon="5.74743">
        <ele>238</ele>
        <time>2018-10-14T14:49:33Z</time>
      </trkpt>
      <trkpt lat="45.80255" lon="5.74751">
        <ele>238</ele>
        <time>2018-10-14T14:49:49Z</time>
      </trkpt>
      <trkpt lat="45.80252" lon="5.74759">
        <ele>238</ele>
        <time>2018-10-14T14:49:49Z</time>
      </trkpt>
      <trkpt lat="45.80249" lon="5.74767">
        <ele>238</ele>
        <time>2018-10-14T14:49:49Z</time>
      </trkpt>
      <trkpt lat="45.80246" lon="5.74773">
        <ele>238</ele>
        <time>2018-10-14T14:49:49Z</time>
      </trkpt>
      <trkpt lat="45.80242" lon="5.7478">
        <ele>238</ele>
        <time>2018-10-14T14:50:05Z</time>
      </trkpt>
      <trkpt lat="45.80239" lon="5.74786">
        <ele>238</ele>
        <time>2018-10-14T14:50:05Z</time>
      </trkpt>
      <trkpt lat="45.80236" lon="5.74793">
        <ele>238</ele>
        <time>2018-10-14T14:50:05Z</time>
      </trkpt>
      <trkpt lat="45.80236" lon="5.74801">
        <ele>238</ele>
        <time>2018-10-14T14:50:05Z</time>
      </trkpt>
      <trkpt lat="45.80236" lon="5.74809">
        <ele>238</ele>
        <time>2018-10-14T14:50:21Z</time>
      </trkpt>
      <trkpt lat="45.80234" lon="5.74815">
        <ele>238</ele>
        <time>2018-10-14T14:50:21Z</time>
      </trkpt>
      <trkpt lat="45.80232" lon="5.7482">
        <ele>238</ele>
        <time>2018-10-14T14:50:21Z</time>
      </trkpt>
      <trkpt lat="45.8023" lon="5.74828">
        <ele>238</ele>
        <time>2018-10-14T14:50:21Z</time>
      </trkpt>
      <trkpt lat="45.80227" lon="5.74833">
        <ele>238</ele>
        <time>2018-10-14T14:50:37Z</time>
      </trkpt>
      <trkpt lat="45.80224" lon="5.74839">
        <ele>238</ele>
        <time>2018-10-14T14:50:37Z</time>
      </trkpt>
      <trkpt lat="45.8022" lon="5.74846">
        <ele>238</ele>
        <time>2018-10-14T14:50:37Z</time>
      </trkpt>
      <trkpt lat="45.80214" lon="5.74852">
        <ele>238</ele>
        <time>2018-10-14T14:50:37Z</time>
      </trkpt>
      <trkpt lat="45.8021" lon="5.74858">
        <ele>238</ele>
        <time>2018-10-14T14:50:53Z</time>
      </trkpt>
      <trkpt lat="45.80206" lon="5.74863">
        <ele>239</ele>
        <time>2018-10-14T14:50:53Z</time>
      </trkpt>
      <trkpt lat="45.80202" lon="5.74867">
        <ele>239</ele>
        <time>2018-10-14T14:50:53Z</time>
      </trkpt>
      <trkpt lat="45.80199" lon="5.74869">
        <ele>239</ele>
        <time>2018-10-14T14:50:53Z</time>
      </trkpt>
      <trkpt lat="45.80195" lon="5.74873">
        <ele>239</ele>
        <time>2018-10-14T14:51:09Z</time>
      </trkpt>
      <trkpt lat="45.80191" lon="5.74877">
        <ele>232</ele>
        <time>2018-10-14T14:51:09Z</time>
      </trkpt>
      <trkpt lat="45.8019" lon="5.74882">
        <ele>232</ele>
        <time>2018-10-14T14:51:09Z</time>
      </trkpt>
      <trkpt lat="45.80189" lon="5.74889">
        <ele>232</ele>
        <time>2018-10-14T14:51:09Z</time>
      </trkpt>
      <trkpt lat="45.80185" lon="5.74896">
        <ele>232</ele>
        <time>2018-10-14T14:51:25Z</time>
      </trkpt>
      <trkpt lat="45.80183" lon="5.74903">
        <ele>232</ele>
        <time>2018-10-14T14:51:25Z</time>
      </trkpt>
      <trkpt lat="45.80181" lon="5.7491">
        <ele>232</ele>
        <time>2018-10-14T14:51:25Z</time>
      </trkpt>
      <trkpt lat="45.80179" lon="5.74915">
        <ele>232</ele>
        <time>2018-10-14T14:51:25Z</time>
      </trkpt>
      <trkpt lat="45.80176" lon="5.74923">
        <ele>232</ele>
        <time>2018-10-14T14:51:41Z</time>
      </trkpt>
      <trkpt lat="45.80173" lon="5.74934">
        <ele>232</ele>
        <time>2018-10-14T14:51:41Z</time>
      </trkpt>
      <trkpt lat="45.80168" lon="5.74941">
        <ele>232</ele>
        <time>2018-10-14T14:51:41Z</time>
      </trkpt>
      <trkpt lat="45.80163" lon="5.74947">
        <ele>232</ele>
        <time>2018-10-14T14:51:41Z</time>
      </trkpt>
      <trkpt lat="45.80157" lon="5.74948">
        <ele>232</ele>
        <time>2018-10-14T14:51:57Z</time>
      </trkpt>
      <trkpt lat="45.80152" lon="5.74949">
        <ele>232</ele>
        <time>2018-10-14T14:51:57Z</time>
      </trkpt>
      <trkpt lat="45.80148" lon="5.7495">
        <ele>232</ele>
        <time>2018-10-14T14:51:57Z</time>
      </trkpt>
      <trkpt lat="45.80143" lon="5.74951">
        <ele>232</ele>
        <time>2018-10-14T14:51:57Z</time>
      </trkpt>
      <trkpt lat="45.80137" lon="5.74951">
        <ele>232</ele>
        <time>2018-10-14T14:52:13Z</time>
      </trkpt>
      <trkpt lat="45.80131" lon="5.74951">
        <ele>232</ele>
        <time>2018-10-14T14:52:13Z</time>
      </trkpt>
      <trkpt lat="45.80126" lon="5.74951">
        <ele>232</ele>
        <time>2018-10-14T14:52:13Z</time>
      </trkpt>
      <trkpt lat="45.80122" lon="5.74951">
        <ele>231</ele>
        <time>2018-10-14T14:52:13Z</time>
      </trkpt>
      <trkpt lat="45.80117" lon="5.74951">
        <ele>231</ele>
        <time>2018-10-14T14:52:29Z</time>
      </trkpt>
      <trkpt lat="45.80112" lon="5.74951">
        <ele>231</ele>
        <time>2018-10-14T14:52:29Z</time>
      </trkpt>
      <trkpt lat="45.80106" lon="5.7495">
        <ele>231</ele>
        <time>2018-10-14T14:52:29Z</time>
      </trkpt>
      <trkpt lat="45.80097" lon="5.74949">
        <ele>231</ele>
        <time>2018-10-14T14:52:29Z</time>
      </trkpt>
      <trkpt lat="45.80091" lon="5.74949">
        <ele>231</ele>
        <time>2018-10-14T14:52:45Z</time>
      </trkpt>
      <trkpt lat="45.80086" lon="5.74949">
        <ele>231</ele>
        <time>2018-10-14T14:52:45Z</time>
      </trkpt>
      <trkpt lat="45.8008" lon="5.74949">
        <ele>231</ele>
        <time>2018-10-14T14:52:45Z</time>
      </trkpt>
      <trkpt lat="45.80075" lon="5.74951">
        <ele>231</ele>
        <time>2018-10-14T14:52:45Z</time>
      </trkpt>
      <trkpt lat="45.8007" lon="5.74952">
        <ele>231</ele>
        <time>2018-10-14T14:53:01Z</time>
      </trkpt>
      <trkpt lat="45.80066" lon="5.74952">
        <ele>231</ele>
        <time>2018-10-14T14:53:01Z</time>
      </trkpt>
      <trkpt lat="45.80062" lon="5.74952">
        <ele>231</ele>
        <time>2018-10-14T14:53:01Z</time>
      </trkpt>
      <trkpt lat="45.80057" lon="5.74953">
        <ele>231</ele>
        <time>2018-10-14T14:53:01Z</time>
      </trkpt>
      <trkpt lat="45.80052" lon="5.74956">
        <ele>231</ele>
        <time>2018-10-14T14:53:17Z</time>
      </trkpt>
      <trkpt lat="45.80049" lon="5.74956">
        <ele>231</ele>
        <time>2018-10-14T14:53:17Z</time>
      </trkpt>
      <trkpt lat="45.80041" lon="5.7496">
        <ele>230</ele>
        <time>2018-10-14T14:53:17Z</time>
      </trkpt>
      <trkpt lat="45.80034" lon="5.74961">
        <ele>230</ele>
        <time>2018-10-14T14:53:17Z</time>
      </trkpt>
      <trkpt lat="45.80027" lon="5.74963">
        <ele>230</ele>
        <time>2018-10-14T14:53:33Z</time>
      </trkpt>
      <trkpt lat="45.80021" lon="5.74965">
        <ele>230</ele>
        <time>2018-10-14T14:53:33Z</time>
      </trkpt>
      <trkpt lat="45.80015" lon="5.74966">
        <ele>230</ele>
        <time>2018-10-14T14:53:33Z</time>
      </trkpt>
      <trkpt lat="45.8001" lon="5.74968">
        <ele>230</ele>
        <time>2018-10-14T14:53:33Z</time>
      </trkpt>
      <trkpt lat="45.80005" lon="5.7497">
        <ele>230</ele>
        <time>2018-10-14T14:53:49Z</time>
      </trkpt>
      <trkpt lat="45.8" lon="5.74971">
        <ele>230</ele>
        <time>2018-10-14T14:53:49Z</time>
      </trkpt>
      <trkpt lat="45.79995" lon="5.74972">
        <ele>230</ele>
        <time>2018-10-14T14:53:49Z</time>
      </trkpt>
      <trkpt lat="45.7999" lon="5.74973">
        <ele>230</ele>
        <time>2018-10-14T14:53:49Z</time>
      </trkpt>
      <trkpt lat="45.79985" lon="5.74973">
        <ele>230</ele>
        <time>2018-10-14T14:54:05Z</time>
      </trkpt>
      <trkpt lat="45.7998" lon="5.74973">
        <ele>230</ele>
        <time>2018-10-14T14:54:05Z</time>
      </trkpt>
      <trkpt lat="45.79974" lon="5.74972">
        <ele>230</ele>
        <time>2018-10-14T14:54:05Z</time>
      </trkpt>
      <trkpt lat="45.7997" lon="5.74971">
        <ele>230</ele>
        <time>2018-10-14T14:54:05Z</time>
      </trkpt>
      <trkpt lat="45.79958" lon="5.74971">
        <ele>230</ele>
        <time>2018-10-14T14:54:21Z</time>
      </trkpt>
      <trkpt lat="45.79951" lon="5.74971">
        <ele>230</ele>
        <time>2018-10-14T14:54:21Z</time>
      </trkpt>
      <trkpt lat="45.79946" lon="5.74974">
        <ele>230</ele>
        <time>2018-10-14T14:54:21Z</time>
      </trkpt>
      <trkpt lat="45.79941" lon="5.74975">
        <ele>230</ele>
        <time>2018-10-14T14:54:21Z</time>
      </trkpt>
      <trkpt lat="45.79937" lon="5.74976">
        <ele>230</ele>
        <time>2018-10-14T14:54:37Z</time>
      </trkpt>
      <trkpt lat="45.79932" lon="5.74976">
        <ele>230</ele>
        <time>2018-10-14T14:54:37Z</time>
      </trkpt>
      <trkpt lat="45.79927" lon="5.74974">
        <ele>230</ele>
        <time>2018-10-14T14:54:37Z</time>
      </trkpt>
      <trkpt lat="45.79922" lon="5.74974">
        <ele>230</ele>
        <time>2018-10-14T14:54:37Z</time>
      </trkpt>
      <trkpt lat="45.79916" lon="5.74974">
        <ele>230</ele>
        <time>2018-10-14T14:54:53Z</time>
      </trkpt>
      <trkpt lat="45.7991" lon="5.74976">
        <ele>230</ele>
        <time>2018-10-14T14:54:53Z</time>
      </trkpt>
      <trkpt lat="45.79903" lon="5.74979">
        <ele>230</ele>
        <time>2018-10-14T14:54:53Z</time>
      </trkpt>
      <trkpt lat="45.79895" lon="5.74981">
        <ele>230</ele>
        <time>2018-10-14T14:54:53Z</time>
      </trkpt>
      <trkpt lat="45.7989" lon="5.74982">
        <ele>230</ele>
        <time>2018-10-14T14:55:09Z</time>
      </trkpt>
      <trkpt lat="45.79884" lon="5.74982">
        <ele>230</ele>
        <time>2018-10-14T14:55:09Z</time>
      </trkpt>
      <trkpt lat="45.79879" lon="5.74982">
        <ele>230</ele>
        <time>2018-10-14T14:55:09Z</time>
      </trkpt>
      <trkpt lat="45.79872" lon="5.74983">
        <ele>229</ele>
        <time>2018-10-14T14:55:09Z</time>
      </trkpt>
      <trkpt lat="45.79865" lon="5.74984">
        <ele>229</ele>
        <time>2018-10-14T14:55:25Z</time>
      </trkpt>
      <trkpt lat="45.7986" lon="5.74984">
        <ele>229</ele>
        <time>2018-10-14T14:55:25Z</time>
      </trkpt>
      <trkpt lat="45.79854" lon="5.74983">
        <ele>229</ele>
        <time>2018-10-14T14:55:25Z</time>
      </trkpt>
      <trkpt lat="45.79848" lon="5.74982">
        <ele>229</ele>
        <time>2018-10-14T14:55:25Z</time>
      </trkpt>
      <trkpt lat="45.79842" lon="5.74981">
        <ele>229</ele>
        <time>2018-10-14T14:55:41Z</time>
      </trkpt>
      <trkpt lat="45.79837" lon="5.74979">
        <ele>229</ele>
        <time>2018-10-14T14:55:41Z</time>
      </trkpt>
      <trkpt lat="45.7983" lon="5.74979">
        <ele>229</ele>
        <time>2018-10-14T14:55:41Z</time>
      </trkpt>
      <trkpt lat="45.79824" lon="5.74979">
        <ele>229</ele>
        <time>2018-10-14T14:55:41Z</time>
      </trkpt>
      <trkpt lat="45.79818" lon="5.74978">
        <ele>229</ele>
        <time>2018-10-14T14:55:57Z</time>
      </trkpt>
      <trkpt lat="45.79812" lon="5.74976">
        <ele>229</ele>
        <time>2018-10-14T14:55:57Z</time>
      </trkpt>
      <trkpt lat="45.79807" lon="5.74975">
        <ele>229</ele>
        <time>2018-10-14T14:55:57Z</time>
      </trkpt>
      <trkpt lat="45.798" lon="5.74974">
        <ele>229</ele>
        <time>2018-10-14T14:55:57Z</time>
      </trkpt>
      <trkpt lat="45.79794" lon="5.74971">
        <ele>229</ele>
        <time>2018-10-14T14:56:13Z</time>
      </trkpt>
      <trkpt lat="45.7979" lon="5.7497">
        <ele>231</ele>
        <time>2018-10-14T14:56:13Z</time>
      </trkpt>
      <trkpt lat="45.79786" lon="5.74969">
        <ele>231</ele>
        <time>2018-10-14T14:56:13Z</time>
      </trkpt>
      <trkpt lat="45.79782" lon="5.74968">
        <ele>231</ele>
        <time>2018-10-14T14:56:13Z</time>
      </trkpt>
      <trkpt lat="45.79775" lon="5.74968">
        <ele>231</ele>
        <time>2018-10-14T14:56:29Z</time>
      </trkpt>
      <trkpt lat="45.79763" lon="5.74967">
        <ele>231</ele>
        <time>2018-10-14T14:56:29Z</time>
      </trkpt>
      <trkpt lat="45.79756" lon="5.74966">
        <ele>231</ele>
        <time>2018-10-14T14:56:29Z</time>
      </trkpt>
      <trkpt lat="45.7975" lon="5.74964">
        <ele>231</ele>
        <time>2018-10-14T14:56:29Z</time>
      </trkpt>
      <trkpt lat="45.79746" lon="5.74962">
        <ele>231</ele>
        <time>2018-10-14T14:56:45Z</time>
      </trkpt>
      <trkpt lat="45.7974" lon="5.74961">
        <ele>231</ele>
        <time>2018-10-14T14:56:45Z</time>
      </trkpt>
      <trkpt lat="45.79733" lon="5.74961">
        <ele>231</ele>
        <time>2018-10-14T14:56:45Z</time>
      </trkpt>
      <trkpt lat="45.79727" lon="5.74962">
        <ele>231</ele>
        <time>2018-10-14T14:56:45Z</time>
      </trkpt>
      <trkpt lat="45.7972" lon="5.74965">
        <ele>231</ele>
        <time>2018-10-14T14:57:01Z</time>
      </trkpt>
      <trkpt lat="45.79715" lon="5.74967">
        <ele>231</ele>
        <time>2018-10-14T14:57:01Z</time>
      </trkpt>
      <trkpt lat="45.79707" lon="5.74967">
        <ele>232</ele>
        <time>2018-10-14T14:57:01Z</time>
      </trkpt>
      <trkpt lat="45.79699" lon="5.74967">
        <ele>232</ele>
        <time>2018-10-14T14:57:01Z</time>
      </trkpt>
      <trkpt lat="45.79693" lon="5.74967">
        <ele>232</ele>
        <time>2018-10-14T14:57:17Z</time>
      </trkpt>
      <trkpt lat="45.79688" lon="5.74967">
        <ele>232</ele>
        <time>2018-10-14T14:57:17Z</time>
      </trkpt>
      <trkpt lat="45.79683" lon="5.74966">
        <ele>232</ele>
        <time>2018-10-14T14:57:17Z</time>
      </trkpt>
      <trkpt lat="45.79678" lon="5.74965">
        <ele>232</ele>
        <time>2018-10-14T14:57:17Z</time>
      </trkpt>
      <trkpt lat="45.79673" lon="5.74964">
        <ele>232</ele>
        <time>2018-10-14T14:57:33Z</time>
      </trkpt>
      <trkpt lat="45.79668" lon="5.74962">
        <ele>232</ele>
        <time>2018-10-14T14:57:33Z</time>
      </trkpt>
      <trkpt lat="45.79661" lon="5.74963">
        <ele>232</ele>
        <time>2018-10-14T14:57:33Z</time>
      </trkpt>
      <trkpt lat="45.79655" lon="5.74963">
        <ele>232</ele>
        <time>2018-10-14T14:57:33Z</time>
      </trkpt>
      <trkpt lat="45.79649" lon="5.74962">
        <ele>232</ele>
        <time>2018-10-14T14:57:49Z</time>
      </trkpt>
      <trkpt lat="45.79642" lon="5.74962">
        <ele>232</ele>
        <time>2018-10-14T14:57:49Z</time>
      </trkpt>
      <trkpt lat="45.79637" lon="5.74962">
        <ele>232</ele>
        <time>2018-10-14T14:57:49Z</time>
      </trkpt>
      <trkpt lat="45.79633" lon="5.74962">
        <ele>232</ele>
        <time>2018-10-14T14:57:49Z</time>
      </trkpt>
      <trkpt lat="45.79627" lon="5.74963">
        <ele>232</ele>
        <time>2018-10-14T14:58:05Z</time>
      </trkpt>
      <trkpt lat="45.79622" lon="5.74966">
        <ele>236</ele>
        <time>2018-10-14T14:58:05Z</time>
      </trkpt>
      <trkpt lat="45.79615" lon="5.74966">
        <ele>236</ele>
        <time>2018-10-14T14:58:05Z</time>
      </trkpt>
      <trkpt lat="45.79604" lon="5.74968">
        <ele>236</ele>
        <time>2018-10-14T14:58:05Z</time>
      </trkpt>
      <trkpt lat="45.79598" lon="5.74969">
        <ele>236</ele>
        <time>2018-10-14T14:58:21Z</time>
      </trkpt>
      <trkpt lat="45.7959" lon="5.74969">
        <ele>236</ele>
        <time>2018-10-14T14:58:21Z</time>
      </trkpt>
      <trkpt lat="45.79585" lon="5.7497">
        <ele>236</ele>
        <time>2018-10-14T14:58:21Z</time>
      </trkpt>
      <trkpt lat="45.79579" lon="5.74972">
        <ele>236</ele>
        <time>2018-10-14T14:58:21Z</time>
      </trkpt>
      <trkpt lat="45.79573" lon="5.74975">
        <ele>236</ele>
        <time>2018-10-14T14:58:37Z</time>
      </trkpt>
      <trkpt lat="45.79568" lon="5.74979">
        <ele>236</ele>
        <time>2018-10-14T14:58:37Z</time>
      </trkpt>
      <trkpt lat="45.79562" lon="5.74989">
        <ele>236</ele>
        <time>2018-10-14T14:58:37Z</time>
      </trkpt>
      <trkpt lat="45.79558" lon="5.74996">
        <ele>236</ele>
        <time>2018-10-14T14:58:37Z</time>
      </trkpt>
      <trkpt lat="45.79554" lon="5.75004">
        <ele>236</ele>
        <time>2018-10-14T14:58:53Z</time>
      </trkpt>
      <trkpt lat="45.7955" lon="5.75011">
        <ele>236</ele>
        <time>2018-10-14T14:58:53Z</time>
      </trkpt>
      <trkpt lat="45.79545" lon="5.75017">
        <ele>236</ele>
        <time>2018-10-14T14:58:53Z</time>
      </trkpt>
      <trkpt lat="45.79541" lon="5.75022">
        <ele>242</ele>
        <time>2018-10-14T14:58:53Z</time>
      </trkpt>
      <trkpt lat="45.79536" lon="5.75029">
        <ele>242</ele>
        <time>2018-10-14T14:59:09Z</time>
      </trkpt>
      <trkpt lat="45.79531" lon="5.75036">
        <ele>242</ele>
        <time>2018-10-14T14:59:09Z</time>
      </trkpt>
      <trkpt lat="45.79528" lon="5.75042">
        <ele>238</ele>
        <time>2018-10-14T14:59:09Z</time>
      </trkpt>
      <trkpt lat="45.79525" lon="5.75048">
        <ele>238</ele>
        <time>2018-10-14T14:59:09Z</time>
      </trkpt>
      <trkpt lat="45.79522" lon="5.75055">
        <ele>238</ele>
        <time>2018-10-14T14:59:25Z</time>
      </trkpt>
      <trkpt lat="45.7952" lon="5.75063">
        <ele>238</ele>
        <time>2018-10-14T14:59:25Z</time>
      </trkpt>
      <trkpt lat="45.79516" lon="5.75071">
        <ele>238</ele>
        <time>2018-10-14T14:59:25Z</time>
      </trkpt>
      <trkpt lat="45.79513" lon="5.75078">
        <ele>238</ele>
        <time>2018-10-14T14:59:25Z</time>
      </trkpt>
      <trkpt lat="45.79508" lon="5.75084">
        <ele>238</ele>
        <time>2018-10-14T14:59:41Z</time>
      </trkpt>
      <trkpt lat="45.79504" lon="5.7509">
        <ele>238</ele>
        <time>2018-10-14T14:59:41Z</time>
      </trkpt>
      <trkpt lat="45.79501" lon="5.75093">
        <ele>238</ele>
        <time>2018-10-14T14:59:41Z</time>
      </trkpt>
      <trkpt lat="45.79497" lon="5.75099">
        <ele>238</ele>
        <time>2018-10-14T14:59:41Z</time>
      </trkpt>
      <trkpt lat="45.79494" lon="5.75106">
        <ele>238</ele>
        <time>2018-10-14T14:59:57Z</time>
      </trkpt>
      <trkpt lat="45.79492" lon="5.75114">
        <ele>238</ele>
        <time>2018-10-14T14:59:57Z</time>
      </trkpt>
      <trkpt lat="45.79489" lon="5.75123">
        <ele>238</ele>
        <time>2018-10-14T14:59:57Z</time>
      </trkpt>
      <trkpt lat="45.79485" lon="5.75131">
        <ele>235</ele>
        <time>2018-10-14T14:59:57Z</time>
      </trkpt>
      <trkpt lat="45.79481" lon="5.75136">
        <ele>235</ele>
        <time>2018-10-14T15:00:13Z</time>
      </trkpt>
      <trkpt lat="45.79477" lon="5.75142">
        <ele>235</ele>
        <time>2018-10-14T15:00:13Z</time>
      </trkpt>
      <trkpt lat="45.79476" lon="5.75148">
        <ele>235</ele>
        <time>2018-10-14T15:00:13Z</time>
      </trkpt>
      <trkpt lat="45.79474" lon="5.75155">
        <ele>235</ele>
        <time>2018-10-14T15:00:13Z</time>
      </trkpt>
      <trkpt lat="45.79471" lon="5.75161">
        <ele>235</ele>
        <time>2018-10-14T15:00:29Z</time>
      </trkpt>
      <trkpt lat="45.79466" lon="5.75168">
        <ele>235</ele>
        <time>2018-10-14T15:00:29Z</time>
      </trkpt>
      <trkpt lat="45.79463" lon="5.75175">
        <ele>235</ele>
        <time>2018-10-14T15:00:29Z</time>
      </trkpt>
      <trkpt lat="45.79459" lon="5.75181">
        <ele>235</ele>
        <time>2018-10-14T15:00:29Z</time>
      </trkpt>
      <trkpt lat="45.79455" lon="5.75188">
        <ele>244</ele>
        <time>2018-10-14T15:00:45Z</time>
      </trkpt>
      <trkpt lat="45.79452" lon="5.75194">
        <ele>244</ele>
        <time>2018-10-14T15:00:45Z</time>
      </trkpt>
      <trkpt lat="45.79448" lon="5.75201">
        <ele>244</ele>
        <time>2018-10-14T15:00:45Z</time>
      </trkpt>
      <trkpt lat="45.79445" lon="5.75209">
        <ele>240</ele>
        <time>2018-10-14T15:00:45Z</time>
      </trkpt>
      <trkpt lat="45.79441" lon="5.75217">
        <ele>240</ele>
        <time>2018-10-14T15:01:01Z</time>
      </trkpt>
      <trkpt lat="45.79439" lon="5.75225">
        <ele>240</ele>
        <time>2018-10-14T15:01:01Z</time>
      </trkpt>
      <trkpt lat="45.79436" lon="5.75231">
        <ele>240</ele>
        <time>2018-10-14T15:01:01Z</time>
      </trkpt>
      <trkpt lat="45.79432" lon="5.75237">
        <ele>240</ele>
        <time>2018-10-14T15:01:01Z</time>
      </trkpt>
      <trkpt lat="45.7943" lon="5.75245">
        <ele>240</ele>
        <time>2018-10-14T15:01:17Z</time>
      </trkpt>
      <trkpt lat="45.79426" lon="5.75253">
        <ele>240</ele>
        <time>2018-10-14T15:01:17Z</time>
      </trkpt>
      <trkpt lat="45.79421" lon="5.75259">
        <ele>240</ele>
        <time>2018-10-14T15:01:17Z</time>
      </trkpt>
      <trkpt lat="45.79417" lon="5.75264">
        <ele>240</ele>
        <time>2018-10-14T15:01:17Z</time>
      </trkpt>
      <trkpt lat="45.79415" lon="5.75271">
        <ele>240</ele>
        <time>2018-10-14T15:01:33Z</time>
      </trkpt>
      <trkpt lat="45.79408" lon="5.75277">
        <ele>240</ele>
        <time>2018-10-14T15:01:33Z</time>
      </trkpt>
      <trkpt lat="45.79402" lon="5.75284">
        <ele>240</ele>
        <time>2018-10-14T15:01:33Z</time>
      </trkpt>
      <trkpt lat="45.79398" lon="5.75288">
        <ele>240</ele>
        <time>2018-10-14T15:01:33Z</time>
      </trkpt>
      <trkpt lat="45.79395" lon="5.7529">
        <ele>240</ele>
        <time>2018-10-14T15:01:49Z</time>
      </trkpt>
      <trkpt lat="45.79391" lon="5.75291">
        <ele>240</ele>
        <time>2018-10-14T15:01:49Z</time>
      </trkpt>
      <trkpt lat="45.79388" lon="5.75294">
        <ele>234</ele>
        <time>2018-10-14T15:01:49Z</time>
      </trkpt>
      <trkpt lat="45.79385" lon="5.75297">
        <ele>234</ele>
        <time>2018-10-14T15:01:49Z</time>
      </trkpt>
      <trkpt lat="45.79381" lon="5.75301">
        <ele>234</ele>
        <time>2018-10-14T15:02:05Z</time>
      </trkpt>
      <trkpt lat="45.79376" lon="5.75307">
        <ele>234</ele>
        <time>2018-10-14T15:02:05Z</time>
      </trkpt>
      <trkpt lat="45.79371" lon="5.75313">
        <ele>246</ele>
        <time>2018-10-14T15:02:05Z</time>
      </trkpt>
      <trkpt lat="45.79367" lon="5.7532">
        <ele>246</ele>
        <time>2018-10-14T15:02:05Z</time>
      </trkpt>
      <trkpt lat="45.79363" lon="5.75326">
        <ele>246</ele>
        <time>2018-10-14T15:02:21Z</time>
      </trkpt>
      <trkpt lat="45.79359" lon="5.75332">
        <ele>246</ele>
        <time>2018-10-14T15:02:21Z</time>
      </trkpt>
      <trkpt lat="45.79355" lon="5.75339">
        <ele>246</ele>
        <time>2018-10-14T15:02:21Z</time>
      </trkpt>
      <trkpt lat="45.7935" lon="5.75347">
        <ele>246</ele>
        <time>2018-10-14T15:02:21Z</time>
      </trkpt>
      <trkpt lat="45.79347" lon="5.75356">
        <ele>246</ele>
        <time>2018-10-14T15:02:37Z</time>
      </trkpt>
      <trkpt lat="45.79344" lon="5.75364">
        <ele>246</ele>
        <time>2018-10-14T15:02:37Z</time>
      </trkpt>
      <trkpt lat="45.79343" lon="5.75369">
        <ele>246</ele>
        <time>2018-10-14T15:02:37Z</time>
      </trkpt>
      <trkpt lat="45.79341" lon="5.75376">
        <ele>241</ele>
        <time>2018-10-14T15:02:37Z</time>
      </trkpt>
      <trkpt lat="45.79337" lon="5.75384">
        <ele>241</ele>
        <time>2018-10-14T15:02:53Z</time>
      </trkpt>
      <trkpt lat="45.79334" lon="5.75392">
        <ele>241</ele>
        <time>2018-10-14T15:02:53Z</time>
      </trkpt>
      <trkpt lat="45.79331" lon="5.75399">
        <ele>241</ele>
        <time>2018-10-14T15:02:53Z</time>
      </trkpt>
      <trkpt lat="45.79328" lon="5.75408">
        <ele>241</ele>
        <time>2018-10-14T15:02:53Z</time>
      </trkpt>
      <trkpt lat="45.79324" lon="5.75416">
        <ele>241</ele>
        <time>2018-10-14T15:03:09Z</time>
      </trkpt>
      <trkpt lat="45.79322" lon="5.75423">
        <ele>241</ele>
        <time>2018-10-14T15:03:09Z</time>
      </trkpt>
      <trkpt lat="45.7932" lon="5.75433">
        <ele>241</ele>
        <time>2018-10-14T15:03:09Z</time>
      </trkpt>
      <trkpt lat="45.79318" lon="5.7544">
        <ele>241</ele>
        <time>2018-10-14T15:03:09Z</time>
      </trkpt>
      <trkpt lat="45.79318" lon="5.75448">
        <ele>241</ele>
        <time>2018-10-14T15:03:25Z</time>
      </trkpt>
      <trkpt lat="45.79317" lon="5.75455">
        <ele>241</ele>
        <time>2018-10-14T15:03:25Z</time>
      </trkpt>
      <trkpt lat="45.79315" lon="5.75464">
        <ele>237</ele>
        <time>2018-10-14T15:03:25Z</time>
      </trkpt>
      <trkpt lat="45.79314" lon="5.75469">
        <ele>237</ele>
        <time>2018-10-14T15:03:25Z</time>
      </trkpt>
      <trkpt lat="45.79315" lon="5.75474">
        <ele>237</ele>
        <time>2018-10-14T15:03:41Z</time>
      </trkpt>
      <trkpt lat="45.79317" lon="5.7548">
        <ele>237</ele>
        <time>2018-10-14T15:03:41Z</time>
      </trkpt>
      <trkpt lat="45.7932" lon="5.75485">
        <ele>237</ele>
        <time>2018-10-14T15:03:41Z</time>
      </trkpt>
      <trkpt lat="45.79325" lon="5.7549">
        <ele>237</ele>
        <time>2018-10-14T15:03:41Z</time>
      </trkpt>
      <trkpt lat="45.79329" lon="5.75496">
        <ele>237</ele>
        <time>2018-10-14T15:03:57Z</time>
      </trkpt>
      <trkpt lat="45.79333" lon="5.75501">
        <ele>237</ele>
        <time>2018-10-14T15:03:57Z</time>
      </trkpt>
      <trkpt lat="45.79334" lon="5.75506">
        <ele>237</ele>
        <time>2018-10-14T15:03:57Z</time>
      </trkpt>
      <trkpt lat="45.79336" lon="5.7551">
        <ele>237</ele>
        <time>2018-10-14T15:03:57Z</time>
      </trkpt>
      <trkpt lat="45.7934" lon="5.75514">
        <ele>237</ele>
        <time>2018-10-14T15:04:13Z</time>
      </trkpt>
      <trkpt lat="45.79344" lon="5.75517">
        <ele>237</ele>
        <time>2018-10-14T15:04:13Z</time>
      </trkpt>
      <trkpt lat="45.79348" lon="5.75522">
        <ele>237</ele>
        <time>2018-10-14T15:04:13Z</time>
      </trkpt>
      <trkpt lat="45.79354" lon="5.75526">
        <ele>237</ele>
        <time>2018-10-14T15:04:13Z</time>
      </trkpt>
      <trkpt lat="45.79358" lon="5.7553">
        <ele>237</ele>
        <time>2018-10-14T15:04:29Z</time>
      </trkpt>
      <trkpt lat="45.79361" lon="5.75534">
        <ele>237</ele>
        <time>2018-10-14T15:04:29Z</time>
      </trkpt>
      <trkpt lat="45.79364" lon="5.75537">
        <ele>237</ele>
        <time>2018-10-14T15:04:29Z</time>
      </trkpt>
      <trkpt lat="45.79368" lon="5.75542">
        <ele>233</ele>
        <time>2018-10-14T15:04:29Z</time>
      </trkpt>
      <trkpt lat="45.79373" lon="5.7555">
        <ele>233</ele>
        <time>2018-10-14T15:04:45Z</time>
      </trkpt>
      <trkpt lat="45.79376" lon="5.75558">
        <ele>230</ele>
        <time>2018-10-14T15:04:45Z</time>
      </trkpt>
      <trkpt lat="45.79378" lon="5.75566">
        <ele>230</ele>
        <time>2018-10-14T15:04:45Z</time>
      </trkpt>
      <trkpt lat="45.79379" lon="5.75571">
        <ele>230</ele>
        <time>2018-10-14T15:04:45Z</time>
      </trkpt>
      <trkpt lat="45.79381" lon="5.75577">
        <ele>230</ele>
        <time>2018-10-14T15:05:01Z</time>
      </trkpt>
      <trkpt lat="45.79386" lon="5.75585">
        <ele>230</ele>
        <time>2018-10-14T15:05:01Z</time>
      </trkpt>
      <trkpt lat="45.79388" lon="5.75589">
        <ele>230</ele>
        <time>2018-10-14T15:05:01Z</time>
      </trkpt>
      <trkpt lat="45.79389" lon="5.75588">
        <ele>230</ele>
        <time>2018-10-14T15:05:01Z</time>
      </trkpt>
      <trkpt lat="45.79395" lon="5.75586">
        <ele>230</ele>
        <time>2018-10-14T15:05:17Z</time>
      </trkpt>
      <trkpt lat="45.79407" lon="5.7559">
        <ele>230</ele>
        <time>2018-10-14T15:05:17Z</time>
      </trkpt>
      <trkpt lat="45.79424" lon="5.75593">
        <ele>230</ele>
        <time>2018-10-14T15:05:17Z</time>
      </trkpt>
      <trkpt lat="45.79445" lon="5.75592">
        <ele>230</ele>
        <time>2018-10-14T15:05:17Z</time>
      </trkpt>
      <trkpt lat="45.79468" lon="5.75585">
        <ele>231</ele>
        <time>2018-10-14T15:05:33Z</time>
      </trkpt>
      <trkpt lat="45.79487" lon="5.75568">
        <ele>231</ele>
        <time>2018-10-14T15:05:33Z</time>
      </trkpt>
      <trkpt lat="45.795" lon="5.75542">
        <ele>231</ele>
        <time>2018-10-14T15:05:33Z</time>
      </trkpt>
      <trkpt lat="45.79516" lon="5.75515">
        <ele>232</ele>
        <time>2018-10-14T15:05:33Z</time>
      </trkpt>
      <trkpt lat="45.79536" lon="5.75497">
        <ele>232</ele>
        <time>2018-10-14T15:05:49Z</time>
      </trkpt>
      <trkpt lat="45.79558" lon="5.75481">
        <ele>233</ele>
        <time>2018-10-14T15:05:49Z</time>
      </trkpt>
      <trkpt lat="45.79583" lon="5.75475">
        <ele>233</ele>
        <time>2018-10-14T15:05:49Z</time>
      </trkpt>
      <trkpt lat="45.79608" lon="5.75479">
        <ele>233</ele>
        <time>2018-10-14T15:05:49Z</time>
      </trkpt>
      <trkpt lat="45.79628" lon="5.75494">
        <ele>231</ele>
        <time>2018-10-14T15:06:05Z</time>
      </trkpt>
      <trkpt lat="45.79648" lon="5.75517">
        <ele>231</ele>
        <time>2018-10-14T15:06:05Z</time>
      </trkpt>
      <trkpt lat="45.79668" lon="5.75538">
        <ele>231</ele>
        <time>2018-10-14T15:06:05Z</time>
      </trkpt>
      <trkpt lat="45.79692" lon="5.75556">
        <ele>230</ele>
        <time>2018-10-14T15:06:05Z</time>
      </trkpt>
      <trkpt lat="45.79718" lon="5.75569">
        <ele>230</ele>
        <time>2018-10-14T15:06:21Z</time>
      </trkpt>
      <trkpt lat="45.79744" lon="5.75568">
        <ele>230</ele>
        <time>2018-10-14T15:06:21Z</time>
      </trkpt>
      <trkpt lat="45.79764" lon="5.75562">
        <ele>230</ele>
        <time>2018-10-14T15:06:21Z</time>
      </trkpt>
      <trkpt lat="45.79771" lon="5.75555">
        <ele>230</ele>
        <time>2018-10-14T15:06:21Z</time>
      </trkpt>
      <trkpt lat="45.79775" lon="5.75551">
        <ele>230</ele>
        <time>2018-10-14T15:06:37Z</time>
      </trkpt>
      <trkpt lat="45.79781" lon="5.75549">
        <ele>230</ele>
        <time>2018-10-14T15:06:37Z</time>
      </trkpt>
      <trkpt lat="45.79787" lon="5.75548">
        <ele>230</ele>
        <time>2018-10-14T15:06:37Z</time>
      </trkpt>
      <trkpt lat="45.79793" lon="5.75547">
        <ele>229</ele>
        <time>2018-10-14T15:06:37Z</time>
      </trkpt>
      <trkpt lat="45.798" lon="5.75545">
        <ele>229</ele>
        <time>2018-10-14T15:06:53Z</time>
      </trkpt>
      <trkpt lat="45.79806" lon="5.75543">
        <ele>229</ele>
        <time>2018-10-14T15:06:53Z</time>
      </trkpt>
      <trkpt lat="45.79812" lon="5.75541">
        <ele>228</ele>
        <time>2018-10-14T15:06:53Z</time>
      </trkpt>
      <trkpt lat="45.79818" lon="5.75539">
        <ele>228</ele>
        <time>2018-10-14T15:06:53Z</time>
      </trkpt>
      <trkpt lat="45.79823" lon="5.75539">
        <ele>228</ele>
        <time>2018-10-14T15:07:09Z</time>
      </trkpt>
      <trkpt lat="45.79828" lon="5.75538">
        <ele>228</ele>
        <time>2018-10-14T15:07:09Z</time>
      </trkpt>
      <trkpt lat="45.79834" lon="5.75537">
        <ele>228</ele>
        <time>2018-10-14T15:07:09Z</time>
      </trkpt>
      <trkpt lat="45.79841" lon="5.75534">
        <ele>228</ele>
        <time>2018-10-14T15:07:09Z</time>
      </trkpt>
      <trkpt lat="45.79848" lon="5.75531">
        <ele>228</ele>
        <time>2018-10-14T15:07:25Z</time>
      </trkpt>
      <trkpt lat="45.79854" lon="5.75529">
        <ele>228</ele>
        <time>2018-10-14T15:07:25Z</time>
      </trkpt>
      <trkpt lat="45.79859" lon="5.75529">
        <ele>228</ele>
        <time>2018-10-14T15:07:25Z</time>
      </trkpt>
      <trkpt lat="45.79865" lon="5.7553">
        <ele>228</ele>
        <time>2018-10-14T15:07:25Z</time>
      </trkpt>
      <trkpt lat="45.79869" lon="5.7553">
        <ele>228</ele>
        <time>2018-10-14T15:07:41Z</time>
      </trkpt>
      <trkpt lat="45.79874" lon="5.75528">
        <ele>228</ele>
        <time>2018-10-14T15:07:41Z</time>
      </trkpt>
      <trkpt lat="45.79879" lon="5.75525">
        <ele>230</ele>
        <time>2018-10-14T15:07:41Z</time>
      </trkpt>
      <trkpt lat="45.79886" lon="5.75523">
        <ele>230</ele>
        <time>2018-10-14T15:07:41Z</time>
      </trkpt>
      <trkpt lat="45.79893" lon="5.75522">
        <ele>230</ele>
        <time>2018-10-14T15:07:57Z</time>
      </trkpt>
      <trkpt lat="45.799" lon="5.75521">
        <ele>230</ele>
        <time>2018-10-14T15:07:57Z</time>
      </trkpt>
      <trkpt lat="45.79907" lon="5.7552">
        <ele>230</ele>
        <time>2018-10-14T15:07:57Z</time>
      </trkpt>
      <trkpt lat="45.79914" lon="5.7552">
        <ele>230</ele>
        <time>2018-10-14T15:07:57Z</time>
      </trkpt>
      <trkpt lat="45.7992" lon="5.75521">
        <ele>230</ele>
        <time>2018-10-14T15:08:13Z</time>
      </trkpt>
      <trkpt lat="45.79926" lon="5.75521">
        <ele>230</ele>
        <time>2018-10-14T15:08:13Z</time>
      </trkpt>
      <trkpt lat="45.79931" lon="5.7552">
        <ele>230</ele>
        <time>2018-10-14T15:08:13Z</time>
      </trkpt>
      <trkpt lat="45.79935" lon="5.75521">
        <ele>230</ele>
        <time>2018-10-14T15:08:13Z</time>
      </trkpt>
      <trkpt lat="45.79939" lon="5.75521">
        <ele>230</ele>
        <time>2018-10-14T15:08:29Z</time>
      </trkpt>
      <trkpt lat="45.79945" lon="5.75522">
        <ele>230</ele>
        <time>2018-10-14T15:08:29Z</time>
      </trkpt>
      <trkpt lat="45.79952" lon="5.75522">
        <ele>230</ele>
        <time>2018-10-14T15:08:29Z</time>
      </trkpt>
      <trkpt lat="45.79958" lon="5.75523">
        <ele>230</ele>
        <time>2018-10-14T15:08:29Z</time>
      </trkpt>
      <trkpt lat="45.79973" lon="5.75531">
        <ele>230</ele>
        <time>2018-10-14T15:08:45Z</time>
      </trkpt>
      <trkpt lat="45.79991" lon="5.75538">
        <ele>230</ele>
        <time>2018-10-14T15:08:45Z</time>
      </trkpt>
      <trkpt lat="45.80012" lon="5.75538">
        <ele>230</ele>
        <time>2018-10-14T15:08:45Z</time>
      </trkpt>
      <trkpt lat="45.80042" lon="5.7552">
        <ele>229</ele>
        <time>2018-10-14T15:08:45Z</time>
      </trkpt>
      <trkpt lat="45.80064" lon="5.75501">
        <ele>229</ele>
        <time>2018-10-14T15:09:01Z</time>
      </trkpt>
      <trkpt lat="45.8009" lon="5.75492">
        <ele>229</ele>
        <time>2018-10-14T15:09:01Z</time>
      </trkpt>
      <trkpt lat="45.80117" lon="5.75495">
        <ele>229</ele>
        <time>2018-10-14T15:09:01Z</time>
      </trkpt>
      <trkpt lat="45.80144" lon="5.755">
        <ele>230</ele>
        <time>2018-10-14T15:09:01Z</time>
      </trkpt>
      <trkpt lat="45.80169" lon="5.75495">
        <ele>230</ele>
        <time>2018-10-14T15:09:17Z</time>
      </trkpt>
      <trkpt lat="45.80196" lon="5.7549">
        <ele>230</ele>
        <time>2018-10-14T15:09:17Z</time>
      </trkpt>
      <trkpt lat="45.80224" lon="5.75484">
        <ele>230</ele>
        <time>2018-10-14T15:09:17Z</time>
      </trkpt>
      <trkpt lat="45.8025" lon="5.75474">
        <ele>230</ele>
        <time>2018-10-14T15:09:17Z</time>
      </trkpt>
      <trkpt lat="45.80274" lon="5.75463">
        <ele>230</ele>
        <time>2018-10-14T15:09:33Z</time>
      </trkpt>
      <trkpt lat="45.80291" lon="5.75458">
        <ele>231</ele>
        <time>2018-10-14T15:09:33Z</time>
      </trkpt>
      <trkpt lat="45.80293" lon="5.75452">
        <ele>228</ele>
        <time>2018-10-14T15:09:33Z</time>
      </trkpt>
      <trkpt lat="45.80294" lon="5.75446">
        <ele>228</ele>
        <time>2018-10-14T15:09:33Z</time>
      </trkpt>
      <trkpt lat="45.80296" lon="5.7544">
        <ele>228</ele>
        <time>2018-10-14T15:09:49Z</time>
      </trkpt>
      <trkpt lat="45.80304" lon="5.75427">
        <ele>228</ele>
        <time>2018-10-14T15:09:49Z</time>
      </trkpt>
      <trkpt lat="45.8032" lon="5.75406">
        <ele>228</ele>
        <time>2018-10-14T15:09:49Z</time>
      </trkpt>
      <trkpt lat="45.80329" lon="5.75382">
        <ele>228</ele>
        <time>2018-10-14T15:09:49Z</time>
      </trkpt>
      <trkpt lat="45.80338" lon="5.75355">
        <ele>229</ele>
        <time>2018-10-14T15:10:05Z</time>
      </trkpt>
      <trkpt lat="45.80345" lon="5.75326">
        <ele>229</ele>
        <time>2018-10-14T15:10:05Z</time>
      </trkpt>
      <trkpt lat="45.80345" lon="5.75292">
        <ele>229</ele>
        <time>2018-10-14T15:10:05Z</time>
      </trkpt>
      <trkpt lat="45.80349" lon="5.75256">
        <ele>231</ele>
        <time>2018-10-14T15:10:05Z</time>
      </trkpt>
      <trkpt lat="45.8035" lon="5.75221">
        <ele>231</ele>
        <time>2018-10-14T15:10:21Z</time>
      </trkpt>
      <trkpt lat="45.80365" lon="5.75197">
        <ele>232</ele>
        <time>2018-10-14T15:10:21Z</time>
      </trkpt>
      <trkpt lat="45.80384" lon="5.75175">
        <ele>232</ele>
        <time>2018-10-14T15:10:21Z</time>
      </trkpt>
      <trkpt lat="45.80397" lon="5.75149">
        <ele>232</ele>
        <time>2018-10-14T15:10:21Z</time>
      </trkpt>
      <trkpt lat="45.80407" lon="5.75123">
        <ele>231</ele>
        <time>2018-10-14T15:10:37Z</time>
      </trkpt>
      <trkpt lat="45.80421" lon="5.75101">
        <ele>231</ele>
        <time>2018-10-14T15:10:37Z</time>
      </trkpt>
      <trkpt lat="45.80435" lon="5.75078">
        <ele>231</ele>
        <time>2018-10-14T15:10:37Z</time>
      </trkpt>
      <trkpt lat="45.80453" lon="5.75061">
        <ele>231</ele>
        <time>2018-10-14T15:10:37Z</time>
      </trkpt>
      <trkpt lat="45.80473" lon="5.75056">
        <ele>228</ele>
        <time>2018-10-14T15:10:53Z</time>
      </trkpt>
      <trkpt lat="45.80493" lon="5.75057">
        <ele>228</ele>
        <time>2018-10-14T15:10:53Z</time>
      </trkpt>
      <trkpt lat="45.80512" lon="5.75056">
        <ele>228</ele>
        <time>2018-10-14T15:10:53Z</time>
      </trkpt>
      <trkpt lat="45.80535" lon="5.75057">
        <ele>228</ele>
        <time>2018-10-14T15:10:53Z</time>
      </trkpt>
      <trkpt lat="45.80557" lon="5.75057">
        <ele>229</ele>
        <time>2018-10-14T15:11:09Z</time>
      </trkpt>
      <trkpt lat="45.80577" lon="5.75058">
        <ele>229</ele>
        <time>2018-10-14T15:11:09Z</time>
      </trkpt>
      <trkpt lat="45.80597" lon="5.75065">
        <ele>229</ele>
        <time>2018-10-14T15:11:09Z</time>
      </trkpt>
      <trkpt lat="45.80619" lon="5.75073">
        <ele>229</ele>
        <time>2018-10-14T15:11:09Z</time>
      </trkpt>
      <trkpt lat="45.8064" lon="5.7508">
        <ele>230</ele>
        <time>2018-10-14T15:11:25Z</time>
      </trkpt>
      <trkpt lat="45.80662" lon="5.75084">
        <ele>230</ele>
        <time>2018-10-14T15:11:25Z</time>
      </trkpt>
      <trkpt lat="45.80684" lon="5.75081">
        <ele>230</ele>
        <time>2018-10-14T15:11:25Z</time>
      </trkpt>
      <trkpt lat="45.80705" lon="5.75077">
        <ele>230</ele>
        <time>2018-10-14T15:11:25Z</time>
      </trkpt>
      <trkpt lat="45.80728" lon="5.75067">
        <ele>230</ele>
        <time>2018-10-14T15:11:41Z</time>
      </trkpt>
      <trkpt lat="45.80746" lon="5.75058">
        <ele>230</ele>
        <time>2018-10-14T15:11:41Z</time>
      </trkpt>
      <trkpt lat="45.80767" lon="5.75053">
        <ele>230</ele>
        <time>2018-10-14T15:11:41Z</time>
      </trkpt>
      <trkpt lat="45.8079" lon="5.75056">
        <ele>230</ele>
        <time>2018-10-14T15:11:41Z</time>
      </trkpt>
      <trkpt lat="45.8081" lon="5.75055">
        <ele>230</ele>
        <time>2018-10-14T15:11:57Z</time>
      </trkpt>
      <trkpt lat="45.80826" lon="5.75043">
        <ele>230</ele>
        <time>2018-10-14T15:11:57Z</time>
      </trkpt>
      <trkpt lat="45.80841" lon="5.75027">
        <ele>232</ele>
        <time>2018-10-14T15:11:57Z</time>
      </trkpt>
      <trkpt lat="45.80858" lon="5.75014">
        <ele>232</ele>
        <time>2018-10-14T15:11:57Z</time>
      </trkpt>
      <trkpt lat="45.80876" lon="5.75009">
        <ele>231</ele>
        <time>2018-10-14T15:12:13Z</time>
      </trkpt>
      <trkpt lat="45.80894" lon="5.75001">
        <ele>231</ele>
        <time>2018-10-14T15:12:13Z</time>
      </trkpt>
      <trkpt lat="45.80913" lon="5.74995">
        <ele>231</ele>
        <time>2018-10-14T15:12:13Z</time>
      </trkpt>
      <trkpt lat="45.80929" lon="5.74991">
        <ele>231</ele>
        <time>2018-10-14T15:12:13Z</time>
      </trkpt>
      <trkpt lat="45.80944" lon="5.74986">
        <ele>231</ele>
        <time>2018-10-14T15:12:41Z</time>
      </trkpt>
      <trkpt lat="45.80944" lon="5.74986">
        <ele>231</ele>
        <time>2018-10-14T15:12:41Z</time>
      </trkpt>
      <trkpt lat="45.80944" lon="5.74986">
        <ele>231</ele>
        <time>2018-10-14T15:12:41Z</time>
      </trkpt>
      <trkpt lat="45.80944" lon="5.74986">
        <ele>231</ele>
        <time>2018-10-14T15:12:41Z</time>
      </trkpt>
      <trkpt lat="45.80951" lon="5.74987">
        <ele>231</ele>
        <time>2018-10-14T15:12:41Z</time>
      </trkpt>
      <trkpt lat="45.80959" lon="5.74986">
        <ele>231</ele>
        <time>2018-10-14T15:12:57Z</time>
      </trkpt>
      <trkpt lat="45.80965" lon="5.74986">
        <ele>231</ele>
        <time>2018-10-14T15:12:57Z</time>
      </trkpt>
      <trkpt lat="45.80971" lon="5.74985">
        <ele>231</ele>
        <time>2018-10-14T15:12:57Z</time>
      </trkpt>
      <trkpt lat="45.80978" lon="5.74984">
        <ele>231</ele>
        <time>2018-10-14T15:12:57Z</time>
      </trkpt>
      <trkpt lat="45.80984" lon="5.74984">
        <ele>231</ele>
        <time>2018-10-14T15:13:13Z</time>
      </trkpt>
      <trkpt lat="45.8099" lon="5.74984">
        <ele>231</ele>
        <time>2018-10-14T15:13:13Z</time>
      </trkpt>
      <trkpt lat="45.80998" lon="5.74982">
        <ele>231</ele>
        <time>2018-10-14T15:13:13Z</time>
      </trkpt>
      <trkpt lat="45.81004" lon="5.74981">
        <ele>231</ele>
        <time>2018-10-14T15:13:13Z</time>
      </trkpt>
      <trkpt lat="45.81008" lon="5.74979">
        <ele>231</ele>
        <time>2018-10-14T15:13:29Z</time>
      </trkpt>
      <trkpt lat="45.81013" lon="5.74978">
        <ele>231</ele>
        <time>2018-10-14T15:13:29Z</time>
      </trkpt>
      <trkpt lat="45.81017" lon="5.74977">
        <ele>231</ele>
        <time>2018-10-14T15:13:29Z</time>
      </trkpt>
      <trkpt lat="45.81023" lon="5.74976">
        <ele>231</ele>
        <time>2018-10-14T15:13:29Z</time>
      </trkpt>
      <trkpt lat="45.81029" lon="5.74976">
        <ele>231</ele>
        <time>2018-10-14T15:13:45Z</time>
      </trkpt>
      <trkpt lat="45.81035" lon="5.74975">
        <ele>231</ele>
        <time>2018-10-14T15:13:45Z</time>
      </trkpt>
      <trkpt lat="45.8104" lon="5.74976">
        <ele>231</ele>
        <time>2018-10-14T15:13:45Z</time>
      </trkpt>
      <trkpt lat="45.81043" lon="5.74975">
        <ele>230</ele>
        <time>2018-10-14T15:13:45Z</time>
      </trkpt>
      <trkpt lat="45.81052" lon="5.74966">
        <ele>230</ele>
        <time>2018-10-14T15:14:01Z</time>
      </trkpt>
      <trkpt lat="45.81069" lon="5.74952">
        <ele>231</ele>
        <time>2018-10-14T15:14:01Z</time>
      </trkpt>
      <trkpt lat="45.81089" lon="5.74941">
        <ele>231</ele>
        <time>2018-10-14T15:14:01Z</time>
      </trkpt>
      <trkpt lat="45.81113" lon="5.74924">
        <ele>231</ele>
        <time>2018-10-14T15:14:01Z</time>
      </trkpt>
      <trkpt lat="45.81136" lon="5.74917">
        <ele>230</ele>
        <time>2018-10-14T15:14:17Z</time>
      </trkpt>
      <trkpt lat="45.81158" lon="5.7491">
        <ele>230</ele>
        <time>2018-10-14T15:14:17Z</time>
      </trkpt>
      <trkpt lat="45.81181" lon="5.74898">
        <ele>230</ele>
        <time>2018-10-14T15:14:17Z</time>
      </trkpt>
      <trkpt lat="45.81206" lon="5.7489">
        <ele>230</ele>
        <time>2018-10-14T15:14:17Z</time>
      </trkpt>
      <trkpt lat="45.81229" lon="5.74879">
        <ele>230</ele>
        <time>2018-10-14T15:14:33Z</time>
      </trkpt>
      <trkpt lat="45.81249" lon="5.74858">
        <ele>231</ele>
        <time>2018-10-14T15:14:33Z</time>
      </trkpt>
      <trkpt lat="45.81263" lon="5.74836">
        <ele>231</ele>
        <time>2018-10-14T15:14:33Z</time>
      </trkpt>
      <trkpt lat="45.81279" lon="5.74815">
        <ele>231</ele>
        <time>2018-10-14T15:14:33Z</time>
      </trkpt>
      <trkpt lat="45.81298" lon="5.74804">
        <ele>232</ele>
        <time>2018-10-14T15:14:49Z</time>
      </trkpt>
      <trkpt lat="45.81317" lon="5.74797">
        <ele>232</ele>
        <time>2018-10-14T15:14:49Z</time>
      </trkpt>
      <trkpt lat="45.81324" lon="5.74791">
        <ele>231</ele>
        <time>2018-10-14T15:14:49Z</time>
      </trkpt>
      <trkpt lat="45.81329" lon="5.74789">
        <ele>231</ele>
        <time>2018-10-14T15:14:49Z</time>
      </trkpt>
      <trkpt lat="45.81334" lon="5.74782">
        <ele>231</ele>
        <time>2018-10-14T15:15:05Z</time>
      </trkpt>
      <trkpt lat="45.81338" lon="5.74776">
        <ele>231</ele>
        <time>2018-10-14T15:15:05Z</time>
      </trkpt>
      <trkpt lat="45.81342" lon="5.74777">
        <ele>231</ele>
        <time>2018-10-14T15:15:05Z</time>
      </trkpt>
      <trkpt lat="45.81348" lon="5.74781">
        <ele>231</ele>
        <time>2018-10-14T15:15:05Z</time>
      </trkpt>
      <trkpt lat="45.81357" lon="5.74782">
        <ele>231</ele>
        <time>2018-10-14T15:15:21Z</time>
      </trkpt>
      <trkpt lat="45.81365" lon="5.74783">
        <ele>231</ele>
        <time>2018-10-14T15:15:21Z</time>
      </trkpt>
      <trkpt lat="45.8137" lon="5.74785">
        <ele>231</ele>
        <time>2018-10-14T15:15:21Z</time>
      </trkpt>
      <trkpt lat="45.81375" lon="5.74787">
        <ele>231</ele>
        <time>2018-10-14T15:15:21Z</time>
      </trkpt>
      <trkpt lat="45.81378" lon="5.7479">
        <ele>235</ele>
        <time>2018-10-14T15:15:37Z</time>
      </trkpt>
      <trkpt lat="45.81382" lon="5.74793">
        <ele>232</ele>
        <time>2018-10-14T15:15:37Z</time>
      </trkpt>
      <trkpt lat="45.81388" lon="5.74794">
        <ele>232</ele>
        <time>2018-10-14T15:15:37Z</time>
      </trkpt>
      <trkpt lat="45.81392" lon="5.74793">
        <ele>232</ele>
        <time>2018-10-14T15:15:37Z</time>
      </trkpt>
      <trkpt lat="45.81398" lon="5.74791">
        <ele>235</ele>
        <time>2018-10-14T15:15:53Z</time>
      </trkpt>
      <trkpt lat="45.81403" lon="5.74789">
        <ele>235</ele>
        <time>2018-10-14T15:15:53Z</time>
      </trkpt>
      <trkpt lat="45.81411" lon="5.74789">
        <ele>235</ele>
        <time>2018-10-14T15:15:53Z</time>
      </trkpt>
      <trkpt lat="45.81415" lon="5.74789">
        <ele>235</ele>
        <time>2018-10-14T15:15:53Z</time>
      </trkpt>
      <trkpt lat="45.81423" lon="5.74788">
        <ele>235</ele>
        <time>2018-10-14T15:16:09Z</time>
      </trkpt>
      <trkpt lat="45.81429" lon="5.74787">
        <ele>235</ele>
        <time>2018-10-14T15:16:09Z</time>
      </trkpt>
      <trkpt lat="45.81434" lon="5.74788">
        <ele>235</ele>
        <time>2018-10-14T15:16:09Z</time>
      </trkpt>
      <trkpt lat="45.81437" lon="5.74787">
        <ele>235</ele>
        <time>2018-10-14T15:16:09Z</time>
      </trkpt>
      <trkpt lat="45.81443" lon="5.74784">
        <ele>235</ele>
        <time>2018-10-14T15:16:25Z</time>
      </trkpt>
      <trkpt lat="45.81446" lon="5.74783">
        <ele>235</ele>
        <time>2018-10-14T15:16:25Z</time>
      </trkpt>
      <trkpt lat="45.81453" lon="5.74783">
        <ele>235</ele>
        <time>2018-10-14T15:16:25Z</time>
      </trkpt>
      <trkpt lat="45.8146" lon="5.74783">
        <ele>234</ele>
        <time>2018-10-14T15:16:25Z</time>
      </trkpt>
      <trkpt lat="45.81463" lon="5.7478">
        <ele>234</ele>
        <time>2018-10-14T15:16:41Z</time>
      </trkpt>
      <trkpt lat="45.81474" lon="5.74774">
        <ele>234</ele>
        <time>2018-10-14T15:16:41Z</time>
      </trkpt>
      <trkpt lat="45.81479" lon="5.74775">
        <ele>234</ele>
        <time>2018-10-14T15:16:41Z</time>
      </trkpt>
      <trkpt lat="45.81484" lon="5.74775">
        <ele>234</ele>
        <time>2018-10-14T15:16:41Z</time>
      </trkpt>
      <trkpt lat="45.81488" lon="5.74779">
        <ele>234</ele>
        <time>2018-10-14T15:16:57Z</time>
      </trkpt>
      <trkpt lat="45.81492" lon="5.74782">
        <ele>234</ele>
        <time>2018-10-14T15:16:57Z</time>
      </trkpt>
      <trkpt lat="45.81496" lon="5.74782">
        <ele>234</ele>
        <time>2018-10-14T15:16:57Z</time>
      </trkpt>
      <trkpt lat="45.815" lon="5.74782">
        <ele>234</ele>
        <time>2018-10-14T15:16:57Z</time>
      </trkpt>
      <trkpt lat="45.81505" lon="5.7478">
        <ele>234</ele>
        <time>2018-10-14T15:17:13Z</time>
      </trkpt>
      <trkpt lat="45.81511" lon="5.74778">
        <ele>234</ele>
        <time>2018-10-14T15:17:13Z</time>
      </trkpt>
      <trkpt lat="45.81516" lon="5.74778">
        <ele>234</ele>
        <time>2018-10-14T15:17:13Z</time>
      </trkpt>
      <trkpt lat="45.81521" lon="5.74779">
        <ele>234</ele>
        <time>2018-10-14T15:17:13Z</time>
      </trkpt>
      <trkpt lat="45.81527" lon="5.74778">
        <ele>234</ele>
        <time>2018-10-14T15:17:29Z</time>
      </trkpt>
      <trkpt lat="45.81533" lon="5.7478">
        <ele>234</ele>
        <time>2018-10-14T15:17:29Z</time>
      </trkpt>
      <trkpt lat="45.81538" lon="5.74782">
        <ele>234</ele>
        <time>2018-10-14T15:17:29Z</time>
      </trkpt>
      <trkpt lat="45.81547" lon="5.74784">
        <ele>235</ele>
        <time>2018-10-14T15:17:29Z</time>
      </trkpt>
      <trkpt lat="45.81555" lon="5.74788">
        <ele>235</ele>
        <time>2018-10-14T15:17:45Z</time>
      </trkpt>
      <trkpt lat="45.81561" lon="5.74789">
        <ele>235</ele>
        <time>2018-10-14T15:17:45Z</time>
      </trkpt>
      <trkpt lat="45.81567" lon="5.7479">
        <ele>235</ele>
        <time>2018-10-14T15:17:45Z</time>
      </trkpt>
      <trkpt lat="45.81571" lon="5.74789">
        <ele>235</ele>
        <time>2018-10-14T15:17:45Z</time>
      </trkpt>
      <trkpt lat="45.81576" lon="5.74789">
        <ele>235</ele>
        <time>2018-10-14T15:18:01Z</time>
      </trkpt>
      <trkpt lat="45.81581" lon="5.74788">
        <ele>235</ele>
        <time>2018-10-14T15:18:01Z</time>
      </trkpt>
      <trkpt lat="45.81586" lon="5.74786">
        <ele>235</ele>
        <time>2018-10-14T15:18:01Z</time>
      </trkpt>
      <trkpt lat="45.81591" lon="5.74782">
        <ele>235</ele>
        <time>2018-10-14T15:18:01Z</time>
      </trkpt>
      <trkpt lat="45.81595" lon="5.74781">
        <ele>235</ele>
        <time>2018-10-14T15:18:17Z</time>
      </trkpt>
      <trkpt lat="45.81608" lon="5.74781">
        <ele>235</ele>
        <time>2018-10-14T15:18:17Z</time>
      </trkpt>
      <trkpt lat="45.8163" lon="5.74772">
        <ele>235</ele>
        <time>2018-10-14T15:18:17Z</time>
      </trkpt>
      <trkpt lat="45.8165" lon="5.74764">
        <ele>235</ele>
        <time>2018-10-14T15:18:17Z</time>
      </trkpt>
      <trkpt lat="45.8167" lon="5.7475">
        <ele>235</ele>
        <time>2018-10-14T15:18:33Z</time>
      </trkpt>
      <trkpt lat="45.81688" lon="5.74754">
        <ele>235</ele>
        <time>2018-10-14T15:18:33Z</time>
      </trkpt>
      <trkpt lat="45.81704" lon="5.74763">
        <ele>235</ele>
        <time>2018-10-14T15:18:33Z</time>
      </trkpt>
      <trkpt lat="45.81721" lon="5.74761">
        <ele>232</ele>
        <time>2018-10-14T15:18:33Z</time>
      </trkpt>
      <trkpt lat="45.8174" lon="5.74755">
        <ele>232</ele>
        <time>2018-10-14T15:18:49Z</time>
      </trkpt>
      <trkpt lat="45.81762" lon="5.74749">
        <ele>232</ele>
        <time>2018-10-14T15:18:49Z</time>
      </trkpt>
      <trkpt lat="45.81783" lon="5.74739">
        <ele>232</ele>
        <time>2018-10-14T15:18:49Z</time>
      </trkpt>
      <trkpt lat="45.81803" lon="5.74726">
        <ele>232</ele>
        <time>2018-10-14T15:18:49Z</time>
      </trkpt>
      <trkpt lat="45.81822" lon="5.74714">
        <ele>232</ele>
        <time>2018-10-14T15:19:05Z</time>
      </trkpt>
      <trkpt lat="45.81842" lon="5.74698">
        <ele>237</ele>
        <time>2018-10-14T15:19:05Z</time>
      </trkpt>
      <trkpt lat="45.81865" lon="5.74679">
        <ele>237</ele>
        <time>2018-10-14T15:19:05Z</time>
      </trkpt>
      <trkpt lat="45.81893" lon="5.74664">
        <ele>233</ele>
        <time>2018-10-14T15:19:05Z</time>
      </trkpt>
      <trkpt lat="45.81912" lon="5.74656">
        <ele>233</ele>
        <time>2018-10-14T15:19:21Z</time>
      </trkpt>
      <trkpt lat="45.81927" lon="5.74643">
        <ele>233</ele>
        <time>2018-10-14T15:19:21Z</time>
      </trkpt>
      <trkpt lat="45.8193" lon="5.74639">
        <ele>233</ele>
        <time>2018-10-14T15:19:21Z</time>
      </trkpt>
      <trkpt lat="45.81933" lon="5.74638">
        <ele>233</ele>
        <time>2018-10-14T15:19:21Z</time>
      </trkpt>
      <trkpt lat="45.81938" lon="5.74641">
        <ele>233</ele>
        <time>2018-10-14T15:19:37Z</time>
      </trkpt>
      <trkpt lat="45.81942" lon="5.74645">
        <ele>233</ele>
        <time>2018-10-14T15:19:37Z</time>
      </trkpt>
      <trkpt lat="45.81945" lon="5.74648">
        <ele>233</ele>
        <time>2018-10-14T15:19:37Z</time>
      </trkpt>
      <trkpt lat="45.8195" lon="5.74651">
        <ele>233</ele>
        <time>2018-10-14T15:19:37Z</time>
      </trkpt>
      <trkpt lat="45.81955" lon="5.74655">
        <ele>233</ele>
        <time>2018-10-14T15:19:53Z</time>
      </trkpt>
      <trkpt lat="45.81969" lon="5.74656">
        <ele>232</ele>
        <time>2018-10-14T15:19:53Z</time>
      </trkpt>
      <trkpt lat="45.81975" lon="5.74659">
        <ele>232</ele>
        <time>2018-10-14T15:19:53Z</time>
      </trkpt>
      <trkpt lat="45.81981" lon="5.74661">
        <ele>232</ele>
        <time>2018-10-14T15:19:53Z</time>
      </trkpt>
      <trkpt lat="45.81986" lon="5.74662">
        <ele>232</ele>
        <time>2018-10-14T15:20:09Z</time>
      </trkpt>
      <trkpt lat="45.81992" lon="5.74662">
        <ele>232</ele>
        <time>2018-10-14T15:20:09Z</time>
      </trkpt>
      <trkpt lat="45.81998" lon="5.74661">
        <ele>232</ele>
        <time>2018-10-14T15:20:09Z</time>
      </trkpt>
      <trkpt lat="45.82001" lon="5.74661">
        <ele>232</ele>
        <time>2018-10-14T15:20:09Z</time>
      </trkpt>
      <trkpt lat="45.8201" lon="5.74659">
        <ele>232</ele>
        <time>2018-10-14T15:20:25Z</time>
      </trkpt>
      <trkpt lat="45.82017" lon="5.74657">
        <ele>232</ele>
        <time>2018-10-14T15:20:25Z</time>
      </trkpt>
      <trkpt lat="45.82022" lon="5.74656">
        <ele>232</ele>
        <time>2018-10-14T15:20:25Z</time>
      </trkpt>
      <trkpt lat="45.82027" lon="5.74656">
        <ele>232</ele>
        <time>2018-10-14T15:20:25Z</time>
      </trkpt>
      <trkpt lat="45.82032" lon="5.74655">
        <ele>232</ele>
        <time>2018-10-14T15:20:41Z</time>
      </trkpt>
      <trkpt lat="45.82038" lon="5.74655">
        <ele>232</ele>
        <time>2018-10-14T15:20:41Z</time>
      </trkpt>
      <trkpt lat="45.82044" lon="5.74656">
        <ele>233</ele>
        <time>2018-10-14T15:20:41Z</time>
      </trkpt>
      <trkpt lat="45.82054" lon="5.7466">
        <ele>233</ele>
        <time>2018-10-14T15:20:41Z</time>
      </trkpt>
      <trkpt lat="45.82073" lon="5.74658">
        <ele>233</ele>
        <time>2018-10-14T15:20:57Z</time>
      </trkpt>
      <trkpt lat="45.82094" lon="5.74652">
        <ele>233</ele>
        <time>2018-10-14T15:20:57Z</time>
      </trkpt>
      <trkpt lat="45.82117" lon="5.74642">
        <ele>233</ele>
        <time>2018-10-14T15:20:57Z</time>
      </trkpt>
      <trkpt lat="45.82134" lon="5.7463">
        <ele>233</ele>
        <time>2018-10-14T15:20:57Z</time>
      </trkpt>
      <trkpt lat="45.82139" lon="5.74623">
        <ele>235</ele>
        <time>2018-10-14T15:21:13Z</time>
      </trkpt>
      <trkpt lat="45.82141" lon="5.74617">
        <ele>235</ele>
        <time>2018-10-14T15:21:13Z</time>
      </trkpt>
      <trkpt lat="45.82144" lon="5.74611">
        <ele>235</ele>
        <time>2018-10-14T15:21:13Z</time>
      </trkpt>
      <trkpt lat="45.82148" lon="5.74604">
        <ele>235</ele>
        <time>2018-10-14T15:21:13Z</time>
      </trkpt>
      <trkpt lat="45.82153" lon="5.74597">
        <ele>235</ele>
        <time>2018-10-14T15:21:29Z</time>
      </trkpt>
      <trkpt lat="45.82157" lon="5.7459">
        <ele>235</ele>
        <time>2018-10-14T15:21:29Z</time>
      </trkpt>
      <trkpt lat="45.82162" lon="5.74585">
        <ele>235</ele>
        <time>2018-10-14T15:21:29Z</time>
      </trkpt>
      <trkpt lat="45.82167" lon="5.74581">
        <ele>235</ele>
        <time>2018-10-14T15:21:29Z</time>
      </trkpt>
      <trkpt lat="45.82171" lon="5.74578">
        <ele>235</ele>
        <time>2018-10-14T15:21:45Z</time>
      </trkpt>
      <trkpt lat="45.82176" lon="5.74573">
        <ele>235</ele>
        <time>2018-10-14T15:21:45Z</time>
      </trkpt>
      <trkpt lat="45.8218" lon="5.7457">
        <ele>235</ele>
        <time>2018-10-14T15:21:45Z</time>
      </trkpt>
      <trkpt lat="45.82186" lon="5.74568">
        <ele>235</ele>
        <time>2018-10-14T15:21:45Z</time>
      </trkpt>
      <trkpt lat="45.82204" lon="5.74562">
        <ele>235</ele>
        <time>2018-10-14T15:22:01Z</time>
      </trkpt>
      <trkpt lat="45.82223" lon="5.74554">
        <ele>232</ele>
        <time>2018-10-14T15:22:01Z</time>
      </trkpt>
      <trkpt lat="45.8224" lon="5.74549">
        <ele>232</ele>
        <time>2018-10-14T15:22:01Z</time>
      </trkpt>
      <trkpt lat="45.82264" lon="5.74534">
        <ele>237</ele>
        <time>2018-10-14T15:22:01Z</time>
      </trkpt>
      <trkpt lat="45.82285" lon="5.74512">
        <ele>237</ele>
        <time>2018-10-14T15:22:17Z</time>
      </trkpt>
      <trkpt lat="45.82302" lon="5.74489">
        <ele>238</ele>
        <time>2018-10-14T15:22:17Z</time>
      </trkpt>
      <trkpt lat="45.82325" lon="5.74473">
        <ele>238</ele>
        <time>2018-10-14T15:22:17Z</time>
      </trkpt>
      <trkpt lat="45.82344" lon="5.74465">
        <ele>238</ele>
        <time>2018-10-14T15:22:17Z</time>
      </trkpt>
      <trkpt lat="45.82356" lon="5.74476">
        <ele>238</ele>
        <time>2018-10-14T15:22:33Z</time>
      </trkpt>
      <trkpt lat="45.82366" lon="5.74505">
        <ele>238</ele>
        <time>2018-10-14T15:22:33Z</time>
      </trkpt>
      <trkpt lat="45.82373" lon="5.74535">
        <ele>238</ele>
        <time>2018-10-14T15:22:33Z</time>
      </trkpt>
      <trkpt lat="45.82379" lon="5.74571">
        <ele>231</ele>
        <time>2018-10-14T15:22:33Z</time>
      </trkpt>
      <trkpt lat="45.82384" lon="5.74609">
        <ele>231</ele>
        <time>2018-10-14T15:22:49Z</time>
      </trkpt>
      <trkpt lat="45.82391" lon="5.74646">
        <ele>230</ele>
        <time>2018-10-14T15:22:49Z</time>
      </trkpt>
      <trkpt lat="45.82398" lon="5.74685">
        <ele>230</ele>
        <time>2018-10-14T15:22:49Z</time>
      </trkpt>
      <trkpt lat="45.82406" lon="5.74722">
        <ele>230</ele>
        <time>2018-10-14T15:22:49Z</time>
      </trkpt>
      <trkpt lat="45.82412" lon="5.7476">
        <ele>230</ele>
        <time>2018-10-14T15:23:05Z</time>
      </trkpt>
      <trkpt lat="45.82418" lon="5.74799">
        <ele>228</ele>
        <time>2018-10-14T15:23:05Z</time>
      </trkpt>
      <trkpt lat="45.82425" lon="5.74837">
        <ele>228</ele>
        <time>2018-10-14T15:23:05Z</time>
      </trkpt>
      <trkpt lat="45.82429" lon="5.74859">
        <ele>228</ele>
        <time>2018-10-14T15:23:05Z</time>
      </trkpt>
      <trkpt lat="45.8243" lon="5.7487">
        <ele>228</ele>
        <time>2018-10-14T15:23:21Z</time>
      </trkpt>
      <trkpt lat="45.82431" lon="5.74878">
        <ele>229</ele>
        <time>2018-10-14T15:23:21Z</time>
      </trkpt>
      <trkpt lat="45.82432" lon="5.74887">
        <ele>229</ele>
        <time>2018-10-14T15:23:21Z</time>
      </trkpt>
      <trkpt lat="45.82438" lon="5.74917">
        <ele>229</ele>
        <time>2018-10-14T15:23:21Z</time>
      </trkpt>
      <trkpt lat="45.82445" lon="5.74948">
        <ele>229</ele>
        <time>2018-10-14T15:23:37Z</time>
      </trkpt>
      <trkpt lat="45.82451" lon="5.74979">
        <ele>230</ele>
        <time>2018-10-14T15:23:37Z</time>
      </trkpt>
      <trkpt lat="45.82457" lon="5.7501">
        <ele>230</ele>
        <time>2018-10-14T15:23:37Z</time>
      </trkpt>
      <trkpt lat="45.82464" lon="5.75047">
        <ele>231</ele>
        <time>2018-10-14T15:23:37Z</time>
      </trkpt>
      <trkpt lat="45.82471" lon="5.75083">
        <ele>231</ele>
        <time>2018-10-14T15:23:53Z</time>
      </trkpt>
      <trkpt lat="45.82478" lon="5.75121">
        <ele>231</ele>
        <time>2018-10-14T15:23:53Z</time>
      </trkpt>
      <trkpt lat="45.82484" lon="5.75161">
        <ele>230</ele>
        <time>2018-10-14T15:23:53Z</time>
      </trkpt>
      <trkpt lat="45.8249" lon="5.752">
        <ele>230</ele>
        <time>2018-10-14T15:23:53Z</time>
      </trkpt>
      <trkpt lat="45.82497" lon="5.75236">
        <ele>232</ele>
        <time>2018-10-14T15:24:09Z</time>
      </trkpt>
      <trkpt lat="45.82504" lon="5.75271">
        <ele>232</ele>
        <time>2018-10-14T15:24:09Z</time>
      </trkpt>
      <trkpt lat="45.82508" lon="5.75303">
        <ele>233</ele>
        <time>2018-10-14T15:24:09Z</time>
      </trkpt>
      <trkpt lat="45.82514" lon="5.75333">
        <ele>233</ele>
        <time>2018-10-14T15:24:09Z</time>
      </trkpt>
      <trkpt lat="45.82519" lon="5.75358">
        <ele>233</ele>
        <time>2018-10-14T15:24:25Z</time>
      </trkpt>
      <trkpt lat="45.82523" lon="5.75379">
        <ele>234</ele>
        <time>2018-10-14T15:24:25Z</time>
      </trkpt>
      <trkpt lat="45.82525" lon="5.75389">
        <ele>234</ele>
        <time>2018-10-14T15:24:25Z</time>
      </trkpt>
      <trkpt lat="45.82528" lon="5.75398">
        <ele>234</ele>
        <time>2018-10-14T15:24:25Z</time>
      </trkpt>
      <trkpt lat="45.82528" lon="5.75402">
        <ele>234</ele>
        <time>2018-10-14T15:24:41Z</time>
      </trkpt>
      <trkpt lat="45.82533" lon="5.75408">
        <ele>234</ele>
        <time>2018-10-14T15:24:41Z</time>
      </trkpt>
      <trkpt lat="45.82535" lon="5.75414">
        <ele>234</ele>
        <time>2018-10-14T15:24:41Z</time>
      </trkpt>
      <trkpt lat="45.82535" lon="5.75422">
        <ele>234</ele>
        <time>2018-10-14T15:24:41Z</time>
      </trkpt>
      <trkpt lat="45.82538" lon="5.75429">
        <ele>234</ele>
        <time>2018-10-14T15:24:57Z</time>
      </trkpt>
      <trkpt lat="45.82537" lon="5.75437">
        <ele>234</ele>
        <time>2018-10-14T15:24:57Z</time>
      </trkpt>
      <trkpt lat="45.82537" lon="5.75446">
        <ele>234</ele>
        <time>2018-10-14T15:24:57Z</time>
      </trkpt>
      <trkpt lat="45.82539" lon="5.75455">
        <ele>234</ele>
        <time>2018-10-14T15:24:57Z</time>
      </trkpt>
      <trkpt lat="45.8254" lon="5.75464">
        <ele>233</ele>
        <time>2018-10-14T15:25:13Z</time>
      </trkpt>
      <trkpt lat="45.82542" lon="5.75474">
        <ele>231</ele>
        <time>2018-10-14T15:25:13Z</time>
      </trkpt>
      <trkpt lat="45.82543" lon="5.75483">
        <ele>231</ele>
        <time>2018-10-14T15:25:13Z</time>
      </trkpt>
      <trkpt lat="45.82544" lon="5.75492">
        <ele>231</ele>
        <time>2018-10-14T15:25:13Z</time>
      </trkpt>
      <trkpt lat="45.82545" lon="5.75502">
        <ele>231</ele>
        <time>2018-10-14T15:25:29Z</time>
      </trkpt>
      <trkpt lat="45.82547" lon="5.75512">
        <ele>231</ele>
        <time>2018-10-14T15:25:29Z</time>
      </trkpt>
      <trkpt lat="45.82548" lon="5.7552">
        <ele>231</ele>
        <time>2018-10-14T15:25:29Z</time>
      </trkpt>
      <trkpt lat="45.82551" lon="5.75527">
        <ele>231</ele>
        <time>2018-10-14T15:25:29Z</time>
      </trkpt>
      <trkpt lat="45.82552" lon="5.75535">
        <ele>231</ele>
        <time>2018-10-14T15:25:45Z</time>
      </trkpt>
      <trkpt lat="45.82554" lon="5.75544">
        <ele>231</ele>
        <time>2018-10-14T15:25:45Z</time>
      </trkpt>
      <trkpt lat="45.82556" lon="5.75552">
        <ele>231</ele>
        <time>2018-10-14T15:25:45Z</time>
      </trkpt>
      <trkpt lat="45.82558" lon="5.7556">
        <ele>231</ele>
        <time>2018-10-14T15:25:45Z</time>
      </trkpt>
      <trkpt lat="45.82563" lon="5.75565">
        <ele>231</ele>
        <time>2018-10-14T15:26:01Z</time>
      </trkpt>
      <trkpt lat="45.82566" lon="5.75571">
        <ele>231</ele>
        <time>2018-10-14T15:26:01Z</time>
      </trkpt>
      <trkpt lat="45.8257" lon="5.75577">
        <ele>231</ele>
        <time>2018-10-14T15:26:01Z</time>
      </trkpt>
      <trkpt lat="45.82574" lon="5.75584">
        <ele>231</ele>
        <time>2018-10-14T15:26:01Z</time>
      </trkpt>
      <trkpt lat="45.82578" lon="5.75589">
        <ele>231</ele>
        <time>2018-10-14T15:26:17Z</time>
      </trkpt>
      <trkpt lat="45.82582" lon="5.75595">
        <ele>231</ele>
        <time>2018-10-14T15:26:17Z</time>
      </trkpt>
      <trkpt lat="45.82586" lon="5.75601">
        <ele>231</ele>
        <time>2018-10-14T15:26:17Z</time>
      </trkpt>
      <trkpt lat="45.82591" lon="5.75608">
        <ele>231</ele>
        <time>2018-10-14T15:26:17Z</time>
      </trkpt>
      <trkpt lat="45.82596" lon="5.75615">
        <ele>231</ele>
        <time>2018-10-14T15:26:33Z</time>
      </trkpt>
      <trkpt lat="45.82601" lon="5.75621">
        <ele>231</ele>
        <time>2018-10-14T15:26:33Z</time>
      </trkpt>
      <trkpt lat="45.82604" lon="5.75628">
        <ele>229</ele>
        <time>2018-10-14T15:26:33Z</time>
      </trkpt>
      <trkpt lat="45.82607" lon="5.75635">
        <ele>229</ele>
        <time>2018-10-14T15:26:33Z</time>
      </trkpt>
      <trkpt lat="45.82611" lon="5.7564">
        <ele>229</ele>
        <time>2018-10-14T15:26:49Z</time>
      </trkpt>
      <trkpt lat="45.82615" lon="5.75646">
        <ele>229</ele>
        <time>2018-10-14T15:26:49Z</time>
      </trkpt>
      <trkpt lat="45.82619" lon="5.75651">
        <ele>229</ele>
        <time>2018-10-14T15:26:49Z</time>
      </trkpt>
      <trkpt lat="45.82624" lon="5.75658">
        <ele>229</ele>
        <time>2018-10-14T15:26:49Z</time>
      </trkpt>
      <trkpt lat="45.82628" lon="5.75664">
        <ele>231</ele>
        <time>2018-10-14T15:27:05Z</time>
      </trkpt>
      <trkpt lat="45.82633" lon="5.75671">
        <ele>231</ele>
        <time>2018-10-14T15:27:05Z</time>
      </trkpt>
      <trkpt lat="45.82638" lon="5.75676">
        <ele>231</ele>
        <time>2018-10-14T15:27:05Z</time>
      </trkpt>
      <trkpt lat="45.82641" lon="5.75682">
        <ele>231</ele>
        <time>2018-10-14T15:27:05Z</time>
      </trkpt>
      <trkpt lat="45.82645" lon="5.75688">
        <ele>231</ele>
        <time>2018-10-14T15:27:21Z</time>
      </trkpt>
      <trkpt lat="45.8265" lon="5.75694">
        <ele>231</ele>
        <time>2018-10-14T15:27:21Z</time>
      </trkpt>
      <trkpt lat="45.82654" lon="5.757">
        <ele>231</ele>
        <time>2018-10-14T15:27:21Z</time>
      </trkpt>
      <trkpt lat="45.82657" lon="5.75705">
        <ele>231</ele>
        <time>2018-10-14T15:27:21Z</time>
      </trkpt>
      <trkpt lat="45.82661" lon="5.75711">
        <ele>231</ele>
        <time>2018-10-14T15:27:37Z</time>
      </trkpt>
      <trkpt lat="45.82666" lon="5.75716">
        <ele>231</ele>
        <time>2018-10-14T15:27:37Z</time>
      </trkpt>
      <trkpt lat="45.8267" lon="5.75721">
        <ele>231</ele>
        <time>2018-10-14T15:27:37Z</time>
      </trkpt>
      <trkpt lat="45.82675" lon="5.75727">
        <ele>231</ele>
        <time>2018-10-14T15:27:37Z</time>
      </trkpt>
      <trkpt lat="45.82679" lon="5.75733">
        <ele>231</ele>
        <time>2018-10-14T15:27:53Z</time>
      </trkpt>
      <trkpt lat="45.8269" lon="5.7575">
        <ele>231</ele>
        <time>2018-10-14T15:27:53Z</time>
      </trkpt>
      <trkpt lat="45.82704" lon="5.7577">
        <ele>231</ele>
        <time>2018-10-14T15:27:53Z</time>
      </trkpt>
      <trkpt lat="45.82719" lon="5.7579">
        <ele>231</ele>
        <time>2018-10-14T15:27:53Z</time>
      </trkpt>
      <trkpt lat="45.82732" lon="5.75806">
        <ele>229</ele>
        <time>2018-10-14T15:28:09Z</time>
      </trkpt>
      <trkpt lat="45.82745" lon="5.75827">
        <ele>229</ele>
        <time>2018-10-14T15:28:09Z</time>
      </trkpt>
      <trkpt lat="45.8276" lon="5.75848">
        <ele>229</ele>
        <time>2018-10-14T15:28:09Z</time>
      </trkpt>
      <trkpt lat="45.82773" lon="5.75867">
        <ele>229</ele>
        <time>2018-10-14T15:28:09Z</time>
      </trkpt>
      <trkpt lat="45.82783" lon="5.75883">
        <ele>229</ele>
        <time>2018-10-14T15:28:25Z</time>
      </trkpt>
      <trkpt lat="45.82798" lon="5.75903">
        <ele>231</ele>
        <time>2018-10-14T15:28:25Z</time>
      </trkpt>
      <trkpt lat="45.82812" lon="5.75925">
        <ele>231</ele>
        <time>2018-10-14T15:28:25Z</time>
      </trkpt>
      <trkpt lat="45.82827" lon="5.75946">
        <ele>231</ele>
        <time>2018-10-14T15:28:25Z</time>
      </trkpt>
      <trkpt lat="45.82842" lon="5.7597">
        <ele>232</ele>
        <time>2018-10-14T15:28:41Z</time>
      </trkpt>
      <trkpt lat="45.82856" lon="5.75991">
        <ele>232</ele>
        <time>2018-10-14T15:28:41Z</time>
      </trkpt>
      <trkpt lat="45.8287" lon="5.76011">
        <ele>232</ele>
        <time>2018-10-14T15:28:41Z</time>
      </trkpt>
      <trkpt lat="45.82886" lon="5.76032">
        <ele>231</ele>
        <time>2018-10-14T15:28:41Z</time>
      </trkpt>
      <trkpt lat="45.82899" lon="5.76054">
        <ele>231</ele>
        <time>2018-10-14T15:28:57Z</time>
      </trkpt>
      <trkpt lat="45.82913" lon="5.76074">
        <ele>231</ele>
        <time>2018-10-14T15:28:57Z</time>
      </trkpt>
      <trkpt lat="45.82923" lon="5.76088">
        <ele>231</ele>
        <time>2018-10-14T15:28:57Z</time>
      </trkpt>
      <trkpt lat="45.82929" lon="5.76098">
        <ele>231</ele>
        <time>2018-10-14T15:28:57Z</time>
      </trkpt>
      <trkpt lat="45.82932" lon="5.76107">
        <ele>231</ele>
        <time>2018-10-14T15:29:13Z</time>
      </trkpt>
      <trkpt lat="45.82935" lon="5.76113">
        <ele>231</ele>
        <time>2018-10-14T15:29:13Z</time>
      </trkpt>
      <trkpt lat="45.8294" lon="5.76119">
        <ele>231</ele>
        <time>2018-10-14T15:29:13Z</time>
      </trkpt>
      <trkpt lat="45.82946" lon="5.76126">
        <ele>231</ele>
        <time>2018-10-14T15:29:13Z</time>
      </trkpt>
      <trkpt lat="45.82951" lon="5.76132">
        <ele>231</ele>
        <time>2018-10-14T15:29:29Z</time>
      </trkpt>
      <trkpt lat="45.82955" lon="5.76138">
        <ele>231</ele>
        <time>2018-10-14T15:29:29Z</time>
      </trkpt>
      <trkpt lat="45.8296" lon="5.76146">
        <ele>232</ele>
        <time>2018-10-14T15:29:29Z</time>
      </trkpt>
      <trkpt lat="45.82964" lon="5.76152">
        <ele>232</ele>
        <time>2018-10-14T15:29:29Z</time>
      </trkpt>
      <trkpt lat="45.82968" lon="5.76158">
        <ele>232</ele>
        <time>2018-10-14T15:29:45Z</time>
      </trkpt>
      <trkpt lat="45.82973" lon="5.76162">
        <ele>232</ele>
        <time>2018-10-14T15:29:45Z</time>
      </trkpt>
      <trkpt lat="45.82977" lon="5.76169">
        <ele>232</ele>
        <time>2018-10-14T15:29:45Z</time>
      </trkpt>
      <trkpt lat="45.82979" lon="5.76174">
        <ele>232</ele>
        <time>2018-10-14T15:29:45Z</time>
      </trkpt>
      <trkpt lat="45.82984" lon="5.76179">
        <ele>232</ele>
        <time>2018-10-14T15:30:01Z</time>
      </trkpt>
      <trkpt lat="45.82989" lon="5.76185">
        <ele>232</ele>
        <time>2018-10-14T15:30:01Z</time>
      </trkpt>
      <trkpt lat="45.82993" lon="5.76191">
        <ele>232</ele>
        <time>2018-10-14T15:30:01Z</time>
      </trkpt>
      <trkpt lat="45.82998" lon="5.76197">
        <ele>232</ele>
        <time>2018-10-14T15:30:01Z</time>
      </trkpt>
      <trkpt lat="45.83002" lon="5.76203">
        <ele>232</ele>
        <time>2018-10-14T15:30:17Z</time>
      </trkpt>
      <trkpt lat="45.83006" lon="5.76209">
        <ele>231</ele>
        <time>2018-10-14T15:30:17Z</time>
      </trkpt>
      <trkpt lat="45.8301" lon="5.76215">
        <ele>231</ele>
        <time>2018-10-14T15:30:17Z</time>
      </trkpt>
      <trkpt lat="45.83015" lon="5.7622">
        <ele>231</ele>
        <time>2018-10-14T15:30:17Z</time>
      </trkpt>
      <trkpt lat="45.83019" lon="5.76225">
        <ele>231</ele>
        <time>2018-10-14T15:30:33Z</time>
      </trkpt>
      <trkpt lat="45.83023" lon="5.7623">
        <ele>231</ele>
        <time>2018-10-14T15:30:33Z</time>
      </trkpt>
      <trkpt lat="45.83026" lon="5.76235">
        <ele>231</ele>
        <time>2018-10-14T15:30:33Z</time>
      </trkpt>
      <trkpt lat="45.8303" lon="5.7624">
        <ele>231</ele>
        <time>2018-10-14T15:30:33Z</time>
      </trkpt>
      <trkpt lat="45.83033" lon="5.76245">
        <ele>231</ele>
        <time>2018-10-14T15:30:49Z</time>
      </trkpt>
      <trkpt lat="45.83037" lon="5.7625">
        <ele>231</ele>
        <time>2018-10-14T15:30:49Z</time>
      </trkpt>
      <trkpt lat="45.83042" lon="5.76256">
        <ele>230</ele>
        <time>2018-10-14T15:30:49Z</time>
      </trkpt>
      <trkpt lat="45.83045" lon="5.76263">
        <ele>230</ele>
        <time>2018-10-14T15:30:49Z</time>
      </trkpt>
      <trkpt lat="45.83049" lon="5.76269">
        <ele>230</ele>
        <time>2018-10-14T15:31:05Z</time>
      </trkpt>
      <trkpt lat="45.83053" lon="5.76275">
        <ele>230</ele>
        <time>2018-10-14T15:31:05Z</time>
      </trkpt>
      <trkpt lat="45.83056" lon="5.76281">
        <ele>230</ele>
        <time>2018-10-14T15:31:05Z</time>
      </trkpt>
      <trkpt lat="45.83061" lon="5.76288">
        <ele>230</ele>
        <time>2018-10-14T15:31:05Z</time>
      </trkpt>
      <trkpt lat="45.83067" lon="5.76296">
        <ele>230</ele>
        <time>2018-10-14T15:31:45Z</time>
      </trkpt>
      <trkpt lat="45.83068" lon="5.76298">
        <ele>230</ele>
        <time>2018-10-14T15:31:45Z</time>
      </trkpt>
      <trkpt lat="45.83072" lon="5.76301">
        <ele>230</ele>
        <time>2018-10-14T15:31:45Z</time>
      </trkpt>
      <trkpt lat="45.83076" lon="5.76305">
        <ele>230</ele>
        <time>2018-10-14T15:31:45Z</time>
      </trkpt>
      <trkpt lat="45.8308" lon="5.76311">
        <ele>230</ele>
        <time>2018-10-14T15:31:45Z</time>
      </trkpt>
      <trkpt lat="45.83084" lon="5.76317">
        <ele>230</ele>
        <time>2018-10-14T15:32:01Z</time>
      </trkpt>
      <trkpt lat="45.83087" lon="5.76324">
        <ele>230</ele>
        <time>2018-10-14T15:32:01Z</time>
      </trkpt>
      <trkpt lat="45.83091" lon="5.7633">
        <ele>230</ele>
        <time>2018-10-14T15:32:01Z</time>
      </trkpt>
      <trkpt lat="45.83095" lon="5.76336">
        <ele>230</ele>
        <time>2018-10-14T15:32:01Z</time>
      </trkpt>
      <trkpt lat="45.83099" lon="5.76342">
        <ele>230</ele>
        <time>2018-10-14T15:32:17Z</time>
      </trkpt>
      <trkpt lat="45.83103" lon="5.76348">
        <ele>230</ele>
        <time>2018-10-14T15:32:17Z</time>
      </trkpt>
      <trkpt lat="45.83106" lon="5.76353">
        <ele>230</ele>
        <time>2018-10-14T15:32:17Z</time>
      </trkpt>
      <trkpt lat="45.8311" lon="5.76358">
        <ele>230</ele>
        <time>2018-10-14T15:32:17Z</time>
      </trkpt>
      <trkpt lat="45.83114" lon="5.76365">
        <ele>230</ele>
        <time>2018-10-14T15:32:33Z</time>
      </trkpt>
      <trkpt lat="45.83116" lon="5.76369">
        <ele>230</ele>
        <time>2018-10-14T15:32:33Z</time>
      </trkpt>
      <trkpt lat="45.8312" lon="5.76375">
        <ele>231</ele>
        <time>2018-10-14T15:32:33Z</time>
      </trkpt>
      <trkpt lat="45.83123" lon="5.7638">
        <ele>231</ele>
        <time>2018-10-14T15:32:33Z</time>
      </trkpt>
      <trkpt lat="45.83126" lon="5.76383">
        <ele>231</ele>
        <time>2018-10-14T15:32:49Z</time>
      </trkpt>
      <trkpt lat="45.83127" lon="5.76389">
        <ele>231</ele>
        <time>2018-10-14T15:32:49Z</time>
      </trkpt>
      <trkpt lat="45.83129" lon="5.76396">
        <ele>231</ele>
        <time>2018-10-14T15:32:49Z</time>
      </trkpt>
      <trkpt lat="45.8313" lon="5.76396">
        <ele>231</ele>
        <time>2018-10-14T15:32:49Z</time>
      </trkpt>
      <trkpt lat="45.83131" lon="5.76407">
        <ele>231</ele>
        <time>2018-10-14T15:34:25Z</time>
      </trkpt>
      <trkpt lat="45.8313" lon="5.76408">
        <ele>231</ele>
        <time>2018-10-14T15:34:25Z</time>
      </trkpt>
      <trkpt lat="45.83127" lon="5.76411">
        <ele>231</ele>
        <time>2018-10-14T15:34:25Z</time>
      </trkpt>
      <trkpt lat="45.83126" lon="5.7641">
        <ele>231</ele>
        <time>2018-10-14T15:34:25Z</time>
      </trkpt>
      <trkpt lat="45.83126" lon="5.7641">
        <ele>231</ele>
        <time>2018-10-14T15:34:25Z</time>
      </trkpt>
      <trkpt lat="45.83125" lon="5.76412">
        <ele>231</ele>
        <time>2018-10-14T15:36:13Z</time>
      </trkpt>
      <trkpt lat="45.83124" lon="5.76415">
        <ele>231</ele>
        <time>2018-10-14T15:36:13Z</time>
      </trkpt>
      <trkpt lat="45.83124" lon="5.76416">
        <ele>231</ele>
        <time>2018-10-14T15:36:13Z</time>
      </trkpt>
      <trkpt lat="45.83125" lon="5.76423">
        <ele>231</ele>
        <time>2018-10-14T15:36:13Z</time>
      </trkpt>
      <trkpt lat="45.83126" lon="5.76432">
        <ele>231</ele>
        <time>2018-10-14T15:36:13Z</time>
      </trkpt>
      <trkpt lat="45.83127" lon="5.76441">
        <ele>231</ele>
        <time>2018-10-14T15:36:29Z</time>
      </trkpt>
      <trkpt lat="45.83127" lon="5.7645">
        <ele>231</ele>
        <time>2018-10-14T15:36:29Z</time>
      </trkpt>
      <trkpt lat="45.83126" lon="5.76457">
        <ele>231</ele>
        <time>2018-10-14T15:36:29Z</time>
      </trkpt>
      <trkpt lat="45.83125" lon="5.76465">
        <ele>229</ele>
        <time>2018-10-14T15:36:29Z</time>
      </trkpt>
      <trkpt lat="45.83126" lon="5.76473">
        <ele>229</ele>
        <time>2018-10-14T15:36:45Z</time>
      </trkpt>
      <trkpt lat="45.83126" lon="5.76482">
        <ele>229</ele>
        <time>2018-10-14T15:36:45Z</time>
      </trkpt>
      <trkpt lat="45.83126" lon="5.7649">
        <ele>229</ele>
        <time>2018-10-14T15:36:45Z</time>
      </trkpt>
      <trkpt lat="45.83126" lon="5.76498">
        <ele>229</ele>
        <time>2018-10-14T15:36:45Z</time>
      </trkpt>
      <trkpt lat="45.83126" lon="5.76505">
        <ele>229</ele>
        <time>2018-10-14T15:37:01Z</time>
      </trkpt>
      <trkpt lat="45.83126" lon="5.76513">
        <ele>229</ele>
        <time>2018-10-14T15:37:01Z</time>
      </trkpt>
      <trkpt lat="45.83126" lon="5.76521">
        <ele>229</ele>
        <time>2018-10-14T15:37:01Z</time>
      </trkpt>
      <trkpt lat="45.83126" lon="5.76531">
        <ele>229</ele>
        <time>2018-10-14T15:37:01Z</time>
      </trkpt>
      <trkpt lat="45.83126" lon="5.76539">
        <ele>229</ele>
        <time>2018-10-14T15:37:17Z</time>
      </trkpt>
      <trkpt lat="45.83127" lon="5.76548">
        <ele>230</ele>
        <time>2018-10-14T15:37:17Z</time>
      </trkpt>
      <trkpt lat="45.83126" lon="5.76555">
        <ele>230</ele>
        <time>2018-10-14T15:37:17Z</time>
      </trkpt>
      <trkpt lat="45.83126" lon="5.76564">
        <ele>230</ele>
        <time>2018-10-14T15:37:17Z</time>
      </trkpt>
      <trkpt lat="45.83125" lon="5.76571">
        <ele>230</ele>
        <time>2018-10-14T15:37:33Z</time>
      </trkpt>
      <trkpt lat="45.83126" lon="5.76579">
        <ele>230</ele>
        <time>2018-10-14T15:37:33Z</time>
      </trkpt>
      <trkpt lat="45.83126" lon="5.76587">
        <ele>230</ele>
        <time>2018-10-14T15:37:33Z</time>
      </trkpt>
      <trkpt lat="45.83126" lon="5.76595">
        <ele>230</ele>
        <time>2018-10-14T15:37:33Z</time>
      </trkpt>
      <trkpt lat="45.83125" lon="5.76604">
        <ele>230</ele>
        <time>2018-10-14T15:37:49Z</time>
      </trkpt>
      <trkpt lat="45.83125" lon="5.76613">
        <ele>230</ele>
        <time>2018-10-14T15:37:49Z</time>
      </trkpt>
      <trkpt lat="45.83125" lon="5.7662">
        <ele>230</ele>
        <time>2018-10-14T15:37:49Z</time>
      </trkpt>
      <trkpt lat="45.83125" lon="5.76628">
        <ele>231</ele>
        <time>2018-10-14T15:37:49Z</time>
      </trkpt>
      <trkpt lat="45.83126" lon="5.76637">
        <ele>231</ele>
        <time>2018-10-14T15:38:05Z</time>
      </trkpt>
      <trkpt lat="45.83126" lon="5.76646">
        <ele>231</ele>
        <time>2018-10-14T15:38:05Z</time>
      </trkpt>
      <trkpt lat="45.83126" lon="5.76653">
        <ele>231</ele>
        <time>2018-10-14T15:38:05Z</time>
      </trkpt>
      <trkpt lat="45.83126" lon="5.76662">
        <ele>231</ele>
        <time>2018-10-14T15:38:05Z</time>
      </trkpt>
      <trkpt lat="45.83126" lon="5.7667">
        <ele>231</ele>
        <time>2018-10-14T15:38:21Z</time>
      </trkpt>
      <trkpt lat="45.83126" lon="5.76679">
        <ele>231</ele>
        <time>2018-10-14T15:38:21Z</time>
      </trkpt>
      <trkpt lat="45.83126" lon="5.76688">
        <ele>231</ele>
        <time>2018-10-14T15:38:21Z</time>
      </trkpt>
      <trkpt lat="45.83126" lon="5.76696">
        <ele>231</ele>
        <time>2018-10-14T15:38:21Z</time>
      </trkpt>
      <trkpt lat="45.83126" lon="5.76704">
        <ele>231</ele>
        <time>2018-10-14T15:38:37Z</time>
      </trkpt>
      <trkpt lat="45.83126" lon="5.76713">
        <ele>231</ele>
        <time>2018-10-14T15:38:37Z</time>
      </trkpt>
      <trkpt lat="45.83126" lon="5.76722">
        <ele>231</ele>
        <time>2018-10-14T15:38:37Z</time>
      </trkpt>
      <trkpt lat="45.83125" lon="5.76731">
        <ele>231</ele>
        <time>2018-10-14T15:38:37Z</time>
      </trkpt>
      <trkpt lat="45.83125" lon="5.76739">
        <ele>230</ele>
        <time>2018-10-14T15:38:53Z</time>
      </trkpt>
      <trkpt lat="45.83124" lon="5.76747">
        <ele>230</ele>
        <time>2018-10-14T15:38:53Z</time>
      </trkpt>
      <trkpt lat="45.83124" lon="5.76755">
        <ele>230</ele>
        <time>2018-10-14T15:38:53Z</time>
      </trkpt>
      <trkpt lat="45.83123" lon="5.76763">
        <ele>230</ele>
        <time>2018-10-14T15:38:53Z</time>
      </trkpt>
      <trkpt lat="45.83123" lon="5.7677">
        <ele>230</ele>
        <time>2018-10-14T15:39:09Z</time>
      </trkpt>
      <trkpt lat="45.83123" lon="5.76779">
        <ele>230</ele>
        <time>2018-10-14T15:39:09Z</time>
      </trkpt>
      <trkpt lat="45.83123" lon="5.76787">
        <ele>230</ele>
        <time>2018-10-14T15:39:09Z</time>
      </trkpt>
      <trkpt lat="45.83124" lon="5.76795">
        <ele>230</ele>
        <time>2018-10-14T15:39:09Z</time>
      </trkpt>
      <trkpt lat="45.83124" lon="5.76803">
        <ele>230</ele>
        <time>2018-10-14T15:39:25Z</time>
      </trkpt>
      <trkpt lat="45.83125" lon="5.76813">
        <ele>230</ele>
        <time>2018-10-14T15:39:25Z</time>
      </trkpt>
      <trkpt lat="45.83125" lon="5.76821">
        <ele>230</ele>
        <time>2018-10-14T15:39:25Z</time>
      </trkpt>
      <trkpt lat="45.83125" lon="5.76829">
        <ele>230</ele>
        <time>2018-10-14T15:39:25Z</time>
      </trkpt>
      <trkpt lat="45.83124" lon="5.76838">
        <ele>230</ele>
        <time>2018-10-14T15:39:41Z</time>
      </trkpt>
      <trkpt lat="45.83123" lon="5.76846">
        <ele>230</ele>
        <time>2018-10-14T15:39:41Z</time>
      </trkpt>
      <trkpt lat="45.83123" lon="5.76855">
        <ele>230</ele>
        <time>2018-10-14T15:39:41Z</time>
      </trkpt>
      <trkpt lat="45.83123" lon="5.76864">
        <ele>230</ele>
        <time>2018-10-14T15:39:41Z</time>
      </trkpt>
      <trkpt lat="45.83123" lon="5.76873">
        <ele>230</ele>
        <time>2018-10-14T15:39:57Z</time>
      </trkpt>
      <trkpt lat="45.83123" lon="5.76882">
        <ele>230</ele>
        <time>2018-10-14T15:39:57Z</time>
      </trkpt>
      <trkpt lat="45.83123" lon="5.76891">
        <ele>230</ele>
        <time>2018-10-14T15:39:57Z</time>
      </trkpt>
      <trkpt lat="45.83123" lon="5.76901">
        <ele>230</ele>
        <time>2018-10-14T15:39:57Z</time>
      </trkpt>
      <trkpt lat="45.83123" lon="5.7691">
        <ele>230</ele>
        <time>2018-10-14T15:40:13Z</time>
      </trkpt>
      <trkpt lat="45.83126" lon="5.76918">
        <ele>230</ele>
        <time>2018-10-14T15:40:13Z</time>
      </trkpt>
      <trkpt lat="45.83131" lon="5.76921">
        <ele>230</ele>
        <time>2018-10-14T15:40:13Z</time>
      </trkpt>
      <trkpt lat="45.83137" lon="5.76921">
        <ele>230</ele>
        <time>2018-10-14T15:40:13Z</time>
      </trkpt>
      <trkpt lat="45.83147" lon="5.7692">
        <ele>230</ele>
        <time>2018-10-14T15:40:29Z</time>
      </trkpt>
      <trkpt lat="45.83168" lon="5.76923">
        <ele>230</ele>
        <time>2018-10-14T15:40:29Z</time>
      </trkpt>
      <trkpt lat="45.83188" lon="5.76927">
        <ele>230</ele>
        <time>2018-10-14T15:40:29Z</time>
      </trkpt>
      <trkpt lat="45.8321" lon="5.7693">
        <ele>231</ele>
        <time>2018-10-14T15:40:29Z</time>
      </trkpt>
      <trkpt lat="45.83233" lon="5.76934">
        <ele>231</ele>
        <time>2018-10-14T15:40:45Z</time>
      </trkpt>
      <trkpt lat="45.83255" lon="5.76937">
        <ele>231</ele>
        <time>2018-10-14T15:40:45Z</time>
      </trkpt>
      <trkpt lat="45.83279" lon="5.76942">
        <ele>231</ele>
        <time>2018-10-14T15:40:45Z</time>
      </trkpt>
      <trkpt lat="45.83302" lon="5.76947">
        <ele>230</ele>
        <time>2018-10-14T15:40:45Z</time>
      </trkpt>
      <trkpt lat="45.83325" lon="5.7695">
        <ele>230</ele>
        <time>2018-10-14T15:41:01Z</time>
      </trkpt>
      <trkpt lat="45.83348" lon="5.76953">
        <ele>230</ele>
        <time>2018-10-14T15:41:01Z</time>
      </trkpt>
      <trkpt lat="45.83371" lon="5.76957">
        <ele>230</ele>
        <time>2018-10-14T15:41:01Z</time>
      </trkpt>
      <trkpt lat="45.83393" lon="5.76962">
        <ele>229</ele>
        <time>2018-10-14T15:41:01Z</time>
      </trkpt>
      <trkpt lat="45.83416" lon="5.76965">
        <ele>229</ele>
        <time>2018-10-14T15:41:17Z</time>
      </trkpt>
      <trkpt lat="45.83439" lon="5.7697">
        <ele>229</ele>
        <time>2018-10-14T15:41:17Z</time>
      </trkpt>
      <trkpt lat="45.83461" lon="5.76974">
        <ele>230</ele>
        <time>2018-10-14T15:41:17Z</time>
      </trkpt>
      <trkpt lat="45.83481" lon="5.76979">
        <ele>230</ele>
        <time>2018-10-14T15:41:17Z</time>
      </trkpt>
      <trkpt lat="45.83503" lon="5.76984">
        <ele>230</ele>
        <time>2018-10-14T15:41:33Z</time>
      </trkpt>
      <trkpt lat="45.83525" lon="5.76988">
        <ele>230</ele>
        <time>2018-10-14T15:41:33Z</time>
      </trkpt>
      <trkpt lat="45.83546" lon="5.76993">
        <ele>230</ele>
        <time>2018-10-14T15:41:33Z</time>
      </trkpt>
      <trkpt lat="45.83569" lon="5.76997">
        <ele>230</ele>
        <time>2018-10-14T15:41:33Z</time>
      </trkpt>
      <trkpt lat="45.83623" lon="5.77008">
        <ele>230</ele>
        <time>2018-10-14T15:42:05Z</time>
      </trkpt>
      <trkpt lat="45.83625" lon="5.77008">
        <ele>230</ele>
        <time>2018-10-14T15:42:05Z</time>
      </trkpt>
      <trkpt lat="45.83644" lon="5.77012">
        <ele>230</ele>
        <time>2018-10-14T15:42:05Z</time>
      </trkpt>
      <trkpt lat="45.83666" lon="5.77016">
        <ele>230</ele>
        <time>2018-10-14T15:42:05Z</time>
      </trkpt>
      <trkpt lat="45.83687" lon="5.7702">
        <ele>230</ele>
        <time>2018-10-14T15:42:05Z</time>
      </trkpt>
      <trkpt lat="45.83708" lon="5.77024">
        <ele>230</ele>
        <time>2018-10-14T15:42:21Z</time>
      </trkpt>
      <trkpt lat="45.83731" lon="5.77029">
        <ele>230</ele>
        <time>2018-10-14T15:42:21Z</time>
      </trkpt>
      <trkpt lat="45.83752" lon="5.77033">
        <ele>230</ele>
        <time>2018-10-14T15:42:21Z</time>
      </trkpt>
      <trkpt lat="45.83775" lon="5.77038">
        <ele>230</ele>
        <time>2018-10-14T15:42:21Z</time>
      </trkpt>
      <trkpt lat="45.83797" lon="5.77042">
        <ele>230</ele>
        <time>2018-10-14T15:42:37Z</time>
      </trkpt>
      <trkpt lat="45.83818" lon="5.77046">
        <ele>230</ele>
        <time>2018-10-14T15:42:37Z</time>
      </trkpt>
      <trkpt lat="45.83841" lon="5.7705">
        <ele>230</ele>
        <time>2018-10-14T15:42:37Z</time>
      </trkpt>
      <trkpt lat="45.83858" lon="5.77062">
        <ele>230</ele>
        <time>2018-10-14T15:42:37Z</time>
      </trkpt>
      <trkpt lat="45.83873" lon="5.77077">
        <ele>230</ele>
        <time>2018-10-14T15:42:53Z</time>
      </trkpt>
      <trkpt lat="45.83889" lon="5.77093">
        <ele>230</ele>
        <time>2018-10-14T15:42:53Z</time>
      </trkpt>
      <trkpt lat="45.83902" lon="5.77107">
        <ele>230</ele>
        <time>2018-10-14T15:42:53Z</time>
      </trkpt>
      <trkpt lat="45.83902" lon="5.77109">
        <ele>230</ele>
        <time>2018-10-14T15:42:53Z</time>
      </trkpt>
      <trkpt lat="45.83902" lon="5.77109">
        <ele>230</ele>
        <time>2018-10-14T15:43:09Z</time>
      </trkpt>
      <trkpt lat="45.83902" lon="5.77109">
        <ele>230</ele>
        <time>2018-10-14T15:43:09Z</time>
      </trkpt>
      <trkpt lat="45.83906" lon="5.77115">
        <ele>230</ele>
        <time>2018-10-14T15:43:09Z</time>
      </trkpt>
      <trkpt lat="45.8391" lon="5.7712">
        <ele>230</ele>
        <time>2018-10-14T15:43:09Z</time>
      </trkpt>
      <trkpt lat="45.83914" lon="5.77125">
        <ele>230</ele>
        <time>2018-10-14T15:43:25Z</time>
      </trkpt>
      <trkpt lat="45.83919" lon="5.77129">
        <ele>231</ele>
        <time>2018-10-14T15:43:25Z</time>
      </trkpt>
      <trkpt lat="45.83924" lon="5.77133">
        <ele>231</ele>
        <time>2018-10-14T15:43:25Z</time>
      </trkpt>
      <trkpt lat="45.83928" lon="5.77137">
        <ele>231</ele>
        <time>2018-10-14T15:43:25Z</time>
      </trkpt>
      <trkpt lat="45.83932" lon="5.77142">
        <ele>231</ele>
        <time>2018-10-14T15:43:41Z</time>
      </trkpt>
      <trkpt lat="45.83936" lon="5.77148">
        <ele>231</ele>
        <time>2018-10-14T15:43:41Z</time>
      </trkpt>
      <trkpt lat="45.8394" lon="5.77155">
        <ele>231</ele>
        <time>2018-10-14T15:43:41Z</time>
      </trkpt>
      <trkpt lat="45.83947" lon="5.77163">
        <ele>231</ele>
        <time>2018-10-14T15:43:41Z</time>
      </trkpt>
      <trkpt lat="45.83955" lon="5.7717">
        <ele>231</ele>
        <time>2018-10-14T15:43:57Z</time>
      </trkpt>
      <trkpt lat="45.83959" lon="5.77175">
        <ele>230</ele>
        <time>2018-10-14T15:43:57Z</time>
      </trkpt>
      <trkpt lat="45.83962" lon="5.77179">
        <ele>230</ele>
        <time>2018-10-14T15:43:57Z</time>
      </trkpt>
      <trkpt lat="45.83966" lon="5.77184">
        <ele>230</ele>
        <time>2018-10-14T15:43:57Z</time>
      </trkpt>
      <trkpt lat="45.83971" lon="5.77189">
        <ele>230</ele>
        <time>2018-10-14T15:44:13Z</time>
      </trkpt>
      <trkpt lat="45.83975" lon="5.77195">
        <ele>230</ele>
        <time>2018-10-14T15:44:13Z</time>
      </trkpt>
      <trkpt lat="45.8398" lon="5.772">
        <ele>230</ele>
        <time>2018-10-14T15:44:13Z</time>
      </trkpt>
      <trkpt lat="45.83983" lon="5.77207">
        <ele>230</ele>
        <time>2018-10-14T15:44:13Z</time>
      </trkpt>
      <trkpt lat="45.83986" lon="5.77214">
        <ele>230</ele>
        <time>2018-10-14T15:44:29Z</time>
      </trkpt>
      <trkpt lat="45.83988" lon="5.77223">
        <ele>230</ele>
        <time>2018-10-14T15:44:29Z</time>
      </trkpt>
      <trkpt lat="45.83986" lon="5.77246">
        <ele>230</ele>
        <time>2018-10-14T15:44:29Z</time>
      </trkpt>
      <trkpt lat="45.83981" lon="5.77273">
        <ele>230</ele>
        <time>2018-10-14T15:44:29Z</time>
      </trkpt>
      <trkpt lat="45.83975" lon="5.77304">
        <ele>230</ele>
        <time>2018-10-14T15:44:45Z</time>
      </trkpt>
      <trkpt lat="45.83969" lon="5.77337">
        <ele>230</ele>
        <time>2018-10-14T15:44:45Z</time>
      </trkpt>
      <trkpt lat="45.8396" lon="5.7737">
        <ele>230</ele>
        <time>2018-10-14T15:44:45Z</time>
      </trkpt>
      <trkpt lat="45.83952" lon="5.77403">
        <ele>230</ele>
        <time>2018-10-14T15:44:45Z</time>
      </trkpt>
      <trkpt lat="45.83944" lon="5.77438">
        <ele>230</ele>
        <time>2018-10-14T15:45:01Z</time>
      </trkpt>
      <trkpt lat="45.83938" lon="5.77473">
        <ele>231</ele>
        <time>2018-10-14T15:45:01Z</time>
      </trkpt>
      <trkpt lat="45.8393" lon="5.77509">
        <ele>231</ele>
        <time>2018-10-14T15:45:01Z</time>
      </trkpt>
      <trkpt lat="45.83923" lon="5.77544">
        <ele>231</ele>
        <time>2018-10-14T15:45:01Z</time>
      </trkpt>
      <trkpt lat="45.83915" lon="5.77581">
        <ele>231</ele>
        <time>2018-10-14T15:45:17Z</time>
      </trkpt>
      <trkpt lat="45.83907" lon="5.77619">
        <ele>231</ele>
        <time>2018-10-14T15:45:17Z</time>
      </trkpt>
      <trkpt lat="45.839" lon="5.77657">
        <ele>232</ele>
        <time>2018-10-14T15:45:17Z</time>
      </trkpt>
      <trkpt lat="45.83892" lon="5.77695">
        <ele>232</ele>
        <time>2018-10-14T15:45:17Z</time>
      </trkpt>
      <trkpt lat="45.83885" lon="5.77732">
        <ele>233</ele>
        <time>2018-10-14T15:45:33Z</time>
      </trkpt>
      <trkpt lat="45.83878" lon="5.77765">
        <ele>233</ele>
        <time>2018-10-14T15:45:33Z</time>
      </trkpt>
      <trkpt lat="45.83873" lon="5.7779">
        <ele>232</ele>
        <time>2018-10-14T15:45:33Z</time>
      </trkpt>
      <trkpt lat="45.8387" lon="5.77804">
        <ele>235</ele>
        <time>2018-10-14T15:45:33Z</time>
      </trkpt>
      <trkpt lat="45.83868" lon="5.77812">
        <ele>235</ele>
        <time>2018-10-14T15:45:49Z</time>
      </trkpt>
      <trkpt lat="45.83866" lon="5.7782">
        <ele>235</ele>
        <time>2018-10-14T15:45:49Z</time>
      </trkpt>
      <trkpt lat="45.83866" lon="5.77828">
        <ele>235</ele>
        <time>2018-10-14T15:45:49Z</time>
      </trkpt>
      <trkpt lat="45.83866" lon="5.77835">
        <ele>235</ele>
        <time>2018-10-14T15:45:49Z</time>
      </trkpt>
      <trkpt lat="45.83868" lon="5.77842">
        <ele>235</ele>
        <time>2018-10-14T15:46:05Z</time>
      </trkpt>
      <trkpt lat="45.83872" lon="5.77849">
        <ele>235</ele>
        <time>2018-10-14T15:46:05Z</time>
      </trkpt>
      <trkpt lat="45.83873" lon="5.77852">
        <ele>235</ele>
        <time>2018-10-14T15:46:05Z</time>
      </trkpt>
      <trkpt lat="45.83877" lon="5.77854">
        <ele>233</ele>
        <time>2018-10-14T15:46:05Z</time>
      </trkpt>
      <trkpt lat="45.83882" lon="5.77854">
        <ele>233</ele>
        <time>2018-10-14T15:46:21Z</time>
      </trkpt>
      <trkpt lat="45.83891" lon="5.77854">
        <ele>233</ele>
        <time>2018-10-14T15:46:21Z</time>
      </trkpt>
      <trkpt lat="45.83897" lon="5.77863">
        <ele>233</ele>
        <time>2018-10-14T15:46:21Z</time>
      </trkpt>
      <trkpt lat="45.839" lon="5.77871">
        <ele>233</ele>
        <time>2018-10-14T15:46:21Z</time>
      </trkpt>
      <trkpt lat="45.83901" lon="5.77881">
        <ele>234</ele>
        <time>2018-10-14T15:46:37Z</time>
      </trkpt>
      <trkpt lat="45.839" lon="5.7789">
        <ele>234</ele>
        <time>2018-10-14T15:46:37Z</time>
      </trkpt>
      <trkpt lat="45.83899" lon="5.77899">
        <ele>234</ele>
        <time>2018-10-14T15:46:37Z</time>
      </trkpt>
      <trkpt lat="45.83897" lon="5.7791">
        <ele>234</ele>
        <time>2018-10-14T15:46:37Z</time>
      </trkpt>
      <trkpt lat="45.83895" lon="5.77917">
        <ele>234</ele>
        <time>2018-10-14T15:46:53Z</time>
      </trkpt>
      <trkpt lat="45.83894" lon="5.77926">
        <ele>234</ele>
        <time>2018-10-14T15:46:53Z</time>
      </trkpt>
      <trkpt lat="45.83893" lon="5.77936">
        <ele>234</ele>
        <time>2018-10-14T15:46:53Z</time>
      </trkpt>
      <trkpt lat="45.83892" lon="5.77945">
        <ele>234</ele>
        <time>2018-10-14T15:46:53Z</time>
      </trkpt>
      <trkpt lat="45.8389" lon="5.77952">
        <ele>234</ele>
        <time>2018-10-14T15:47:09Z</time>
      </trkpt>
      <trkpt lat="45.83887" lon="5.7796">
        <ele>233</ele>
        <time>2018-10-14T15:47:09Z</time>
      </trkpt>
      <trkpt lat="45.83885" lon="5.77968">
        <ele>233</ele>
        <time>2018-10-14T15:47:09Z</time>
      </trkpt>
      <trkpt lat="45.83883" lon="5.77977">
        <ele>233</ele>
        <time>2018-10-14T15:47:09Z</time>
      </trkpt>
      <trkpt lat="45.83882" lon="5.77983">
        <ele>233</ele>
        <time>2018-10-14T15:47:25Z</time>
      </trkpt>
      <trkpt lat="45.83882" lon="5.77988">
        <ele>233</ele>
        <time>2018-10-14T15:47:25Z</time>
      </trkpt>
      <trkpt lat="45.83881" lon="5.77995">
        <ele>233</ele>
        <time>2018-10-14T15:47:25Z</time>
      </trkpt>
      <trkpt lat="45.8388" lon="5.78002">
        <ele>233</ele>
        <time>2018-10-14T15:47:25Z</time>
      </trkpt>
      <trkpt lat="45.83879" lon="5.7801">
        <ele>233</ele>
        <time>2018-10-14T15:47:41Z</time>
      </trkpt>
      <trkpt lat="45.83878" lon="5.78018">
        <ele>233</ele>
        <time>2018-10-14T15:47:41Z</time>
      </trkpt>
      <trkpt lat="45.83877" lon="5.78027">
        <ele>233</ele>
        <time>2018-10-14T15:47:41Z</time>
      </trkpt>
      <trkpt lat="45.83877" lon="5.78035">
        <ele>233</ele>
        <time>2018-10-14T15:47:41Z</time>
      </trkpt>
      <trkpt lat="45.83877" lon="5.78043">
        <ele>234</ele>
        <time>2018-10-14T15:47:57Z</time>
      </trkpt>
      <trkpt lat="45.83877" lon="5.78051">
        <ele>234</ele>
        <time>2018-10-14T15:47:57Z</time>
      </trkpt>
      <trkpt lat="45.83878" lon="5.78061">
        <ele>234</ele>
        <time>2018-10-14T15:47:57Z</time>
      </trkpt>
      <trkpt lat="45.8388" lon="5.78066">
        <ele>234</ele>
        <time>2018-10-14T15:47:57Z</time>
      </trkpt>
      <trkpt lat="45.83879" lon="5.78066">
        <ele>234</ele>
        <time>2018-10-14T15:48:21Z</time>
      </trkpt>
      <trkpt lat="45.83879" lon="5.78066">
        <ele>234</ele>
        <time>2018-10-14T15:48:21Z</time>
      </trkpt>
      <trkpt lat="45.83879" lon="5.78067">
        <ele>234</ele>
        <time>2018-10-14T15:48:21Z</time>
      </trkpt>
      <trkpt lat="45.83882" lon="5.78074">
        <ele>234</ele>
        <time>2018-10-14T15:48:21Z</time>
      </trkpt>
      <trkpt lat="45.83885" lon="5.7808">
        <ele>234</ele>
        <time>2018-10-14T15:48:21Z</time>
      </trkpt>
      <trkpt lat="45.83888" lon="5.78085">
        <ele>234</ele>
        <time>2018-10-14T15:48:37Z</time>
      </trkpt>
      <trkpt lat="45.83891" lon="5.78089">
        <ele>234</ele>
        <time>2018-10-14T15:48:37Z</time>
      </trkpt>
      <trkpt lat="45.83895" lon="5.78094">
        <ele>234</ele>
        <time>2018-10-14T15:48:37Z</time>
      </trkpt>
      <trkpt lat="45.839" lon="5.78098">
        <ele>234</ele>
        <time>2018-10-14T15:48:37Z</time>
      </trkpt>
      <trkpt lat="45.83906" lon="5.781">
        <ele>234</ele>
        <time>2018-10-14T15:48:53Z</time>
      </trkpt>
      <trkpt lat="45.8391" lon="5.78103">
        <ele>234</ele>
        <time>2018-10-14T15:48:53Z</time>
      </trkpt>
      <trkpt lat="45.83916" lon="5.78106">
        <ele>234</ele>
        <time>2018-10-14T15:48:53Z</time>
      </trkpt>
      <trkpt lat="45.8392" lon="5.78108">
        <ele>234</ele>
        <time>2018-10-14T15:48:53Z</time>
      </trkpt>
      <trkpt lat="45.83925" lon="5.7811">
        <ele>234</ele>
        <time>2018-10-14T15:49:09Z</time>
      </trkpt>
      <trkpt lat="45.83931" lon="5.78111">
        <ele>234</ele>
        <time>2018-10-14T15:49:09Z</time>
      </trkpt>
      <trkpt lat="45.83935" lon="5.78112">
        <ele>234</ele>
        <time>2018-10-14T15:49:09Z</time>
      </trkpt>
      <trkpt lat="45.83941" lon="5.78111">
        <ele>234</ele>
        <time>2018-10-14T15:49:09Z</time>
      </trkpt>
      <trkpt lat="45.83948" lon="5.7811">
        <ele>234</ele>
        <time>2018-10-14T15:49:25Z</time>
      </trkpt>
      <trkpt lat="45.83955" lon="5.78109">
        <ele>234</ele>
        <time>2018-10-14T15:49:25Z</time>
      </trkpt>
      <trkpt lat="45.83961" lon="5.78108">
        <ele>235</ele>
        <time>2018-10-14T15:49:25Z</time>
      </trkpt>
      <trkpt lat="45.83967" lon="5.78107">
        <ele>235</ele>
        <time>2018-10-14T15:49:25Z</time>
      </trkpt>
      <trkpt lat="45.83973" lon="5.78107">
        <ele>235</ele>
        <time>2018-10-14T15:49:41Z</time>
      </trkpt>
      <trkpt lat="45.83979" lon="5.78107">
        <ele>235</ele>
        <time>2018-10-14T15:49:41Z</time>
      </trkpt>
      <trkpt lat="45.83984" lon="5.78108">
        <ele>235</ele>
        <time>2018-10-14T15:49:41Z</time>
      </trkpt>
      <trkpt lat="45.83989" lon="5.78108">
        <ele>235</ele>
        <time>2018-10-14T15:49:41Z</time>
      </trkpt>
      <trkpt lat="45.83994" lon="5.78108">
        <ele>235</ele>
        <time>2018-10-14T15:49:57Z</time>
      </trkpt>
      <trkpt lat="45.84" lon="5.78106">
        <ele>235</ele>
        <time>2018-10-14T15:49:57Z</time>
      </trkpt>
      <trkpt lat="45.84007" lon="5.78105">
        <ele>235</ele>
        <time>2018-10-14T15:49:57Z</time>
      </trkpt>
      <trkpt lat="45.84012" lon="5.78105">
        <ele>235</ele>
        <time>2018-10-14T15:49:57Z</time>
      </trkpt>
      <trkpt lat="45.84018" lon="5.78102">
        <ele>235</ele>
        <time>2018-10-14T15:50:13Z</time>
      </trkpt>
      <trkpt lat="45.84023" lon="5.78099">
        <ele>235</ele>
        <time>2018-10-14T15:50:13Z</time>
      </trkpt>
      <trkpt lat="45.84029" lon="5.78098">
        <ele>235</ele>
        <time>2018-10-14T15:50:13Z</time>
      </trkpt>
      <trkpt lat="45.84035" lon="5.78097">
        <ele>235</ele>
        <time>2018-10-14T15:50:13Z</time>
      </trkpt>
      <trkpt lat="45.84041" lon="5.78096">
        <ele>235</ele>
        <time>2018-10-14T15:50:29Z</time>
      </trkpt>
      <trkpt lat="45.84046" lon="5.78096">
        <ele>237</ele>
        <time>2018-10-14T15:50:29Z</time>
      </trkpt>
      <trkpt lat="45.84052" lon="5.78094">
        <ele>237</ele>
        <time>2018-10-14T15:50:29Z</time>
      </trkpt>
      <trkpt lat="45.84056" lon="5.78094">
        <ele>237</ele>
        <time>2018-10-14T15:50:29Z</time>
      </trkpt>
      <trkpt lat="45.84061" lon="5.78094">
        <ele>237</ele>
        <time>2018-10-14T15:50:45Z</time>
      </trkpt>
      <trkpt lat="45.84068" lon="5.78094">
        <ele>237</ele>
        <time>2018-10-14T15:50:45Z</time>
      </trkpt>
      <trkpt lat="45.84074" lon="5.78093">
        <ele>237</ele>
        <time>2018-10-14T15:50:45Z</time>
      </trkpt>
      <trkpt lat="45.84079" lon="5.78095">
        <ele>237</ele>
        <time>2018-10-14T15:50:45Z</time>
      </trkpt>
      <trkpt lat="45.84085" lon="5.78098">
        <ele>237</ele>
        <time>2018-10-14T15:51:01Z</time>
      </trkpt>
      <trkpt lat="45.84091" lon="5.78101">
        <ele>237</ele>
        <time>2018-10-14T15:51:01Z</time>
      </trkpt>
      <trkpt lat="45.84095" lon="5.78105">
        <ele>237</ele>
        <time>2018-10-14T15:51:01Z</time>
      </trkpt>
      <trkpt lat="45.84098" lon="5.78112">
        <ele>237</ele>
        <time>2018-10-14T15:51:01Z</time>
      </trkpt>
      <trkpt lat="45.84098" lon="5.78121">
        <ele>237</ele>
        <time>2018-10-14T15:51:17Z</time>
      </trkpt>
      <trkpt lat="45.84096" lon="5.78129">
        <ele>236</ele>
        <time>2018-10-14T15:51:17Z</time>
      </trkpt>
      <trkpt lat="45.84094" lon="5.78137">
        <ele>236</ele>
        <time>2018-10-14T15:51:17Z</time>
      </trkpt>
      <trkpt lat="45.84093" lon="5.78146">
        <ele>236</ele>
        <time>2018-10-14T15:51:17Z</time>
      </trkpt>
      <trkpt lat="45.84092" lon="5.78152">
        <ele>236</ele>
        <time>2018-10-14T15:51:33Z</time>
      </trkpt>
      <trkpt lat="45.84089" lon="5.78159">
        <ele>236</ele>
        <time>2018-10-14T15:51:33Z</time>
      </trkpt>
      <trkpt lat="45.84088" lon="5.78167">
        <ele>236</ele>
        <time>2018-10-14T15:51:33Z</time>
      </trkpt>
      <trkpt lat="45.84085" lon="5.78175">
        <ele>236</ele>
        <time>2018-10-14T15:51:33Z</time>
      </trkpt>
      <trkpt lat="45.84083" lon="5.78184">
        <ele>236</ele>
        <time>2018-10-14T15:51:49Z</time>
      </trkpt>
      <trkpt lat="45.8408" lon="5.78194">
        <ele>236</ele>
        <time>2018-10-14T15:51:49Z</time>
      </trkpt>
      <trkpt lat="45.84078" lon="5.78203">
        <ele>236</ele>
        <time>2018-10-14T15:51:49Z</time>
      </trkpt>
      <trkpt lat="45.84078" lon="5.78211">
        <ele>236</ele>
        <time>2018-10-14T15:51:49Z</time>
      </trkpt>
      <trkpt lat="45.84077" lon="5.78217">
        <ele>236</ele>
        <time>2018-10-14T15:52:05Z</time>
      </trkpt>
      <trkpt lat="45.84076" lon="5.78223">
        <ele>236</ele>
        <time>2018-10-14T15:52:05Z</time>
      </trkpt>
      <trkpt lat="45.84076" lon="5.7823">
        <ele>236</ele>
        <time>2018-10-14T15:52:05Z</time>
      </trkpt>
      <trkpt lat="45.84077" lon="5.78238">
        <ele>236</ele>
        <time>2018-10-14T15:52:05Z</time>
      </trkpt>
      <trkpt lat="45.84077" lon="5.78245">
        <ele>236</ele>
        <time>2018-10-14T15:52:21Z</time>
      </trkpt>
      <trkpt lat="45.84075" lon="5.78254">
        <ele>236</ele>
        <time>2018-10-14T15:52:21Z</time>
      </trkpt>
      <trkpt lat="45.84072" lon="5.78263">
        <ele>236</ele>
        <time>2018-10-14T15:52:21Z</time>
      </trkpt>
      <trkpt lat="45.84071" lon="5.78272">
        <ele>236</ele>
        <time>2018-10-14T15:52:21Z</time>
      </trkpt>
      <trkpt lat="45.84071" lon="5.78278">
        <ele>236</ele>
        <time>2018-10-14T15:52:37Z</time>
      </trkpt>
      <trkpt lat="45.84071" lon="5.78286">
        <ele>236</ele>
        <time>2018-10-14T15:52:37Z</time>
      </trkpt>
      <trkpt lat="45.84071" lon="5.78295">
        <ele>236</ele>
        <time>2018-10-14T15:52:37Z</time>
      </trkpt>
      <trkpt lat="45.84069" lon="5.78302">
        <ele>236</ele>
        <time>2018-10-14T15:52:37Z</time>
      </trkpt>
      <trkpt lat="45.84068" lon="5.7831">
        <ele>236</ele>
        <time>2018-10-14T15:52:53Z</time>
      </trkpt>
      <trkpt lat="45.84066" lon="5.7832">
        <ele>236</ele>
        <time>2018-10-14T15:52:53Z</time>
      </trkpt>
      <trkpt lat="45.84065" lon="5.7833">
        <ele>236</ele>
        <time>2018-10-14T15:52:53Z</time>
      </trkpt>
      <trkpt lat="45.84063" lon="5.7834">
        <ele>236</ele>
        <time>2018-10-14T15:52:53Z</time>
      </trkpt>
      <trkpt lat="45.84063" lon="5.78347">
        <ele>236</ele>
        <time>2018-10-14T15:53:09Z</time>
      </trkpt>
      <trkpt lat="45.84063" lon="5.78356">
        <ele>236</ele>
        <time>2018-10-14T15:53:09Z</time>
      </trkpt>
      <trkpt lat="45.84066" lon="5.78365">
        <ele>236</ele>
        <time>2018-10-14T15:53:09Z</time>
      </trkpt>
      <trkpt lat="45.84067" lon="5.78367">
        <ele>236</ele>
        <time>2018-10-14T15:53:09Z</time>
      </trkpt>
      <trkpt lat="45.84072" lon="5.78374">
        <ele>236</ele>
        <time>2018-10-14T15:53:25Z</time>
      </trkpt>
      <trkpt lat="45.8408" lon="5.78384">
        <ele>236</ele>
        <time>2018-10-14T15:53:25Z</time>
      </trkpt>
      <trkpt lat="45.84085" lon="5.7839">
        <ele>236</ele>
        <time>2018-10-14T15:53:25Z</time>
      </trkpt>
      <trkpt lat="45.84088" lon="5.78391">
        <ele>236</ele>
        <time>2018-10-14T15:53:25Z</time>
      </trkpt>
      <trkpt lat="45.84089" lon="5.78396">
        <ele>236</ele>
        <time>2018-10-14T15:53:41Z</time>
      </trkpt>
      <trkpt lat="45.84091" lon="5.784">
        <ele>236</ele>
        <time>2018-10-14T15:53:41Z</time>
      </trkpt>
      <trkpt lat="45.84095" lon="5.78405">
        <ele>236</ele>
        <time>2018-10-14T15:53:41Z</time>
      </trkpt>
      <trkpt lat="45.84098" lon="5.7841">
        <ele>236</ele>
        <time>2018-10-14T15:53:41Z</time>
      </trkpt>
      <trkpt lat="45.84101" lon="5.78416">
        <ele>236</ele>
        <time>2018-10-14T15:53:57Z</time>
      </trkpt>
      <trkpt lat="45.84104" lon="5.7842">
        <ele>236</ele>
        <time>2018-10-14T15:53:57Z</time>
      </trkpt>
      <trkpt lat="45.84107" lon="5.78422">
        <ele>236</ele>
        <time>2018-10-14T15:53:57Z</time>
      </trkpt>
      <trkpt lat="45.8411" lon="5.78422">
        <ele>236</ele>
        <time>2018-10-14T15:53:57Z</time>
      </trkpt>
      <trkpt lat="45.84114" lon="5.78423">
        <ele>236</ele>
        <time>2018-10-14T15:54:13Z</time>
      </trkpt>
      <trkpt lat="45.84118" lon="5.78426">
        <ele>236</ele>
        <time>2018-10-14T15:54:13Z</time>
      </trkpt>
      <trkpt lat="45.84122" lon="5.78426">
        <ele>236</ele>
        <time>2018-10-14T15:54:13Z</time>
      </trkpt>
      <trkpt lat="45.84128" lon="5.78428">
        <ele>236</ele>
        <time>2018-10-14T15:54:13Z</time>
      </trkpt>
      <trkpt lat="45.84132" lon="5.7843">
        <ele>236</ele>
        <time>2018-10-14T15:54:29Z</time>
      </trkpt>
      <trkpt lat="45.84137" lon="5.78432">
        <ele>236</ele>
        <time>2018-10-14T15:54:29Z</time>
      </trkpt>
      <trkpt lat="45.84142" lon="5.78435">
        <ele>236</ele>
        <time>2018-10-14T15:54:29Z</time>
      </trkpt>
      <trkpt lat="45.84146" lon="5.78437">
        <ele>236</ele>
        <time>2018-10-14T15:54:29Z</time>
      </trkpt>
      <trkpt lat="45.84146" lon="5.78438">
        <ele>236</ele>
        <time>2018-10-14T15:55:45Z</time>
      </trkpt>
      <trkpt lat="45.8415" lon="5.78439">
        <ele>236</ele>
        <time>2018-10-14T15:55:45Z</time>
      </trkpt>
      <trkpt lat="45.84155" lon="5.7844">
        <ele>236</ele>
        <time>2018-10-14T15:55:45Z</time>
      </trkpt>
      <trkpt lat="45.8416" lon="5.78437">
        <ele>236</ele>
        <time>2018-10-14T15:55:45Z</time>
      </trkpt>
      <trkpt lat="45.84164" lon="5.78437">
        <ele>236</ele>
        <time>2018-10-14T15:55:45Z</time>
      </trkpt>
      <trkpt lat="45.84174" lon="5.78441">
        <ele>236</ele>
        <time>2018-10-14T15:57:17Z</time>
      </trkpt>
      <trkpt lat="45.84173" lon="5.78442">
        <ele>236</ele>
        <time>2018-10-14T15:57:17Z</time>
      </trkpt>
      <trkpt lat="45.84173" lon="5.78447">
        <ele>236</ele>
        <time>2018-10-14T15:57:17Z</time>
      </trkpt>
      <trkpt lat="45.84177" lon="5.7845">
        <ele>236</ele>
        <time>2018-10-14T15:57:17Z</time>
      </trkpt>
      <trkpt lat="45.84181" lon="5.78452">
        <ele>236</ele>
        <time>2018-10-14T15:57:17Z</time>
      </trkpt>
      <trkpt lat="45.84185" lon="5.78452">
        <ele>236</ele>
        <time>2018-10-14T15:57:33Z</time>
      </trkpt>
      <trkpt lat="45.84189" lon="5.78453">
        <ele>236</ele>
        <time>2018-10-14T15:57:33Z</time>
      </trkpt>
      <trkpt lat="45.84194" lon="5.78454">
        <ele>236</ele>
        <time>2018-10-14T15:57:33Z</time>
      </trkpt>
      <trkpt lat="45.84199" lon="5.78456">
        <ele>236</ele>
        <time>2018-10-14T15:57:33Z</time>
      </trkpt>
      <trkpt lat="45.84204" lon="5.78457">
        <ele>236</ele>
        <time>2018-10-14T15:57:49Z</time>
      </trkpt>
      <trkpt lat="45.84207" lon="5.78459">
        <ele>235</ele>
        <time>2018-10-14T15:57:49Z</time>
      </trkpt>
      <trkpt lat="45.84211" lon="5.78462">
        <ele>236</ele>
        <time>2018-10-14T15:57:49Z</time>
      </trkpt>
      <trkpt lat="45.84216" lon="5.78464">
        <ele>236</ele>
        <time>2018-10-14T15:57:49Z</time>
      </trkpt>
      <trkpt lat="45.84222" lon="5.78469">
        <ele>236</ele>
        <time>2018-10-14T15:58:13Z</time>
      </trkpt>
      <trkpt lat="45.84222" lon="5.78469">
        <ele>236</ele>
        <time>2018-10-14T15:58:13Z</time>
      </trkpt>
      <trkpt lat="45.84223" lon="5.78469">
        <ele>236</ele>
        <time>2018-10-14T15:58:13Z</time>
      </trkpt>
      <trkpt lat="45.84226" lon="5.7847">
        <ele>236</ele>
        <time>2018-10-14T15:58:13Z</time>
      </trkpt>
      <trkpt lat="45.84229" lon="5.78474">
        <ele>236</ele>
        <time>2018-10-14T15:58:13Z</time>
      </trkpt>
      <trkpt lat="45.84232" lon="5.78479">
        <ele>236</ele>
        <time>2018-10-14T15:58:33Z</time>
      </trkpt>
      <trkpt lat="45.84232" lon="5.78481">
        <ele>236</ele>
        <time>2018-10-14T15:58:33Z</time>
      </trkpt>
      <trkpt lat="45.84232" lon="5.78482">
        <ele>236</ele>
        <time>2018-10-14T15:58:33Z</time>
      </trkpt>
      <trkpt lat="45.84233" lon="5.78485">
        <ele>236</ele>
        <time>2018-10-14T15:58:33Z</time>
      </trkpt>
      <trkpt lat="45.84234" lon="5.78492">
        <ele>236</ele>
        <time>2018-10-14T15:58:33Z</time>
      </trkpt>
      <trkpt lat="45.84234" lon="5.78497">
        <ele>236</ele>
        <time>2018-10-14T15:58:49Z</time>
      </trkpt>
      <trkpt lat="45.84234" lon="5.78504">
        <ele>236</ele>
        <time>2018-10-14T15:58:49Z</time>
      </trkpt>
      <trkpt lat="45.84231" lon="5.78513">
        <ele>236</ele>
        <time>2018-10-14T15:58:49Z</time>
      </trkpt>
      <trkpt lat="45.84228" lon="5.7852">
        <ele>236</ele>
        <time>2018-10-14T15:58:49Z</time>
      </trkpt>
      <trkpt lat="45.84226" lon="5.78529">
        <ele>236</ele>
        <time>2018-10-14T15:59:29Z</time>
      </trkpt>
      <trkpt lat="45.84225" lon="5.78529">
        <ele>236</ele>
        <time>2018-10-14T15:59:29Z</time>
      </trkpt>
      <trkpt lat="45.84225" lon="5.7853">
        <ele>236</ele>
        <time>2018-10-14T15:59:29Z</time>
      </trkpt>
      <trkpt lat="45.84223" lon="5.78536">
        <ele>236</ele>
        <time>2018-10-14T15:59:29Z</time>
      </trkpt>
      <trkpt lat="45.84221" lon="5.78544">
        <ele>234</ele>
        <time>2018-10-14T15:59:29Z</time>
      </trkpt>
      <trkpt lat="45.84219" lon="5.78552">
        <ele>234</ele>
        <time>2018-10-14T16:01:37Z</time>
      </trkpt>
      <trkpt lat="45.84219" lon="5.78556">
        <ele>234</ele>
        <time>2018-10-14T16:01:37Z</time>
      </trkpt>
      <trkpt lat="45.84217" lon="5.78559">
        <ele>234</ele>
        <time>2018-10-14T16:01:37Z</time>
      </trkpt>
      <trkpt lat="45.84215" lon="5.78563">
        <ele>234</ele>
        <time>2018-10-14T16:01:37Z</time>
      </trkpt>
      <trkpt lat="45.84213" lon="5.7857">
        <ele>234</ele>
        <time>2018-10-14T16:01:37Z</time>
      </trkpt>
      <trkpt lat="45.84211" lon="5.78577">
        <ele>234</ele>
        <time>2018-10-14T16:01:53Z</time>
      </trkpt>
      <trkpt lat="45.84209" lon="5.78584">
        <ele>234</ele>
        <time>2018-10-14T16:01:53Z</time>
      </trkpt>
      <trkpt lat="45.84207" lon="5.7859">
        <ele>234</ele>
        <time>2018-10-14T16:01:53Z</time>
      </trkpt>
      <trkpt lat="45.84204" lon="5.78596">
        <ele>234</ele>
        <time>2018-10-14T16:01:53Z</time>
      </trkpt>
      <trkpt lat="45.84203" lon="5.78604">
        <ele>234</ele>
        <time>2018-10-14T16:02:09Z</time>
      </trkpt>
      <trkpt lat="45.842" lon="5.78612">
        <ele>234</ele>
        <time>2018-10-14T16:02:09Z</time>
      </trkpt>
      <trkpt lat="45.84198" lon="5.7862">
        <ele>234</ele>
        <time>2018-10-14T16:02:09Z</time>
      </trkpt>
      <trkpt lat="45.84197" lon="5.78627">
        <ele>235</ele>
        <time>2018-10-14T16:02:09Z</time>
      </trkpt>
      <trkpt lat="45.84195" lon="5.78634">
        <ele>235</ele>
        <time>2018-10-14T16:02:25Z</time>
      </trkpt>
      <trkpt lat="45.8419" lon="5.78639">
        <ele>235</ele>
        <time>2018-10-14T16:02:25Z</time>
      </trkpt>
      <trkpt lat="45.84189" lon="5.78646">
        <ele>235</ele>
        <time>2018-10-14T16:02:25Z</time>
      </trkpt>
      <trkpt lat="45.84186" lon="5.78653">
        <ele>235</ele>
        <time>2018-10-14T16:02:25Z</time>
      </trkpt>
      <trkpt lat="45.84184" lon="5.7866">
        <ele>235</ele>
        <time>2018-10-14T16:02:41Z</time>
      </trkpt>
      <trkpt lat="45.84183" lon="5.78667">
        <ele>235</ele>
        <time>2018-10-14T16:02:41Z</time>
      </trkpt>
      <trkpt lat="45.84179" lon="5.78671">
        <ele>235</ele>
        <time>2018-10-14T16:02:41Z</time>
      </trkpt>
      <trkpt lat="45.84175" lon="5.78674">
        <ele>235</ele>
        <time>2018-10-14T16:02:41Z</time>
      </trkpt>
      <trkpt lat="45.84171" lon="5.78681">
        <ele>235</ele>
        <time>2018-10-14T16:02:57Z</time>
      </trkpt>
      <trkpt lat="45.84167" lon="5.78688">
        <ele>235</ele>
        <time>2018-10-14T16:02:57Z</time>
      </trkpt>
      <trkpt lat="45.84164" lon="5.78696">
        <ele>235</ele>
        <time>2018-10-14T16:02:57Z</time>
      </trkpt>
      <trkpt lat="45.84158" lon="5.78698">
        <ele>235</ele>
        <time>2018-10-14T16:02:57Z</time>
      </trkpt>
      <trkpt lat="45.84153" lon="5.78699">
        <ele>235</ele>
        <time>2018-10-14T16:03:13Z</time>
      </trkpt>
      <trkpt lat="45.84149" lon="5.787">
        <ele>235</ele>
        <time>2018-10-14T16:03:13Z</time>
      </trkpt>
      <trkpt lat="45.84146" lon="5.787">
        <ele>235</ele>
        <time>2018-10-14T16:03:13Z</time>
      </trkpt>
      <trkpt lat="45.84141" lon="5.78702">
        <ele>235</ele>
        <time>2018-10-14T16:03:13Z</time>
      </trkpt>
      <trkpt lat="45.84134" lon="5.78703">
        <ele>235</ele>
        <time>2018-10-14T16:03:29Z</time>
      </trkpt>
      <trkpt lat="45.84129" lon="5.78703">
        <ele>235</ele>
        <time>2018-10-14T16:03:29Z</time>
      </trkpt>
      <trkpt lat="45.84124" lon="5.78706">
        <ele>235</ele>
        <time>2018-10-14T16:03:29Z</time>
      </trkpt>
      <trkpt lat="45.84121" lon="5.78709">
        <ele>236</ele>
        <time>2018-10-14T16:03:29Z</time>
      </trkpt>
      <trkpt lat="45.84116" lon="5.78713">
        <ele>236</ele>
        <time>2018-10-14T16:03:45Z</time>
      </trkpt>
      <trkpt lat="45.84113" lon="5.78715">
        <ele>236</ele>
        <time>2018-10-14T16:03:45Z</time>
      </trkpt>
      <trkpt lat="45.84109" lon="5.7872">
        <ele>236</ele>
        <time>2018-10-14T16:03:45Z</time>
      </trkpt>
      <trkpt lat="45.84104" lon="5.78725">
        <ele>236</ele>
        <time>2018-10-14T16:03:45Z</time>
      </trkpt>
      <trkpt lat="45.84098" lon="5.78728">
        <ele>236</ele>
        <time>2018-10-14T16:04:01Z</time>
      </trkpt>
      <trkpt lat="45.84092" lon="5.78733">
        <ele>236</ele>
        <time>2018-10-14T16:04:01Z</time>
      </trkpt>
      <trkpt lat="45.84087" lon="5.78737">
        <ele>236</ele>
        <time>2018-10-14T16:04:01Z</time>
      </trkpt>
      <trkpt lat="45.84082" lon="5.78741">
        <ele>236</ele>
        <time>2018-10-14T16:04:01Z</time>
      </trkpt>
      <trkpt lat="45.84077" lon="5.78744">
        <ele>236</ele>
        <time>2018-10-14T16:04:17Z</time>
      </trkpt>
      <trkpt lat="45.84072" lon="5.78749">
        <ele>236</ele>
        <time>2018-10-14T16:04:17Z</time>
      </trkpt>
      <trkpt lat="45.84067" lon="5.78753">
        <ele>236</ele>
        <time>2018-10-14T16:04:17Z</time>
      </trkpt>
      <trkpt lat="45.84062" lon="5.78758">
        <ele>236</ele>
        <time>2018-10-14T16:04:17Z</time>
      </trkpt>
      <trkpt lat="45.84057" lon="5.78763">
        <ele>236</ele>
        <time>2018-10-14T16:04:33Z</time>
      </trkpt>
      <trkpt lat="45.84052" lon="5.78769">
        <ele>236</ele>
        <time>2018-10-14T16:04:33Z</time>
      </trkpt>
      <trkpt lat="45.84049" lon="5.78774">
        <ele>236</ele>
        <time>2018-10-14T16:04:33Z</time>
      </trkpt>
      <trkpt lat="45.84048" lon="5.78779">
        <ele>236</ele>
        <time>2018-10-14T16:04:33Z</time>
      </trkpt>
      <trkpt lat="45.84045" lon="5.78785">
        <ele>236</ele>
        <time>2018-10-14T16:04:49Z</time>
      </trkpt>
      <trkpt lat="45.84043" lon="5.78793">
        <ele>235</ele>
        <time>2018-10-14T16:04:49Z</time>
      </trkpt>
      <trkpt lat="45.8404" lon="5.78798">
        <ele>235</ele>
        <time>2018-10-14T16:04:49Z</time>
      </trkpt>
      <trkpt lat="45.84035" lon="5.78804">
        <ele>235</ele>
        <time>2018-10-14T16:04:49Z</time>
      </trkpt>
      <trkpt lat="45.84031" lon="5.7881">
        <ele>235</ele>
        <time>2018-10-14T16:05:05Z</time>
      </trkpt>
      <trkpt lat="45.84028" lon="5.78812">
        <ele>235</ele>
        <time>2018-10-14T16:05:05Z</time>
      </trkpt>
      <trkpt lat="45.84027" lon="5.7882">
        <ele>235</ele>
        <time>2018-10-14T16:05:05Z</time>
      </trkpt>
      <trkpt lat="45.84025" lon="5.78827">
        <ele>235</ele>
        <time>2018-10-14T16:05:05Z</time>
      </trkpt>
      <trkpt lat="45.84023" lon="5.78835">
        <ele>235</ele>
        <time>2018-10-14T16:05:21Z</time>
      </trkpt>
      <trkpt lat="45.84023" lon="5.78837">
        <ele>235</ele>
        <time>2018-10-14T16:05:21Z</time>
      </trkpt>
      <trkpt lat="45.84021" lon="5.78841">
        <ele>235</ele>
        <time>2018-10-14T16:05:21Z</time>
      </trkpt>
      <trkpt lat="45.84019" lon="5.7885">
        <ele>235</ele>
        <time>2018-10-14T16:05:21Z</time>
      </trkpt>
      <trkpt lat="45.84019" lon="5.78857">
        <ele>235</ele>
        <time>2018-10-14T16:05:37Z</time>
      </trkpt>
      <trkpt lat="45.84017" lon="5.78864">
        <ele>235</ele>
        <time>2018-10-14T16:05:37Z</time>
      </trkpt>
      <trkpt lat="45.84016" lon="5.78872">
        <ele>235</ele>
        <time>2018-10-14T16:05:37Z</time>
      </trkpt>
      <trkpt lat="45.84014" lon="5.78878">
        <ele>234</ele>
        <time>2018-10-14T16:05:37Z</time>
      </trkpt>
      <trkpt lat="45.84013" lon="5.78885">
        <ele>234</ele>
        <time>2018-10-14T16:05:53Z</time>
      </trkpt>
      <trkpt lat="45.84012" lon="5.78891">
        <ele>234</ele>
        <time>2018-10-14T16:05:53Z</time>
      </trkpt>
      <trkpt lat="45.84011" lon="5.78897">
        <ele>234</ele>
        <time>2018-10-14T16:05:53Z</time>
      </trkpt>
      <trkpt lat="45.84009" lon="5.78902">
        <ele>234</ele>
        <time>2018-10-14T16:05:53Z</time>
      </trkpt>
      <trkpt lat="45.84008" lon="5.78903">
        <ele>234</ele>
        <time>2018-10-14T16:06:09Z</time>
      </trkpt>
      <trkpt lat="45.84006" lon="5.78908">
        <ele>234</ele>
        <time>2018-10-14T16:06:09Z</time>
      </trkpt>
      <trkpt lat="45.84006" lon="5.78915">
        <ele>234</ele>
        <time>2018-10-14T16:06:09Z</time>
      </trkpt>
      <trkpt lat="45.84005" lon="5.78921">
        <ele>234</ele>
        <time>2018-10-14T16:06:09Z</time>
      </trkpt>
      <trkpt lat="45.84004" lon="5.78926">
        <ele>234</ele>
        <time>2018-10-14T16:06:25Z</time>
      </trkpt>
      <trkpt lat="45.84003" lon="5.78933">
        <ele>234</ele>
        <time>2018-10-14T16:06:25Z</time>
      </trkpt>
      <trkpt lat="45.84001" lon="5.78939">
        <ele>234</ele>
        <time>2018-10-14T16:06:25Z</time>
      </trkpt>
      <trkpt lat="45.84001" lon="5.78946">
        <ele>234</ele>
        <time>2018-10-14T16:06:25Z</time>
      </trkpt>
      <trkpt lat="45.84" lon="5.78951">
        <ele>234</ele>
        <time>2018-10-14T16:06:41Z</time>
      </trkpt>
      <trkpt lat="45.84" lon="5.78958">
        <ele>234</ele>
        <time>2018-10-14T16:06:41Z</time>
      </trkpt>
      <trkpt lat="45.84" lon="5.78965">
        <ele>235</ele>
        <time>2018-10-14T16:06:41Z</time>
      </trkpt>
      <trkpt lat="45.83999" lon="5.78972">
        <ele>235</ele>
        <time>2018-10-14T16:06:41Z</time>
      </trkpt>
      <trkpt lat="45.83998" lon="5.7898">
        <ele>235</ele>
        <time>2018-10-14T16:06:57Z</time>
      </trkpt>
      <trkpt lat="45.83997" lon="5.78988">
        <ele>235</ele>
        <time>2018-10-14T16:06:57Z</time>
      </trkpt>
      <trkpt lat="45.83996" lon="5.78995">
        <ele>235</ele>
        <time>2018-10-14T16:06:57Z</time>
      </trkpt>
      <trkpt lat="45.83994" lon="5.79001">
        <ele>235</ele>
        <time>2018-10-14T16:06:57Z</time>
      </trkpt>
      <trkpt lat="45.83993" lon="5.79008">
        <ele>235</ele>
        <time>2018-10-14T16:07:13Z</time>
      </trkpt>
      <trkpt lat="45.83993" lon="5.79017">
        <ele>235</ele>
        <time>2018-10-14T16:07:13Z</time>
      </trkpt>
      <trkpt lat="45.83992" lon="5.79024">
        <ele>235</ele>
        <time>2018-10-14T16:07:13Z</time>
      </trkpt>
      <trkpt lat="45.83991" lon="5.79031">
        <ele>235</ele>
        <time>2018-10-14T16:07:13Z</time>
      </trkpt>
      <trkpt lat="45.8399" lon="5.79037">
        <ele>235</ele>
        <time>2018-10-14T16:07:29Z</time>
      </trkpt>
      <trkpt lat="45.8399" lon="5.79043">
        <ele>235</ele>
        <time>2018-10-14T16:07:29Z</time>
      </trkpt>
      <trkpt lat="45.83989" lon="5.7905">
        <ele>235</ele>
        <time>2018-10-14T16:07:29Z</time>
      </trkpt>
      <trkpt lat="45.83988" lon="5.79056">
        <ele>235</ele>
        <time>2018-10-14T16:07:29Z</time>
      </trkpt>
      <trkpt lat="45.83987" lon="5.79063">
        <ele>235</ele>
        <time>2018-10-14T16:07:45Z</time>
      </trkpt>
      <trkpt lat="45.83986" lon="5.79071">
        <ele>235</ele>
        <time>2018-10-14T16:07:45Z</time>
      </trkpt>
      <trkpt lat="45.83986" lon="5.79077">
        <ele>235</ele>
        <time>2018-10-14T16:07:45Z</time>
      </trkpt>
      <trkpt lat="45.83986" lon="5.79084">
        <ele>235</ele>
        <time>2018-10-14T16:07:45Z</time>
      </trkpt>
      <trkpt lat="45.83985" lon="5.79091">
        <ele>235</ele>
        <time>2018-10-14T16:08:01Z</time>
      </trkpt>
      <trkpt lat="45.83983" lon="5.79099">
        <ele>235</ele>
        <time>2018-10-14T16:08:01Z</time>
      </trkpt>
      <trkpt lat="45.83981" lon="5.79105">
        <ele>235</ele>
        <time>2018-10-14T16:08:01Z</time>
      </trkpt>
      <trkpt lat="45.83979" lon="5.79113">
        <ele>235</ele>
        <time>2018-10-14T16:08:01Z</time>
      </trkpt>
      <trkpt lat="45.83976" lon="5.7912">
        <ele>235</ele>
        <time>2018-10-14T16:08:17Z</time>
      </trkpt>
      <trkpt lat="45.83973" lon="5.79127">
        <ele>235</ele>
        <time>2018-10-14T16:08:17Z</time>
      </trkpt>
      <trkpt lat="45.83969" lon="5.79133">
        <ele>235</ele>
        <time>2018-10-14T16:08:17Z</time>
      </trkpt>
      <trkpt lat="45.83966" lon="5.79138">
        <ele>235</ele>
        <time>2018-10-14T16:08:17Z</time>
      </trkpt>
      <trkpt lat="45.83963" lon="5.79143">
        <ele>235</ele>
        <time>2018-10-14T16:08:33Z</time>
      </trkpt>
      <trkpt lat="45.8396" lon="5.79149">
        <ele>235</ele>
        <time>2018-10-14T16:08:33Z</time>
      </trkpt>
      <trkpt lat="45.83957" lon="5.79155">
        <ele>237</ele>
        <time>2018-10-14T16:08:33Z</time>
      </trkpt>
      <trkpt lat="45.83953" lon="5.79162">
        <ele>237</ele>
        <time>2018-10-14T16:08:33Z</time>
      </trkpt>
      <trkpt lat="45.83949" lon="5.79168">
        <ele>237</ele>
        <time>2018-10-14T16:08:49Z</time>
      </trkpt>
      <trkpt lat="45.83946" lon="5.79172">
        <ele>237</ele>
        <time>2018-10-14T16:08:49Z</time>
      </trkpt>
      <trkpt lat="45.83943" lon="5.79178">
        <ele>237</ele>
        <time>2018-10-14T16:08:49Z</time>
      </trkpt>
      <trkpt lat="45.8394" lon="5.79186">
        <ele>237</ele>
        <time>2018-10-14T16:08:49Z</time>
      </trkpt>
      <trkpt lat="45.83936" lon="5.79191">
        <ele>237</ele>
        <time>2018-10-14T16:09:05Z</time>
      </trkpt>
      <trkpt lat="45.83932" lon="5.79199">
        <ele>237</ele>
        <time>2018-10-14T16:09:05Z</time>
      </trkpt>
      <trkpt lat="45.83929" lon="5.79207">
        <ele>237</ele>
        <time>2018-10-14T16:09:05Z</time>
      </trkpt>
      <trkpt lat="45.83928" lon="5.79214">
        <ele>237</ele>
        <time>2018-10-14T16:09:05Z</time>
      </trkpt>
      <trkpt lat="45.83926" lon="5.7922">
        <ele>237</ele>
        <time>2018-10-14T16:09:21Z</time>
      </trkpt>
      <trkpt lat="45.83923" lon="5.79227">
        <ele>237</ele>
        <time>2018-10-14T16:09:21Z</time>
      </trkpt>
      <trkpt lat="45.8392" lon="5.79233">
        <ele>237</ele>
        <time>2018-10-14T16:09:21Z</time>
      </trkpt>
      <trkpt lat="45.83918" lon="5.79241">
        <ele>237</ele>
        <time>2018-10-14T16:09:21Z</time>
      </trkpt>
      <trkpt lat="45.83915" lon="5.79247">
        <ele>237</ele>
        <time>2018-10-14T16:09:37Z</time>
      </trkpt>
      <trkpt lat="45.83912" lon="5.79252">
        <ele>237</ele>
        <time>2018-10-14T16:09:37Z</time>
      </trkpt>
      <trkpt lat="45.83908" lon="5.79257">
        <ele>237</ele>
        <time>2018-10-14T16:09:37Z</time>
      </trkpt>
      <trkpt lat="45.83906" lon="5.79263">
        <ele>237</ele>
        <time>2018-10-14T16:09:37Z</time>
      </trkpt>
      <trkpt lat="45.83905" lon="5.79268">
        <ele>237</ele>
        <time>2018-10-14T16:09:53Z</time>
      </trkpt>
      <trkpt lat="45.83905" lon="5.79273">
        <ele>237</ele>
        <time>2018-10-14T16:09:53Z</time>
      </trkpt>
      <trkpt lat="45.83905" lon="5.7928">
        <ele>237</ele>
        <time>2018-10-14T16:09:53Z</time>
      </trkpt>
      <trkpt lat="45.83905" lon="5.79284">
        <ele>237</ele>
        <time>2018-10-14T16:09:53Z</time>
      </trkpt>
      <trkpt lat="45.83906" lon="5.79287">
        <ele>237</ele>
        <time>2018-10-14T16:10:09Z</time>
      </trkpt>
      <trkpt lat="45.83908" lon="5.7929">
        <ele>237</ele>
        <time>2018-10-14T16:10:09Z</time>
      </trkpt>
      <trkpt lat="45.83912" lon="5.79293">
        <ele>236</ele>
        <time>2018-10-14T16:10:09Z</time>
      </trkpt>
      <trkpt lat="45.83917" lon="5.79297">
        <ele>236</ele>
        <time>2018-10-14T16:10:09Z</time>
      </trkpt>
      <trkpt lat="45.83922" lon="5.793">
        <ele>236</ele>
        <time>2018-10-14T16:10:25Z</time>
      </trkpt>
      <trkpt lat="45.83927" lon="5.79302">
        <ele>236</ele>
        <time>2018-10-14T16:10:25Z</time>
      </trkpt>
      <trkpt lat="45.83932" lon="5.79306">
        <ele>236</ele>
        <time>2018-10-14T16:10:25Z</time>
      </trkpt>
      <trkpt lat="45.83938" lon="5.79308">
        <ele>236</ele>
        <time>2018-10-14T16:10:25Z</time>
      </trkpt>
      <trkpt lat="45.83943" lon="5.7931">
        <ele>236</ele>
        <time>2018-10-14T16:10:41Z</time>
      </trkpt>
      <trkpt lat="45.83949" lon="5.79312">
        <ele>236</ele>
        <time>2018-10-14T16:10:41Z</time>
      </trkpt>
      <trkpt lat="45.83953" lon="5.79315">
        <ele>236</ele>
        <time>2018-10-14T16:10:41Z</time>
      </trkpt>
      <trkpt lat="45.83958" lon="5.79316">
        <ele>236</ele>
        <time>2018-10-14T16:10:41Z</time>
      </trkpt>
      <trkpt lat="45.83962" lon="5.79321">
        <ele>235</ele>
        <time>2018-10-14T16:10:57Z</time>
      </trkpt>
      <trkpt lat="45.83967" lon="5.79322">
        <ele>235</ele>
        <time>2018-10-14T16:10:57Z</time>
      </trkpt>
      <trkpt lat="45.83971" lon="5.79324">
        <ele>235</ele>
        <time>2018-10-14T16:10:57Z</time>
      </trkpt>
      <trkpt lat="45.83975" lon="5.79325">
        <ele>235</ele>
        <time>2018-10-14T16:10:57Z</time>
      </trkpt>
      <trkpt lat="45.8398" lon="5.79325">
        <ele>235</ele>
        <time>2018-10-14T16:11:13Z</time>
      </trkpt>
      <trkpt lat="45.83986" lon="5.79324">
        <ele>235</ele>
        <time>2018-10-14T16:11:13Z</time>
      </trkpt>
      <trkpt lat="45.83994" lon="5.79324">
        <ele>235</ele>
        <time>2018-10-14T16:11:13Z</time>
      </trkpt>
      <trkpt lat="45.84" lon="5.7932">
        <ele>235</ele>
        <time>2018-10-14T16:11:13Z</time>
      </trkpt>
      <trkpt lat="45.84006" lon="5.79316">
        <ele>235</ele>
        <time>2018-10-14T16:11:29Z</time>
      </trkpt>
      <trkpt lat="45.84011" lon="5.79313">
        <ele>235</ele>
        <time>2018-10-14T16:11:29Z</time>
      </trkpt>
      <trkpt lat="45.84016" lon="5.79312">
        <ele>235</ele>
        <time>2018-10-14T16:11:29Z</time>
      </trkpt>
      <trkpt lat="45.84021" lon="5.7931">
        <ele>235</ele>
        <time>2018-10-14T16:11:29Z</time>
      </trkpt>
      <trkpt lat="45.84026" lon="5.79308">
        <ele>235</ele>
        <time>2018-10-14T16:11:45Z</time>
      </trkpt>
      <trkpt lat="45.84031" lon="5.79307">
        <ele>235</ele>
        <time>2018-10-14T16:11:45Z</time>
      </trkpt>
      <trkpt lat="45.84036" lon="5.79305">
        <ele>235</ele>
        <time>2018-10-14T16:11:45Z</time>
      </trkpt>
      <trkpt lat="45.84042" lon="5.79303">
        <ele>238</ele>
        <time>2018-10-14T16:11:45Z</time>
      </trkpt>
      <trkpt lat="45.84047" lon="5.79302">
        <ele>238</ele>
        <time>2018-10-14T16:12:01Z</time>
      </trkpt>
      <trkpt lat="45.84053" lon="5.793">
        <ele>238</ele>
        <time>2018-10-14T16:12:01Z</time>
      </trkpt>
      <trkpt lat="45.84058" lon="5.79297">
        <ele>238</ele>
        <time>2018-10-14T16:12:01Z</time>
      </trkpt>
      <trkpt lat="45.84063" lon="5.79298">
        <ele>238</ele>
        <time>2018-10-14T16:12:01Z</time>
      </trkpt>
      <trkpt lat="45.84068" lon="5.79302">
        <ele>238</ele>
        <time>2018-10-14T16:12:17Z</time>
      </trkpt>
      <trkpt lat="45.84072" lon="5.79309">
        <ele>238</ele>
        <time>2018-10-14T16:12:17Z</time>
      </trkpt>
      <trkpt lat="45.84069" lon="5.79317">
        <ele>238</ele>
        <time>2018-10-14T16:12:17Z</time>
      </trkpt>
      <trkpt lat="45.84066" lon="5.79324">
        <ele>238</ele>
        <time>2018-10-14T16:12:17Z</time>
      </trkpt>
      <trkpt lat="45.84063" lon="5.79332">
        <ele>238</ele>
        <time>2018-10-14T16:12:33Z</time>
      </trkpt>
      <trkpt lat="45.8406" lon="5.79338">
        <ele>238</ele>
        <time>2018-10-14T16:12:33Z</time>
      </trkpt>
      <trkpt lat="45.84055" lon="5.79346">
        <ele>238</ele>
        <time>2018-10-14T16:12:33Z</time>
      </trkpt>
      <trkpt lat="45.84049" lon="5.79355">
        <ele>238</ele>
        <time>2018-10-14T16:12:33Z</time>
      </trkpt>
      <trkpt lat="45.84044" lon="5.79361">
        <ele>238</ele>
        <time>2018-10-14T16:12:49Z</time>
      </trkpt>
      <trkpt lat="45.84039" lon="5.79367">
        <ele>235</ele>
        <time>2018-10-14T16:12:49Z</time>
      </trkpt>
      <trkpt lat="45.84035" lon="5.79374">
        <ele>235</ele>
        <time>2018-10-14T16:12:49Z</time>
      </trkpt>
      <trkpt lat="45.8403" lon="5.79382">
        <ele>237</ele>
        <time>2018-10-14T16:12:49Z</time>
      </trkpt>
      <trkpt lat="45.84026" lon="5.79386">
        <ele>237</ele>
        <time>2018-10-14T16:13:05Z</time>
      </trkpt>
      <trkpt lat="45.84021" lon="5.79391">
        <ele>237</ele>
        <time>2018-10-14T16:13:05Z</time>
      </trkpt>
      <trkpt lat="45.84016" lon="5.79399">
        <ele>237</ele>
        <time>2018-10-14T16:13:05Z</time>
      </trkpt>
      <trkpt lat="45.84006" lon="5.79407">
        <ele>237</ele>
        <time>2018-10-14T16:13:05Z</time>
      </trkpt>
      <trkpt lat="45.83995" lon="5.7941">
        <ele>237</ele>
        <time>2018-10-14T16:13:21Z</time>
      </trkpt>
      <trkpt lat="45.83988" lon="5.79409">
        <ele>237</ele>
        <time>2018-10-14T16:13:21Z</time>
      </trkpt>
      <trkpt lat="45.83981" lon="5.79411">
        <ele>237</ele>
        <time>2018-10-14T16:13:21Z</time>
      </trkpt>
      <trkpt lat="45.83973" lon="5.79413">
        <ele>237</ele>
        <time>2018-10-14T16:13:21Z</time>
      </trkpt>
      <trkpt lat="45.83968" lon="5.79414">
        <ele>237</ele>
        <time>2018-10-14T16:13:37Z</time>
      </trkpt>
      <trkpt lat="45.83964" lon="5.79416">
        <ele>237</ele>
        <time>2018-10-14T16:13:37Z</time>
      </trkpt>
      <trkpt lat="45.83959" lon="5.79418">
        <ele>237</ele>
        <time>2018-10-14T16:13:37Z</time>
      </trkpt>
      <trkpt lat="45.83955" lon="5.7942">
        <ele>236</ele>
        <time>2018-10-14T16:13:37Z</time>
      </trkpt>
      <trkpt lat="45.83949" lon="5.79423">
        <ele>236</ele>
        <time>2018-10-14T16:13:53Z</time>
      </trkpt>
      <trkpt lat="45.83943" lon="5.79425">
        <ele>236</ele>
        <time>2018-10-14T16:13:53Z</time>
      </trkpt>
      <trkpt lat="45.83936" lon="5.79428">
        <ele>236</ele>
        <time>2018-10-14T16:13:53Z</time>
      </trkpt>
      <trkpt lat="45.83929" lon="5.79431">
        <ele>236</ele>
        <time>2018-10-14T16:13:53Z</time>
      </trkpt>
      <trkpt lat="45.83922" lon="5.79433">
        <ele>236</ele>
        <time>2018-10-14T16:14:09Z</time>
      </trkpt>
      <trkpt lat="45.83917" lon="5.79435">
        <ele>236</ele>
        <time>2018-10-14T16:14:09Z</time>
      </trkpt>
      <trkpt lat="45.83912" lon="5.79438">
        <ele>236</ele>
        <time>2018-10-14T16:14:09Z</time>
      </trkpt>
      <trkpt lat="45.83906" lon="5.7944">
        <ele>236</ele>
        <time>2018-10-14T16:14:09Z</time>
      </trkpt>
      <trkpt lat="45.83901" lon="5.79442">
        <ele>236</ele>
        <time>2018-10-14T16:14:25Z</time>
      </trkpt>
      <trkpt lat="45.83895" lon="5.79443">
        <ele>236</ele>
        <time>2018-10-14T16:14:25Z</time>
      </trkpt>
      <trkpt lat="45.8389" lon="5.79445">
        <ele>236</ele>
        <time>2018-10-14T16:14:25Z</time>
      </trkpt>
      <trkpt lat="45.83883" lon="5.7945">
        <ele>236</ele>
        <time>2018-10-14T16:14:25Z</time>
      </trkpt>
      <trkpt lat="45.83878" lon="5.79454">
        <ele>236</ele>
        <time>2018-10-14T16:14:41Z</time>
      </trkpt>
      <trkpt lat="45.83873" lon="5.79459">
        <ele>236</ele>
        <time>2018-10-14T16:14:41Z</time>
      </trkpt>
      <trkpt lat="45.83868" lon="5.79461">
        <ele>236</ele>
        <time>2018-10-14T16:14:41Z</time>
      </trkpt>
      <trkpt lat="45.83862" lon="5.79464">
        <ele>236</ele>
        <time>2018-10-14T16:14:41Z</time>
      </trkpt>
      <trkpt lat="45.83858" lon="5.79467">
        <ele>236</ele>
        <time>2018-10-14T16:14:57Z</time>
      </trkpt>
      <trkpt lat="45.83853" lon="5.79468">
        <ele>236</ele>
        <time>2018-10-14T16:14:57Z</time>
      </trkpt>
      <trkpt lat="45.83847" lon="5.79471">
        <ele>236</ele>
        <time>2018-10-14T16:14:57Z</time>
      </trkpt>
      <trkpt lat="45.83842" lon="5.79475">
        <ele>236</ele>
        <time>2018-10-14T16:14:57Z</time>
      </trkpt>
      <trkpt lat="45.83838" lon="5.79479">
        <ele>236</ele>
        <time>2018-10-14T16:15:13Z</time>
      </trkpt>
      <trkpt lat="45.83833" lon="5.79481">
        <ele>236</ele>
        <time>2018-10-14T16:15:13Z</time>
      </trkpt>
      <trkpt lat="45.83827" lon="5.79486">
        <ele>236</ele>
        <time>2018-10-14T16:15:13Z</time>
      </trkpt>
      <trkpt lat="45.83823" lon="5.7949">
        <ele>236</ele>
        <time>2018-10-14T16:15:13Z</time>
      </trkpt>
      <trkpt lat="45.83819" lon="5.79492">
        <ele>236</ele>
        <time>2018-10-14T16:15:29Z</time>
      </trkpt>
      <trkpt lat="45.83815" lon="5.79495">
        <ele>236</ele>
        <time>2018-10-14T16:15:29Z</time>
      </trkpt>
      <trkpt lat="45.8381" lon="5.79499">
        <ele>236</ele>
        <time>2018-10-14T16:15:29Z</time>
      </trkpt>
      <trkpt lat="45.83806" lon="5.79501">
        <ele>236</ele>
        <time>2018-10-14T16:15:29Z</time>
      </trkpt>
      <trkpt lat="45.83801" lon="5.79504">
        <ele>236</ele>
        <time>2018-10-14T16:15:45Z</time>
      </trkpt>
      <trkpt lat="45.83797" lon="5.79506">
        <ele>236</ele>
        <time>2018-10-14T16:15:45Z</time>
      </trkpt>
      <trkpt lat="45.83791" lon="5.7951">
        <ele>235</ele>
        <time>2018-10-14T16:15:45Z</time>
      </trkpt>
      <trkpt lat="45.83787" lon="5.79515">
        <ele>235</ele>
        <time>2018-10-14T16:15:45Z</time>
      </trkpt>
      <trkpt lat="45.83782" lon="5.79518">
        <ele>235</ele>
        <time>2018-10-14T16:16:01Z</time>
      </trkpt>
      <trkpt lat="45.83777" lon="5.79522">
        <ele>235</ele>
        <time>2018-10-14T16:16:01Z</time>
      </trkpt>
      <trkpt lat="45.83773" lon="5.79525">
        <ele>235</ele>
        <time>2018-10-14T16:16:01Z</time>
      </trkpt>
      <trkpt lat="45.83769" lon="5.79528">
        <ele>235</ele>
        <time>2018-10-14T16:16:01Z</time>
      </trkpt>
      <trkpt lat="45.83764" lon="5.79532">
        <ele>235</ele>
        <time>2018-10-14T16:16:17Z</time>
      </trkpt>
      <trkpt lat="45.83758" lon="5.79535">
        <ele>235</ele>
        <time>2018-10-14T16:16:17Z</time>
      </trkpt>
      <trkpt lat="45.83753" lon="5.79539">
        <ele>235</ele>
        <time>2018-10-14T16:16:17Z</time>
      </trkpt>
      <trkpt lat="45.83747" lon="5.79543">
        <ele>238</ele>
        <time>2018-10-14T16:16:17Z</time>
      </trkpt>
      <trkpt lat="45.83741" lon="5.79547">
        <ele>238</ele>
        <time>2018-10-14T16:16:33Z</time>
      </trkpt>
      <trkpt lat="45.83735" lon="5.79551">
        <ele>238</ele>
        <time>2018-10-14T16:16:33Z</time>
      </trkpt>
      <trkpt lat="45.83729" lon="5.79556">
        <ele>238</ele>
        <time>2018-10-14T16:16:33Z</time>
      </trkpt>
      <trkpt lat="45.83723" lon="5.79559">
        <ele>238</ele>
        <time>2018-10-14T16:16:33Z</time>
      </trkpt>
      <trkpt lat="45.83718" lon="5.79562">
        <ele>238</ele>
        <time>2018-10-14T16:16:49Z</time>
      </trkpt>
      <trkpt lat="45.83712" lon="5.79565">
        <ele>238</ele>
        <time>2018-10-14T16:16:49Z</time>
      </trkpt>
      <trkpt lat="45.83707" lon="5.79568">
        <ele>237</ele>
        <time>2018-10-14T16:16:49Z</time>
      </trkpt>
      <trkpt lat="45.83701" lon="5.79571">
        <ele>237</ele>
        <time>2018-10-14T16:16:49Z</time>
      </trkpt>
      <trkpt lat="45.83697" lon="5.79574">
        <ele>237</ele>
        <time>2018-10-14T16:17:05Z</time>
      </trkpt>
      <trkpt lat="45.83692" lon="5.79577">
        <ele>237</ele>
        <time>2018-10-14T16:17:05Z</time>
      </trkpt>
      <trkpt lat="45.83689" lon="5.79579">
        <ele>237</ele>
        <time>2018-10-14T16:17:05Z</time>
      </trkpt>
      <trkpt lat="45.83685" lon="5.79582">
        <ele>237</ele>
        <time>2018-10-14T16:17:05Z</time>
      </trkpt>
      <trkpt lat="45.8368" lon="5.79586">
        <ele>237</ele>
        <time>2018-10-14T16:17:21Z</time>
      </trkpt>
      <trkpt lat="45.83674" lon="5.79589">
        <ele>237</ele>
        <time>2018-10-14T16:17:21Z</time>
      </trkpt>
      <trkpt lat="45.83669" lon="5.79593">
        <ele>237</ele>
        <time>2018-10-14T16:17:21Z</time>
      </trkpt>
      <trkpt lat="45.83664" lon="5.79597">
        <ele>237</ele>
        <time>2018-10-14T16:17:21Z</time>
      </trkpt>
      <trkpt lat="45.83659" lon="5.796">
        <ele>237</ele>
        <time>2018-10-14T16:17:37Z</time>
      </trkpt>
      <trkpt lat="45.83653" lon="5.79604">
        <ele>237</ele>
        <time>2018-10-14T16:17:37Z</time>
      </trkpt>
      <trkpt lat="45.83647" lon="5.79608">
        <ele>237</ele>
        <time>2018-10-14T16:17:37Z</time>
      </trkpt>
      <trkpt lat="45.83643" lon="5.7961">
        <ele>237</ele>
        <time>2018-10-14T16:17:37Z</time>
      </trkpt>
      <trkpt lat="45.83638" lon="5.79613">
        <ele>237</ele>
        <time>2018-10-14T16:17:53Z</time>
      </trkpt>
      <trkpt lat="45.83632" lon="5.79617">
        <ele>237</ele>
        <time>2018-10-14T16:17:53Z</time>
      </trkpt>
      <trkpt lat="45.83628" lon="5.79619">
        <ele>237</ele>
        <time>2018-10-14T16:17:53Z</time>
      </trkpt>
      <trkpt lat="45.83622" lon="5.79623">
        <ele>235</ele>
        <time>2018-10-14T16:17:53Z</time>
      </trkpt>
      <trkpt lat="45.83617" lon="5.79626">
        <ele>235</ele>
        <time>2018-10-14T16:18:09Z</time>
      </trkpt>
      <trkpt lat="45.83612" lon="5.79629">
        <ele>235</ele>
        <time>2018-10-14T16:18:09Z</time>
      </trkpt>
      <trkpt lat="45.83606" lon="5.79632">
        <ele>235</ele>
        <time>2018-10-14T16:18:09Z</time>
      </trkpt>
      <trkpt lat="45.83601" lon="5.79634">
        <ele>235</ele>
        <time>2018-10-14T16:18:09Z</time>
      </trkpt>
      <trkpt lat="45.83595" lon="5.79638">
        <ele>235</ele>
        <time>2018-10-14T16:18:25Z</time>
      </trkpt>
      <trkpt lat="45.83589" lon="5.79639">
        <ele>235</ele>
        <time>2018-10-14T16:18:25Z</time>
      </trkpt>
      <trkpt lat="45.83584" lon="5.79642">
        <ele>235</ele>
        <time>2018-10-14T16:18:25Z</time>
      </trkpt>
      <trkpt lat="45.83579" lon="5.79645">
        <ele>235</ele>
        <time>2018-10-14T16:18:25Z</time>
      </trkpt>
      <trkpt lat="45.83572" lon="5.79647">
        <ele>235</ele>
        <time>2018-10-14T16:18:41Z</time>
      </trkpt>
      <trkpt lat="45.83566" lon="5.79648">
        <ele>235</ele>
        <time>2018-10-14T16:18:41Z</time>
      </trkpt>
      <trkpt lat="45.83562" lon="5.79649">
        <ele>235</ele>
        <time>2018-10-14T16:18:41Z</time>
      </trkpt>
      <trkpt lat="45.83556" lon="5.7965">
        <ele>235</ele>
        <time>2018-10-14T16:18:41Z</time>
      </trkpt>
      <trkpt lat="45.83551" lon="5.79652">
        <ele>235</ele>
        <time>2018-10-14T16:18:57Z</time>
      </trkpt>
      <trkpt lat="45.83546" lon="5.79654">
        <ele>235</ele>
        <time>2018-10-14T16:18:57Z</time>
      </trkpt>
      <trkpt lat="45.8354" lon="5.79657">
        <ele>235</ele>
        <time>2018-10-14T16:18:57Z</time>
      </trkpt>
      <trkpt lat="45.83535" lon="5.79658">
        <ele>235</ele>
        <time>2018-10-14T16:18:57Z</time>
      </trkpt>
      <trkpt lat="45.83531" lon="5.79658">
        <ele>235</ele>
        <time>2018-10-14T16:19:13Z</time>
      </trkpt>
      <trkpt lat="45.83526" lon="5.79659">
        <ele>235</ele>
        <time>2018-10-14T16:19:13Z</time>
      </trkpt>
      <trkpt lat="45.83522" lon="5.7966">
        <ele>235</ele>
        <time>2018-10-14T16:19:13Z</time>
      </trkpt>
      <trkpt lat="45.83516" lon="5.79661">
        <ele>235</ele>
        <time>2018-10-14T16:19:13Z</time>
      </trkpt>
      <trkpt lat="45.8351" lon="5.79664">
        <ele>235</ele>
        <time>2018-10-14T16:19:29Z</time>
      </trkpt>
      <trkpt lat="45.83504" lon="5.79666">
        <ele>235</ele>
        <time>2018-10-14T16:19:29Z</time>
      </trkpt>
      <trkpt lat="45.83499" lon="5.79667">
        <ele>235</ele>
        <time>2018-10-14T16:19:29Z</time>
      </trkpt>
      <trkpt lat="45.83493" lon="5.79668">
        <ele>235</ele>
        <time>2018-10-14T16:19:29Z</time>
      </trkpt>
      <trkpt lat="45.83489" lon="5.79669">
        <ele>235</ele>
        <time>2018-10-14T16:19:45Z</time>
      </trkpt>
      <trkpt lat="45.83484" lon="5.7967">
        <ele>235</ele>
        <time>2018-10-14T16:19:45Z</time>
      </trkpt>
      <trkpt lat="45.83478" lon="5.79671">
        <ele>235</ele>
        <time>2018-10-14T16:19:45Z</time>
      </trkpt>
      <trkpt lat="45.83472" lon="5.79674">
        <ele>235</ele>
        <time>2018-10-14T16:19:45Z</time>
      </trkpt>
      <trkpt lat="45.83468" lon="5.79675">
        <ele>235</ele>
        <time>2018-10-14T16:20:01Z</time>
      </trkpt>
      <trkpt lat="45.83463" lon="5.79675">
        <ele>235</ele>
        <time>2018-10-14T16:20:01Z</time>
      </trkpt>
      <trkpt lat="45.83457" lon="5.79675">
        <ele>234</ele>
        <time>2018-10-14T16:20:01Z</time>
      </trkpt>
      <trkpt lat="45.83452" lon="5.79678">
        <ele>234</ele>
        <time>2018-10-14T16:20:01Z</time>
      </trkpt>
      <trkpt lat="45.83439" lon="5.79683">
        <ele>234</ele>
        <time>2018-10-14T16:20:17Z</time>
      </trkpt>
      <trkpt lat="45.83423" lon="5.79685">
        <ele>234</ele>
        <time>2018-10-14T16:20:17Z</time>
      </trkpt>
      <trkpt lat="45.83408" lon="5.79687">
        <ele>234</ele>
        <time>2018-10-14T16:20:17Z</time>
      </trkpt>
      <trkpt lat="45.83393" lon="5.79687">
        <ele>234</ele>
        <time>2018-10-14T16:20:17Z</time>
      </trkpt>
      <trkpt lat="45.83378" lon="5.79686">
        <ele>234</ele>
        <time>2018-10-14T16:20:33Z</time>
      </trkpt>
      <trkpt lat="45.83364" lon="5.79685">
        <ele>235</ele>
        <time>2018-10-14T16:20:33Z</time>
      </trkpt>
      <trkpt lat="45.83349" lon="5.79682">
        <ele>235</ele>
        <time>2018-10-14T16:20:33Z</time>
      </trkpt>
      <trkpt lat="45.83334" lon="5.79677">
        <ele>235</ele>
        <time>2018-10-14T16:20:33Z</time>
      </trkpt>
      <trkpt lat="45.83319" lon="5.79671">
        <ele>235</ele>
        <time>2018-10-14T16:20:49Z</time>
      </trkpt>
      <trkpt lat="45.83304" lon="5.79664">
        <ele>235</ele>
        <time>2018-10-14T16:20:49Z</time>
      </trkpt>
      <trkpt lat="45.83289" lon="5.79655">
        <ele>235</ele>
        <time>2018-10-14T16:20:49Z</time>
      </trkpt>
      <trkpt lat="45.83274" lon="5.79645">
        <ele>235</ele>
        <time>2018-10-14T16:20:49Z</time>
      </trkpt>
      <trkpt lat="45.83259" lon="5.79634">
        <ele>235</ele>
        <time>2018-10-14T16:21:05Z</time>
      </trkpt>
      <trkpt lat="45.83245" lon="5.7962">
        <ele>234</ele>
        <time>2018-10-14T16:21:05Z</time>
      </trkpt>
      <trkpt lat="45.83231" lon="5.79606">
        <ele>234</ele>
        <time>2018-10-14T16:21:05Z</time>
      </trkpt>
      <trkpt lat="45.83225" lon="5.79599">
        <ele>234</ele>
        <time>2018-10-14T16:21:05Z</time>
      </trkpt>
      <trkpt lat="45.83217" lon="5.79599">
        <ele>234</ele>
        <time>2018-10-14T16:21:21Z</time>
      </trkpt>
      <trkpt lat="45.83209" lon="5.796">
        <ele>234</ele>
        <time>2018-10-14T16:21:21Z</time>
      </trkpt>
      <trkpt lat="45.83202" lon="5.79605">
        <ele>239</ele>
        <time>2018-10-14T16:21:21Z</time>
      </trkpt>
      <trkpt lat="45.83195" lon="5.79613">
        <ele>239</ele>
        <time>2018-10-14T16:21:21Z</time>
      </trkpt>
      <trkpt lat="45.8319" lon="5.79621">
        <ele>239</ele>
        <time>2018-10-14T16:21:37Z</time>
      </trkpt>
      <trkpt lat="45.83185" lon="5.79628">
        <ele>237</ele>
        <time>2018-10-14T16:21:37Z</time>
      </trkpt>
      <trkpt lat="45.83182" lon="5.79633">
        <ele>237</ele>
        <time>2018-10-14T16:21:37Z</time>
      </trkpt>
      <trkpt lat="45.83178" lon="5.79636">
        <ele>237</ele>
        <time>2018-10-14T16:21:37Z</time>
      </trkpt>
      <trkpt lat="45.83173" lon="5.79639">
        <ele>237</ele>
        <time>2018-10-14T16:21:53Z</time>
      </trkpt>
      <trkpt lat="45.83169" lon="5.79638">
        <ele>237</ele>
        <time>2018-10-14T16:21:53Z</time>
      </trkpt>
      <trkpt lat="45.83165" lon="5.79634">
        <ele>237</ele>
        <time>2018-10-14T16:21:53Z</time>
      </trkpt>
      <trkpt lat="45.83161" lon="5.79629">
        <ele>237</ele>
        <time>2018-10-14T16:21:53Z</time>
      </trkpt>
      <trkpt lat="45.83158" lon="5.79623">
        <ele>239</ele>
        <time>2018-10-14T16:22:09Z</time>
      </trkpt>
      <trkpt lat="45.83154" lon="5.79612">
        <ele>239</ele>
        <time>2018-10-14T16:22:09Z</time>
      </trkpt>
      <trkpt lat="45.83154" lon="5.79603">
        <ele>239</ele>
        <time>2018-10-14T16:22:09Z</time>
      </trkpt>
      <trkpt lat="45.83154" lon="5.79594">
        <ele>239</ele>
        <time>2018-10-14T16:22:09Z</time>
      </trkpt>
      <trkpt lat="45.83157" lon="5.79587">
        <ele>239</ele>
        <time>2018-10-14T16:22:25Z</time>
      </trkpt>
      <trkpt lat="45.8316" lon="5.79581">
        <ele>239</ele>
        <time>2018-10-14T16:22:25Z</time>
      </trkpt>
      <trkpt lat="45.83163" lon="5.79575">
        <ele>239</ele>
        <time>2018-10-14T16:22:25Z</time>
      </trkpt>
      <trkpt lat="45.83168" lon="5.79569">
        <ele>239</ele>
        <time>2018-10-14T16:22:25Z</time>
      </trkpt>
      <trkpt lat="45.83171" lon="5.79562">
        <ele>239</ele>
        <time>2018-10-14T16:22:41Z</time>
      </trkpt>
      <trkpt lat="45.83173" lon="5.79554">
        <ele>239</ele>
        <time>2018-10-14T16:22:41Z</time>
      </trkpt>
      <trkpt lat="45.83172" lon="5.79546">
        <ele>239</ele>
        <time>2018-10-14T16:22:41Z</time>
      </trkpt>
      <trkpt lat="45.83171" lon="5.79541">
        <ele>237</ele>
        <time>2018-10-14T16:22:41Z</time>
      </trkpt>
      <trkpt lat="45.83168" lon="5.79534">
        <ele>237</ele>
        <time>2018-10-14T16:22:57Z</time>
      </trkpt>
      <trkpt lat="45.83165" lon="5.79528">
        <ele>237</ele>
        <time>2018-10-14T16:22:57Z</time>
      </trkpt>
      <trkpt lat="45.83162" lon="5.79523">
        <ele>237</ele>
        <time>2018-10-14T16:22:57Z</time>
      </trkpt>
      <trkpt lat="45.83158" lon="5.79516">
        <ele>237</ele>
        <time>2018-10-14T16:22:57Z</time>
      </trkpt>
      <trkpt lat="45.83155" lon="5.79511">
        <ele>237</ele>
        <time>2018-10-14T16:23:13Z</time>
      </trkpt>
      <trkpt lat="45.83152" lon="5.79505">
        <ele>237</ele>
        <time>2018-10-14T16:23:13Z</time>
      </trkpt>
      <trkpt lat="45.83148" lon="5.79499">
        <ele>237</ele>
        <time>2018-10-14T16:23:13Z</time>
      </trkpt>
      <trkpt lat="45.83145" lon="5.79493">
        <ele>237</ele>
        <time>2018-10-14T16:23:13Z</time>
      </trkpt>
      <trkpt lat="45.83142" lon="5.79485">
        <ele>237</ele>
        <time>2018-10-14T16:23:29Z</time>
      </trkpt>
      <trkpt lat="45.83139" lon="5.7948">
        <ele>237</ele>
        <time>2018-10-14T16:23:29Z</time>
      </trkpt>
      <trkpt lat="45.83136" lon="5.79474">
        <ele>237</ele>
        <time>2018-10-14T16:23:29Z</time>
      </trkpt>
      <trkpt lat="45.83132" lon="5.79469">
        <ele>237</ele>
        <time>2018-10-14T16:23:29Z</time>
      </trkpt>
      <trkpt lat="45.83129" lon="5.79464">
        <ele>237</ele>
        <time>2018-10-14T16:23:45Z</time>
      </trkpt>
      <trkpt lat="45.83124" lon="5.79458">
        <ele>235</ele>
        <time>2018-10-14T16:23:45Z</time>
      </trkpt>
      <trkpt lat="45.8312" lon="5.79452">
        <ele>235</ele>
        <time>2018-10-14T16:23:45Z</time>
      </trkpt>
      <trkpt lat="45.83116" lon="5.79446">
        <ele>235</ele>
        <time>2018-10-14T16:23:45Z</time>
      </trkpt>
      <trkpt lat="45.83112" lon="5.79442">
        <ele>235</ele>
        <time>2018-10-14T16:24:01Z</time>
      </trkpt>
      <trkpt lat="45.83109" lon="5.79434">
        <ele>235</ele>
        <time>2018-10-14T16:24:01Z</time>
      </trkpt>
      <trkpt lat="45.83109" lon="5.7943">
        <ele>235</ele>
        <time>2018-10-14T16:24:01Z</time>
      </trkpt>
      <trkpt lat="45.83108" lon="5.79429">
        <ele>235</ele>
        <time>2018-10-14T16:24:01Z</time>
      </trkpt>
      <trkpt lat="45.83107" lon="5.79426">
        <ele>235</ele>
        <time>2018-10-14T16:24:17Z</time>
      </trkpt>
      <trkpt lat="45.83104" lon="5.79425">
        <ele>235</ele>
        <time>2018-10-14T16:24:17Z</time>
      </trkpt>
      <trkpt lat="45.83101" lon="5.79415">
        <ele>235</ele>
        <time>2018-10-14T16:24:17Z</time>
      </trkpt>
      <trkpt lat="45.831" lon="5.79412">
        <ele>235</ele>
        <time>2018-10-14T16:24:17Z</time>
      </trkpt>
      <trkpt lat="45.83099" lon="5.79411">
        <ele>235</ele>
        <time>2018-10-14T16:24:57Z</time>
      </trkpt>
      <trkpt lat="45.83101" lon="5.79408">
        <ele>235</ele>
        <time>2018-10-14T16:24:57Z</time>
      </trkpt>
      <trkpt lat="45.83101" lon="5.79407">
        <ele>235</ele>
        <time>2018-10-14T16:24:57Z</time>
      </trkpt>
      <trkpt lat="45.83101" lon="5.79403">
        <ele>235</ele>
        <time>2018-10-14T16:24:57Z</time>
      </trkpt>
      <trkpt lat="45.83096" lon="5.79398">
        <ele>235</ele>
        <time>2018-10-14T16:24:57Z</time>
      </trkpt>
      <trkpt lat="45.83093" lon="5.79392">
        <ele>235</ele>
        <time>2018-10-14T16:25:13Z</time>
      </trkpt>
      <trkpt lat="45.83089" lon="5.79385">
        <ele>235</ele>
        <time>2018-10-14T16:25:13Z</time>
      </trkpt>
      <trkpt lat="45.83087" lon="5.79379">
        <ele>235</ele>
        <time>2018-10-14T16:25:13Z</time>
      </trkpt>
      <trkpt lat="45.83086" lon="5.79375">
        <ele>235</ele>
        <time>2018-10-14T16:25:13Z</time>
      </trkpt>
      <trkpt lat="45.83086" lon="5.79364">
        <ele>233</ele>
        <time>2018-10-14T16:28:53Z</time>
      </trkpt>
      <trkpt lat="45.83086" lon="5.79363">
        <ele>233</ele>
        <time>2018-10-14T16:28:53Z</time>
      </trkpt>
      <trkpt lat="45.83085" lon="5.79361">
        <ele>233</ele>
        <time>2018-10-14T16:28:53Z</time>
      </trkpt>
      <trkpt lat="45.83083" lon="5.79355">
        <ele>233</ele>
        <time>2018-10-14T16:28:53Z</time>
      </trkpt>
      <trkpt lat="45.83083" lon="5.79352">
        <ele>233</ele>
        <time>2018-10-14T16:28:53Z</time>
      </trkpt>
      <trkpt lat="45.83081" lon="5.79347">
        <ele>233</ele>
        <time>2018-10-14T16:29:09Z</time>
      </trkpt>
      <trkpt lat="45.83078" lon="5.79343">
        <ele>233</ele>
        <time>2018-10-14T16:29:09Z</time>
      </trkpt>
      <trkpt lat="45.83075" lon="5.79341">
        <ele>233</ele>
        <time>2018-10-14T16:29:09Z</time>
      </trkpt>
      <trkpt lat="45.83072" lon="5.79339">
        <ele>233</ele>
        <time>2018-10-14T16:29:09Z</time>
      </trkpt>
      <trkpt lat="45.8307" lon="5.79334">
        <ele>233</ele>
        <time>2018-10-14T16:29:25Z</time>
      </trkpt>
      <trkpt lat="45.83067" lon="5.79327">
        <ele>233</ele>
        <time>2018-10-14T16:29:25Z</time>
      </trkpt>
      <trkpt lat="45.83065" lon="5.7932">
        <ele>233</ele>
        <time>2018-10-14T16:29:25Z</time>
      </trkpt>
      <trkpt lat="45.83066" lon="5.79316">
        <ele>233</ele>
        <time>2018-10-14T16:29:25Z</time>
      </trkpt>
      <trkpt lat="45.83077" lon="5.79315">
        <ele>233</ele>
        <time>2018-10-14T16:30:29Z</time>
      </trkpt>
      <trkpt lat="45.83077" lon="5.79307">
        <ele>233</ele>
        <time>2018-10-14T16:30:29Z</time>
      </trkpt>
      <trkpt lat="45.83077" lon="5.79303">
        <ele>233</ele>
        <time>2018-10-14T16:30:29Z</time>
      </trkpt>
      <trkpt lat="45.83077" lon="5.79303">
        <ele>233</ele>
        <time>2018-10-14T16:30:29Z</time>
      </trkpt>
      <trkpt lat="45.83078" lon="5.79303">
        <ele>233</ele>
        <time>2018-10-14T16:30:29Z</time>
      </trkpt>
      <trkpt lat="45.83074" lon="5.79306">
        <ele>233</ele>
        <time>2018-10-14T16:31:13Z</time>
      </trkpt>
      <trkpt lat="45.83073" lon="5.79306">
        <ele>233</ele>
        <time>2018-10-14T16:31:13Z</time>
      </trkpt>
      <trkpt lat="45.83072" lon="5.79303">
        <ele>233</ele>
        <time>2018-10-14T16:31:13Z</time>
      </trkpt>
      <trkpt lat="45.83071" lon="5.79298">
        <ele>233</ele>
        <time>2018-10-14T16:31:13Z</time>
      </trkpt>
      <trkpt lat="45.83069" lon="5.79293">
        <ele>233</ele>
        <time>2018-10-14T16:31:13Z</time>
      </trkpt>
      <trkpt lat="45.83067" lon="5.79287">
        <ele>236</ele>
        <time>2018-10-14T16:31:29Z</time>
      </trkpt>
      <trkpt lat="45.83065" lon="5.79281">
        <ele>236</ele>
        <time>2018-10-14T16:31:29Z</time>
      </trkpt>
      <trkpt lat="45.83062" lon="5.79275">
        <ele>236</ele>
        <time>2018-10-14T16:31:29Z</time>
      </trkpt>
      <trkpt lat="45.8306" lon="5.7927">
        <ele>236</ele>
        <time>2018-10-14T16:31:29Z</time>
      </trkpt>
      <trkpt lat="45.83057" lon="5.79264">
        <ele>236</ele>
        <time>2018-10-14T16:31:45Z</time>
      </trkpt>
      <trkpt lat="45.83052" lon="5.79257">
        <ele>236</ele>
        <time>2018-10-14T16:31:45Z</time>
      </trkpt>
      <trkpt lat="45.83049" lon="5.79251">
        <ele>236</ele>
        <time>2018-10-14T16:31:45Z</time>
      </trkpt>
      <trkpt lat="45.83047" lon="5.79243">
        <ele>236</ele>
        <time>2018-10-14T16:31:45Z</time>
      </trkpt>
      <trkpt lat="45.83046" lon="5.79236">
        <ele>236</ele>
        <time>2018-10-14T16:32:01Z</time>
      </trkpt>
      <trkpt lat="45.83047" lon="5.79229">
        <ele>236</ele>
        <time>2018-10-14T16:32:01Z</time>
      </trkpt>
      <trkpt lat="45.83046" lon="5.79221">
        <ele>236</ele>
        <time>2018-10-14T16:32:01Z</time>
      </trkpt>
      <trkpt lat="45.83045" lon="5.79212">
        <ele>236</ele>
        <time>2018-10-14T16:32:01Z</time>
      </trkpt>
      <trkpt lat="45.83043" lon="5.79206">
        <ele>235</ele>
        <time>2018-10-14T16:32:17Z</time>
      </trkpt>
      <trkpt lat="45.83041" lon="5.79201">
        <ele>234</ele>
        <time>2018-10-14T16:32:17Z</time>
      </trkpt>
      <trkpt lat="45.83038" lon="5.79193">
        <ele>234</ele>
        <time>2018-10-14T16:32:17Z</time>
      </trkpt>
      <trkpt lat="45.83036" lon="5.79185">
        <ele>234</ele>
        <time>2018-10-14T16:32:17Z</time>
      </trkpt>
      <trkpt lat="45.83034" lon="5.79178">
        <ele>234</ele>
        <time>2018-10-14T16:32:33Z</time>
      </trkpt>
      <trkpt lat="45.83032" lon="5.79171">
        <ele>234</ele>
        <time>2018-10-14T16:32:33Z</time>
      </trkpt>
      <trkpt lat="45.83029" lon="5.79164">
        <ele>234</ele>
        <time>2018-10-14T16:32:33Z</time>
      </trkpt>
      <trkpt lat="45.83027" lon="5.79158">
        <ele>234</ele>
        <time>2018-10-14T16:32:33Z</time>
      </trkpt>
      <trkpt lat="45.83024" lon="5.79151">
        <ele>234</ele>
        <time>2018-10-14T16:32:49Z</time>
      </trkpt>
      <trkpt lat="45.83023" lon="5.79143">
        <ele>234</ele>
        <time>2018-10-14T16:32:49Z</time>
      </trkpt>
      <trkpt lat="45.8302" lon="5.79134">
        <ele>234</ele>
        <time>2018-10-14T16:32:49Z</time>
      </trkpt>
      <trkpt lat="45.83019" lon="5.79128">
        <ele>234</ele>
        <time>2018-10-14T16:32:49Z</time>
      </trkpt>
      <trkpt lat="45.83017" lon="5.79121">
        <ele>234</ele>
        <time>2018-10-14T16:33:05Z</time>
      </trkpt>
      <trkpt lat="45.83014" lon="5.79113">
        <ele>234</ele>
        <time>2018-10-14T16:33:05Z</time>
      </trkpt>
      <trkpt lat="45.83012" lon="5.79105">
        <ele>234</ele>
        <time>2018-10-14T16:33:05Z</time>
      </trkpt>
      <trkpt lat="45.8301" lon="5.791">
        <ele>234</ele>
        <time>2018-10-14T16:33:05Z</time>
      </trkpt>
      <trkpt lat="45.83008" lon="5.79092">
        <ele>234</ele>
        <time>2018-10-14T16:33:21Z</time>
      </trkpt>
      <trkpt lat="45.83005" lon="5.79081">
        <ele>234</ele>
        <time>2018-10-14T16:33:21Z</time>
      </trkpt>
      <trkpt lat="45.83003" lon="5.79075">
        <ele>234</ele>
        <time>2018-10-14T16:33:21Z</time>
      </trkpt>
      <trkpt lat="45.83001" lon="5.79067">
        <ele>234</ele>
        <time>2018-10-14T16:33:21Z</time>
      </trkpt>
      <trkpt lat="45.83" lon="5.7906">
        <ele>234</ele>
        <time>2018-10-14T16:33:37Z</time>
      </trkpt>
      <trkpt lat="45.82998" lon="5.79054">
        <ele>234</ele>
        <time>2018-10-14T16:33:37Z</time>
      </trkpt>
      <trkpt lat="45.82997" lon="5.79046">
        <ele>234</ele>
        <time>2018-10-14T16:33:37Z</time>
      </trkpt>
      <trkpt lat="45.82995" lon="5.79039">
        <ele>235</ele>
        <time>2018-10-14T16:33:37Z</time>
      </trkpt>
      <trkpt lat="45.82992" lon="5.7903">
        <ele>235</ele>
        <time>2018-10-14T16:33:53Z</time>
      </trkpt>
      <trkpt lat="45.8299" lon="5.79023">
        <ele>235</ele>
        <time>2018-10-14T16:33:53Z</time>
      </trkpt>
      <trkpt lat="45.82988" lon="5.79017">
        <ele>235</ele>
        <time>2018-10-14T16:33:53Z</time>
      </trkpt>
      <trkpt lat="45.82985" lon="5.79008">
        <ele>235</ele>
        <time>2018-10-14T16:33:53Z</time>
      </trkpt>
      <trkpt lat="45.82984" lon="5.79">
        <ele>235</ele>
        <time>2018-10-14T16:34:09Z</time>
      </trkpt>
      <trkpt lat="45.82982" lon="5.78994">
        <ele>235</ele>
        <time>2018-10-14T16:34:09Z</time>
      </trkpt>
      <trkpt lat="45.8298" lon="5.78986">
        <ele>235</ele>
        <time>2018-10-14T16:34:09Z</time>
      </trkpt>
      <trkpt lat="45.82978" lon="5.7898">
        <ele>235</ele>
        <time>2018-10-14T16:34:09Z</time>
      </trkpt>
      <trkpt lat="45.82977" lon="5.78972">
        <ele>235</ele>
        <time>2018-10-14T16:34:25Z</time>
      </trkpt>
      <trkpt lat="45.82975" lon="5.78964">
        <ele>235</ele>
        <time>2018-10-14T16:34:25Z</time>
      </trkpt>
      <trkpt lat="45.82974" lon="5.78958">
        <ele>238</ele>
        <time>2018-10-14T16:34:25Z</time>
      </trkpt>
      <trkpt lat="45.82971" lon="5.7895">
        <ele>238</ele>
        <time>2018-10-14T16:34:25Z</time>
      </trkpt>
      <trkpt lat="45.82968" lon="5.78941">
        <ele>238</ele>
        <time>2018-10-14T16:34:41Z</time>
      </trkpt>
      <trkpt lat="45.82966" lon="5.78934">
        <ele>238</ele>
        <time>2018-10-14T16:34:41Z</time>
      </trkpt>
      <trkpt lat="45.82965" lon="5.78925">
        <ele>238</ele>
        <time>2018-10-14T16:34:41Z</time>
      </trkpt>
      <trkpt lat="45.82964" lon="5.78917">
        <ele>238</ele>
        <time>2018-10-14T16:34:41Z</time>
      </trkpt>
      <trkpt lat="45.82963" lon="5.7891">
        <ele>238</ele>
        <time>2018-10-14T16:34:57Z</time>
      </trkpt>
      <trkpt lat="45.82961" lon="5.78904">
        <ele>238</ele>
        <time>2018-10-14T16:34:57Z</time>
      </trkpt>
      <trkpt lat="45.82959" lon="5.789">
        <ele>238</ele>
        <time>2018-10-14T16:34:57Z</time>
      </trkpt>
      <trkpt lat="45.82957" lon="5.78891">
        <ele>236</ele>
        <time>2018-10-14T16:34:57Z</time>
      </trkpt>
      <trkpt lat="45.82954" lon="5.78883">
        <ele>236</ele>
        <time>2018-10-14T16:35:13Z</time>
      </trkpt>
      <trkpt lat="45.82952" lon="5.78875">
        <ele>236</ele>
        <time>2018-10-14T16:35:13Z</time>
      </trkpt>
      <trkpt lat="45.82951" lon="5.78868">
        <ele>235</ele>
        <time>2018-10-14T16:35:13Z</time>
      </trkpt>
      <trkpt lat="45.82949" lon="5.7886">
        <ele>235</ele>
        <time>2018-10-14T16:35:13Z</time>
      </trkpt>
      <trkpt lat="45.82947" lon="5.78851">
        <ele>235</ele>
        <time>2018-10-14T16:35:29Z</time>
      </trkpt>
      <trkpt lat="45.82946" lon="5.78844">
        <ele>235</ele>
        <time>2018-10-14T16:35:29Z</time>
      </trkpt>
      <trkpt lat="45.82944" lon="5.78837">
        <ele>235</ele>
        <time>2018-10-14T16:35:29Z</time>
      </trkpt>
      <trkpt lat="45.82943" lon="5.78829">
        <ele>235</ele>
        <time>2018-10-14T16:35:29Z</time>
      </trkpt>
      <trkpt lat="45.82941" lon="5.78822">
        <ele>235</ele>
        <time>2018-10-14T16:35:45Z</time>
      </trkpt>
      <trkpt lat="45.82939" lon="5.78815">
        <ele>235</ele>
        <time>2018-10-14T16:35:45Z</time>
      </trkpt>
      <trkpt lat="45.82937" lon="5.78808">
        <ele>235</ele>
        <time>2018-10-14T16:35:45Z</time>
      </trkpt>
      <trkpt lat="45.82935" lon="5.78803">
        <ele>235</ele>
        <time>2018-10-14T16:35:45Z</time>
      </trkpt>
      <trkpt lat="45.82932" lon="5.78796">
        <ele>235</ele>
        <time>2018-10-14T16:36:01Z</time>
      </trkpt>
      <trkpt lat="45.8293" lon="5.7879">
        <ele>235</ele>
        <time>2018-10-14T16:36:01Z</time>
      </trkpt>
      <trkpt lat="45.82928" lon="5.78784">
        <ele>235</ele>
        <time>2018-10-14T16:36:01Z</time>
      </trkpt>
      <trkpt lat="45.82926" lon="5.78778">
        <ele>235</ele>
        <time>2018-10-14T16:36:01Z</time>
      </trkpt>
      <trkpt lat="45.82923" lon="5.78772">
        <ele>235</ele>
        <time>2018-10-14T16:36:17Z</time>
      </trkpt>
      <trkpt lat="45.8292" lon="5.78763">
        <ele>235</ele>
        <time>2018-10-14T16:36:17Z</time>
      </trkpt>
      <trkpt lat="45.82918" lon="5.78756">
        <ele>235</ele>
        <time>2018-10-14T16:36:17Z</time>
      </trkpt>
      <trkpt lat="45.82915" lon="5.78749">
        <ele>235</ele>
        <time>2018-10-14T16:36:17Z</time>
      </trkpt>
      <trkpt lat="45.82912" lon="5.78742">
        <ele>235</ele>
        <time>2018-10-14T16:36:33Z</time>
      </trkpt>
      <trkpt lat="45.82909" lon="5.78736">
        <ele>235</ele>
        <time>2018-10-14T16:36:33Z</time>
      </trkpt>
      <trkpt lat="45.82905" lon="5.7873">
        <ele>235</ele>
        <time>2018-10-14T16:36:33Z</time>
      </trkpt>
      <trkpt lat="45.82902" lon="5.78724">
        <ele>235</ele>
        <time>2018-10-14T16:36:33Z</time>
      </trkpt>
      <trkpt lat="45.82898" lon="5.78718">
        <ele>235</ele>
        <time>2018-10-14T16:36:49Z</time>
      </trkpt>
      <trkpt lat="45.82894" lon="5.78712">
        <ele>235</ele>
        <time>2018-10-14T16:36:49Z</time>
      </trkpt>
      <trkpt lat="45.8289" lon="5.78706">
        <ele>239</ele>
        <time>2018-10-14T16:36:49Z</time>
      </trkpt>
      <trkpt lat="45.82886" lon="5.787">
        <ele>239</ele>
        <time>2018-10-14T16:36:49Z</time>
      </trkpt>
      <trkpt lat="45.82882" lon="5.78694">
        <ele>239</ele>
        <time>2018-10-14T16:37:05Z</time>
      </trkpt>
      <trkpt lat="45.82878" lon="5.78689">
        <ele>239</ele>
        <time>2018-10-14T16:37:05Z</time>
      </trkpt>
      <trkpt lat="45.82874" lon="5.78682">
        <ele>236</ele>
        <time>2018-10-14T16:37:05Z</time>
      </trkpt>
      <trkpt lat="45.8287" lon="5.78678">
        <ele>236</ele>
        <time>2018-10-14T16:37:05Z</time>
      </trkpt>
      <trkpt lat="45.82865" lon="5.78672">
        <ele>236</ele>
        <time>2018-10-14T16:37:21Z</time>
      </trkpt>
      <trkpt lat="45.82861" lon="5.78665">
        <ele>236</ele>
        <time>2018-10-14T16:37:21Z</time>
      </trkpt>
      <trkpt lat="45.82857" lon="5.78661">
        <ele>236</ele>
        <time>2018-10-14T16:37:21Z</time>
      </trkpt>
      <trkpt lat="45.82853" lon="5.78656">
        <ele>236</ele>
        <time>2018-10-14T16:37:21Z</time>
      </trkpt>
      <trkpt lat="45.82849" lon="5.78651">
        <ele>236</ele>
        <time>2018-10-14T16:37:37Z</time>
      </trkpt>
      <trkpt lat="45.82843" lon="5.78646">
        <ele>236</ele>
        <time>2018-10-14T16:37:37Z</time>
      </trkpt>
      <trkpt lat="45.82838" lon="5.78642">
        <ele>236</ele>
        <time>2018-10-14T16:37:37Z</time>
      </trkpt>
      <trkpt lat="45.82833" lon="5.78639">
        <ele>236</ele>
        <time>2018-10-14T16:37:37Z</time>
      </trkpt>
      <trkpt lat="45.82828" lon="5.78635">
        <ele>236</ele>
        <time>2018-10-14T16:37:53Z</time>
      </trkpt>
      <trkpt lat="45.82824" lon="5.7863">
        <ele>236</ele>
        <time>2018-10-14T16:37:53Z</time>
      </trkpt>
      <trkpt lat="45.82818" lon="5.78626">
        <ele>236</ele>
        <time>2018-10-14T16:37:53Z</time>
      </trkpt>
      <trkpt lat="45.82812" lon="5.78623">
        <ele>238</ele>
        <time>2018-10-14T16:37:53Z</time>
      </trkpt>
      <trkpt lat="45.82807" lon="5.78619">
        <ele>238</ele>
        <time>2018-10-14T16:38:09Z</time>
      </trkpt>
      <trkpt lat="45.82802" lon="5.78613">
        <ele>238</ele>
        <time>2018-10-14T16:38:09Z</time>
      </trkpt>
      <trkpt lat="45.82797" lon="5.7861">
        <ele>238</ele>
        <time>2018-10-14T16:38:09Z</time>
      </trkpt>
      <trkpt lat="45.82792" lon="5.78608">
        <ele>238</ele>
        <time>2018-10-14T16:38:09Z</time>
      </trkpt>
      <trkpt lat="45.82788" lon="5.78604">
        <ele>236</ele>
        <time>2018-10-14T16:38:25Z</time>
      </trkpt>
      <trkpt lat="45.82782" lon="5.78601">
        <ele>236</ele>
        <time>2018-10-14T16:38:25Z</time>
      </trkpt>
      <trkpt lat="45.82778" lon="5.78598">
        <ele>236</ele>
        <time>2018-10-14T16:38:25Z</time>
      </trkpt>
      <trkpt lat="45.82773" lon="5.78595">
        <ele>236</ele>
        <time>2018-10-14T16:38:25Z</time>
      </trkpt>
      <trkpt lat="45.82768" lon="5.78592">
        <ele>236</ele>
        <time>2018-10-14T16:38:41Z</time>
      </trkpt>
      <trkpt lat="45.82763" lon="5.78589">
        <ele>236</ele>
        <time>2018-10-14T16:38:41Z</time>
      </trkpt>
      <trkpt lat="45.82758" lon="5.78586">
        <ele>236</ele>
        <time>2018-10-14T16:38:41Z</time>
      </trkpt>
      <trkpt lat="45.82752" lon="5.78583">
        <ele>236</ele>
        <time>2018-10-14T16:38:41Z</time>
      </trkpt>
      <trkpt lat="45.82746" lon="5.7858">
        <ele>236</ele>
        <time>2018-10-14T16:38:57Z</time>
      </trkpt>
      <trkpt lat="45.82739" lon="5.78577">
        <ele>236</ele>
        <time>2018-10-14T16:38:57Z</time>
      </trkpt>
      <trkpt lat="45.82731" lon="5.78575">
        <ele>236</ele>
        <time>2018-10-14T16:38:57Z</time>
      </trkpt>
      <trkpt lat="45.82725" lon="5.78573">
        <ele>236</ele>
        <time>2018-10-14T16:38:57Z</time>
      </trkpt>
      <trkpt lat="45.8272" lon="5.78571">
        <ele>236</ele>
        <time>2018-10-14T16:39:13Z</time>
      </trkpt>
      <trkpt lat="45.82715" lon="5.7857">
        <ele>236</ele>
        <time>2018-10-14T16:39:13Z</time>
      </trkpt>
      <trkpt lat="45.82711" lon="5.78569">
        <ele>236</ele>
        <time>2018-10-14T16:39:13Z</time>
      </trkpt>
      <trkpt lat="45.82706" lon="5.78569">
        <ele>235</ele>
        <time>2018-10-14T16:39:13Z</time>
      </trkpt>
      <trkpt lat="45.827" lon="5.78567">
        <ele>235</ele>
        <time>2018-10-14T16:39:29Z</time>
      </trkpt>
      <trkpt lat="45.82694" lon="5.78563">
        <ele>235</ele>
        <time>2018-10-14T16:39:29Z</time>
      </trkpt>
      <trkpt lat="45.82689" lon="5.78561">
        <ele>235</ele>
        <time>2018-10-14T16:39:29Z</time>
      </trkpt>
      <trkpt lat="45.82686" lon="5.78558">
        <ele>235</ele>
        <time>2018-10-14T16:39:29Z</time>
      </trkpt>
      <trkpt lat="45.8268" lon="5.78556">
        <ele>235</ele>
        <time>2018-10-14T16:39:45Z</time>
      </trkpt>
      <trkpt lat="45.82674" lon="5.78554">
        <ele>235</ele>
        <time>2018-10-14T16:39:45Z</time>
      </trkpt>
      <trkpt lat="45.82668" lon="5.78555">
        <ele>235</ele>
        <time>2018-10-14T16:39:45Z</time>
      </trkpt>
      <trkpt lat="45.82663" lon="5.78553">
        <ele>235</ele>
        <time>2018-10-14T16:39:45Z</time>
      </trkpt>
      <trkpt lat="45.82658" lon="5.78552">
        <ele>235</ele>
        <time>2018-10-14T16:40:01Z</time>
      </trkpt>
      <trkpt lat="45.82652" lon="5.7855">
        <ele>235</ele>
        <time>2018-10-14T16:40:01Z</time>
      </trkpt>
      <trkpt lat="45.82646" lon="5.78549">
        <ele>235</ele>
        <time>2018-10-14T16:40:01Z</time>
      </trkpt>
      <trkpt lat="45.8264" lon="5.78547">
        <ele>235</ele>
        <time>2018-10-14T16:40:01Z</time>
      </trkpt>
      <trkpt lat="45.82634" lon="5.78545">
        <ele>235</ele>
        <time>2018-10-14T16:40:17Z</time>
      </trkpt>
      <trkpt lat="45.82628" lon="5.78544">
        <ele>235</ele>
        <time>2018-10-14T16:40:17Z</time>
      </trkpt>
      <trkpt lat="45.82622" lon="5.78543">
        <ele>235</ele>
        <time>2018-10-14T16:40:17Z</time>
      </trkpt>
      <trkpt lat="45.82617" lon="5.78542">
        <ele>235</ele>
        <time>2018-10-14T16:40:17Z</time>
      </trkpt>
      <trkpt lat="45.82612" lon="5.78541">
        <ele>233</ele>
        <time>2018-10-14T16:40:33Z</time>
      </trkpt>
      <trkpt lat="45.82608" lon="5.7854">
        <ele>233</ele>
        <time>2018-10-14T16:40:33Z</time>
      </trkpt>
      <trkpt lat="45.82603" lon="5.78538">
        <ele>233</ele>
        <time>2018-10-14T16:40:33Z</time>
      </trkpt>
      <trkpt lat="45.82597" lon="5.78538">
        <ele>233</ele>
        <time>2018-10-14T16:40:33Z</time>
      </trkpt>
      <trkpt lat="45.82591" lon="5.78535">
        <ele>233</ele>
        <time>2018-10-14T16:40:49Z</time>
      </trkpt>
      <trkpt lat="45.82585" lon="5.78533">
        <ele>233</ele>
        <time>2018-10-14T16:40:49Z</time>
      </trkpt>
      <trkpt lat="45.82579" lon="5.78531">
        <ele>233</ele>
        <time>2018-10-14T16:40:49Z</time>
      </trkpt>
      <trkpt lat="45.82574" lon="5.7853">
        <ele>233</ele>
        <time>2018-10-14T16:40:49Z</time>
      </trkpt>
      <trkpt lat="45.8257" lon="5.78528">
        <ele>233</ele>
        <time>2018-10-14T16:41:05Z</time>
      </trkpt>
      <trkpt lat="45.82564" lon="5.78526">
        <ele>233</ele>
        <time>2018-10-14T16:41:05Z</time>
      </trkpt>
      <trkpt lat="45.82559" lon="5.78525">
        <ele>233</ele>
        <time>2018-10-14T16:41:05Z</time>
      </trkpt>
      <trkpt lat="45.82554" lon="5.78524">
        <ele>233</ele>
        <time>2018-10-14T16:41:05Z</time>
      </trkpt>
      <trkpt lat="45.82549" lon="5.78523">
        <ele>233</ele>
        <time>2018-10-14T16:41:21Z</time>
      </trkpt>
      <trkpt lat="45.82544" lon="5.78521">
        <ele>233</ele>
        <time>2018-10-14T16:41:21Z</time>
      </trkpt>
      <trkpt lat="45.82539" lon="5.7852">
        <ele>232</ele>
        <time>2018-10-14T16:41:21Z</time>
      </trkpt>
      <trkpt lat="45.82533" lon="5.78519">
        <ele>232</ele>
        <time>2018-10-14T16:41:21Z</time>
      </trkpt>
      <trkpt lat="45.82527" lon="5.78518">
        <ele>232</ele>
        <time>2018-10-14T16:41:37Z</time>
      </trkpt>
      <trkpt lat="45.82521" lon="5.78517">
        <ele>232</ele>
        <time>2018-10-14T16:41:37Z</time>
      </trkpt>
      <trkpt lat="45.82515" lon="5.78516">
        <ele>232</ele>
        <time>2018-10-14T16:41:37Z</time>
      </trkpt>
      <trkpt lat="45.8251" lon="5.78514">
        <ele>232</ele>
        <time>2018-10-14T16:41:37Z</time>
      </trkpt>
      <trkpt lat="45.82505" lon="5.78512">
        <ele>232</ele>
        <time>2018-10-14T16:41:53Z</time>
      </trkpt>
      <trkpt lat="45.825" lon="5.78511">
        <ele>232</ele>
        <time>2018-10-14T16:41:53Z</time>
      </trkpt>
      <trkpt lat="45.82496" lon="5.78509">
        <ele>232</ele>
        <time>2018-10-14T16:41:53Z</time>
      </trkpt>
      <trkpt lat="45.82491" lon="5.78507">
        <ele>232</ele>
        <time>2018-10-14T16:41:53Z</time>
      </trkpt>
      <trkpt lat="45.82486" lon="5.78506">
        <ele>232</ele>
        <time>2018-10-14T16:42:09Z</time>
      </trkpt>
      <trkpt lat="45.8248" lon="5.78504">
        <ele>232</ele>
        <time>2018-10-14T16:42:09Z</time>
      </trkpt>
      <trkpt lat="45.82474" lon="5.78502">
        <ele>232</ele>
        <time>2018-10-14T16:42:09Z</time>
      </trkpt>
      <trkpt lat="45.82468" lon="5.785">
        <ele>232</ele>
        <time>2018-10-14T16:42:09Z</time>
      </trkpt>
      <trkpt lat="45.82463" lon="5.78499">
        <ele>232</ele>
        <time>2018-10-14T16:42:25Z</time>
      </trkpt>
      <trkpt lat="45.82457" lon="5.78497">
        <ele>232</ele>
        <time>2018-10-14T16:42:25Z</time>
      </trkpt>
      <trkpt lat="45.82452" lon="5.78496">
        <ele>232</ele>
        <time>2018-10-14T16:42:25Z</time>
      </trkpt>
      <trkpt lat="45.82447" lon="5.78495">
        <ele>232</ele>
        <time>2018-10-14T16:42:25Z</time>
      </trkpt>
      <trkpt lat="45.82441" lon="5.78493">
        <ele>232</ele>
        <time>2018-10-14T16:42:41Z</time>
      </trkpt>
      <trkpt lat="45.82437" lon="5.7849">
        <ele>232</ele>
        <time>2018-10-14T16:42:41Z</time>
      </trkpt>
      <trkpt lat="45.82433" lon="5.78487">
        <ele>232</ele>
        <time>2018-10-14T16:42:41Z</time>
      </trkpt>
      <trkpt lat="45.82427" lon="5.78485">
        <ele>232</ele>
        <time>2018-10-14T16:42:41Z</time>
      </trkpt>
      <trkpt lat="45.82421" lon="5.78486">
        <ele>232</ele>
        <time>2018-10-14T16:42:57Z</time>
      </trkpt>
      <trkpt lat="45.82417" lon="5.78486">
        <ele>232</ele>
        <time>2018-10-14T16:42:57Z</time>
      </trkpt>
      <trkpt lat="45.8241" lon="5.78486">
        <ele>232</ele>
        <time>2018-10-14T16:42:57Z</time>
      </trkpt>
      <trkpt lat="45.82404" lon="5.78485">
        <ele>232</ele>
        <time>2018-10-14T16:42:57Z</time>
      </trkpt>
      <trkpt lat="45.82398" lon="5.78483">
        <ele>232</ele>
        <time>2018-10-14T16:43:13Z</time>
      </trkpt>
      <trkpt lat="45.82393" lon="5.78482">
        <ele>232</ele>
        <time>2018-10-14T16:43:13Z</time>
      </trkpt>
      <trkpt lat="45.82388" lon="5.78481">
        <ele>232</ele>
        <time>2018-10-14T16:43:13Z</time>
      </trkpt>
      <trkpt lat="45.82382" lon="5.7848">
        <ele>232</ele>
        <time>2018-10-14T16:43:13Z</time>
      </trkpt>
      <trkpt lat="45.82376" lon="5.78478">
        <ele>232</ele>
        <time>2018-10-14T16:43:29Z</time>
      </trkpt>
      <trkpt lat="45.8237" lon="5.78476">
        <ele>234</ele>
        <time>2018-10-14T16:43:29Z</time>
      </trkpt>
      <trkpt lat="45.82365" lon="5.78475">
        <ele>234</ele>
        <time>2018-10-14T16:43:29Z</time>
      </trkpt>
      <trkpt lat="45.8236" lon="5.78473">
        <ele>234</ele>
        <time>2018-10-14T16:43:29Z</time>
      </trkpt>
      <trkpt lat="45.82355" lon="5.78472">
        <ele>234</ele>
        <time>2018-10-14T16:43:45Z</time>
      </trkpt>
      <trkpt lat="45.82349" lon="5.7847">
        <ele>234</ele>
        <time>2018-10-14T16:43:45Z</time>
      </trkpt>
      <trkpt lat="45.82344" lon="5.7847">
        <ele>234</ele>
        <time>2018-10-14T16:43:45Z</time>
      </trkpt>
      <trkpt lat="45.82339" lon="5.78469">
        <ele>234</ele>
        <time>2018-10-14T16:43:45Z</time>
      </trkpt>
      <trkpt lat="45.82333" lon="5.78466">
        <ele>234</ele>
        <time>2018-10-14T16:44:01Z</time>
      </trkpt>
      <trkpt lat="45.82328" lon="5.78464">
        <ele>234</ele>
        <time>2018-10-14T16:44:01Z</time>
      </trkpt>
      <trkpt lat="45.82323" lon="5.78461">
        <ele>234</ele>
        <time>2018-10-14T16:44:01Z</time>
      </trkpt>
      <trkpt lat="45.82318" lon="5.7846">
        <ele>234</ele>
        <time>2018-10-14T16:44:01Z</time>
      </trkpt>
      <trkpt lat="45.82312" lon="5.78459">
        <ele>234</ele>
        <time>2018-10-14T16:44:17Z</time>
      </trkpt>
      <trkpt lat="45.82307" lon="5.78458">
        <ele>234</ele>
        <time>2018-10-14T16:44:17Z</time>
      </trkpt>
      <trkpt lat="45.82301" lon="5.78456">
        <ele>234</ele>
        <time>2018-10-14T16:44:17Z</time>
      </trkpt>
      <trkpt lat="45.82297" lon="5.78455">
        <ele>234</ele>
        <time>2018-10-14T16:44:17Z</time>
      </trkpt>
      <trkpt lat="45.82292" lon="5.78453">
        <ele>234</ele>
        <time>2018-10-14T16:44:33Z</time>
      </trkpt>
      <trkpt lat="45.82287" lon="5.78452">
        <ele>236</ele>
        <time>2018-10-14T16:44:33Z</time>
      </trkpt>
      <trkpt lat="45.82281" lon="5.7845">
        <ele>236</ele>
        <time>2018-10-14T16:44:33Z</time>
      </trkpt>
      <trkpt lat="45.82276" lon="5.7845">
        <ele>236</ele>
        <time>2018-10-14T16:44:33Z</time>
      </trkpt>
      <trkpt lat="45.8227" lon="5.78448">
        <ele>236</ele>
        <time>2018-10-14T16:44:49Z</time>
      </trkpt>
      <trkpt lat="45.82266" lon="5.78447">
        <ele>236</ele>
        <time>2018-10-14T16:44:49Z</time>
      </trkpt>
      <trkpt lat="45.82261" lon="5.78444">
        <ele>236</ele>
        <time>2018-10-14T16:44:49Z</time>
      </trkpt>
      <trkpt lat="45.82256" lon="5.78441">
        <ele>236</ele>
        <time>2018-10-14T16:44:49Z</time>
      </trkpt>
      <trkpt lat="45.82251" lon="5.7844">
        <ele>236</ele>
        <time>2018-10-14T16:45:05Z</time>
      </trkpt>
      <trkpt lat="45.82244" lon="5.78438">
        <ele>236</ele>
        <time>2018-10-14T16:45:05Z</time>
      </trkpt>
      <trkpt lat="45.82238" lon="5.78437">
        <ele>236</ele>
        <time>2018-10-14T16:45:05Z</time>
      </trkpt>
      <trkpt lat="45.82233" lon="5.78436">
        <ele>236</ele>
        <time>2018-10-14T16:45:05Z</time>
      </trkpt>
      <trkpt lat="45.82228" lon="5.78434">
        <ele>236</ele>
        <time>2018-10-14T16:45:21Z</time>
      </trkpt>
      <trkpt lat="45.82223" lon="5.78432">
        <ele>236</ele>
        <time>2018-10-14T16:45:21Z</time>
      </trkpt>
      <trkpt lat="45.82219" lon="5.78431">
        <ele>236</ele>
        <time>2018-10-14T16:45:21Z</time>
      </trkpt>
      <trkpt lat="45.82213" lon="5.7843">
        <ele>236</ele>
        <time>2018-10-14T16:45:21Z</time>
      </trkpt>
      <trkpt lat="45.82208" lon="5.78428">
        <ele>235</ele>
        <time>2018-10-14T16:45:37Z</time>
      </trkpt>
      <trkpt lat="45.82203" lon="5.78426">
        <ele>235</ele>
        <time>2018-10-14T16:45:37Z</time>
      </trkpt>
      <trkpt lat="45.82197" lon="5.78425">
        <ele>235</ele>
        <time>2018-10-14T16:45:37Z</time>
      </trkpt>
      <trkpt lat="45.82191" lon="5.78424">
        <ele>235</ele>
        <time>2018-10-14T16:45:37Z</time>
      </trkpt>
      <trkpt lat="45.82186" lon="5.78424">
        <ele>235</ele>
        <time>2018-10-14T16:45:53Z</time>
      </trkpt>
      <trkpt lat="45.82179" lon="5.78424">
        <ele>235</ele>
        <time>2018-10-14T16:45:53Z</time>
      </trkpt>
      <trkpt lat="45.82173" lon="5.78421">
        <ele>235</ele>
        <time>2018-10-14T16:45:53Z</time>
      </trkpt>
      <trkpt lat="45.82168" lon="5.7842">
        <ele>235</ele>
        <time>2018-10-14T16:45:53Z</time>
      </trkpt>
      <trkpt lat="45.82163" lon="5.78417">
        <ele>235</ele>
        <time>2018-10-14T16:46:09Z</time>
      </trkpt>
      <trkpt lat="45.82157" lon="5.78415">
        <ele>235</ele>
        <time>2018-10-14T16:46:09Z</time>
      </trkpt>
      <trkpt lat="45.82151" lon="5.78415">
        <ele>235</ele>
        <time>2018-10-14T16:46:09Z</time>
      </trkpt>
      <trkpt lat="45.82146" lon="5.78413">
        <ele>235</ele>
        <time>2018-10-14T16:46:09Z</time>
      </trkpt>
      <trkpt lat="45.82141" lon="5.78411">
        <ele>235</ele>
        <time>2018-10-14T16:46:25Z</time>
      </trkpt>
      <trkpt lat="45.82137" lon="5.7841">
        <ele>235</ele>
        <time>2018-10-14T16:46:25Z</time>
      </trkpt>
      <trkpt lat="45.82132" lon="5.78408">
        <ele>235</ele>
        <time>2018-10-14T16:46:25Z</time>
      </trkpt>
      <trkpt lat="45.82126" lon="5.78407">
        <ele>235</ele>
        <time>2018-10-14T16:46:25Z</time>
      </trkpt>
      <trkpt lat="45.82122" lon="5.78405">
        <ele>233</ele>
        <time>2018-10-14T16:46:41Z</time>
      </trkpt>
      <trkpt lat="45.82115" lon="5.78405">
        <ele>233</ele>
        <time>2018-10-14T16:46:41Z</time>
      </trkpt>
      <trkpt lat="45.82111" lon="5.78402">
        <ele>233</ele>
        <time>2018-10-14T16:46:41Z</time>
      </trkpt>
      <trkpt lat="45.82107" lon="5.78399">
        <ele>233</ele>
        <time>2018-10-14T16:46:41Z</time>
      </trkpt>
      <trkpt lat="45.82099" lon="5.78401">
        <ele>233</ele>
        <time>2018-10-14T16:46:57Z</time>
      </trkpt>
      <trkpt lat="45.82093" lon="5.78399">
        <ele>233</ele>
        <time>2018-10-14T16:46:57Z</time>
      </trkpt>
      <trkpt lat="45.82087" lon="5.78397">
        <ele>233</ele>
        <time>2018-10-14T16:46:57Z</time>
      </trkpt>
      <trkpt lat="45.82083" lon="5.78394">
        <ele>233</ele>
        <time>2018-10-14T16:46:57Z</time>
      </trkpt>
      <trkpt lat="45.82077" lon="5.78392">
        <ele>233</ele>
        <time>2018-10-14T16:47:13Z</time>
      </trkpt>
      <trkpt lat="45.82071" lon="5.78391">
        <ele>233</ele>
        <time>2018-10-14T16:47:13Z</time>
      </trkpt>
      <trkpt lat="45.82066" lon="5.7839">
        <ele>233</ele>
        <time>2018-10-14T16:47:13Z</time>
      </trkpt>
      <trkpt lat="45.8206" lon="5.78389">
        <ele>233</ele>
        <time>2018-10-14T16:47:13Z</time>
      </trkpt>
      <trkpt lat="45.82054" lon="5.78387">
        <ele>233</ele>
        <time>2018-10-14T16:47:29Z</time>
      </trkpt>
      <trkpt lat="45.82048" lon="5.78385">
        <ele>233</ele>
        <time>2018-10-14T16:47:29Z</time>
      </trkpt>
      <trkpt lat="45.82042" lon="5.78383">
        <ele>233</ele>
        <time>2018-10-14T16:47:29Z</time>
      </trkpt>
      <trkpt lat="45.82037" lon="5.78382">
        <ele>233</ele>
        <time>2018-10-14T16:47:29Z</time>
      </trkpt>
      <trkpt lat="45.82032" lon="5.7838">
        <ele>233</ele>
        <time>2018-10-14T16:47:45Z</time>
      </trkpt>
      <trkpt lat="45.82027" lon="5.78379">
        <ele>233</ele>
        <time>2018-10-14T16:47:45Z</time>
      </trkpt>
      <trkpt lat="45.82023" lon="5.78378">
        <ele>233</ele>
        <time>2018-10-14T16:47:45Z</time>
      </trkpt>
      <trkpt lat="45.82018" lon="5.78377">
        <ele>233</ele>
        <time>2018-10-14T16:47:45Z</time>
      </trkpt>
      <trkpt lat="45.82011" lon="5.78375">
        <ele>233</ele>
        <time>2018-10-14T16:48:01Z</time>
      </trkpt>
      <trkpt lat="45.82004" lon="5.78375">
        <ele>233</ele>
        <time>2018-10-14T16:48:01Z</time>
      </trkpt>
      <trkpt lat="45.81999" lon="5.78374">
        <ele>233</ele>
        <time>2018-10-14T16:48:01Z</time>
      </trkpt>
      <trkpt lat="45.81993" lon="5.78372">
        <ele>233</ele>
        <time>2018-10-14T16:48:01Z</time>
      </trkpt>
      <trkpt lat="45.81988" lon="5.78368">
        <ele>233</ele>
        <time>2018-10-14T16:48:17Z</time>
      </trkpt>
      <trkpt lat="45.81983" lon="5.78366">
        <ele>233</ele>
        <time>2018-10-14T16:48:17Z</time>
      </trkpt>
      <trkpt lat="45.81978" lon="5.78365">
        <ele>233</ele>
        <time>2018-10-14T16:48:17Z</time>
      </trkpt>
      <trkpt lat="45.81972" lon="5.78363">
        <ele>233</ele>
        <time>2018-10-14T16:48:17Z</time>
      </trkpt>
      <trkpt lat="45.81968" lon="5.78358">
        <ele>233</ele>
        <time>2018-10-14T16:48:33Z</time>
      </trkpt>
      <trkpt lat="45.81963" lon="5.78351">
        <ele>233</ele>
        <time>2018-10-14T16:48:33Z</time>
      </trkpt>
      <trkpt lat="45.81957" lon="5.78344">
        <ele>234</ele>
        <time>2018-10-14T16:48:33Z</time>
      </trkpt>
      <trkpt lat="45.81948" lon="5.78336">
        <ele>234</ele>
        <time>2018-10-14T16:48:33Z</time>
      </trkpt>
      <trkpt lat="45.81927" lon="5.78331">
        <ele>234</ele>
        <time>2018-10-14T16:48:49Z</time>
      </trkpt>
      <trkpt lat="45.81905" lon="5.78323">
        <ele>234</ele>
        <time>2018-10-14T16:48:49Z</time>
      </trkpt>
      <trkpt lat="45.81885" lon="5.78319">
        <ele>234</ele>
        <time>2018-10-14T16:48:49Z</time>
      </trkpt>
      <trkpt lat="45.81862" lon="5.78322">
        <ele>234</ele>
        <time>2018-10-14T16:48:49Z</time>
      </trkpt>
      <trkpt lat="45.81838" lon="5.78317">
        <ele>234</ele>
        <time>2018-10-14T16:49:05Z</time>
      </trkpt>
      <trkpt lat="45.81814" lon="5.78309">
        <ele>234</ele>
        <time>2018-10-14T16:49:05Z</time>
      </trkpt>
      <trkpt lat="45.81791" lon="5.78302">
        <ele>234</ele>
        <time>2018-10-14T16:49:05Z</time>
      </trkpt>
      <trkpt lat="45.81773" lon="5.78297">
        <ele>234</ele>
        <time>2018-10-14T16:49:05Z</time>
      </trkpt>
      <trkpt lat="45.81761" lon="5.78292">
        <ele>234</ele>
        <time>2018-10-14T16:49:21Z</time>
      </trkpt>
      <trkpt lat="45.81754" lon="5.7829">
        <ele>232</ele>
        <time>2018-10-14T16:49:21Z</time>
      </trkpt>
      <trkpt lat="45.81747" lon="5.78291">
        <ele>232</ele>
        <time>2018-10-14T16:49:21Z</time>
      </trkpt>
      <trkpt lat="45.81741" lon="5.78291">
        <ele>232</ele>
        <time>2018-10-14T16:49:21Z</time>
      </trkpt>
      <trkpt lat="45.81736" lon="5.78289">
        <ele>232</ele>
        <time>2018-10-14T16:49:37Z</time>
      </trkpt>
      <trkpt lat="45.8173" lon="5.78287">
        <ele>232</ele>
        <time>2018-10-14T16:49:37Z</time>
      </trkpt>
      <trkpt lat="45.81724" lon="5.78285">
        <ele>232</ele>
        <time>2018-10-14T16:49:37Z</time>
      </trkpt>
      <trkpt lat="45.81717" lon="5.78286">
        <ele>232</ele>
        <time>2018-10-14T16:49:37Z</time>
      </trkpt>
      <trkpt lat="45.81712" lon="5.7829">
        <ele>232</ele>
        <time>2018-10-14T16:49:53Z</time>
      </trkpt>
      <trkpt lat="45.81708" lon="5.78296">
        <ele>231</ele>
        <time>2018-10-14T16:49:53Z</time>
      </trkpt>
      <trkpt lat="45.81704" lon="5.78299">
        <ele>231</ele>
        <time>2018-10-14T16:49:53Z</time>
      </trkpt>
      <trkpt lat="45.81698" lon="5.78301">
        <ele>231</ele>
        <time>2018-10-14T16:49:53Z</time>
      </trkpt>
      <trkpt lat="45.8169" lon="5.783">
        <ele>231</ele>
        <time>2018-10-14T16:50:09Z</time>
      </trkpt>
      <trkpt lat="45.81682" lon="5.783">
        <ele>231</ele>
        <time>2018-10-14T16:50:09Z</time>
      </trkpt>
      <trkpt lat="45.81677" lon="5.78303">
        <ele>231</ele>
        <time>2018-10-14T16:50:09Z</time>
      </trkpt>
      <trkpt lat="45.81672" lon="5.78305">
        <ele>231</ele>
        <time>2018-10-14T16:50:09Z</time>
      </trkpt>
      <trkpt lat="45.81667" lon="5.78303">
        <ele>231</ele>
        <time>2018-10-14T16:50:25Z</time>
      </trkpt>
      <trkpt lat="45.81661" lon="5.78301">
        <ele>231</ele>
        <time>2018-10-14T16:50:25Z</time>
      </trkpt>
      <trkpt lat="45.81656" lon="5.783">
        <ele>231</ele>
        <time>2018-10-14T16:50:25Z</time>
      </trkpt>
      <trkpt lat="45.81651" lon="5.78298">
        <ele>231</ele>
        <time>2018-10-14T16:50:25Z</time>
      </trkpt>
      <trkpt lat="45.81646" lon="5.78296">
        <ele>231</ele>
        <time>2018-10-14T16:50:41Z</time>
      </trkpt>
      <trkpt lat="45.8164" lon="5.78295">
        <ele>231</ele>
        <time>2018-10-14T16:50:41Z</time>
      </trkpt>
      <trkpt lat="45.81635" lon="5.78292">
        <ele>231</ele>
        <time>2018-10-14T16:50:41Z</time>
      </trkpt>
      <trkpt lat="45.8163" lon="5.78289">
        <ele>234</ele>
        <time>2018-10-14T16:50:41Z</time>
      </trkpt>
      <trkpt lat="45.81625" lon="5.78287">
        <ele>235</ele>
        <time>2018-10-14T16:50:57Z</time>
      </trkpt>
      <trkpt lat="45.8162" lon="5.78285">
        <ele>235</ele>
        <time>2018-10-14T16:50:57Z</time>
      </trkpt>
      <trkpt lat="45.81616" lon="5.78283">
        <ele>235</ele>
        <time>2018-10-14T16:50:57Z</time>
      </trkpt>
      <trkpt lat="45.81611" lon="5.78279">
        <ele>235</ele>
        <time>2018-10-14T16:50:57Z</time>
      </trkpt>
      <trkpt lat="45.81605" lon="5.78276">
        <ele>235</ele>
        <time>2018-10-14T16:51:13Z</time>
      </trkpt>
      <trkpt lat="45.81599" lon="5.78274">
        <ele>235</ele>
        <time>2018-10-14T16:51:13Z</time>
      </trkpt>
      <trkpt lat="45.81593" lon="5.78272">
        <ele>235</ele>
        <time>2018-10-14T16:51:13Z</time>
      </trkpt>
      <trkpt lat="45.81589" lon="5.78269">
        <ele>235</ele>
        <time>2018-10-14T16:51:13Z</time>
      </trkpt>
      <trkpt lat="45.81585" lon="5.78265">
        <ele>235</ele>
        <time>2018-10-14T16:51:29Z</time>
      </trkpt>
      <trkpt lat="45.81581" lon="5.78259">
        <ele>235</ele>
        <time>2018-10-14T16:51:29Z</time>
      </trkpt>
      <trkpt lat="45.81581" lon="5.7825">
        <ele>235</ele>
        <time>2018-10-14T16:51:29Z</time>
      </trkpt>
      <trkpt lat="45.81581" lon="5.78243">
        <ele>235</ele>
        <time>2018-10-14T16:51:29Z</time>
      </trkpt>
      <trkpt lat="45.81582" lon="5.78234">
        <ele>235</ele>
        <time>2018-10-14T16:51:45Z</time>
      </trkpt>
      <trkpt lat="45.81582" lon="5.78227">
        <ele>235</ele>
        <time>2018-10-14T16:51:45Z</time>
      </trkpt>
      <trkpt lat="45.81582" lon="5.7822">
        <ele>235</ele>
        <time>2018-10-14T16:51:45Z</time>
      </trkpt>
      <trkpt lat="45.81583" lon="5.78213">
        <ele>235</ele>
        <time>2018-10-14T16:51:45Z</time>
      </trkpt>
      <trkpt lat="45.81582" lon="5.78207">
        <ele>235</ele>
        <time>2018-10-14T16:52:01Z</time>
      </trkpt>
      <trkpt lat="45.81581" lon="5.78199">
        <ele>235</ele>
        <time>2018-10-14T16:52:01Z</time>
      </trkpt>
      <trkpt lat="45.81578" lon="5.78194">
        <ele>235</ele>
        <time>2018-10-14T16:52:01Z</time>
      </trkpt>
      <trkpt lat="45.81574" lon="5.7819">
        <ele>235</ele>
        <time>2018-10-14T16:52:01Z</time>
      </trkpt>
      <trkpt lat="45.8157" lon="5.78187">
        <ele>235</ele>
        <time>2018-10-14T16:52:17Z</time>
      </trkpt>
      <trkpt lat="45.81566" lon="5.78185">
        <ele>235</ele>
        <time>2018-10-14T16:52:17Z</time>
      </trkpt>
      <trkpt lat="45.81559" lon="5.78184">
        <ele>235</ele>
        <time>2018-10-14T16:52:17Z</time>
      </trkpt>
      <trkpt lat="45.81554" lon="5.78184">
        <ele>235</ele>
        <time>2018-10-14T16:52:17Z</time>
      </trkpt>
      <trkpt lat="45.81547" lon="5.78187">
        <ele>235</ele>
        <time>2018-10-14T16:52:33Z</time>
      </trkpt>
      <trkpt lat="45.81541" lon="5.78188">
        <ele>233</ele>
        <time>2018-10-14T16:52:33Z</time>
      </trkpt>
      <trkpt lat="45.81537" lon="5.78191">
        <ele>233</ele>
        <time>2018-10-14T16:52:33Z</time>
      </trkpt>
      <trkpt lat="45.81532" lon="5.78193">
        <ele>233</ele>
        <time>2018-10-14T16:52:33Z</time>
      </trkpt>
      <trkpt lat="45.81527" lon="5.78192">
        <ele>233</ele>
        <time>2018-10-14T16:52:49Z</time>
      </trkpt>
      <trkpt lat="45.81523" lon="5.78188">
        <ele>233</ele>
        <time>2018-10-14T16:52:49Z</time>
      </trkpt>
      <trkpt lat="45.81519" lon="5.78185">
        <ele>233</ele>
        <time>2018-10-14T16:52:49Z</time>
      </trkpt>
      <trkpt lat="45.81515" lon="5.78183">
        <ele>233</ele>
        <time>2018-10-14T16:52:49Z</time>
      </trkpt>
      <trkpt lat="45.81509" lon="5.78181">
        <ele>233</ele>
        <time>2018-10-14T16:53:05Z</time>
      </trkpt>
      <trkpt lat="45.81503" lon="5.78178">
        <ele>233</ele>
        <time>2018-10-14T16:53:05Z</time>
      </trkpt>
      <trkpt lat="45.81498" lon="5.78175">
        <ele>233</ele>
        <time>2018-10-14T16:53:05Z</time>
      </trkpt>
      <trkpt lat="45.81493" lon="5.78172">
        <ele>233</ele>
        <time>2018-10-14T16:53:05Z</time>
      </trkpt>
      <trkpt lat="45.81485" lon="5.7817">
        <ele>233</ele>
        <time>2018-10-14T16:53:21Z</time>
      </trkpt>
      <trkpt lat="45.81478" lon="5.78166">
        <ele>233</ele>
        <time>2018-10-14T16:53:21Z</time>
      </trkpt>
      <trkpt lat="45.81474" lon="5.78164">
        <ele>233</ele>
        <time>2018-10-14T16:53:21Z</time>
      </trkpt>
      <trkpt lat="45.81463" lon="5.78154">
        <ele>233</ele>
        <time>2018-10-14T16:53:21Z</time>
      </trkpt>
      <trkpt lat="45.81446" lon="5.78144">
        <ele>234</ele>
        <time>2018-10-14T16:53:37Z</time>
      </trkpt>
      <trkpt lat="45.81426" lon="5.78131">
        <ele>234</ele>
        <time>2018-10-14T16:53:37Z</time>
      </trkpt>
      <trkpt lat="45.81404" lon="5.78119">
        <ele>238</ele>
        <time>2018-10-14T16:53:37Z</time>
      </trkpt>
      <trkpt lat="45.81383" lon="5.78108">
        <ele>238</ele>
        <time>2018-10-14T16:53:37Z</time>
      </trkpt>
      <trkpt lat="45.81371" lon="5.78106">
        <ele>237</ele>
        <time>2018-10-14T16:53:53Z</time>
      </trkpt>
      <trkpt lat="45.81364" lon="5.78106">
        <ele>237</ele>
        <time>2018-10-14T16:53:53Z</time>
      </trkpt>
      <trkpt lat="45.81361" lon="5.78106">
        <ele>237</ele>
        <time>2018-10-14T16:53:53Z</time>
      </trkpt>
      <trkpt lat="45.81357" lon="5.78109">
        <ele>237</ele>
        <time>2018-10-14T16:53:53Z</time>
      </trkpt>
      <trkpt lat="45.81355" lon="5.78109">
        <ele>237</ele>
        <time>2018-10-14T16:54:09Z</time>
      </trkpt>
      <trkpt lat="45.81351" lon="5.78104">
        <ele>237</ele>
        <time>2018-10-14T16:54:09Z</time>
      </trkpt>
      <trkpt lat="45.81345" lon="5.78101">
        <ele>237</ele>
        <time>2018-10-14T16:54:09Z</time>
      </trkpt>
      <trkpt lat="45.81341" lon="5.78098">
        <ele>237</ele>
        <time>2018-10-14T16:54:09Z</time>
      </trkpt>
      <trkpt lat="45.81338" lon="5.78096">
        <ele>237</ele>
        <time>2018-10-14T16:54:25Z</time>
      </trkpt>
      <trkpt lat="45.81331" lon="5.78091">
        <ele>237</ele>
        <time>2018-10-14T16:54:25Z</time>
      </trkpt>
      <trkpt lat="45.81327" lon="5.78088">
        <ele>237</ele>
        <time>2018-10-14T16:54:25Z</time>
      </trkpt>
      <trkpt lat="45.81323" lon="5.78085">
        <ele>237</ele>
        <time>2018-10-14T16:54:25Z</time>
      </trkpt>
      <trkpt lat="45.81318" lon="5.78081">
        <ele>237</ele>
        <time>2018-10-14T16:54:41Z</time>
      </trkpt>
      <trkpt lat="45.81316" lon="5.78075">
        <ele>237</ele>
        <time>2018-10-14T16:54:41Z</time>
      </trkpt>
      <trkpt lat="45.81303" lon="5.78066">
        <ele>237</ele>
        <time>2018-10-14T16:54:41Z</time>
      </trkpt>
      <trkpt lat="45.81283" lon="5.78053">
        <ele>235</ele>
        <time>2018-10-14T16:54:41Z</time>
      </trkpt>
      <trkpt lat="45.81264" lon="5.7804">
        <ele>238</ele>
        <time>2018-10-14T16:54:57Z</time>
      </trkpt>
      <trkpt lat="45.81245" lon="5.7803">
        <ele>238</ele>
        <time>2018-10-14T16:54:57Z</time>
      </trkpt>
      <trkpt lat="45.81229" lon="5.78024">
        <ele>238</ele>
        <time>2018-10-14T16:54:57Z</time>
      </trkpt>
      <trkpt lat="45.81218" lon="5.7802">
        <ele>238</ele>
        <time>2018-10-14T16:54:57Z</time>
      </trkpt>
      <trkpt lat="45.81208" lon="5.78015">
        <ele>238</ele>
        <time>2018-10-14T16:55:13Z</time>
      </trkpt>
      <trkpt lat="45.81201" lon="5.7801">
        <ele>233</ele>
        <time>2018-10-14T16:55:13Z</time>
      </trkpt>
      <trkpt lat="45.81195" lon="5.78007">
        <ele>233</ele>
        <time>2018-10-14T16:55:13Z</time>
      </trkpt>
      <trkpt lat="45.81191" lon="5.78004">
        <ele>233</ele>
        <time>2018-10-14T16:55:13Z</time>
      </trkpt>
      <trkpt lat="45.81185" lon="5.78">
        <ele>233</ele>
        <time>2018-10-14T16:55:29Z</time>
      </trkpt>
      <trkpt lat="45.8118" lon="5.77997">
        <ele>233</ele>
        <time>2018-10-14T16:55:29Z</time>
      </trkpt>
      <trkpt lat="45.81176" lon="5.77995">
        <ele>233</ele>
        <time>2018-10-14T16:55:29Z</time>
      </trkpt>
      <trkpt lat="45.81173" lon="5.77991">
        <ele>233</ele>
        <time>2018-10-14T16:55:29Z</time>
      </trkpt>
      <trkpt lat="45.81167" lon="5.77988">
        <ele>233</ele>
        <time>2018-10-14T16:55:45Z</time>
      </trkpt>
      <trkpt lat="45.81162" lon="5.77985">
        <ele>233</ele>
        <time>2018-10-14T16:55:45Z</time>
      </trkpt>
      <trkpt lat="45.81157" lon="5.77981">
        <ele>233</ele>
        <time>2018-10-14T16:55:45Z</time>
      </trkpt>
      <trkpt lat="45.81152" lon="5.77977">
        <ele>233</ele>
        <time>2018-10-14T16:55:45Z</time>
      </trkpt>
      <trkpt lat="45.81148" lon="5.77973">
        <ele>233</ele>
        <time>2018-10-14T16:56:01Z</time>
      </trkpt>
      <trkpt lat="45.81142" lon="5.77968">
        <ele>233</ele>
        <time>2018-10-14T16:56:01Z</time>
      </trkpt>
      <trkpt lat="45.81138" lon="5.77965">
        <ele>233</ele>
        <time>2018-10-14T16:56:01Z</time>
      </trkpt>
      <trkpt lat="45.81132" lon="5.77961">
        <ele>233</ele>
        <time>2018-10-14T16:56:01Z</time>
      </trkpt>
      <trkpt lat="45.81125" lon="5.77957">
        <ele>239</ele>
        <time>2018-10-14T16:56:17Z</time>
      </trkpt>
      <trkpt lat="45.81119" lon="5.77953">
        <ele>233</ele>
        <time>2018-10-14T16:56:17Z</time>
      </trkpt>
      <trkpt lat="45.81113" lon="5.77951">
        <ele>233</ele>
        <time>2018-10-14T16:56:17Z</time>
      </trkpt>
      <trkpt lat="45.81108" lon="5.77948">
        <ele>233</ele>
        <time>2018-10-14T16:56:17Z</time>
      </trkpt>
      <trkpt lat="45.81102" lon="5.77944">
        <ele>233</ele>
        <time>2018-10-14T16:56:33Z</time>
      </trkpt>
      <trkpt lat="45.81097" lon="5.77941">
        <ele>233</ele>
        <time>2018-10-14T16:56:33Z</time>
      </trkpt>
      <trkpt lat="45.81092" lon="5.77939">
        <ele>233</ele>
        <time>2018-10-14T16:56:33Z</time>
      </trkpt>
      <trkpt lat="45.81087" lon="5.77934">
        <ele>233</ele>
        <time>2018-10-14T16:56:33Z</time>
      </trkpt>
      <trkpt lat="45.81081" lon="5.77929">
        <ele>233</ele>
        <time>2018-10-14T16:56:49Z</time>
      </trkpt>
      <trkpt lat="45.81075" lon="5.77925">
        <ele>233</ele>
        <time>2018-10-14T16:56:49Z</time>
      </trkpt>
      <trkpt lat="45.81072" lon="5.77922">
        <ele>233</ele>
        <time>2018-10-14T16:56:49Z</time>
      </trkpt>
      <trkpt lat="45.81068" lon="5.77919">
        <ele>233</ele>
        <time>2018-10-14T16:56:49Z</time>
      </trkpt>
      <trkpt lat="45.81065" lon="5.77916">
        <ele>233</ele>
        <time>2018-10-14T16:57:05Z</time>
      </trkpt>
      <trkpt lat="45.81059" lon="5.77913">
        <ele>233</ele>
        <time>2018-10-14T16:57:05Z</time>
      </trkpt>
      <trkpt lat="45.81052" lon="5.77911">
        <ele>233</ele>
        <time>2018-10-14T16:57:05Z</time>
      </trkpt>
      <trkpt lat="45.81047" lon="5.77908">
        <ele>233</ele>
        <time>2018-10-14T16:57:05Z</time>
      </trkpt>
      <trkpt lat="45.81041" lon="5.77904">
        <ele>235</ele>
        <time>2018-10-14T16:57:21Z</time>
      </trkpt>
      <trkpt lat="45.81037" lon="5.77901">
        <ele>235</ele>
        <time>2018-10-14T16:57:21Z</time>
      </trkpt>
      <trkpt lat="45.81032" lon="5.77899">
        <ele>235</ele>
        <time>2018-10-14T16:57:21Z</time>
      </trkpt>
      <trkpt lat="45.81026" lon="5.77897">
        <ele>235</ele>
        <time>2018-10-14T16:57:21Z</time>
      </trkpt>
      <trkpt lat="45.81021" lon="5.77889">
        <ele>235</ele>
        <time>2018-10-14T16:57:37Z</time>
      </trkpt>
      <trkpt lat="45.81015" lon="5.77884">
        <ele>235</ele>
        <time>2018-10-14T16:57:37Z</time>
      </trkpt>
      <trkpt lat="45.8101" lon="5.7788">
        <ele>235</ele>
        <time>2018-10-14T16:57:37Z</time>
      </trkpt>
      <trkpt lat="45.81005" lon="5.77877">
        <ele>235</ele>
        <time>2018-10-14T16:57:37Z</time>
      </trkpt>
      <trkpt lat="45.81" lon="5.77874">
        <ele>236</ele>
        <time>2018-10-14T16:57:53Z</time>
      </trkpt>
      <trkpt lat="45.80995" lon="5.7787">
        <ele>236</ele>
        <time>2018-10-14T16:57:53Z</time>
      </trkpt>
      <trkpt lat="45.8099" lon="5.77866">
        <ele>236</ele>
        <time>2018-10-14T16:57:53Z</time>
      </trkpt>
      <trkpt lat="45.80984" lon="5.77862">
        <ele>236</ele>
        <time>2018-10-14T16:57:53Z</time>
      </trkpt>
      <trkpt lat="45.80979" lon="5.77859">
        <ele>236</ele>
        <time>2018-10-14T16:58:09Z</time>
      </trkpt>
      <trkpt lat="45.80974" lon="5.77855">
        <ele>236</ele>
        <time>2018-10-14T16:58:09Z</time>
      </trkpt>
      <trkpt lat="45.80968" lon="5.77852">
        <ele>236</ele>
        <time>2018-10-14T16:58:09Z</time>
      </trkpt>
      <trkpt lat="45.80963" lon="5.7785">
        <ele>236</ele>
        <time>2018-10-14T16:58:09Z</time>
      </trkpt>
      <trkpt lat="45.80958" lon="5.77847">
        <ele>236</ele>
        <time>2018-10-14T16:58:25Z</time>
      </trkpt>
      <trkpt lat="45.80952" lon="5.77843">
        <ele>236</ele>
        <time>2018-10-14T16:58:25Z</time>
      </trkpt>
      <trkpt lat="45.80946" lon="5.77841">
        <ele>236</ele>
        <time>2018-10-14T16:58:25Z</time>
      </trkpt>
      <trkpt lat="45.8094" lon="5.77835">
        <ele>236</ele>
        <time>2018-10-14T16:58:25Z</time>
      </trkpt>
      <trkpt lat="45.80934" lon="5.7783">
        <ele>236</ele>
        <time>2018-10-14T16:58:41Z</time>
      </trkpt>
      <trkpt lat="45.80929" lon="5.77827">
        <ele>236</ele>
        <time>2018-10-14T16:58:41Z</time>
      </trkpt>
      <trkpt lat="45.80924" lon="5.77824">
        <ele>236</ele>
        <time>2018-10-14T16:58:41Z</time>
      </trkpt>
      <trkpt lat="45.8092" lon="5.77821">
        <ele>236</ele>
        <time>2018-10-14T16:58:41Z</time>
      </trkpt>
      <trkpt lat="45.80915" lon="5.77817">
        <ele>236</ele>
        <time>2018-10-14T16:58:57Z</time>
      </trkpt>
      <trkpt lat="45.80911" lon="5.77812">
        <ele>236</ele>
        <time>2018-10-14T16:58:57Z</time>
      </trkpt>
      <trkpt lat="45.80911" lon="5.77806">
        <ele>236</ele>
        <time>2018-10-14T16:58:57Z</time>
      </trkpt>
      <trkpt lat="45.80909" lon="5.778">
        <ele>236</ele>
        <time>2018-10-14T16:58:57Z</time>
      </trkpt>
      <trkpt lat="45.80904" lon="5.77796">
        <ele>236</ele>
        <time>2018-10-14T16:59:13Z</time>
      </trkpt>
      <trkpt lat="45.80898" lon="5.7779">
        <ele>235</ele>
        <time>2018-10-14T16:59:13Z</time>
      </trkpt>
      <trkpt lat="45.80881" lon="5.7778">
        <ele>235</ele>
        <time>2018-10-14T16:59:13Z</time>
      </trkpt>
      <trkpt lat="45.80863" lon="5.7777">
        <ele>234</ele>
        <time>2018-10-14T16:59:13Z</time>
      </trkpt>
      <trkpt lat="45.80847" lon="5.77757">
        <ele>234</ele>
        <time>2018-10-14T16:59:29Z</time>
      </trkpt>
      <trkpt lat="45.80833" lon="5.7774">
        <ele>234</ele>
        <time>2018-10-14T16:59:29Z</time>
      </trkpt>
      <trkpt lat="45.80818" lon="5.77726">
        <ele>234</ele>
        <time>2018-10-14T16:59:29Z</time>
      </trkpt>
      <trkpt lat="45.80801" lon="5.77713">
        <ele>234</ele>
        <time>2018-10-14T16:59:29Z</time>
      </trkpt>
      <trkpt lat="45.80787" lon="5.77706">
        <ele>233</ele>
        <time>2018-10-14T16:59:45Z</time>
      </trkpt>
      <trkpt lat="45.80782" lon="5.77704">
        <ele>233</ele>
        <time>2018-10-14T16:59:45Z</time>
      </trkpt>
      <trkpt lat="45.80777" lon="5.77702">
        <ele>233</ele>
        <time>2018-10-14T16:59:45Z</time>
      </trkpt>
      <trkpt lat="45.80767" lon="5.77693">
        <ele>233</ele>
        <time>2018-10-14T16:59:45Z</time>
      </trkpt>
      <trkpt lat="45.80746" lon="5.77685">
        <ele>233</ele>
        <time>2018-10-14T17:00:01Z</time>
      </trkpt>
      <trkpt lat="45.80726" lon="5.77674">
        <ele>233</ele>
        <time>2018-10-14T17:00:01Z</time>
      </trkpt>
      <trkpt lat="45.80706" lon="5.77663">
        <ele>233</ele>
        <time>2018-10-14T17:00:01Z</time>
      </trkpt>
      <trkpt lat="45.80687" lon="5.77653">
        <ele>233</ele>
        <time>2018-10-14T17:00:01Z</time>
      </trkpt>
      <trkpt lat="45.80669" lon="5.77646">
        <ele>233</ele>
        <time>2018-10-14T17:00:17Z</time>
      </trkpt>
      <trkpt lat="45.80659" lon="5.77642">
        <ele>233</ele>
        <time>2018-10-14T17:00:17Z</time>
      </trkpt>
      <trkpt lat="45.80654" lon="5.7764">
        <ele>233</ele>
        <time>2018-10-14T17:00:17Z</time>
      </trkpt>
      <trkpt lat="45.80647" lon="5.7764">
        <ele>233</ele>
        <time>2018-10-14T17:00:17Z</time>
      </trkpt>
      <trkpt lat="45.8063" lon="5.77635">
        <ele>233</ele>
        <time>2018-10-14T17:00:33Z</time>
      </trkpt>
      <trkpt lat="45.80612" lon="5.77631">
        <ele>232</ele>
        <time>2018-10-14T17:00:33Z</time>
      </trkpt>
      <trkpt lat="45.80595" lon="5.77626">
        <ele>232</ele>
        <time>2018-10-14T17:00:33Z</time>
      </trkpt>
      <trkpt lat="45.80577" lon="5.77619">
        <ele>233</ele>
        <time>2018-10-14T17:00:33Z</time>
      </trkpt>
      <trkpt lat="45.80557" lon="5.77614">
        <ele>233</ele>
        <time>2018-10-14T17:00:49Z</time>
      </trkpt>
      <trkpt lat="45.80539" lon="5.77611">
        <ele>232</ele>
        <time>2018-10-14T17:00:49Z</time>
      </trkpt>
      <trkpt lat="45.80525" lon="5.77609">
        <ele>232</ele>
        <time>2018-10-14T17:00:49Z</time>
      </trkpt>
      <trkpt lat="45.80518" lon="5.77606">
        <ele>232</ele>
        <time>2018-10-14T17:00:49Z</time>
      </trkpt>
      <trkpt lat="45.80512" lon="5.77603">
        <ele>232</ele>
        <time>2018-10-14T17:01:05Z</time>
      </trkpt>
      <trkpt lat="45.80506" lon="5.776">
        <ele>232</ele>
        <time>2018-10-14T17:01:05Z</time>
      </trkpt>
      <trkpt lat="45.80502" lon="5.77595">
        <ele>232</ele>
        <time>2018-10-14T17:01:05Z</time>
      </trkpt>
      <trkpt lat="45.80497" lon="5.77594">
        <ele>232</ele>
        <time>2018-10-14T17:01:05Z</time>
      </trkpt>
      <trkpt lat="45.80491" lon="5.77595">
        <ele>232</ele>
        <time>2018-10-14T17:01:21Z</time>
      </trkpt>
      <trkpt lat="45.80484" lon="5.77595">
        <ele>232</ele>
        <time>2018-10-14T17:01:21Z</time>
      </trkpt>
      <trkpt lat="45.80473" lon="5.77591">
        <ele>232</ele>
        <time>2018-10-14T17:01:21Z</time>
      </trkpt>
      <trkpt lat="45.80453" lon="5.77588">
        <ele>231</ele>
        <time>2018-10-14T17:01:21Z</time>
      </trkpt>
      <trkpt lat="45.80433" lon="5.77585">
        <ele>231</ele>
        <time>2018-10-14T17:01:37Z</time>
      </trkpt>
      <trkpt lat="45.80413" lon="5.7758">
        <ele>231</ele>
        <time>2018-10-14T17:01:37Z</time>
      </trkpt>
      <trkpt lat="45.80394" lon="5.77576">
        <ele>231</ele>
        <time>2018-10-14T17:01:37Z</time>
      </trkpt>
      <trkpt lat="45.80377" lon="5.77572">
        <ele>231</ele>
        <time>2018-10-14T17:01:37Z</time>
      </trkpt>
      <trkpt lat="45.80362" lon="5.77565">
        <ele>232</ele>
        <time>2018-10-14T17:01:53Z</time>
      </trkpt>
      <trkpt lat="45.80349" lon="5.77563">
        <ele>232</ele>
        <time>2018-10-14T17:01:53Z</time>
      </trkpt>
      <trkpt lat="45.80329" lon="5.77558">
        <ele>232</ele>
        <time>2018-10-14T17:01:53Z</time>
      </trkpt>
      <trkpt lat="45.80309" lon="5.77557">
        <ele>232</ele>
        <time>2018-10-14T17:01:53Z</time>
      </trkpt>
      <trkpt lat="45.80293" lon="5.77556">
        <ele>232</ele>
        <time>2018-10-14T17:02:09Z</time>
      </trkpt>
      <trkpt lat="45.80281" lon="5.77553">
        <ele>233</ele>
        <time>2018-10-14T17:02:09Z</time>
      </trkpt>
      <trkpt lat="45.80275" lon="5.77553">
        <ele>233</ele>
        <time>2018-10-14T17:02:09Z</time>
      </trkpt>
      <trkpt lat="45.80269" lon="5.77554">
        <ele>233</ele>
        <time>2018-10-14T17:02:09Z</time>
      </trkpt>
      <trkpt lat="45.80265" lon="5.77555">
        <ele>233</ele>
        <time>2018-10-14T17:02:25Z</time>
      </trkpt>
      <trkpt lat="45.80261" lon="5.77555">
        <ele>233</ele>
        <time>2018-10-14T17:02:25Z</time>
      </trkpt>
      <trkpt lat="45.80256" lon="5.77557">
        <ele>233</ele>
        <time>2018-10-14T17:02:25Z</time>
      </trkpt>
      <trkpt lat="45.80253" lon="5.77559">
        <ele>233</ele>
        <time>2018-10-14T17:02:25Z</time>
      </trkpt>
      <trkpt lat="45.80249" lon="5.7756">
        <ele>233</ele>
        <time>2018-10-14T17:02:41Z</time>
      </trkpt>
      <trkpt lat="45.80244" lon="5.77559">
        <ele>233</ele>
        <time>2018-10-14T17:02:41Z</time>
      </trkpt>
      <trkpt lat="45.80241" lon="5.77557">
        <ele>233</ele>
        <time>2018-10-14T17:02:41Z</time>
      </trkpt>
      <trkpt lat="45.80235" lon="5.77556">
        <ele>233</ele>
        <time>2018-10-14T17:02:41Z</time>
      </trkpt>
      <trkpt lat="45.80229" lon="5.77554">
        <ele>233</ele>
        <time>2018-10-14T17:02:57Z</time>
      </trkpt>
      <trkpt lat="45.80225" lon="5.77552">
        <ele>233</ele>
        <time>2018-10-14T17:02:57Z</time>
      </trkpt>
      <trkpt lat="45.8022" lon="5.7755">
        <ele>233</ele>
        <time>2018-10-14T17:02:57Z</time>
      </trkpt>
      <trkpt lat="45.80216" lon="5.77549">
        <ele>233</ele>
        <time>2018-10-14T17:02:57Z</time>
      </trkpt>
      <trkpt lat="45.80213" lon="5.77548">
        <ele>233</ele>
        <time>2018-10-14T17:03:13Z</time>
      </trkpt>
      <trkpt lat="45.80205" lon="5.77546">
        <ele>233</ele>
        <time>2018-10-14T17:03:13Z</time>
      </trkpt>
      <trkpt lat="45.80198" lon="5.77545">
        <ele>233</ele>
        <time>2018-10-14T17:03:13Z</time>
      </trkpt>
      <trkpt lat="45.80191" lon="5.77543">
        <ele>233</ele>
        <time>2018-10-14T17:03:13Z</time>
      </trkpt>
      <trkpt lat="45.80185" lon="5.77542">
        <ele>233</ele>
        <time>2018-10-14T17:03:29Z</time>
      </trkpt>
      <trkpt lat="45.80181" lon="5.77542">
        <ele>238</ele>
        <time>2018-10-14T17:03:29Z</time>
      </trkpt>
      <trkpt lat="45.80176" lon="5.77541">
        <ele>238</ele>
        <time>2018-10-14T17:03:29Z</time>
      </trkpt>
      <trkpt lat="45.80171" lon="5.77539">
        <ele>238</ele>
        <time>2018-10-14T17:03:29Z</time>
      </trkpt>
      <trkpt lat="45.80165" lon="5.77538">
        <ele>238</ele>
        <time>2018-10-14T17:03:45Z</time>
      </trkpt>
      <trkpt lat="45.8016" lon="5.77538">
        <ele>238</ele>
        <time>2018-10-14T17:03:45Z</time>
      </trkpt>
      <trkpt lat="45.80155" lon="5.77537">
        <ele>238</ele>
        <time>2018-10-14T17:03:45Z</time>
      </trkpt>
      <trkpt lat="45.8015" lon="5.77537">
        <ele>238</ele>
        <time>2018-10-14T17:03:45Z</time>
      </trkpt>
      <trkpt lat="45.80145" lon="5.77536">
        <ele>238</ele>
        <time>2018-10-14T17:04:01Z</time>
      </trkpt>
      <trkpt lat="45.80142" lon="5.77535">
        <ele>238</ele>
        <time>2018-10-14T17:04:01Z</time>
      </trkpt>
      <trkpt lat="45.80138" lon="5.77534">
        <ele>238</ele>
        <time>2018-10-14T17:04:01Z</time>
      </trkpt>
      <trkpt lat="45.80132" lon="5.77533">
        <ele>238</ele>
        <time>2018-10-14T17:04:01Z</time>
      </trkpt>
      <trkpt lat="45.80126" lon="5.77532">
        <ele>238</ele>
        <time>2018-10-14T17:04:17Z</time>
      </trkpt>
      <trkpt lat="45.80119" lon="5.77531">
        <ele>240</ele>
        <time>2018-10-14T17:04:17Z</time>
      </trkpt>
      <trkpt lat="45.80113" lon="5.77531">
        <ele>240</ele>
        <time>2018-10-14T17:04:17Z</time>
      </trkpt>
      <trkpt lat="45.80107" lon="5.7753">
        <ele>240</ele>
        <time>2018-10-14T17:04:17Z</time>
      </trkpt>
      <trkpt lat="45.80102" lon="5.77528">
        <ele>240</ele>
        <time>2018-10-14T17:04:33Z</time>
      </trkpt>
      <trkpt lat="45.80098" lon="5.77527">
        <ele>240</ele>
        <time>2018-10-14T17:04:33Z</time>
      </trkpt>
      <trkpt lat="45.80092" lon="5.77525">
        <ele>240</ele>
        <time>2018-10-14T17:04:33Z</time>
      </trkpt>
      <trkpt lat="45.80086" lon="5.77524">
        <ele>240</ele>
        <time>2018-10-14T17:04:33Z</time>
      </trkpt>
      <trkpt lat="45.80078" lon="5.77522">
        <ele>240</ele>
        <time>2018-10-14T17:04:49Z</time>
      </trkpt>
      <trkpt lat="45.8007" lon="5.77521">
        <ele>240</ele>
        <time>2018-10-14T17:04:49Z</time>
      </trkpt>
      <trkpt lat="45.80065" lon="5.7752">
        <ele>240</ele>
        <time>2018-10-14T17:04:49Z</time>
      </trkpt>
      <trkpt lat="45.80061" lon="5.77518">
        <ele>240</ele>
        <time>2018-10-14T17:04:49Z</time>
      </trkpt>
      <trkpt lat="45.80055" lon="5.77518">
        <ele>240</ele>
        <time>2018-10-14T17:05:05Z</time>
      </trkpt>
      <trkpt lat="45.80052" lon="5.77517">
        <ele>240</ele>
        <time>2018-10-14T17:05:05Z</time>
      </trkpt>
      <trkpt lat="45.80047" lon="5.77515">
        <ele>240</ele>
        <time>2018-10-14T17:05:05Z</time>
      </trkpt>
      <trkpt lat="45.80042" lon="5.77514">
        <ele>240</ele>
        <time>2018-10-14T17:05:05Z</time>
      </trkpt>
      <trkpt lat="45.80037" lon="5.77513">
        <ele>239</ele>
        <time>2018-10-14T17:05:21Z</time>
      </trkpt>
      <trkpt lat="45.80033" lon="5.77512">
        <ele>239</ele>
        <time>2018-10-14T17:05:21Z</time>
      </trkpt>
      <trkpt lat="45.80027" lon="5.77511">
        <ele>239</ele>
        <time>2018-10-14T17:05:21Z</time>
      </trkpt>
      <trkpt lat="45.80021" lon="5.7751">
        <ele>239</ele>
        <time>2018-10-14T17:05:21Z</time>
      </trkpt>
      <trkpt lat="45.80015" lon="5.77508">
        <ele>239</ele>
        <time>2018-10-14T17:05:37Z</time>
      </trkpt>
      <trkpt lat="45.8001" lon="5.77506">
        <ele>239</ele>
        <time>2018-10-14T17:05:37Z</time>
      </trkpt>
      <trkpt lat="45.80005" lon="5.77505">
        <ele>239</ele>
        <time>2018-10-14T17:05:37Z</time>
      </trkpt>
      <trkpt lat="45.80001" lon="5.77503">
        <ele>239</ele>
        <time>2018-10-14T17:05:37Z</time>
      </trkpt>
      <trkpt lat="45.79996" lon="5.77501">
        <ele>239</ele>
        <time>2018-10-14T17:05:53Z</time>
      </trkpt>
      <trkpt lat="45.79991" lon="5.775">
        <ele>239</ele>
        <time>2018-10-14T17:05:53Z</time>
      </trkpt>
      <trkpt lat="45.79985" lon="5.775">
        <ele>239</ele>
        <time>2018-10-14T17:05:53Z</time>
      </trkpt>
      <trkpt lat="45.79979" lon="5.775">
        <ele>239</ele>
        <time>2018-10-14T17:05:53Z</time>
      </trkpt>
      <trkpt lat="45.79973" lon="5.77498">
        <ele>239</ele>
        <time>2018-10-14T17:06:09Z</time>
      </trkpt>
      <trkpt lat="45.79964" lon="5.77496">
        <ele>239</ele>
        <time>2018-10-14T17:06:09Z</time>
      </trkpt>
      <trkpt lat="45.79957" lon="5.77495">
        <ele>234</ele>
        <time>2018-10-14T17:06:09Z</time>
      </trkpt>
      <trkpt lat="45.79951" lon="5.77494">
        <ele>234</ele>
        <time>2018-10-14T17:06:09Z</time>
      </trkpt>
      <trkpt lat="45.79945" lon="5.77493">
        <ele>234</ele>
        <time>2018-10-14T17:06:25Z</time>
      </trkpt>
      <trkpt lat="45.79939" lon="5.77492">
        <ele>234</ele>
        <time>2018-10-14T17:06:25Z</time>
      </trkpt>
      <trkpt lat="45.79934" lon="5.77491">
        <ele>234</ele>
        <time>2018-10-14T17:06:25Z</time>
      </trkpt>
      <trkpt lat="45.79929" lon="5.7749">
        <ele>234</ele>
        <time>2018-10-14T17:06:25Z</time>
      </trkpt>
      <trkpt lat="45.79924" lon="5.77489">
        <ele>234</ele>
        <time>2018-10-14T17:06:41Z</time>
      </trkpt>
      <trkpt lat="45.79919" lon="5.77487">
        <ele>234</ele>
        <time>2018-10-14T17:06:41Z</time>
      </trkpt>
      <trkpt lat="45.79913" lon="5.77485">
        <ele>234</ele>
        <time>2018-10-14T17:06:41Z</time>
      </trkpt>
      <trkpt lat="45.79908" lon="5.77484">
        <ele>234</ele>
        <time>2018-10-14T17:06:41Z</time>
      </trkpt>
      <trkpt lat="45.79903" lon="5.77483">
        <ele>234</ele>
        <time>2018-10-14T17:06:57Z</time>
      </trkpt>
      <trkpt lat="45.79898" lon="5.77482">
        <ele>234</ele>
        <time>2018-10-14T17:06:57Z</time>
      </trkpt>
      <trkpt lat="45.79893" lon="5.7748">
        <ele>234</ele>
        <time>2018-10-14T17:06:57Z</time>
      </trkpt>
      <trkpt lat="45.79888" lon="5.77479">
        <ele>234</ele>
        <time>2018-10-14T17:06:57Z</time>
      </trkpt>
      <trkpt lat="45.79883" lon="5.77478">
        <ele>234</ele>
        <time>2018-10-14T17:07:13Z</time>
      </trkpt>
      <trkpt lat="45.79876" lon="5.77477">
        <ele>234</ele>
        <time>2018-10-14T17:07:13Z</time>
      </trkpt>
      <trkpt lat="45.7987" lon="5.77476">
        <ele>233</ele>
        <time>2018-10-14T17:07:13Z</time>
      </trkpt>
      <trkpt lat="45.79863" lon="5.77474">
        <ele>233</ele>
        <time>2018-10-14T17:07:13Z</time>
      </trkpt>
      <trkpt lat="45.79858" lon="5.77473">
        <ele>233</ele>
        <time>2018-10-14T17:07:29Z</time>
      </trkpt>
      <trkpt lat="45.79853" lon="5.77472">
        <ele>233</ele>
        <time>2018-10-14T17:07:29Z</time>
      </trkpt>
      <trkpt lat="45.79849" lon="5.77473">
        <ele>233</ele>
        <time>2018-10-14T17:07:29Z</time>
      </trkpt>
      <trkpt lat="45.79842" lon="5.77472">
        <ele>233</ele>
        <time>2018-10-14T17:07:29Z</time>
      </trkpt>
      <trkpt lat="45.79837" lon="5.7747">
        <ele>233</ele>
        <time>2018-10-14T17:07:45Z</time>
      </trkpt>
      <trkpt lat="45.79831" lon="5.77469">
        <ele>233</ele>
        <time>2018-10-14T17:07:45Z</time>
      </trkpt>
      <trkpt lat="45.79825" lon="5.77468">
        <ele>233</ele>
        <time>2018-10-14T17:07:45Z</time>
      </trkpt>
      <trkpt lat="45.79819" lon="5.77466">
        <ele>233</ele>
        <time>2018-10-14T17:07:45Z</time>
      </trkpt>
      <trkpt lat="45.79814" lon="5.77466">
        <ele>233</ele>
        <time>2018-10-14T17:08:01Z</time>
      </trkpt>
      <trkpt lat="45.79808" lon="5.77466">
        <ele>233</ele>
        <time>2018-10-14T17:08:01Z</time>
      </trkpt>
      <trkpt lat="45.79801" lon="5.77465">
        <ele>233</ele>
        <time>2018-10-14T17:08:01Z</time>
      </trkpt>
      <trkpt lat="45.79796" lon="5.77463">
        <ele>233</ele>
        <time>2018-10-14T17:08:01Z</time>
      </trkpt>
      <trkpt lat="45.7979" lon="5.77461">
        <ele>235</ele>
        <time>2018-10-14T17:08:17Z</time>
      </trkpt>
      <trkpt lat="45.79786" lon="5.77459">
        <ele>235</ele>
        <time>2018-10-14T17:08:17Z</time>
      </trkpt>
      <trkpt lat="45.7978" lon="5.77457">
        <ele>234</ele>
        <time>2018-10-14T17:08:17Z</time>
      </trkpt>
      <trkpt lat="45.79774" lon="5.77457">
        <ele>234</ele>
        <time>2018-10-14T17:08:17Z</time>
      </trkpt>
      <trkpt lat="45.79769" lon="5.77456">
        <ele>234</ele>
        <time>2018-10-14T17:08:33Z</time>
      </trkpt>
      <trkpt lat="45.79763" lon="5.77456">
        <ele>234</ele>
        <time>2018-10-14T17:08:33Z</time>
      </trkpt>
      <trkpt lat="45.79758" lon="5.77456">
        <ele>234</ele>
        <time>2018-10-14T17:08:33Z</time>
      </trkpt>
      <trkpt lat="45.79753" lon="5.77456">
        <ele>234</ele>
        <time>2018-10-14T17:08:33Z</time>
      </trkpt>
      <trkpt lat="45.79748" lon="5.77455">
        <ele>234</ele>
        <time>2018-10-14T17:08:49Z</time>
      </trkpt>
      <trkpt lat="45.79742" lon="5.77454">
        <ele>234</ele>
        <time>2018-10-14T17:08:49Z</time>
      </trkpt>
      <trkpt lat="45.79734" lon="5.77453">
        <ele>234</ele>
        <time>2018-10-14T17:08:49Z</time>
      </trkpt>
      <trkpt lat="45.79728" lon="5.77453">
        <ele>234</ele>
        <time>2018-10-14T17:08:49Z</time>
      </trkpt>
      <trkpt lat="45.79723" lon="5.77453">
        <ele>234</ele>
        <time>2018-10-14T17:09:05Z</time>
      </trkpt>
      <trkpt lat="45.79717" lon="5.77451">
        <ele>234</ele>
        <time>2018-10-14T17:09:05Z</time>
      </trkpt>
      <trkpt lat="45.7971" lon="5.77447">
        <ele>234</ele>
        <time>2018-10-14T17:09:05Z</time>
      </trkpt>
      <trkpt lat="45.79705" lon="5.77447">
        <ele>231</ele>
        <time>2018-10-14T17:09:05Z</time>
      </trkpt>
      <trkpt lat="45.79701" lon="5.77447">
        <ele>231</ele>
        <time>2018-10-14T17:09:21Z</time>
      </trkpt>
      <trkpt lat="45.79695" lon="5.77446">
        <ele>231</ele>
        <time>2018-10-14T17:09:21Z</time>
      </trkpt>
      <trkpt lat="45.7969" lon="5.77443">
        <ele>231</ele>
        <time>2018-10-14T17:09:21Z</time>
      </trkpt>
      <trkpt lat="45.79684" lon="5.77441">
        <ele>231</ele>
        <time>2018-10-14T17:09:21Z</time>
      </trkpt>
      <trkpt lat="45.79678" lon="5.77441">
        <ele>231</ele>
        <time>2018-10-14T17:09:37Z</time>
      </trkpt>
      <trkpt lat="45.79672" lon="5.77441">
        <ele>231</ele>
        <time>2018-10-14T17:09:37Z</time>
      </trkpt>
      <trkpt lat="45.79667" lon="5.77439">
        <ele>231</ele>
        <time>2018-10-14T17:09:37Z</time>
      </trkpt>
      <trkpt lat="45.79662" lon="5.77437">
        <ele>231</ele>
        <time>2018-10-14T17:09:37Z</time>
      </trkpt>
      <trkpt lat="45.79656" lon="5.77436">
        <ele>231</ele>
        <time>2018-10-14T17:09:53Z</time>
      </trkpt>
      <trkpt lat="45.7965" lon="5.77435">
        <ele>231</ele>
        <time>2018-10-14T17:09:53Z</time>
      </trkpt>
      <trkpt lat="45.79644" lon="5.77435">
        <ele>231</ele>
        <time>2018-10-14T17:09:53Z</time>
      </trkpt>
      <trkpt lat="45.79639" lon="5.77432">
        <ele>231</ele>
        <time>2018-10-14T17:09:53Z</time>
      </trkpt>
      <trkpt lat="45.79634" lon="5.77429">
        <ele>231</ele>
        <time>2018-10-14T17:10:09Z</time>
      </trkpt>
      <trkpt lat="45.79628" lon="5.77428">
        <ele>231</ele>
        <time>2018-10-14T17:10:09Z</time>
      </trkpt>
      <trkpt lat="45.79622" lon="5.77425">
        <ele>230</ele>
        <time>2018-10-14T17:10:09Z</time>
      </trkpt>
      <trkpt lat="45.79617" lon="5.77424">
        <ele>230</ele>
        <time>2018-10-14T17:10:09Z</time>
      </trkpt>
      <trkpt lat="45.79612" lon="5.77421">
        <ele>230</ele>
        <time>2018-10-14T17:10:25Z</time>
      </trkpt>
      <trkpt lat="45.79607" lon="5.77419">
        <ele>230</ele>
        <time>2018-10-14T17:10:25Z</time>
      </trkpt>
      <trkpt lat="45.79602" lon="5.77418">
        <ele>230</ele>
        <time>2018-10-14T17:10:25Z</time>
      </trkpt>
      <trkpt lat="45.79595" lon="5.77417">
        <ele>230</ele>
        <time>2018-10-14T17:10:25Z</time>
      </trkpt>
      <trkpt lat="45.79589" lon="5.77417">
        <ele>230</ele>
        <time>2018-10-14T17:10:41Z</time>
      </trkpt>
      <trkpt lat="45.79584" lon="5.77418">
        <ele>230</ele>
        <time>2018-10-14T17:10:41Z</time>
      </trkpt>
      <trkpt lat="45.79579" lon="5.77416">
        <ele>230</ele>
        <time>2018-10-14T17:10:41Z</time>
      </trkpt>
      <trkpt lat="45.79574" lon="5.77414">
        <ele>230</ele>
        <time>2018-10-14T17:10:41Z</time>
      </trkpt>
      <trkpt lat="45.79568" lon="5.77415">
        <ele>230</ele>
        <time>2018-10-14T17:10:57Z</time>
      </trkpt>
      <trkpt lat="45.79564" lon="5.77415">
        <ele>230</ele>
        <time>2018-10-14T17:10:57Z</time>
      </trkpt>
      <trkpt lat="45.79558" lon="5.77413">
        <ele>230</ele>
        <time>2018-10-14T17:10:57Z</time>
      </trkpt>
      <trkpt lat="45.79552" lon="5.77412">
        <ele>230</ele>
        <time>2018-10-14T17:10:57Z</time>
      </trkpt>
      <trkpt lat="45.79546" lon="5.77412">
        <ele>230</ele>
        <time>2018-10-14T17:11:13Z</time>
      </trkpt>
      <trkpt lat="45.7954" lon="5.77412">
        <ele>229</ele>
        <time>2018-10-14T17:11:13Z</time>
      </trkpt>
      <trkpt lat="45.79535" lon="5.77411">
        <ele>229</ele>
        <time>2018-10-14T17:11:13Z</time>
      </trkpt>
      <trkpt lat="45.79529" lon="5.7741">
        <ele>229</ele>
        <time>2018-10-14T17:11:13Z</time>
      </trkpt>
      <trkpt lat="45.79524" lon="5.77409">
        <ele>229</ele>
        <time>2018-10-14T17:11:29Z</time>
      </trkpt>
      <trkpt lat="45.79518" lon="5.77406">
        <ele>229</ele>
        <time>2018-10-14T17:11:29Z</time>
      </trkpt>
      <trkpt lat="45.79514" lon="5.77406">
        <ele>229</ele>
        <time>2018-10-14T17:11:29Z</time>
      </trkpt>
      <trkpt lat="45.79509" lon="5.77403">
        <ele>229</ele>
        <time>2018-10-14T17:11:29Z</time>
      </trkpt>
      <trkpt lat="45.79504" lon="5.774">
        <ele>229</ele>
        <time>2018-10-14T17:11:45Z</time>
      </trkpt>
      <trkpt lat="45.79499" lon="5.77398">
        <ele>229</ele>
        <time>2018-10-14T17:11:45Z</time>
      </trkpt>
      <trkpt lat="45.79494" lon="5.77397">
        <ele>229</ele>
        <time>2018-10-14T17:11:45Z</time>
      </trkpt>
      <trkpt lat="45.79489" lon="5.77396">
        <ele>229</ele>
        <time>2018-10-14T17:11:45Z</time>
      </trkpt>
      <trkpt lat="45.79483" lon="5.77394">
        <ele>229</ele>
        <time>2018-10-14T17:12:01Z</time>
      </trkpt>
      <trkpt lat="45.79479" lon="5.77392">
        <ele>229</ele>
        <time>2018-10-14T17:12:01Z</time>
      </trkpt>
      <trkpt lat="45.79475" lon="5.77392">
        <ele>229</ele>
        <time>2018-10-14T17:12:01Z</time>
      </trkpt>
      <trkpt lat="45.7947" lon="5.7739">
        <ele>229</ele>
        <time>2018-10-14T17:12:01Z</time>
      </trkpt>
      <trkpt lat="45.79465" lon="5.77389">
        <ele>229</ele>
        <time>2018-10-14T17:12:17Z</time>
      </trkpt>
      <trkpt lat="45.7946" lon="5.77389">
        <ele>229</ele>
        <time>2018-10-14T17:12:17Z</time>
      </trkpt>
      <trkpt lat="45.79455" lon="5.77387">
        <ele>231</ele>
        <time>2018-10-14T17:12:17Z</time>
      </trkpt>
      <trkpt lat="45.79449" lon="5.77386">
        <ele>231</ele>
        <time>2018-10-14T17:12:17Z</time>
      </trkpt>
      <trkpt lat="45.79443" lon="5.77385">
        <ele>231</ele>
        <time>2018-10-14T17:12:33Z</time>
      </trkpt>
      <trkpt lat="45.79437" lon="5.77384">
        <ele>231</ele>
        <time>2018-10-14T17:12:33Z</time>
      </trkpt>
      <trkpt lat="45.79431" lon="5.77383">
        <ele>231</ele>
        <time>2018-10-14T17:12:33Z</time>
      </trkpt>
      <trkpt lat="45.79426" lon="5.77382">
        <ele>231</ele>
        <time>2018-10-14T17:12:33Z</time>
      </trkpt>
      <trkpt lat="45.7942" lon="5.7738">
        <ele>231</ele>
        <time>2018-10-14T17:12:49Z</time>
      </trkpt>
      <trkpt lat="45.79414" lon="5.77379">
        <ele>231</ele>
        <time>2018-10-14T17:12:49Z</time>
      </trkpt>
      <trkpt lat="45.7941" lon="5.77378">
        <ele>231</ele>
        <time>2018-10-14T17:12:49Z</time>
      </trkpt>
      <trkpt lat="45.79405" lon="5.77377">
        <ele>231</ele>
        <time>2018-10-14T17:12:49Z</time>
      </trkpt>
      <trkpt lat="45.79399" lon="5.77377">
        <ele>231</ele>
        <time>2018-10-14T17:13:05Z</time>
      </trkpt>
      <trkpt lat="45.79394" lon="5.77376">
        <ele>231</ele>
        <time>2018-10-14T17:13:05Z</time>
      </trkpt>
      <trkpt lat="45.79389" lon="5.77376">
        <ele>231</ele>
        <time>2018-10-14T17:13:05Z</time>
      </trkpt>
      <trkpt lat="45.79384" lon="5.77375">
        <ele>231</ele>
        <time>2018-10-14T17:13:05Z</time>
      </trkpt>
      <trkpt lat="45.7938" lon="5.77375">
        <ele>231</ele>
        <time>2018-10-14T17:13:21Z</time>
      </trkpt>
      <trkpt lat="45.79374" lon="5.77375">
        <ele>232</ele>
        <time>2018-10-14T17:13:21Z</time>
      </trkpt>
      <trkpt lat="45.79368" lon="5.77373">
        <ele>232</ele>
        <time>2018-10-14T17:13:21Z</time>
      </trkpt>
      <trkpt lat="45.79363" lon="5.77371">
        <ele>232</ele>
        <time>2018-10-14T17:13:21Z</time>
      </trkpt>
      <trkpt lat="45.79358" lon="5.77369">
        <ele>232</ele>
        <time>2018-10-14T17:13:37Z</time>
      </trkpt>
      <trkpt lat="45.79351" lon="5.77366">
        <ele>232</ele>
        <time>2018-10-14T17:13:37Z</time>
      </trkpt>
      <trkpt lat="45.79347" lon="5.77365">
        <ele>232</ele>
        <time>2018-10-14T17:13:37Z</time>
      </trkpt>
      <trkpt lat="45.79343" lon="5.77365">
        <ele>232</ele>
        <time>2018-10-14T17:13:37Z</time>
      </trkpt>
      <trkpt lat="45.79337" lon="5.77364">
        <ele>232</ele>
        <time>2018-10-14T17:13:53Z</time>
      </trkpt>
      <trkpt lat="45.79331" lon="5.77362">
        <ele>232</ele>
        <time>2018-10-14T17:13:53Z</time>
      </trkpt>
      <trkpt lat="45.79325" lon="5.77361">
        <ele>232</ele>
        <time>2018-10-14T17:13:53Z</time>
      </trkpt>
      <trkpt lat="45.79319" lon="5.77359">
        <ele>232</ele>
        <time>2018-10-14T17:13:53Z</time>
      </trkpt>
      <trkpt lat="45.79318" lon="5.77359">
        <ele>232</ele>
        <time>2018-10-14T17:15:01Z</time>
      </trkpt>
      <trkpt lat="45.79315" lon="5.77359">
        <ele>232</ele>
        <time>2018-10-14T17:15:01Z</time>
      </trkpt>
      <trkpt lat="45.79308" lon="5.77357">
        <ele>232</ele>
        <time>2018-10-14T17:15:01Z</time>
      </trkpt>
      <trkpt lat="45.79303" lon="5.77355">
        <ele>232</ele>
        <time>2018-10-14T17:15:01Z</time>
      </trkpt>
      <trkpt lat="45.79297" lon="5.77354">
        <ele>232</ele>
        <time>2018-10-14T17:15:01Z</time>
      </trkpt>
      <trkpt lat="45.79292" lon="5.77352">
        <ele>232</ele>
        <time>2018-10-14T17:15:17Z</time>
      </trkpt>
      <trkpt lat="45.79287" lon="5.77351">
        <ele>232</ele>
        <time>2018-10-14T17:15:17Z</time>
      </trkpt>
      <trkpt lat="45.79281" lon="5.77349">
        <ele>232</ele>
        <time>2018-10-14T17:15:17Z</time>
      </trkpt>
      <trkpt lat="45.79276" lon="5.77348">
        <ele>232</ele>
        <time>2018-10-14T17:15:17Z</time>
      </trkpt>
      <trkpt lat="45.79271" lon="5.77346">
        <ele>232</ele>
        <time>2018-10-14T17:15:33Z</time>
      </trkpt>
      <trkpt lat="45.79266" lon="5.77345">
        <ele>232</ele>
        <time>2018-10-14T17:15:33Z</time>
      </trkpt>
      <trkpt lat="45.7926" lon="5.77345">
        <ele>232</ele>
        <time>2018-10-14T17:15:33Z</time>
      </trkpt>
      <trkpt lat="45.79254" lon="5.77344">
        <ele>232</ele>
        <time>2018-10-14T17:15:33Z</time>
      </trkpt>
      <trkpt lat="45.79249" lon="5.77343">
        <ele>232</ele>
        <time>2018-10-14T17:15:49Z</time>
      </trkpt>
      <trkpt lat="45.79244" lon="5.77342">
        <ele>232</ele>
        <time>2018-10-14T17:15:49Z</time>
      </trkpt>
      <trkpt lat="45.79238" lon="5.77341">
        <ele>232</ele>
        <time>2018-10-14T17:15:49Z</time>
      </trkpt>
      <trkpt lat="45.79233" lon="5.7734">
        <ele>232</ele>
        <time>2018-10-14T17:15:49Z</time>
      </trkpt>
      <trkpt lat="45.79229" lon="5.77338">
        <ele>232</ele>
        <time>2018-10-14T17:16:05Z</time>
      </trkpt>
      <trkpt lat="45.79224" lon="5.77337">
        <ele>232</ele>
        <time>2018-10-14T17:16:05Z</time>
      </trkpt>
      <trkpt lat="45.79218" lon="5.77336">
        <ele>232</ele>
        <time>2018-10-14T17:16:05Z</time>
      </trkpt>
      <trkpt lat="45.79212" lon="5.77334">
        <ele>232</ele>
        <time>2018-10-14T17:16:05Z</time>
      </trkpt>
      <trkpt lat="45.79206" lon="5.77333">
        <ele>232</ele>
        <time>2018-10-14T17:16:21Z</time>
      </trkpt>
      <trkpt lat="45.79202" lon="5.77332">
        <ele>232</ele>
        <time>2018-10-14T17:16:21Z</time>
      </trkpt>
      <trkpt lat="45.79196" lon="5.77332">
        <ele>232</ele>
        <time>2018-10-14T17:16:21Z</time>
      </trkpt>
      <trkpt lat="45.7919" lon="5.77331">
        <ele>232</ele>
        <time>2018-10-14T17:16:21Z</time>
      </trkpt>
      <trkpt lat="45.79184" lon="5.7733">
        <ele>232</ele>
        <time>2018-10-14T17:16:37Z</time>
      </trkpt>
      <trkpt lat="45.79178" lon="5.77329">
        <ele>232</ele>
        <time>2018-10-14T17:16:37Z</time>
      </trkpt>
      <trkpt lat="45.79173" lon="5.77328">
        <ele>232</ele>
        <time>2018-10-14T17:16:37Z</time>
      </trkpt>
      <trkpt lat="45.79167" lon="5.77327">
        <ele>232</ele>
        <time>2018-10-14T17:16:37Z</time>
      </trkpt>
      <trkpt lat="45.79162" lon="5.77324">
        <ele>232</ele>
        <time>2018-10-14T17:16:53Z</time>
      </trkpt>
      <trkpt lat="45.79157" lon="5.77323">
        <ele>232</ele>
        <time>2018-10-14T17:16:53Z</time>
      </trkpt>
      <trkpt lat="45.79151" lon="5.77322">
        <ele>232</ele>
        <time>2018-10-14T17:16:53Z</time>
      </trkpt>
      <trkpt lat="45.79145" lon="5.77321">
        <ele>232</ele>
        <time>2018-10-14T17:16:53Z</time>
      </trkpt>
      <trkpt lat="45.79139" lon="5.7732">
        <ele>232</ele>
        <time>2018-10-14T17:17:09Z</time>
      </trkpt>
      <trkpt lat="45.79134" lon="5.77319">
        <ele>232</ele>
        <time>2018-10-14T17:17:09Z</time>
      </trkpt>
      <trkpt lat="45.79128" lon="5.77318">
        <ele>232</ele>
        <time>2018-10-14T17:17:09Z</time>
      </trkpt>
      <trkpt lat="45.79123" lon="5.77317">
        <ele>231</ele>
        <time>2018-10-14T17:17:09Z</time>
      </trkpt>
      <trkpt lat="45.79117" lon="5.77316">
        <ele>231</ele>
        <time>2018-10-14T17:17:25Z</time>
      </trkpt>
      <trkpt lat="45.79112" lon="5.77315">
        <ele>231</ele>
        <time>2018-10-14T17:17:25Z</time>
      </trkpt>
      <trkpt lat="45.79104" lon="5.77316">
        <ele>231</ele>
        <time>2018-10-14T17:17:25Z</time>
      </trkpt>
      <trkpt lat="45.79098" lon="5.77315">
        <ele>231</ele>
        <time>2018-10-14T17:17:25Z</time>
      </trkpt>
      <trkpt lat="45.79092" lon="5.77315">
        <ele>231</ele>
        <time>2018-10-14T17:17:41Z</time>
      </trkpt>
      <trkpt lat="45.79087" lon="5.77314">
        <ele>231</ele>
        <time>2018-10-14T17:17:41Z</time>
      </trkpt>
      <trkpt lat="45.79082" lon="5.77312">
        <ele>231</ele>
        <time>2018-10-14T17:17:41Z</time>
      </trkpt>
      <trkpt lat="45.79076" lon="5.7731">
        <ele>231</ele>
        <time>2018-10-14T17:17:41Z</time>
      </trkpt>
      <trkpt lat="45.7907" lon="5.77308">
        <ele>231</ele>
        <time>2018-10-14T17:17:57Z</time>
      </trkpt>
      <trkpt lat="45.79065" lon="5.77305">
        <ele>231</ele>
        <time>2018-10-14T17:17:57Z</time>
      </trkpt>
      <trkpt lat="45.7906" lon="5.77304">
        <ele>231</ele>
        <time>2018-10-14T17:17:57Z</time>
      </trkpt>
      <trkpt lat="45.79055" lon="5.77302">
        <ele>231</ele>
        <time>2018-10-14T17:17:57Z</time>
      </trkpt>
      <trkpt lat="45.7905" lon="5.77301">
        <ele>231</ele>
        <time>2018-10-14T17:18:13Z</time>
      </trkpt>
      <trkpt lat="45.79045" lon="5.77301">
        <ele>231</ele>
        <time>2018-10-14T17:18:13Z</time>
      </trkpt>
      <trkpt lat="45.79039" lon="5.77301">
        <ele>232</ele>
        <time>2018-10-14T17:18:13Z</time>
      </trkpt>
      <trkpt lat="45.79032" lon="5.77301">
        <ele>232</ele>
        <time>2018-10-14T17:18:13Z</time>
      </trkpt>
      <trkpt lat="45.79026" lon="5.77301">
        <ele>232</ele>
        <time>2018-10-14T17:18:29Z</time>
      </trkpt>
      <trkpt lat="45.7902" lon="5.77299">
        <ele>232</ele>
        <time>2018-10-14T17:18:29Z</time>
      </trkpt>
      <trkpt lat="45.79013" lon="5.77296">
        <ele>232</ele>
        <time>2018-10-14T17:18:29Z</time>
      </trkpt>
      <trkpt lat="45.79007" lon="5.77294">
        <ele>232</ele>
        <time>2018-10-14T17:18:29Z</time>
      </trkpt>
      <trkpt lat="45.79001" lon="5.77293">
        <ele>232</ele>
        <time>2018-10-14T17:18:45Z</time>
      </trkpt>
      <trkpt lat="45.78995" lon="5.77292">
        <ele>232</ele>
        <time>2018-10-14T17:18:45Z</time>
      </trkpt>
      <trkpt lat="45.78989" lon="5.7729">
        <ele>232</ele>
        <time>2018-10-14T17:18:45Z</time>
      </trkpt>
      <trkpt lat="45.78983" lon="5.77288">
        <ele>232</ele>
        <time>2018-10-14T17:18:45Z</time>
      </trkpt>
      <trkpt lat="45.78976" lon="5.77287">
        <ele>232</ele>
        <time>2018-10-14T17:19:01Z</time>
      </trkpt>
      <trkpt lat="45.78971" lon="5.77286">
        <ele>232</ele>
        <time>2018-10-14T17:19:01Z</time>
      </trkpt>
      <trkpt lat="45.78966" lon="5.77286">
        <ele>232</ele>
        <time>2018-10-14T17:19:01Z</time>
      </trkpt>
      <trkpt lat="45.7896" lon="5.77285">
        <ele>232</ele>
        <time>2018-10-14T17:19:01Z</time>
      </trkpt>
      <trkpt lat="45.78954" lon="5.77284">
        <ele>232</ele>
        <time>2018-10-14T17:19:17Z</time>
      </trkpt>
      <trkpt lat="45.78949" lon="5.77283">
        <ele>232</ele>
        <time>2018-10-14T17:19:17Z</time>
      </trkpt>
      <trkpt lat="45.78941" lon="5.77281">
        <ele>232</ele>
        <time>2018-10-14T17:19:17Z</time>
      </trkpt>
      <trkpt lat="45.78935" lon="5.77279">
        <ele>232</ele>
        <time>2018-10-14T17:19:17Z</time>
      </trkpt>
      <trkpt lat="45.78929" lon="5.77277">
        <ele>232</ele>
        <time>2018-10-14T17:19:33Z</time>
      </trkpt>
      <trkpt lat="45.78921" lon="5.77276">
        <ele>232</ele>
        <time>2018-10-14T17:19:33Z</time>
      </trkpt>
      <trkpt lat="45.78915" lon="5.77274">
        <ele>232</ele>
        <time>2018-10-14T17:19:33Z</time>
      </trkpt>
      <trkpt lat="45.78909" lon="5.77274">
        <ele>232</ele>
        <time>2018-10-14T17:19:33Z</time>
      </trkpt>
      <trkpt lat="45.78902" lon="5.77273">
        <ele>232</ele>
        <time>2018-10-14T17:19:49Z</time>
      </trkpt>
      <trkpt lat="45.78897" lon="5.77271">
        <ele>232</ele>
        <time>2018-10-14T17:19:49Z</time>
      </trkpt>
      <trkpt lat="45.78892" lon="5.77269">
        <ele>232</ele>
        <time>2018-10-14T17:19:49Z</time>
      </trkpt>
      <trkpt lat="45.78888" lon="5.77266">
        <ele>232</ele>
        <time>2018-10-14T17:19:49Z</time>
      </trkpt>
      <trkpt lat="45.78882" lon="5.77265">
        <ele>232</ele>
        <time>2018-10-14T17:20:05Z</time>
      </trkpt>
      <trkpt lat="45.78876" lon="5.77264">
        <ele>232</ele>
        <time>2018-10-14T17:20:05Z</time>
      </trkpt>
      <trkpt lat="45.78871" lon="5.77263">
        <ele>230</ele>
        <time>2018-10-14T17:20:05Z</time>
      </trkpt>
      <trkpt lat="45.78866" lon="5.77262">
        <ele>230</ele>
        <time>2018-10-14T17:20:05Z</time>
      </trkpt>
      <trkpt lat="45.78861" lon="5.77261">
        <ele>230</ele>
        <time>2018-10-14T17:20:21Z</time>
      </trkpt>
      <trkpt lat="45.78854" lon="5.77259">
        <ele>230</ele>
        <time>2018-10-14T17:20:21Z</time>
      </trkpt>
      <trkpt lat="45.78847" lon="5.77258">
        <ele>230</ele>
        <time>2018-10-14T17:20:21Z</time>
      </trkpt>
      <trkpt lat="45.78841" lon="5.77257">
        <ele>230</ele>
        <time>2018-10-14T17:20:21Z</time>
      </trkpt>
      <trkpt lat="45.78835" lon="5.77256">
        <ele>230</ele>
        <time>2018-10-14T17:20:37Z</time>
      </trkpt>
      <trkpt lat="45.7883" lon="5.77254">
        <ele>230</ele>
        <time>2018-10-14T17:20:37Z</time>
      </trkpt>
      <trkpt lat="45.78825" lon="5.77253">
        <ele>230</ele>
        <time>2018-10-14T17:20:37Z</time>
      </trkpt>
      <trkpt lat="45.78819" lon="5.77251">
        <ele>230</ele>
        <time>2018-10-14T17:20:37Z</time>
      </trkpt>
      <trkpt lat="45.78813" lon="5.7725">
        <ele>230</ele>
        <time>2018-10-14T17:20:53Z</time>
      </trkpt>
      <trkpt lat="45.78806" lon="5.7725">
        <ele>230</ele>
        <time>2018-10-14T17:20:53Z</time>
      </trkpt>
      <trkpt lat="45.788" lon="5.77249">
        <ele>230</ele>
        <time>2018-10-14T17:20:53Z</time>
      </trkpt>
      <trkpt lat="45.78794" lon="5.77247">
        <ele>230</ele>
        <time>2018-10-14T17:20:53Z</time>
      </trkpt>
      <trkpt lat="45.78788" lon="5.77245">
        <ele>232</ele>
        <time>2018-10-14T17:21:09Z</time>
      </trkpt>
      <trkpt lat="45.78781" lon="5.77244">
        <ele>232</ele>
        <time>2018-10-14T17:21:09Z</time>
      </trkpt>
      <trkpt lat="45.78775" lon="5.77243">
        <ele>232</ele>
        <time>2018-10-14T17:21:09Z</time>
      </trkpt>
      <trkpt lat="45.78769" lon="5.77242">
        <ele>232</ele>
        <time>2018-10-14T17:21:09Z</time>
      </trkpt>
      <trkpt lat="45.78763" lon="5.77242">
        <ele>232</ele>
        <time>2018-10-14T17:21:25Z</time>
      </trkpt>
      <trkpt lat="45.78758" lon="5.7724">
        <ele>232</ele>
        <time>2018-10-14T17:21:25Z</time>
      </trkpt>
      <trkpt lat="45.78754" lon="5.77238">
        <ele>232</ele>
        <time>2018-10-14T17:21:25Z</time>
      </trkpt>
      <trkpt lat="45.78749" lon="5.77235">
        <ele>232</ele>
        <time>2018-10-14T17:21:25Z</time>
      </trkpt>
      <trkpt lat="45.78743" lon="5.7723">
        <ele>232</ele>
        <time>2018-10-14T17:22:21Z</time>
      </trkpt>
      <trkpt lat="45.78741" lon="5.77232">
        <ele>232</ele>
        <time>2018-10-14T17:22:21Z</time>
      </trkpt>
      <trkpt lat="45.78736" lon="5.77234">
        <ele>232</ele>
        <time>2018-10-14T17:22:21Z</time>
      </trkpt>
      <trkpt lat="45.78732" lon="5.77233">
        <ele>232</ele>
        <time>2018-10-14T17:22:21Z</time>
      </trkpt>
      <trkpt lat="45.78728" lon="5.77234">
        <ele>232</ele>
        <time>2018-10-14T17:22:21Z</time>
      </trkpt>
      <trkpt lat="45.78727" lon="5.77234">
        <ele>232</ele>
        <time>2018-10-14T17:22:53Z</time>
      </trkpt>
      <trkpt lat="45.78723" lon="5.77233">
        <ele>232</ele>
        <time>2018-10-14T17:22:53Z</time>
      </trkpt>
      <trkpt lat="45.78721" lon="5.77233">
        <ele>232</ele>
        <time>2018-10-14T17:22:53Z</time>
      </trkpt>
      <trkpt lat="45.78718" lon="5.77232">
        <ele>232</ele>
        <time>2018-10-14T17:22:53Z</time>
      </trkpt>
      <trkpt lat="45.78713" lon="5.7723">
        <ele>232</ele>
        <time>2018-10-14T17:22:53Z</time>
      </trkpt>
      <trkpt lat="45.78709" lon="5.77229">
        <ele>232</ele>
        <time>2018-10-14T17:23:09Z</time>
      </trkpt>
      <trkpt lat="45.78705" lon="5.77228">
        <ele>229</ele>
        <time>2018-10-14T17:23:09Z</time>
      </trkpt>
      <trkpt lat="45.787" lon="5.77226">
        <ele>229</ele>
        <time>2018-10-14T17:23:09Z</time>
      </trkpt>
      <trkpt lat="45.78695" lon="5.77225">
        <ele>229</ele>
        <time>2018-10-14T17:23:09Z</time>
      </trkpt>
      <trkpt lat="45.78692" lon="5.77225">
        <ele>229</ele>
        <time>2018-10-14T17:23:25Z</time>
      </trkpt>
      <trkpt lat="45.78687" lon="5.77226">
        <ele>229</ele>
        <time>2018-10-14T17:23:25Z</time>
      </trkpt>
      <trkpt lat="45.78681" lon="5.77226">
        <ele>229</ele>
        <time>2018-10-14T17:23:25Z</time>
      </trkpt>
      <trkpt lat="45.78676" lon="5.77225">
        <ele>229</ele>
        <time>2018-10-14T17:23:25Z</time>
      </trkpt>
      <trkpt lat="45.78671" lon="5.77224">
        <ele>229</ele>
        <time>2018-10-14T17:23:41Z</time>
      </trkpt>
      <trkpt lat="45.78667" lon="5.77223">
        <ele>229</ele>
        <time>2018-10-14T17:23:41Z</time>
      </trkpt>
      <trkpt lat="45.78661" lon="5.77219">
        <ele>229</ele>
        <time>2018-10-14T17:23:41Z</time>
      </trkpt>
      <trkpt lat="45.78661" lon="5.77217">
        <ele>229</ele>
        <time>2018-10-14T17:23:41Z</time>
      </trkpt>
      <trkpt lat="45.78662" lon="5.77225">
        <ele>229</ele>
        <time>2018-10-14T17:24:25Z</time>
      </trkpt>
      <trkpt lat="45.78663" lon="5.77226">
        <ele>229</ele>
        <time>2018-10-14T17:24:25Z</time>
      </trkpt>
      <trkpt lat="45.78666" lon="5.77225">
        <ele>229</ele>
        <time>2018-10-14T17:24:25Z</time>
      </trkpt>
      <trkpt lat="45.78669" lon="5.7722">
        <ele>229</ele>
        <time>2018-10-14T17:24:25Z</time>
      </trkpt>
      <trkpt lat="45.78671" lon="5.77219">
        <ele>229</ele>
        <time>2018-10-14T17:24:25Z</time>
      </trkpt>
    </trkseg>
  </trk>
</gpx>